<?xml version="1.0" encoding="UTF-8" standalone="no" ?>
<gpx xmlns="http://www.topografix.com/GPX/1/1" xmlns:xsi="http://www.w3.org/2001/XMLSchema-instance" xsi:schemaLocation="http://www.topografix.com/GPX/1/1 http://www.topografix.com/GPX/1/1/gpx.xsd" version="1.1" creator="VisuGPX - https://www.visugpx.com">
  <metadata>
    <name>Sortie du Dimanche 23 Septembre 2012 : Rando des Monts et Merveilles</name>
    <desc><![CDATA[Dimanche 23 Septembre 2012 : Rando des Monts et Merveilles]]></desc>
  </metadata>
  <trk>
    <name><![CDATA[2012-09-23 Rando des Monts et Merveilles]]></name>
    <trkseg>
      <trkpt lat="47.27503" lon="0.65743">
        <ele>87.9</ele>
        <time>2012-09-23T06:41:27Z</time>
      </trkpt>
      <trkpt lat="47.27497" lon="0.65737">
        <ele>88</ele>
        <time>2012-09-23T06:41:33Z</time>
      </trkpt>
      <trkpt lat="47.27497" lon="0.65727">
        <ele>88</ele>
        <time>2012-09-23T06:41:36Z</time>
      </trkpt>
      <trkpt lat="47.27499" lon="0.65719">
        <ele>88</ele>
        <time>2012-09-23T06:41:38Z</time>
      </trkpt>
      <trkpt lat="47.27502" lon="0.6571">
        <ele>87.9</ele>
        <time>2012-09-23T06:41:40Z</time>
      </trkpt>
      <trkpt lat="47.27504" lon="0.65701">
        <ele>87.9</ele>
        <time>2012-09-23T06:41:42Z</time>
      </trkpt>
      <trkpt lat="47.27507" lon="0.65689">
        <ele>88</ele>
        <time>2012-09-23T06:41:45Z</time>
      </trkpt>
      <trkpt lat="47.27509" lon="0.65681">
        <ele>88</ele>
        <time>2012-09-23T06:41:47Z</time>
      </trkpt>
      <trkpt lat="47.27512" lon="0.65671">
        <ele>88.1</ele>
        <time>2012-09-23T06:41:49Z</time>
      </trkpt>
      <trkpt lat="47.27514" lon="0.65662">
        <ele>88.2</ele>
        <time>2012-09-23T06:41:51Z</time>
      </trkpt>
      <trkpt lat="47.27517" lon="0.65653">
        <ele>88.3</ele>
        <time>2012-09-23T06:41:53Z</time>
      </trkpt>
      <trkpt lat="47.2752" lon="0.65643">
        <ele>88.5</ele>
        <time>2012-09-23T06:41:55Z</time>
      </trkpt>
      <trkpt lat="47.27523" lon="0.65632">
        <ele>88.7</ele>
        <time>2012-09-23T06:41:57Z</time>
      </trkpt>
      <trkpt lat="47.27526" lon="0.65624">
        <ele>88.8</ele>
        <time>2012-09-23T06:41:59Z</time>
      </trkpt>
      <trkpt lat="47.27529" lon="0.65615">
        <ele>88.9</ele>
        <time>2012-09-23T06:42:01Z</time>
      </trkpt>
      <trkpt lat="47.27532" lon="0.65607">
        <ele>89.1</ele>
        <time>2012-09-23T06:42:03Z</time>
      </trkpt>
      <trkpt lat="47.27535" lon="0.65596">
        <ele>89.2</ele>
        <time>2012-09-23T06:42:05Z</time>
      </trkpt>
      <trkpt lat="47.27538" lon="0.65587">
        <ele>89.4</ele>
        <time>2012-09-23T06:42:07Z</time>
      </trkpt>
      <trkpt lat="47.27542" lon="0.65577">
        <ele>89.5</ele>
        <time>2012-09-23T06:42:09Z</time>
      </trkpt>
      <trkpt lat="47.27546" lon="0.65568">
        <ele>89.6</ele>
        <time>2012-09-23T06:42:11Z</time>
      </trkpt>
      <trkpt lat="47.27549" lon="0.6556">
        <ele>89.7</ele>
        <time>2012-09-23T06:42:13Z</time>
      </trkpt>
      <trkpt lat="47.27552" lon="0.65552">
        <ele>89.7</ele>
        <time>2012-09-23T06:42:15Z</time>
      </trkpt>
      <trkpt lat="47.27557" lon="0.65542">
        <ele>89.8</ele>
        <time>2012-09-23T06:42:18Z</time>
      </trkpt>
      <trkpt lat="47.27561" lon="0.65533">
        <ele>89.8</ele>
        <time>2012-09-23T06:42:21Z</time>
      </trkpt>
      <trkpt lat="47.27564" lon="0.65526">
        <ele>89.9</ele>
        <time>2012-09-23T06:42:23Z</time>
      </trkpt>
      <trkpt lat="47.27566" lon="0.65521">
        <ele>89.9</ele>
        <time>2012-09-23T06:42:24Z</time>
      </trkpt>
      <trkpt lat="47.27572" lon="0.65509">
        <ele>89.9</ele>
        <time>2012-09-23T06:42:27Z</time>
      </trkpt>
      <trkpt lat="47.27577" lon="0.65501">
        <ele>90</ele>
        <time>2012-09-23T06:42:29Z</time>
      </trkpt>
      <trkpt lat="47.27581" lon="0.65492">
        <ele>90</ele>
        <time>2012-09-23T06:42:31Z</time>
      </trkpt>
      <trkpt lat="47.27585" lon="0.65482">
        <ele>89.9</ele>
        <time>2012-09-23T06:42:33Z</time>
      </trkpt>
      <trkpt lat="47.2759" lon="0.65472">
        <ele>89.7</ele>
        <time>2012-09-23T06:42:35Z</time>
      </trkpt>
      <trkpt lat="47.27594" lon="0.65463">
        <ele>89.5</ele>
        <time>2012-09-23T06:42:37Z</time>
      </trkpt>
      <trkpt lat="47.27599" lon="0.65453">
        <ele>89.3</ele>
        <time>2012-09-23T06:42:39Z</time>
      </trkpt>
      <trkpt lat="47.27604" lon="0.65443">
        <ele>89</ele>
        <time>2012-09-23T06:42:41Z</time>
      </trkpt>
      <trkpt lat="47.27608" lon="0.65434">
        <ele>88.8</ele>
        <time>2012-09-23T06:42:43Z</time>
      </trkpt>
      <trkpt lat="47.27612" lon="0.65425">
        <ele>88.6</ele>
        <time>2012-09-23T06:42:45Z</time>
      </trkpt>
      <trkpt lat="47.27617" lon="0.65415">
        <ele>88.3</ele>
        <time>2012-09-23T06:42:47Z</time>
      </trkpt>
      <trkpt lat="47.2762" lon="0.65409">
        <ele>88</ele>
        <time>2012-09-23T06:42:48Z</time>
      </trkpt>
      <trkpt lat="47.27625" lon="0.65399">
        <ele>87.5</ele>
        <time>2012-09-23T06:42:50Z</time>
      </trkpt>
      <trkpt lat="47.2763" lon="0.65391">
        <ele>87.2</ele>
        <time>2012-09-23T06:42:52Z</time>
      </trkpt>
      <trkpt lat="47.27637" lon="0.65384">
        <ele>86.8</ele>
        <time>2012-09-23T06:42:54Z</time>
      </trkpt>
      <trkpt lat="47.27641" lon="0.6538">
        <ele>86.6</ele>
        <time>2012-09-23T06:42:55Z</time>
      </trkpt>
      <trkpt lat="47.27649" lon="0.65375">
        <ele>86.4</ele>
        <time>2012-09-23T06:42:57Z</time>
      </trkpt>
      <trkpt lat="47.27855" lon="0.65111">
        <ele>77.6</ele>
        <time>2012-09-23T06:44:07Z</time>
      </trkpt>
      <trkpt lat="47.27847" lon="0.65111">
        <ele>77.9</ele>
        <time>2012-09-23T06:44:11Z</time>
      </trkpt>
      <trkpt lat="47.2784" lon="0.65112">
        <ele>78.3</ele>
        <time>2012-09-23T06:44:14Z</time>
      </trkpt>
      <trkpt lat="47.27834" lon="0.65105">
        <ele>78.4</ele>
        <time>2012-09-23T06:44:18Z</time>
      </trkpt>
      <trkpt lat="47.27829" lon="0.65098">
        <ele>78.8</ele>
        <time>2012-09-23T06:44:22Z</time>
      </trkpt>
      <trkpt lat="47.27824" lon="0.65094">
        <ele>79.2</ele>
        <time>2012-09-23T06:44:24Z</time>
      </trkpt>
      <trkpt lat="47.27818" lon="0.65088">
        <ele>79.7</ele>
        <time>2012-09-23T06:44:26Z</time>
      </trkpt>
      <trkpt lat="47.27814" lon="0.65086">
        <ele>80</ele>
        <time>2012-09-23T06:44:27Z</time>
      </trkpt>
      <trkpt lat="47.27809" lon="0.65079">
        <ele>80.2</ele>
        <time>2012-09-23T06:44:29Z</time>
      </trkpt>
      <trkpt lat="47.27806" lon="0.65073">
        <ele>80.3</ele>
        <time>2012-09-23T06:44:30Z</time>
      </trkpt>
      <trkpt lat="47.278" lon="0.65064">
        <ele>80.4</ele>
        <time>2012-09-23T06:44:32Z</time>
      </trkpt>
      <trkpt lat="47.27797" lon="0.65058">
        <ele>80.6</ele>
        <time>2012-09-23T06:44:33Z</time>
      </trkpt>
      <trkpt lat="47.27792" lon="0.65048">
        <ele>80.7</ele>
        <time>2012-09-23T06:44:35Z</time>
      </trkpt>
      <trkpt lat="47.27789" lon="0.65042">
        <ele>80.8</ele>
        <time>2012-09-23T06:44:36Z</time>
      </trkpt>
      <trkpt lat="47.27786" lon="0.65036">
        <ele>80.8</ele>
        <time>2012-09-23T06:44:37Z</time>
      </trkpt>
      <trkpt lat="47.27782" lon="0.65029">
        <ele>81.1</ele>
        <time>2012-09-23T06:44:38Z</time>
      </trkpt>
      <trkpt lat="47.27779" lon="0.65022">
        <ele>81.3</ele>
        <time>2012-09-23T06:44:39Z</time>
      </trkpt>
      <trkpt lat="47.27774" lon="0.65012">
        <ele>81.7</ele>
        <time>2012-09-23T06:44:41Z</time>
      </trkpt>
      <trkpt lat="47.2777" lon="0.65005">
        <ele>82</ele>
        <time>2012-09-23T06:44:43Z</time>
      </trkpt>
      <trkpt lat="47.27766" lon="0.64994">
        <ele>81.9</ele>
        <time>2012-09-23T06:44:45Z</time>
      </trkpt>
      <trkpt lat="47.27763" lon="0.64982">
        <ele>81.2</ele>
        <time>2012-09-23T06:44:47Z</time>
      </trkpt>
      <trkpt lat="47.27761" lon="0.64972">
        <ele>80.5</ele>
        <time>2012-09-23T06:44:49Z</time>
      </trkpt>
      <trkpt lat="47.27759" lon="0.6496">
        <ele>79.8</ele>
        <time>2012-09-23T06:44:51Z</time>
      </trkpt>
      <trkpt lat="47.27758" lon="0.64954">
        <ele>79.3</ele>
        <time>2012-09-23T06:44:52Z</time>
      </trkpt>
      <trkpt lat="47.27755" lon="0.64947">
        <ele>79.1</ele>
        <time>2012-09-23T06:44:53Z</time>
      </trkpt>
      <trkpt lat="47.27749" lon="0.64939">
        <ele>79.2</ele>
        <time>2012-09-23T06:44:55Z</time>
      </trkpt>
      <trkpt lat="47.27744" lon="0.64932">
        <ele>79.1</ele>
        <time>2012-09-23T06:44:57Z</time>
      </trkpt>
      <trkpt lat="47.27739" lon="0.64926">
        <ele>79.2</ele>
        <time>2012-09-23T06:44:59Z</time>
      </trkpt>
      <trkpt lat="47.27735" lon="0.64918">
        <ele>79</ele>
        <time>2012-09-23T06:45:01Z</time>
      </trkpt>
      <trkpt lat="47.2773" lon="0.64911">
        <ele>79.2</ele>
        <time>2012-09-23T06:45:03Z</time>
      </trkpt>
      <trkpt lat="47.27724" lon="0.64903">
        <ele>79.6</ele>
        <time>2012-09-23T06:45:06Z</time>
      </trkpt>
      <trkpt lat="47.27718" lon="0.64894">
        <ele>80</ele>
        <time>2012-09-23T06:45:09Z</time>
      </trkpt>
      <trkpt lat="47.27711" lon="0.64886">
        <ele>80.6</ele>
        <time>2012-09-23T06:45:13Z</time>
      </trkpt>
      <trkpt lat="47.27696" lon="0.64897">
        <ele>83.2</ele>
        <time>2012-09-23T06:45:24Z</time>
      </trkpt>
      <trkpt lat="47.27702" lon="0.64896">
        <ele>82.3</ele>
        <time>2012-09-23T06:46:12Z</time>
      </trkpt>
      <trkpt lat="47.27707" lon="0.64893">
        <ele>81.6</ele>
        <time>2012-09-23T06:46:13Z</time>
      </trkpt>
      <trkpt lat="47.27714" lon="0.64888">
        <ele>80.2</ele>
        <time>2012-09-23T06:46:15Z</time>
      </trkpt>
      <trkpt lat="47.27721" lon="0.64882">
        <ele>78.9</ele>
        <time>2012-09-23T06:46:17Z</time>
      </trkpt>
      <trkpt lat="47.27727" lon="0.64877">
        <ele>77.8</ele>
        <time>2012-09-23T06:46:19Z</time>
      </trkpt>
      <trkpt lat="47.27731" lon="0.64874">
        <ele>77.1</ele>
        <time>2012-09-23T06:46:20Z</time>
      </trkpt>
      <trkpt lat="47.27736" lon="0.64872">
        <ele>76.2</ele>
        <time>2012-09-23T06:46:21Z</time>
      </trkpt>
      <trkpt lat="47.27742" lon="0.64869">
        <ele>75.2</ele>
        <time>2012-09-23T06:46:22Z</time>
      </trkpt>
      <trkpt lat="47.27748" lon="0.64865">
        <ele>74.1</ele>
        <time>2012-09-23T06:46:23Z</time>
      </trkpt>
      <trkpt lat="47.27754" lon="0.64863">
        <ele>73.3</ele>
        <time>2012-09-23T06:46:24Z</time>
      </trkpt>
      <trkpt lat="47.2776" lon="0.64858">
        <ele>72.4</ele>
        <time>2012-09-23T06:46:25Z</time>
      </trkpt>
      <trkpt lat="47.27765" lon="0.64853">
        <ele>71.7</ele>
        <time>2012-09-23T06:46:26Z</time>
      </trkpt>
      <trkpt lat="47.27769" lon="0.64847">
        <ele>70.9</ele>
        <time>2012-09-23T06:46:27Z</time>
      </trkpt>
      <trkpt lat="47.27774" lon="0.64838">
        <ele>70.2</ele>
        <time>2012-09-23T06:46:28Z</time>
      </trkpt>
      <trkpt lat="47.27776" lon="0.64829">
        <ele>69.6</ele>
        <time>2012-09-23T06:46:29Z</time>
      </trkpt>
      <trkpt lat="47.28253" lon="0.64497">
        <ele>48</ele>
        <time>2012-09-23T06:48:18Z</time>
      </trkpt>
      <trkpt lat="47.28248" lon="0.64489">
        <ele>48</ele>
        <time>2012-09-23T06:48:20Z</time>
      </trkpt>
      <trkpt lat="47.28244" lon="0.64485">
        <ele>48.2</ele>
        <time>2012-09-23T06:48:21Z</time>
      </trkpt>
      <trkpt lat="47.2824" lon="0.6448">
        <ele>48.3</ele>
        <time>2012-09-23T06:48:22Z</time>
      </trkpt>
      <trkpt lat="47.28235" lon="0.64474">
        <ele>48.5</ele>
        <time>2012-09-23T06:48:23Z</time>
      </trkpt>
      <trkpt lat="47.2823" lon="0.64468">
        <ele>48.8</ele>
        <time>2012-09-23T06:48:24Z</time>
      </trkpt>
      <trkpt lat="47.28224" lon="0.64463">
        <ele>49</ele>
        <time>2012-09-23T06:48:25Z</time>
      </trkpt>
      <trkpt lat="47.28219" lon="0.64458">
        <ele>49.3</ele>
        <time>2012-09-23T06:48:26Z</time>
      </trkpt>
      <trkpt lat="47.28213" lon="0.64452">
        <ele>49.6</ele>
        <time>2012-09-23T06:48:27Z</time>
      </trkpt>
      <trkpt lat="47.28207" lon="0.64447">
        <ele>49.8</ele>
        <time>2012-09-23T06:48:28Z</time>
      </trkpt>
      <trkpt lat="47.28202" lon="0.64441">
        <ele>50.1</ele>
        <time>2012-09-23T06:48:29Z</time>
      </trkpt>
      <trkpt lat="47.28196" lon="0.64435">
        <ele>50.4</ele>
        <time>2012-09-23T06:48:30Z</time>
      </trkpt>
      <trkpt lat="47.28191" lon="0.64429">
        <ele>50.7</ele>
        <time>2012-09-23T06:48:31Z</time>
      </trkpt>
      <trkpt lat="47.28185" lon="0.64423">
        <ele>51</ele>
        <time>2012-09-23T06:48:32Z</time>
      </trkpt>
      <trkpt lat="47.28181" lon="0.64418">
        <ele>51.3</ele>
        <time>2012-09-23T06:48:33Z</time>
      </trkpt>
      <trkpt lat="47.28176" lon="0.64411">
        <ele>51.4</ele>
        <time>2012-09-23T06:48:34Z</time>
      </trkpt>
      <trkpt lat="47.28171" lon="0.64406">
        <ele>51.5</ele>
        <time>2012-09-23T06:48:35Z</time>
      </trkpt>
      <trkpt lat="47.28167" lon="0.64401">
        <ele>51.6</ele>
        <time>2012-09-23T06:48:36Z</time>
      </trkpt>
      <trkpt lat="47.28162" lon="0.64396">
        <ele>51.5</ele>
        <time>2012-09-23T06:48:37Z</time>
      </trkpt>
      <trkpt lat="47.28157" lon="0.64391">
        <ele>51.4</ele>
        <time>2012-09-23T06:48:38Z</time>
      </trkpt>
      <trkpt lat="47.28151" lon="0.64385">
        <ele>51.3</ele>
        <time>2012-09-23T06:48:39Z</time>
      </trkpt>
      <trkpt lat="47.28144" lon="0.64378">
        <ele>51.3</ele>
        <time>2012-09-23T06:48:40Z</time>
      </trkpt>
      <trkpt lat="47.28139" lon="0.64372">
        <ele>51.2</ele>
        <time>2012-09-23T06:48:41Z</time>
      </trkpt>
      <trkpt lat="47.28133" lon="0.64365">
        <ele>51.2</ele>
        <time>2012-09-23T06:48:42Z</time>
      </trkpt>
      <trkpt lat="47.28129" lon="0.6436">
        <ele>51.2</ele>
        <time>2012-09-23T06:48:43Z</time>
      </trkpt>
      <trkpt lat="47.28123" lon="0.64354">
        <ele>51.2</ele>
        <time>2012-09-23T06:48:44Z</time>
      </trkpt>
      <trkpt lat="47.28118" lon="0.64348">
        <ele>51.3</ele>
        <time>2012-09-23T06:48:45Z</time>
      </trkpt>
      <trkpt lat="47.28113" lon="0.6434">
        <ele>51.3</ele>
        <time>2012-09-23T06:48:46Z</time>
      </trkpt>
      <trkpt lat="47.28108" lon="0.64333">
        <ele>51.3</ele>
        <time>2012-09-23T06:48:47Z</time>
      </trkpt>
      <trkpt lat="47.28104" lon="0.64325">
        <ele>51.4</ele>
        <time>2012-09-23T06:48:48Z</time>
      </trkpt>
      <trkpt lat="47.28099" lon="0.64318">
        <ele>51.5</ele>
        <time>2012-09-23T06:48:49Z</time>
      </trkpt>
      <trkpt lat="47.28094" lon="0.64311">
        <ele>51.6</ele>
        <time>2012-09-23T06:48:50Z</time>
      </trkpt>
      <trkpt lat="47.2809" lon="0.64305">
        <ele>51.7</ele>
        <time>2012-09-23T06:48:51Z</time>
      </trkpt>
      <trkpt lat="47.28086" lon="0.64299">
        <ele>51.9</ele>
        <time>2012-09-23T06:48:52Z</time>
      </trkpt>
      <trkpt lat="47.28082" lon="0.64293">
        <ele>51.9</ele>
        <time>2012-09-23T06:48:53Z</time>
      </trkpt>
      <trkpt lat="47.28078" lon="0.64286">
        <ele>51.8</ele>
        <time>2012-09-23T06:48:54Z</time>
      </trkpt>
      <trkpt lat="47.28073" lon="0.64277">
        <ele>51.6</ele>
        <time>2012-09-23T06:48:55Z</time>
      </trkpt>
      <trkpt lat="47.28068" lon="0.64268">
        <ele>51.4</ele>
        <time>2012-09-23T06:48:56Z</time>
      </trkpt>
      <trkpt lat="47.28064" lon="0.6426">
        <ele>51.3</ele>
        <time>2012-09-23T06:48:57Z</time>
      </trkpt>
      <trkpt lat="47.2806" lon="0.64252">
        <ele>51.1</ele>
        <time>2012-09-23T06:48:58Z</time>
      </trkpt>
      <trkpt lat="47.28056" lon="0.64245">
        <ele>50.8</ele>
        <time>2012-09-23T06:48:59Z</time>
      </trkpt>
      <trkpt lat="47.28051" lon="0.64237">
        <ele>50.4</ele>
        <time>2012-09-23T06:49:00Z</time>
      </trkpt>
      <trkpt lat="47.28047" lon="0.64229">
        <ele>50.2</ele>
        <time>2012-09-23T06:49:01Z</time>
      </trkpt>
      <trkpt lat="47.28042" lon="0.64221">
        <ele>49.9</ele>
        <time>2012-09-23T06:49:02Z</time>
      </trkpt>
      <trkpt lat="47.28038" lon="0.64213">
        <ele>49.7</ele>
        <time>2012-09-23T06:49:03Z</time>
      </trkpt>
      <trkpt lat="47.28033" lon="0.64206">
        <ele>49.6</ele>
        <time>2012-09-23T06:49:04Z</time>
      </trkpt>
      <trkpt lat="47.28029" lon="0.64199">
        <ele>49.5</ele>
        <time>2012-09-23T06:49:05Z</time>
      </trkpt>
      <trkpt lat="47.28025" lon="0.64193">
        <ele>49.5</ele>
        <time>2012-09-23T06:49:06Z</time>
      </trkpt>
      <trkpt lat="47.2802" lon="0.64185">
        <ele>49.5</ele>
        <time>2012-09-23T06:49:07Z</time>
      </trkpt>
      <trkpt lat="47.28015" lon="0.64177">
        <ele>49.6</ele>
        <time>2012-09-23T06:49:08Z</time>
      </trkpt>
      <trkpt lat="47.28011" lon="0.64169">
        <ele>49.7</ele>
        <time>2012-09-23T06:49:09Z</time>
      </trkpt>
      <trkpt lat="47.28007" lon="0.64163">
        <ele>49.7</ele>
        <time>2012-09-23T06:49:10Z</time>
      </trkpt>
      <trkpt lat="47.28005" lon="0.64156">
        <ele>49.7</ele>
        <time>2012-09-23T06:49:11Z</time>
      </trkpt>
      <trkpt lat="47.28001" lon="0.64149">
        <ele>49.7</ele>
        <time>2012-09-23T06:49:12Z</time>
      </trkpt>
      <trkpt lat="47.27997" lon="0.64141">
        <ele>49.8</ele>
        <time>2012-09-23T06:49:13Z</time>
      </trkpt>
      <trkpt lat="47.27994" lon="0.64135">
        <ele>49.9</ele>
        <time>2012-09-23T06:49:14Z</time>
      </trkpt>
      <trkpt lat="47.2799" lon="0.64128">
        <ele>50</ele>
        <time>2012-09-23T06:49:15Z</time>
      </trkpt>
      <trkpt lat="47.27985" lon="0.64123">
        <ele>50.3</ele>
        <time>2012-09-23T06:49:16Z</time>
      </trkpt>
      <trkpt lat="47.27979" lon="0.64117">
        <ele>50.5</ele>
        <time>2012-09-23T06:49:17Z</time>
      </trkpt>
      <trkpt lat="47.27972" lon="0.6411">
        <ele>50.9</ele>
        <time>2012-09-23T06:49:18Z</time>
      </trkpt>
      <trkpt lat="47.27965" lon="0.64104">
        <ele>51.4</ele>
        <time>2012-09-23T06:49:19Z</time>
      </trkpt>
      <trkpt lat="47.27959" lon="0.64099">
        <ele>51.8</ele>
        <time>2012-09-23T06:49:20Z</time>
      </trkpt>
      <trkpt lat="47.27953" lon="0.64094">
        <ele>52.3</ele>
        <time>2012-09-23T06:49:21Z</time>
      </trkpt>
      <trkpt lat="47.27947" lon="0.64089">
        <ele>52.7</ele>
        <time>2012-09-23T06:49:22Z</time>
      </trkpt>
      <trkpt lat="47.2794" lon="0.64087">
        <ele>53.2</ele>
        <time>2012-09-23T06:49:23Z</time>
      </trkpt>
      <trkpt lat="47.27933" lon="0.64088">
        <ele>53.7</ele>
        <time>2012-09-23T06:49:24Z</time>
      </trkpt>
      <trkpt lat="47.27764" lon="0.63778">
        <ele>48.4</ele>
        <time>2012-09-23T06:50:22Z</time>
      </trkpt>
      <trkpt lat="47.2777" lon="0.6377">
        <ele>48.2</ele>
        <time>2012-09-23T06:50:24Z</time>
      </trkpt>
      <trkpt lat="47.27777" lon="0.63763">
        <ele>47.9</ele>
        <time>2012-09-23T06:50:26Z</time>
      </trkpt>
      <trkpt lat="47.27781" lon="0.63763">
        <ele>47.9</ele>
        <time>2012-09-23T06:50:27Z</time>
      </trkpt>
      <trkpt lat="47.27786" lon="0.6376">
        <ele>47.8</ele>
        <time>2012-09-23T06:50:28Z</time>
      </trkpt>
      <trkpt lat="47.27792" lon="0.63757">
        <ele>47.6</ele>
        <time>2012-09-23T06:50:29Z</time>
      </trkpt>
      <trkpt lat="47.27798" lon="0.63754">
        <ele>47.5</ele>
        <time>2012-09-23T06:50:30Z</time>
      </trkpt>
      <trkpt lat="47.27804" lon="0.63751">
        <ele>47.3</ele>
        <time>2012-09-23T06:50:31Z</time>
      </trkpt>
      <trkpt lat="47.27811" lon="0.63748">
        <ele>47.3</ele>
        <time>2012-09-23T06:50:32Z</time>
      </trkpt>
      <trkpt lat="47.27817" lon="0.63745">
        <ele>47.2</ele>
        <time>2012-09-23T06:50:33Z</time>
      </trkpt>
      <trkpt lat="47.27824" lon="0.63742">
        <ele>47.2</ele>
        <time>2012-09-23T06:50:34Z</time>
      </trkpt>
      <trkpt lat="47.2783" lon="0.63739">
        <ele>47.1</ele>
        <time>2012-09-23T06:50:35Z</time>
      </trkpt>
      <trkpt lat="47.27834" lon="0.63734">
        <ele>47.1</ele>
        <time>2012-09-23T06:50:36Z</time>
      </trkpt>
      <trkpt lat="47.27837" lon="0.63729">
        <ele>47.3</ele>
        <time>2012-09-23T06:50:37Z</time>
      </trkpt>
      <trkpt lat="47.27841" lon="0.63724">
        <ele>47.4</ele>
        <time>2012-09-23T06:50:38Z</time>
      </trkpt>
      <trkpt lat="47.27846" lon="0.6372">
        <ele>47.5</ele>
        <time>2012-09-23T06:50:39Z</time>
      </trkpt>
      <trkpt lat="47.27851" lon="0.63716">
        <ele>47.7</ele>
        <time>2012-09-23T06:50:40Z</time>
      </trkpt>
      <trkpt lat="47.27855" lon="0.6371">
        <ele>47.8</ele>
        <time>2012-09-23T06:50:41Z</time>
      </trkpt>
      <trkpt lat="47.27858" lon="0.63704">
        <ele>48</ele>
        <time>2012-09-23T06:50:42Z</time>
      </trkpt>
      <trkpt lat="47.27861" lon="0.63696">
        <ele>48.2</ele>
        <time>2012-09-23T06:50:43Z</time>
      </trkpt>
      <trkpt lat="47.27864" lon="0.63689">
        <ele>48.3</ele>
        <time>2012-09-23T06:50:44Z</time>
      </trkpt>
      <trkpt lat="47.27866" lon="0.63681">
        <ele>48.5</ele>
        <time>2012-09-23T06:50:45Z</time>
      </trkpt>
      <trkpt lat="47.27868" lon="0.63673">
        <ele>48.7</ele>
        <time>2012-09-23T06:50:46Z</time>
      </trkpt>
      <trkpt lat="47.2787" lon="0.63665">
        <ele>48.9</ele>
        <time>2012-09-23T06:50:47Z</time>
      </trkpt>
      <trkpt lat="47.2787" lon="0.63658">
        <ele>49.2</ele>
        <time>2012-09-23T06:50:48Z</time>
      </trkpt>
      <trkpt lat="47.27871" lon="0.63651">
        <ele>49.6</ele>
        <time>2012-09-23T06:50:49Z</time>
      </trkpt>
      <trkpt lat="47.27872" lon="0.63644">
        <ele>49.9</ele>
        <time>2012-09-23T06:50:50Z</time>
      </trkpt>
      <trkpt lat="47.27874" lon="0.63634">
        <ele>50.3</ele>
        <time>2012-09-23T06:50:51Z</time>
      </trkpt>
      <trkpt lat="47.27876" lon="0.63627">
        <ele>50.6</ele>
        <time>2012-09-23T06:50:52Z</time>
      </trkpt>
      <trkpt lat="47.27877" lon="0.6362">
        <ele>51</ele>
        <time>2012-09-23T06:50:53Z</time>
      </trkpt>
      <trkpt lat="47.27879" lon="0.63611">
        <ele>51.4</ele>
        <time>2012-09-23T06:50:54Z</time>
      </trkpt>
      <trkpt lat="47.27881" lon="0.63602">
        <ele>51.9</ele>
        <time>2012-09-23T06:50:55Z</time>
      </trkpt>
      <trkpt lat="47.27881" lon="0.63595">
        <ele>52.2</ele>
        <time>2012-09-23T06:50:56Z</time>
      </trkpt>
      <trkpt lat="47.27882" lon="0.63588">
        <ele>52.5</ele>
        <time>2012-09-23T06:50:57Z</time>
      </trkpt>
      <trkpt lat="47.27883" lon="0.63581">
        <ele>52.7</ele>
        <time>2012-09-23T06:50:58Z</time>
      </trkpt>
      <trkpt lat="47.27884" lon="0.63573">
        <ele>52.7</ele>
        <time>2012-09-23T06:50:59Z</time>
      </trkpt>
      <trkpt lat="47.27885" lon="0.63565">
        <ele>52.7</ele>
        <time>2012-09-23T06:51:00Z</time>
      </trkpt>
      <trkpt lat="47.27886" lon="0.63556">
        <ele>52.7</ele>
        <time>2012-09-23T06:51:01Z</time>
      </trkpt>
      <trkpt lat="47.27887" lon="0.63549">
        <ele>52.7</ele>
        <time>2012-09-23T06:51:02Z</time>
      </trkpt>
      <trkpt lat="47.27888" lon="0.63536">
        <ele>52.7</ele>
        <time>2012-09-23T06:51:04Z</time>
      </trkpt>
      <trkpt lat="47.27889" lon="0.63529">
        <ele>52.8</ele>
        <time>2012-09-23T06:51:05Z</time>
      </trkpt>
      <trkpt lat="47.2789" lon="0.63522">
        <ele>52.8</ele>
        <time>2012-09-23T06:51:06Z</time>
      </trkpt>
      <trkpt lat="47.27891" lon="0.63515">
        <ele>52.8</ele>
        <time>2012-09-23T06:51:07Z</time>
      </trkpt>
      <trkpt lat="47.27893" lon="0.63507">
        <ele>52.8</ele>
        <time>2012-09-23T06:51:08Z</time>
      </trkpt>
      <trkpt lat="47.27894" lon="0.635">
        <ele>52.9</ele>
        <time>2012-09-23T06:51:09Z</time>
      </trkpt>
      <trkpt lat="47.27896" lon="0.63492">
        <ele>52.9</ele>
        <time>2012-09-23T06:51:10Z</time>
      </trkpt>
      <trkpt lat="47.27898" lon="0.63486">
        <ele>52.9</ele>
        <time>2012-09-23T06:51:11Z</time>
      </trkpt>
      <trkpt lat="47.279" lon="0.63479">
        <ele>52.9</ele>
        <time>2012-09-23T06:51:12Z</time>
      </trkpt>
      <trkpt lat="47.27901" lon="0.63473">
        <ele>52.9</ele>
        <time>2012-09-23T06:51:13Z</time>
      </trkpt>
      <trkpt lat="47.27903" lon="0.63465">
        <ele>52.9</ele>
        <time>2012-09-23T06:51:14Z</time>
      </trkpt>
      <trkpt lat="47.27905" lon="0.63458">
        <ele>52.9</ele>
        <time>2012-09-23T06:51:15Z</time>
      </trkpt>
      <trkpt lat="47.27907" lon="0.6345">
        <ele>52.9</ele>
        <time>2012-09-23T06:51:16Z</time>
      </trkpt>
      <trkpt lat="47.27909" lon="0.63441">
        <ele>52.9</ele>
        <time>2012-09-23T06:51:17Z</time>
      </trkpt>
      <trkpt lat="47.27911" lon="0.63433">
        <ele>52.9</ele>
        <time>2012-09-23T06:51:18Z</time>
      </trkpt>
      <trkpt lat="47.27912" lon="0.63425">
        <ele>52.8</ele>
        <time>2012-09-23T06:51:19Z</time>
      </trkpt>
      <trkpt lat="47.27914" lon="0.63417">
        <ele>52.8</ele>
        <time>2012-09-23T06:51:20Z</time>
      </trkpt>
      <trkpt lat="47.27915" lon="0.63409">
        <ele>52.8</ele>
        <time>2012-09-23T06:51:21Z</time>
      </trkpt>
      <trkpt lat="47.27916" lon="0.63401">
        <ele>52.7</ele>
        <time>2012-09-23T06:51:22Z</time>
      </trkpt>
      <trkpt lat="47.27918" lon="0.63393">
        <ele>52.8</ele>
        <time>2012-09-23T06:51:23Z</time>
      </trkpt>
      <trkpt lat="47.27919" lon="0.63386">
        <ele>52.9</ele>
        <time>2012-09-23T06:51:24Z</time>
      </trkpt>
      <trkpt lat="47.2792" lon="0.63378">
        <ele>52.9</ele>
        <time>2012-09-23T06:51:25Z</time>
      </trkpt>
      <trkpt lat="47.27921" lon="0.63371">
        <ele>53</ele>
        <time>2012-09-23T06:51:26Z</time>
      </trkpt>
      <trkpt lat="47.27922" lon="0.63364">
        <ele>53</ele>
        <time>2012-09-23T06:51:27Z</time>
      </trkpt>
      <trkpt lat="47.27923" lon="0.63357">
        <ele>53.1</ele>
        <time>2012-09-23T06:51:28Z</time>
      </trkpt>
      <trkpt lat="47.27924" lon="0.63345">
        <ele>53.2</ele>
        <time>2012-09-23T06:51:30Z</time>
      </trkpt>
      <trkpt lat="47.27925" lon="0.63338">
        <ele>53.3</ele>
        <time>2012-09-23T06:51:31Z</time>
      </trkpt>
      <trkpt lat="47.27925" lon="0.63331">
        <ele>53.4</ele>
        <time>2012-09-23T06:51:32Z</time>
      </trkpt>
      <trkpt lat="47.27926" lon="0.63324">
        <ele>53.8</ele>
        <time>2012-09-23T06:51:33Z</time>
      </trkpt>
      <trkpt lat="47.27924" lon="0.63315">
        <ele>54</ele>
        <time>2012-09-23T06:51:34Z</time>
      </trkpt>
      <trkpt lat="47.27924" lon="0.63307">
        <ele>54.3</ele>
        <time>2012-09-23T06:51:35Z</time>
      </trkpt>
      <trkpt lat="47.27923" lon="0.63299">
        <ele>54.5</ele>
        <time>2012-09-23T06:51:36Z</time>
      </trkpt>
      <trkpt lat="47.27922" lon="0.63291">
        <ele>54.7</ele>
        <time>2012-09-23T06:51:37Z</time>
      </trkpt>
      <trkpt lat="47.27921" lon="0.63284">
        <ele>54.8</ele>
        <time>2012-09-23T06:51:38Z</time>
      </trkpt>
      <trkpt lat="47.2792" lon="0.63277">
        <ele>55</ele>
        <time>2012-09-23T06:51:39Z</time>
      </trkpt>
      <trkpt lat="47.27917" lon="0.63265">
        <ele>55.3</ele>
        <time>2012-09-23T06:51:41Z</time>
      </trkpt>
      <trkpt lat="47.27916" lon="0.63258">
        <ele>55.6</ele>
        <time>2012-09-23T06:51:42Z</time>
      </trkpt>
      <trkpt lat="47.27914" lon="0.63251">
        <ele>55.7</ele>
        <time>2012-09-23T06:51:43Z</time>
      </trkpt>
      <trkpt lat="47.27912" lon="0.63244">
        <ele>55.6</ele>
        <time>2012-09-23T06:51:44Z</time>
      </trkpt>
      <trkpt lat="47.27912" lon="0.63236">
        <ele>55.4</ele>
        <time>2012-09-23T06:51:45Z</time>
      </trkpt>
      <trkpt lat="47.27912" lon="0.63227">
        <ele>55.4</ele>
        <time>2012-09-23T06:51:46Z</time>
      </trkpt>
      <trkpt lat="47.27912" lon="0.63219">
        <ele>55.3</ele>
        <time>2012-09-23T06:51:47Z</time>
      </trkpt>
      <trkpt lat="47.27912" lon="0.63211">
        <ele>55.2</ele>
        <time>2012-09-23T06:51:48Z</time>
      </trkpt>
      <trkpt lat="47.27912" lon="0.63204">
        <ele>55.1</ele>
        <time>2012-09-23T06:51:49Z</time>
      </trkpt>
      <trkpt lat="47.27912" lon="0.63197">
        <ele>55</ele>
        <time>2012-09-23T06:51:50Z</time>
      </trkpt>
      <trkpt lat="47.27911" lon="0.6319">
        <ele>54.9</ele>
        <time>2012-09-23T06:51:51Z</time>
      </trkpt>
      <trkpt lat="47.27911" lon="0.63183">
        <ele>54.8</ele>
        <time>2012-09-23T06:51:52Z</time>
      </trkpt>
      <trkpt lat="47.2791" lon="0.63176">
        <ele>54.7</ele>
        <time>2012-09-23T06:51:53Z</time>
      </trkpt>
      <trkpt lat="47.2791" lon="0.63168">
        <ele>54.6</ele>
        <time>2012-09-23T06:51:54Z</time>
      </trkpt>
      <trkpt lat="47.27909" lon="0.63162">
        <ele>54.6</ele>
        <time>2012-09-23T06:51:55Z</time>
      </trkpt>
      <trkpt lat="47.27908" lon="0.63154">
        <ele>54.6</ele>
        <time>2012-09-23T06:51:56Z</time>
      </trkpt>
      <trkpt lat="47.27908" lon="0.63148">
        <ele>54.5</ele>
        <time>2012-09-23T06:51:57Z</time>
      </trkpt>
      <trkpt lat="47.27908" lon="0.6314">
        <ele>54.5</ele>
        <time>2012-09-23T06:51:58Z</time>
      </trkpt>
      <trkpt lat="47.27908" lon="0.63133">
        <ele>54.5</ele>
        <time>2012-09-23T06:51:59Z</time>
      </trkpt>
      <trkpt lat="47.27907" lon="0.63125">
        <ele>54.5</ele>
        <time>2012-09-23T06:52:00Z</time>
      </trkpt>
      <trkpt lat="47.27906" lon="0.63113">
        <ele>54.4</ele>
        <time>2012-09-23T06:52:02Z</time>
      </trkpt>
      <trkpt lat="47.27904" lon="0.63106">
        <ele>54.4</ele>
        <time>2012-09-23T06:52:03Z</time>
      </trkpt>
      <trkpt lat="47.27903" lon="0.63099">
        <ele>54.3</ele>
        <time>2012-09-23T06:52:04Z</time>
      </trkpt>
      <trkpt lat="47.27901" lon="0.63092">
        <ele>54.2</ele>
        <time>2012-09-23T06:52:05Z</time>
      </trkpt>
      <trkpt lat="47.27899" lon="0.63087">
        <ele>54.1</ele>
        <time>2012-09-23T06:52:06Z</time>
      </trkpt>
      <trkpt lat="47.27897" lon="0.6308">
        <ele>54</ele>
        <time>2012-09-23T06:52:07Z</time>
      </trkpt>
      <trkpt lat="47.27895" lon="0.63074">
        <ele>54</ele>
        <time>2012-09-23T06:52:08Z</time>
      </trkpt>
      <trkpt lat="47.27895" lon="0.63074">
        <ele>54</ele>
        <time>2012-09-23T06:52:08Z</time>
      </trkpt>
      <trkpt lat="47.27891" lon="0.6307">
        <ele>53.8</ele>
        <time>2012-09-23T06:52:09Z</time>
      </trkpt>
      <trkpt lat="47.27888" lon="0.63064">
        <ele>53.7</ele>
        <time>2012-09-23T06:52:10Z</time>
      </trkpt>
      <trkpt lat="47.27885" lon="0.63059">
        <ele>53.7</ele>
        <time>2012-09-23T06:52:11Z</time>
      </trkpt>
      <trkpt lat="47.27882" lon="0.63053">
        <ele>53.6</ele>
        <time>2012-09-23T06:52:12Z</time>
      </trkpt>
      <trkpt lat="47.27878" lon="0.63047">
        <ele>53.5</ele>
        <time>2012-09-23T06:52:13Z</time>
      </trkpt>
      <trkpt lat="47.27874" lon="0.63041">
        <ele>53.4</ele>
        <time>2012-09-23T06:52:14Z</time>
      </trkpt>
      <trkpt lat="47.27871" lon="0.63036">
        <ele>53.4</ele>
        <time>2012-09-23T06:52:15Z</time>
      </trkpt>
      <trkpt lat="47.27868" lon="0.63031">
        <ele>53.3</ele>
        <time>2012-09-23T06:52:16Z</time>
      </trkpt>
      <trkpt lat="47.27864" lon="0.63025">
        <ele>53.3</ele>
        <time>2012-09-23T06:52:17Z</time>
      </trkpt>
      <trkpt lat="47.2786" lon="0.6302">
        <ele>53.3</ele>
        <time>2012-09-23T06:52:18Z</time>
      </trkpt>
      <trkpt lat="47.27856" lon="0.63016">
        <ele>53.2</ele>
        <time>2012-09-23T06:52:19Z</time>
      </trkpt>
      <trkpt lat="47.27852" lon="0.63012">
        <ele>53.2</ele>
        <time>2012-09-23T06:52:20Z</time>
      </trkpt>
      <trkpt lat="47.27847" lon="0.63009">
        <ele>53.1</ele>
        <time>2012-09-23T06:52:21Z</time>
      </trkpt>
      <trkpt lat="47.27843" lon="0.63005">
        <ele>53.1</ele>
        <time>2012-09-23T06:52:22Z</time>
      </trkpt>
      <trkpt lat="47.27838" lon="0.63001">
        <ele>53.1</ele>
        <time>2012-09-23T06:52:23Z</time>
      </trkpt>
      <trkpt lat="47.27835" lon="0.62997">
        <ele>53.1</ele>
        <time>2012-09-23T06:52:24Z</time>
      </trkpt>
      <trkpt lat="47.27831" lon="0.62993">
        <ele>53.1</ele>
        <time>2012-09-23T06:52:25Z</time>
      </trkpt>
      <trkpt lat="47.27828" lon="0.62988">
        <ele>53.2</ele>
        <time>2012-09-23T06:52:26Z</time>
      </trkpt>
      <trkpt lat="47.27824" lon="0.62983">
        <ele>53.2</ele>
        <time>2012-09-23T06:52:27Z</time>
      </trkpt>
      <trkpt lat="47.27821" lon="0.62978">
        <ele>53.2</ele>
        <time>2012-09-23T06:52:28Z</time>
      </trkpt>
      <trkpt lat="47.27817" lon="0.62972">
        <ele>53.3</ele>
        <time>2012-09-23T06:52:29Z</time>
      </trkpt>
      <trkpt lat="47.27814" lon="0.62966">
        <ele>53.3</ele>
        <time>2012-09-23T06:52:30Z</time>
      </trkpt>
      <trkpt lat="47.27809" lon="0.62956">
        <ele>53.4</ele>
        <time>2012-09-23T06:52:32Z</time>
      </trkpt>
      <trkpt lat="47.27804" lon="0.62947">
        <ele>53.4</ele>
        <time>2012-09-23T06:52:34Z</time>
      </trkpt>
      <trkpt lat="47.27798" lon="0.62937">
        <ele>53.3</ele>
        <time>2012-09-23T06:52:36Z</time>
      </trkpt>
      <trkpt lat="47.27794" lon="0.62931">
        <ele>53.3</ele>
        <time>2012-09-23T06:52:37Z</time>
      </trkpt>
      <trkpt lat="47.27792" lon="0.62918">
        <ele>53.4</ele>
        <time>2012-09-23T06:52:39Z</time>
      </trkpt>
      <trkpt lat="47.27792" lon="0.62906">
        <ele>53.4</ele>
        <time>2012-09-23T06:52:41Z</time>
      </trkpt>
      <trkpt lat="47.27792" lon="0.62898">
        <ele>53.4</ele>
        <time>2012-09-23T06:52:42Z</time>
      </trkpt>
      <trkpt lat="47.27792" lon="0.6289">
        <ele>53.3</ele>
        <time>2012-09-23T06:52:43Z</time>
      </trkpt>
      <trkpt lat="47.27793" lon="0.62882">
        <ele>53.3</ele>
        <time>2012-09-23T06:52:44Z</time>
      </trkpt>
      <trkpt lat="47.27789" lon="0.62871">
        <ele>53</ele>
        <time>2012-09-23T06:52:46Z</time>
      </trkpt>
      <trkpt lat="47.27783" lon="0.62865">
        <ele>52.7</ele>
        <time>2012-09-23T06:52:48Z</time>
      </trkpt>
      <trkpt lat="47.27775" lon="0.62863">
        <ele>52.2</ele>
        <time>2012-09-23T06:52:50Z</time>
      </trkpt>
      <trkpt lat="47.27766" lon="0.62862">
        <ele>51.8</ele>
        <time>2012-09-23T06:52:52Z</time>
      </trkpt>
      <trkpt lat="47.27757" lon="0.62862">
        <ele>51.3</ele>
        <time>2012-09-23T06:52:54Z</time>
      </trkpt>
      <trkpt lat="47.27753" lon="0.62863">
        <ele>51.1</ele>
        <time>2012-09-23T06:52:55Z</time>
      </trkpt>
      <trkpt lat="47.27744" lon="0.62863">
        <ele>50.9</ele>
        <time>2012-09-23T06:52:57Z</time>
      </trkpt>
      <trkpt lat="47.27735" lon="0.62864">
        <ele>50.7</ele>
        <time>2012-09-23T06:52:59Z</time>
      </trkpt>
      <trkpt lat="47.27731" lon="0.62864">
        <ele>50.6</ele>
        <time>2012-09-23T06:53:00Z</time>
      </trkpt>
      <trkpt lat="47.27722" lon="0.62864">
        <ele>50.5</ele>
        <time>2012-09-23T06:53:02Z</time>
      </trkpt>
      <trkpt lat="47.27714" lon="0.62863">
        <ele>50.4</ele>
        <time>2012-09-23T06:53:04Z</time>
      </trkpt>
      <trkpt lat="47.27706" lon="0.6286">
        <ele>50.3</ele>
        <time>2012-09-23T06:53:07Z</time>
      </trkpt>
      <trkpt lat="47.27702" lon="0.6285">
        <ele>50.3</ele>
        <time>2012-09-23T06:53:10Z</time>
      </trkpt>
      <trkpt lat="47.27702" lon="0.62838">
        <ele>50.4</ele>
        <time>2012-09-23T06:53:13Z</time>
      </trkpt>
      <trkpt lat="47.27703" lon="0.62827">
        <ele>50.3</ele>
        <time>2012-09-23T06:53:16Z</time>
      </trkpt>
      <trkpt lat="47.27704" lon="0.62815">
        <ele>50</ele>
        <time>2012-09-23T06:53:20Z</time>
      </trkpt>
      <trkpt lat="47.27703" lon="0.62811">
        <ele>50</ele>
        <time>2012-09-23T06:53:21Z</time>
      </trkpt>
      <trkpt lat="47.27705" lon="0.62792">
        <ele>49.6</ele>
        <time>2012-09-23T06:53:25Z</time>
      </trkpt>
      <trkpt lat="47.27706" lon="0.62782">
        <ele>49.5</ele>
        <time>2012-09-23T06:53:27Z</time>
      </trkpt>
      <trkpt lat="47.27707" lon="0.62771">
        <ele>49.3</ele>
        <time>2012-09-23T06:53:29Z</time>
      </trkpt>
      <trkpt lat="47.27708" lon="0.6276">
        <ele>49.1</ele>
        <time>2012-09-23T06:53:31Z</time>
      </trkpt>
      <trkpt lat="47.27709" lon="0.62748">
        <ele>49</ele>
        <time>2012-09-23T06:53:33Z</time>
      </trkpt>
      <trkpt lat="47.27709" lon="0.62741">
        <ele>49</ele>
        <time>2012-09-23T06:53:34Z</time>
      </trkpt>
      <trkpt lat="47.2771" lon="0.62734">
        <ele>49</ele>
        <time>2012-09-23T06:53:35Z</time>
      </trkpt>
      <trkpt lat="47.27806" lon="0.62487">
        <ele>48.6</ele>
        <time>2012-09-23T06:54:15Z</time>
      </trkpt>
      <trkpt lat="47.27815" lon="0.62488">
        <ele>48.3</ele>
        <time>2012-09-23T06:54:17Z</time>
      </trkpt>
      <trkpt lat="47.2782" lon="0.62489">
        <ele>48.2</ele>
        <time>2012-09-23T06:54:18Z</time>
      </trkpt>
      <trkpt lat="47.27824" lon="0.62489">
        <ele>48.1</ele>
        <time>2012-09-23T06:54:19Z</time>
      </trkpt>
      <trkpt lat="47.27829" lon="0.6249">
        <ele>47.9</ele>
        <time>2012-09-23T06:54:20Z</time>
      </trkpt>
      <trkpt lat="47.27834" lon="0.6249">
        <ele>47.8</ele>
        <time>2012-09-23T06:54:21Z</time>
      </trkpt>
      <trkpt lat="47.27838" lon="0.62491">
        <ele>47.7</ele>
        <time>2012-09-23T06:54:22Z</time>
      </trkpt>
      <trkpt lat="47.27843" lon="0.62491">
        <ele>47.6</ele>
        <time>2012-09-23T06:54:23Z</time>
      </trkpt>
      <trkpt lat="47.27847" lon="0.62492">
        <ele>47.5</ele>
        <time>2012-09-23T06:54:24Z</time>
      </trkpt>
      <trkpt lat="47.27853" lon="0.62492">
        <ele>47.4</ele>
        <time>2012-09-23T06:54:25Z</time>
      </trkpt>
      <trkpt lat="47.27858" lon="0.62492">
        <ele>47.3</ele>
        <time>2012-09-23T06:54:26Z</time>
      </trkpt>
      <trkpt lat="47.27863" lon="0.62493">
        <ele>47.1</ele>
        <time>2012-09-23T06:54:27Z</time>
      </trkpt>
      <trkpt lat="47.27868" lon="0.62495">
        <ele>47.1</ele>
        <time>2012-09-23T06:54:28Z</time>
      </trkpt>
      <trkpt lat="47.27873" lon="0.62497">
        <ele>47</ele>
        <time>2012-09-23T06:54:29Z</time>
      </trkpt>
      <trkpt lat="47.27878" lon="0.62499">
        <ele>46.9</ele>
        <time>2012-09-23T06:54:30Z</time>
      </trkpt>
      <trkpt lat="47.27883" lon="0.62503">
        <ele>46.8</ele>
        <time>2012-09-23T06:54:31Z</time>
      </trkpt>
      <trkpt lat="47.27887" lon="0.62507">
        <ele>46.7</ele>
        <time>2012-09-23T06:54:32Z</time>
      </trkpt>
      <trkpt lat="47.27892" lon="0.62512">
        <ele>46.7</ele>
        <time>2012-09-23T06:54:33Z</time>
      </trkpt>
      <trkpt lat="47.27898" lon="0.62517">
        <ele>46.6</ele>
        <time>2012-09-23T06:54:34Z</time>
      </trkpt>
      <trkpt lat="47.27903" lon="0.62521">
        <ele>46.5</ele>
        <time>2012-09-23T06:54:35Z</time>
      </trkpt>
      <trkpt lat="47.27908" lon="0.62525">
        <ele>46.5</ele>
        <time>2012-09-23T06:54:36Z</time>
      </trkpt>
      <trkpt lat="47.27911" lon="0.62528">
        <ele>46.4</ele>
        <time>2012-09-23T06:54:37Z</time>
      </trkpt>
      <trkpt lat="47.27916" lon="0.62532">
        <ele>46.3</ele>
        <time>2012-09-23T06:54:38Z</time>
      </trkpt>
      <trkpt lat="47.27921" lon="0.62536">
        <ele>46.4</ele>
        <time>2012-09-23T06:54:39Z</time>
      </trkpt>
      <trkpt lat="47.27925" lon="0.6254">
        <ele>46.5</ele>
        <time>2012-09-23T06:54:40Z</time>
      </trkpt>
      <trkpt lat="47.2793" lon="0.62543">
        <ele>46.6</ele>
        <time>2012-09-23T06:54:41Z</time>
      </trkpt>
      <trkpt lat="47.27935" lon="0.62546">
        <ele>46.7</ele>
        <time>2012-09-23T06:54:42Z</time>
      </trkpt>
      <trkpt lat="47.27939" lon="0.6255">
        <ele>46.8</ele>
        <time>2012-09-23T06:54:43Z</time>
      </trkpt>
      <trkpt lat="47.27945" lon="0.62554">
        <ele>46.9</ele>
        <time>2012-09-23T06:54:44Z</time>
      </trkpt>
      <trkpt lat="47.2795" lon="0.62559">
        <ele>47</ele>
        <time>2012-09-23T06:54:45Z</time>
      </trkpt>
      <trkpt lat="47.27954" lon="0.62564">
        <ele>47.1</ele>
        <time>2012-09-23T06:54:46Z</time>
      </trkpt>
      <trkpt lat="47.27958" lon="0.62568">
        <ele>47.3</ele>
        <time>2012-09-23T06:54:47Z</time>
      </trkpt>
      <trkpt lat="47.27963" lon="0.62573">
        <ele>47.4</ele>
        <time>2012-09-23T06:54:48Z</time>
      </trkpt>
      <trkpt lat="47.27967" lon="0.62577">
        <ele>47.5</ele>
        <time>2012-09-23T06:54:49Z</time>
      </trkpt>
      <trkpt lat="47.27972" lon="0.62581">
        <ele>47.6</ele>
        <time>2012-09-23T06:54:50Z</time>
      </trkpt>
      <trkpt lat="47.27977" lon="0.62585">
        <ele>47.7</ele>
        <time>2012-09-23T06:54:51Z</time>
      </trkpt>
      <trkpt lat="47.27982" lon="0.6259">
        <ele>47.8</ele>
        <time>2012-09-23T06:54:52Z</time>
      </trkpt>
      <trkpt lat="47.27988" lon="0.62594">
        <ele>48</ele>
        <time>2012-09-23T06:54:53Z</time>
      </trkpt>
      <trkpt lat="47.27993" lon="0.62599">
        <ele>48.1</ele>
        <time>2012-09-23T06:54:54Z</time>
      </trkpt>
      <trkpt lat="47.27997" lon="0.62603">
        <ele>48.2</ele>
        <time>2012-09-23T06:54:55Z</time>
      </trkpt>
      <trkpt lat="47.28002" lon="0.62607">
        <ele>48.3</ele>
        <time>2012-09-23T06:54:56Z</time>
      </trkpt>
      <trkpt lat="47.28006" lon="0.62612">
        <ele>48.4</ele>
        <time>2012-09-23T06:54:57Z</time>
      </trkpt>
      <trkpt lat="47.28013" lon="0.6262">
        <ele>48.5</ele>
        <time>2012-09-23T06:54:59Z</time>
      </trkpt>
      <trkpt lat="47.28018" lon="0.62625">
        <ele>48.7</ele>
        <time>2012-09-23T06:55:00Z</time>
      </trkpt>
      <trkpt lat="47.28022" lon="0.62629">
        <ele>48.7</ele>
        <time>2012-09-23T06:55:01Z</time>
      </trkpt>
      <trkpt lat="47.28027" lon="0.62633">
        <ele>48.9</ele>
        <time>2012-09-23T06:55:02Z</time>
      </trkpt>
      <trkpt lat="47.28032" lon="0.62637">
        <ele>49</ele>
        <time>2012-09-23T06:55:03Z</time>
      </trkpt>
      <trkpt lat="47.28036" lon="0.62642">
        <ele>49.1</ele>
        <time>2012-09-23T06:55:04Z</time>
      </trkpt>
      <trkpt lat="47.28041" lon="0.62646">
        <ele>49.2</ele>
        <time>2012-09-23T06:55:05Z</time>
      </trkpt>
      <trkpt lat="47.28046" lon="0.62651">
        <ele>49.3</ele>
        <time>2012-09-23T06:55:06Z</time>
      </trkpt>
      <trkpt lat="47.2805" lon="0.62656">
        <ele>49.4</ele>
        <time>2012-09-23T06:55:07Z</time>
      </trkpt>
      <trkpt lat="47.28055" lon="0.6266">
        <ele>49.5</ele>
        <time>2012-09-23T06:55:08Z</time>
      </trkpt>
      <trkpt lat="47.28059" lon="0.62663">
        <ele>49.6</ele>
        <time>2012-09-23T06:55:09Z</time>
      </trkpt>
      <trkpt lat="47.28064" lon="0.62667">
        <ele>49.7</ele>
        <time>2012-09-23T06:55:10Z</time>
      </trkpt>
      <trkpt lat="47.28069" lon="0.62672">
        <ele>49.9</ele>
        <time>2012-09-23T06:55:11Z</time>
      </trkpt>
      <trkpt lat="47.28075" lon="0.62676">
        <ele>50</ele>
        <time>2012-09-23T06:55:12Z</time>
      </trkpt>
      <trkpt lat="47.2808" lon="0.62681">
        <ele>50.1</ele>
        <time>2012-09-23T06:55:13Z</time>
      </trkpt>
      <trkpt lat="47.28085" lon="0.62685">
        <ele>50.2</ele>
        <time>2012-09-23T06:55:14Z</time>
      </trkpt>
      <trkpt lat="47.28089" lon="0.6269">
        <ele>50.4</ele>
        <time>2012-09-23T06:55:15Z</time>
      </trkpt>
      <trkpt lat="47.28093" lon="0.62695">
        <ele>50.6</ele>
        <time>2012-09-23T06:55:16Z</time>
      </trkpt>
      <trkpt lat="47.28097" lon="0.627">
        <ele>50.8</ele>
        <time>2012-09-23T06:55:17Z</time>
      </trkpt>
      <trkpt lat="47.28101" lon="0.62707">
        <ele>50.9</ele>
        <time>2012-09-23T06:55:18Z</time>
      </trkpt>
      <trkpt lat="47.28104" lon="0.62714">
        <ele>51.1</ele>
        <time>2012-09-23T06:55:19Z</time>
      </trkpt>
      <trkpt lat="47.28108" lon="0.62721">
        <ele>51.3</ele>
        <time>2012-09-23T06:55:20Z</time>
      </trkpt>
      <trkpt lat="47.28111" lon="0.62728">
        <ele>51.4</ele>
        <time>2012-09-23T06:55:21Z</time>
      </trkpt>
      <trkpt lat="47.28114" lon="0.62734">
        <ele>51.6</ele>
        <time>2012-09-23T06:55:22Z</time>
      </trkpt>
      <trkpt lat="47.28118" lon="0.6274">
        <ele>51.7</ele>
        <time>2012-09-23T06:55:23Z</time>
      </trkpt>
      <trkpt lat="47.28121" lon="0.62746">
        <ele>51.8</ele>
        <time>2012-09-23T06:55:24Z</time>
      </trkpt>
      <trkpt lat="47.28125" lon="0.62751">
        <ele>51.9</ele>
        <time>2012-09-23T06:55:25Z</time>
      </trkpt>
      <trkpt lat="47.28128" lon="0.62757">
        <ele>52.1</ele>
        <time>2012-09-23T06:55:26Z</time>
      </trkpt>
      <trkpt lat="47.28132" lon="0.62762">
        <ele>52.3</ele>
        <time>2012-09-23T06:55:27Z</time>
      </trkpt>
      <trkpt lat="47.28139" lon="0.62767">
        <ele>52.5</ele>
        <time>2012-09-23T06:55:29Z</time>
      </trkpt>
      <trkpt lat="47.28543" lon="0.6257">
        <ele>64.9</ele>
        <time>2012-09-23T06:58:27Z</time>
      </trkpt>
      <trkpt lat="47.28545" lon="0.62571">
        <ele>65.1</ele>
        <time>2012-09-23T06:58:28Z</time>
      </trkpt>
      <trkpt lat="47.28557" lon="0.62582">
        <ele>66.7</ele>
        <time>2012-09-23T06:58:34Z</time>
      </trkpt>
      <trkpt lat="47.28563" lon="0.62587">
        <ele>67.3</ele>
        <time>2012-09-23T06:58:36Z</time>
      </trkpt>
      <trkpt lat="47.2857" lon="0.62593">
        <ele>67.8</ele>
        <time>2012-09-23T06:58:38Z</time>
      </trkpt>
      <trkpt lat="47.28576" lon="0.62598">
        <ele>68.2</ele>
        <time>2012-09-23T06:58:40Z</time>
      </trkpt>
      <trkpt lat="47.28582" lon="0.62602">
        <ele>68.7</ele>
        <time>2012-09-23T06:58:42Z</time>
      </trkpt>
      <trkpt lat="47.28588" lon="0.62607">
        <ele>68.9</ele>
        <time>2012-09-23T06:58:44Z</time>
      </trkpt>
      <trkpt lat="47.28596" lon="0.62613">
        <ele>69.3</ele>
        <time>2012-09-23T06:58:47Z</time>
      </trkpt>
      <trkpt lat="47.28602" lon="0.62617">
        <ele>69.6</ele>
        <time>2012-09-23T06:58:49Z</time>
      </trkpt>
      <trkpt lat="47.28609" lon="0.6262">
        <ele>69.9</ele>
        <time>2012-09-23T06:58:51Z</time>
      </trkpt>
      <trkpt lat="47.28618" lon="0.62623">
        <ele>70.3</ele>
        <time>2012-09-23T06:58:53Z</time>
      </trkpt>
      <trkpt lat="47.28622" lon="0.62624">
        <ele>70.6</ele>
        <time>2012-09-23T06:58:54Z</time>
      </trkpt>
      <trkpt lat="47.28627" lon="0.62626">
        <ele>70.8</ele>
        <time>2012-09-23T06:58:55Z</time>
      </trkpt>
      <trkpt lat="47.28635" lon="0.62629">
        <ele>71.2</ele>
        <time>2012-09-23T06:58:57Z</time>
      </trkpt>
      <trkpt lat="47.28642" lon="0.62633">
        <ele>71.6</ele>
        <time>2012-09-23T06:58:59Z</time>
      </trkpt>
      <trkpt lat="47.28649" lon="0.62636">
        <ele>72</ele>
        <time>2012-09-23T06:59:01Z</time>
      </trkpt>
      <trkpt lat="47.28655" lon="0.6264">
        <ele>72.3</ele>
        <time>2012-09-23T06:59:03Z</time>
      </trkpt>
      <trkpt lat="47.28661" lon="0.62643">
        <ele>72.6</ele>
        <time>2012-09-23T06:59:05Z</time>
      </trkpt>
      <trkpt lat="47.28667" lon="0.62646">
        <ele>73</ele>
        <time>2012-09-23T06:59:07Z</time>
      </trkpt>
      <trkpt lat="47.28673" lon="0.62649">
        <ele>73</ele>
        <time>2012-09-23T06:59:09Z</time>
      </trkpt>
      <trkpt lat="47.28679" lon="0.62652">
        <ele>73</ele>
        <time>2012-09-23T06:59:11Z</time>
      </trkpt>
      <trkpt lat="47.28687" lon="0.62656">
        <ele>73.1</ele>
        <time>2012-09-23T06:59:13Z</time>
      </trkpt>
      <trkpt lat="47.28693" lon="0.62659">
        <ele>73</ele>
        <time>2012-09-23T06:59:15Z</time>
      </trkpt>
      <trkpt lat="47.287" lon="0.62662">
        <ele>73</ele>
        <time>2012-09-23T06:59:17Z</time>
      </trkpt>
      <trkpt lat="47.28706" lon="0.62665">
        <ele>73</ele>
        <time>2012-09-23T06:59:19Z</time>
      </trkpt>
      <trkpt lat="47.28713" lon="0.62668">
        <ele>73</ele>
        <time>2012-09-23T06:59:21Z</time>
      </trkpt>
      <trkpt lat="47.2872" lon="0.62671">
        <ele>72.8</ele>
        <time>2012-09-23T06:59:23Z</time>
      </trkpt>
      <trkpt lat="47.28725" lon="0.62673">
        <ele>72.7</ele>
        <time>2012-09-23T06:59:24Z</time>
      </trkpt>
      <trkpt lat="47.2873" lon="0.62675">
        <ele>72.6</ele>
        <time>2012-09-23T06:59:25Z</time>
      </trkpt>
      <trkpt lat="47.28735" lon="0.62676">
        <ele>72.5</ele>
        <time>2012-09-23T06:59:26Z</time>
      </trkpt>
      <trkpt lat="47.2874" lon="0.62677">
        <ele>72.5</ele>
        <time>2012-09-23T06:59:27Z</time>
      </trkpt>
      <trkpt lat="47.28745" lon="0.62678">
        <ele>72.5</ele>
        <time>2012-09-23T06:59:28Z</time>
      </trkpt>
      <trkpt lat="47.28749" lon="0.62679">
        <ele>72.4</ele>
        <time>2012-09-23T06:59:29Z</time>
      </trkpt>
      <trkpt lat="47.28754" lon="0.6268">
        <ele>72.2</ele>
        <time>2012-09-23T06:59:30Z</time>
      </trkpt>
      <trkpt lat="47.2876" lon="0.62682">
        <ele>72.1</ele>
        <time>2012-09-23T06:59:31Z</time>
      </trkpt>
      <trkpt lat="47.28765" lon="0.62682">
        <ele>71.9</ele>
        <time>2012-09-23T06:59:32Z</time>
      </trkpt>
      <trkpt lat="47.28769" lon="0.62683">
        <ele>71.9</ele>
        <time>2012-09-23T06:59:33Z</time>
      </trkpt>
      <trkpt lat="47.28777" lon="0.62685">
        <ele>71.6</ele>
        <time>2012-09-23T06:59:35Z</time>
      </trkpt>
      <trkpt lat="47.28785" lon="0.62685">
        <ele>71.5</ele>
        <time>2012-09-23T06:59:37Z</time>
      </trkpt>
      <trkpt lat="47.28794" lon="0.62686">
        <ele>71.4</ele>
        <time>2012-09-23T06:59:39Z</time>
      </trkpt>
      <trkpt lat="47.288" lon="0.62687">
        <ele>71.2</ele>
        <time>2012-09-23T06:59:41Z</time>
      </trkpt>
      <trkpt lat="47.28809" lon="0.62686">
        <ele>71.1</ele>
        <time>2012-09-23T06:59:43Z</time>
      </trkpt>
      <trkpt lat="47.28817" lon="0.62685">
        <ele>71</ele>
        <time>2012-09-23T06:59:45Z</time>
      </trkpt>
      <trkpt lat="47.28825" lon="0.62684">
        <ele>70.9</ele>
        <time>2012-09-23T06:59:47Z</time>
      </trkpt>
      <trkpt lat="47.28833" lon="0.62684">
        <ele>70.8</ele>
        <time>2012-09-23T06:59:49Z</time>
      </trkpt>
      <trkpt lat="47.28841" lon="0.62682">
        <ele>70.9</ele>
        <time>2012-09-23T06:59:51Z</time>
      </trkpt>
      <trkpt lat="47.28846" lon="0.62682">
        <ele>70.9</ele>
        <time>2012-09-23T06:59:52Z</time>
      </trkpt>
      <trkpt lat="47.28929" lon="0.62678">
        <ele>72.1</ele>
        <time>2012-09-23T07:00:16Z</time>
      </trkpt>
      <trkpt lat="47.28931" lon="0.6269">
        <ele>72.1</ele>
        <time>2012-09-23T07:00:19Z</time>
      </trkpt>
      <trkpt lat="47.28932" lon="0.62703">
        <ele>72</ele>
        <time>2012-09-23T07:00:22Z</time>
      </trkpt>
      <trkpt lat="47.28935" lon="0.62714">
        <ele>72</ele>
        <time>2012-09-23T07:00:25Z</time>
      </trkpt>
      <trkpt lat="47.28938" lon="0.62725">
        <ele>72</ele>
        <time>2012-09-23T07:00:28Z</time>
      </trkpt>
      <trkpt lat="47.28939" lon="0.62736">
        <ele>71.9</ele>
        <time>2012-09-23T07:00:32Z</time>
      </trkpt>
      <trkpt lat="47.2894" lon="0.62739">
        <ele>71.9</ele>
        <time>2012-09-23T07:00:33Z</time>
      </trkpt>
      <trkpt lat="47.28944" lon="0.62758">
        <ele>71.7</ele>
        <time>2012-09-23T07:00:43Z</time>
      </trkpt>
      <trkpt lat="47.28944" lon="0.62767">
        <ele>71.4</ele>
        <time>2012-09-23T07:00:45Z</time>
      </trkpt>
      <trkpt lat="47.28946" lon="0.62778">
        <ele>71.1</ele>
        <time>2012-09-23T07:00:47Z</time>
      </trkpt>
      <trkpt lat="47.28947" lon="0.62788">
        <ele>70.8</ele>
        <time>2012-09-23T07:00:49Z</time>
      </trkpt>
      <trkpt lat="47.28949" lon="0.62799">
        <ele>70.5</ele>
        <time>2012-09-23T07:00:51Z</time>
      </trkpt>
      <trkpt lat="47.2895" lon="0.62811">
        <ele>70.1</ele>
        <time>2012-09-23T07:00:53Z</time>
      </trkpt>
      <trkpt lat="47.28952" lon="0.62821">
        <ele>69.8</ele>
        <time>2012-09-23T07:00:55Z</time>
      </trkpt>
      <trkpt lat="47.28953" lon="0.6283">
        <ele>69.5</ele>
        <time>2012-09-23T07:00:57Z</time>
      </trkpt>
      <trkpt lat="47.28954" lon="0.62842">
        <ele>69.4</ele>
        <time>2012-09-23T07:00:59Z</time>
      </trkpt>
      <trkpt lat="47.28956" lon="0.62848">
        <ele>69.3</ele>
        <time>2012-09-23T07:01:00Z</time>
      </trkpt>
      <trkpt lat="47.28957" lon="0.62855">
        <ele>69.3</ele>
        <time>2012-09-23T07:01:01Z</time>
      </trkpt>
      <trkpt lat="47.28959" lon="0.62864">
        <ele>69.3</ele>
        <time>2012-09-23T07:01:02Z</time>
      </trkpt>
      <trkpt lat="47.28961" lon="0.62874">
        <ele>69.2</ele>
        <time>2012-09-23T07:01:03Z</time>
      </trkpt>
      <trkpt lat="47.28963" lon="0.62883">
        <ele>69.2</ele>
        <time>2012-09-23T07:01:04Z</time>
      </trkpt>
      <trkpt lat="47.28966" lon="0.62891">
        <ele>69.1</ele>
        <time>2012-09-23T07:01:05Z</time>
      </trkpt>
      <trkpt lat="47.28968" lon="0.629">
        <ele>69.1</ele>
        <time>2012-09-23T07:01:06Z</time>
      </trkpt>
      <trkpt lat="47.2897" lon="0.62907">
        <ele>69</ele>
        <time>2012-09-23T07:01:07Z</time>
      </trkpt>
      <trkpt lat="47.28972" lon="0.62913">
        <ele>69</ele>
        <time>2012-09-23T07:01:08Z</time>
      </trkpt>
      <trkpt lat="47.28974" lon="0.62921">
        <ele>69</ele>
        <time>2012-09-23T07:01:09Z</time>
      </trkpt>
      <trkpt lat="47.28976" lon="0.62929">
        <ele>69.1</ele>
        <time>2012-09-23T07:01:10Z</time>
      </trkpt>
      <trkpt lat="47.28977" lon="0.62937">
        <ele>69.1</ele>
        <time>2012-09-23T07:01:11Z</time>
      </trkpt>
      <trkpt lat="47.28977" lon="0.62945">
        <ele>69.2</ele>
        <time>2012-09-23T07:01:12Z</time>
      </trkpt>
      <trkpt lat="47.28976" lon="0.62953">
        <ele>69.3</ele>
        <time>2012-09-23T07:01:13Z</time>
      </trkpt>
      <trkpt lat="47.28972" lon="0.62964">
        <ele>69.3</ele>
        <time>2012-09-23T07:01:15Z</time>
      </trkpt>
      <trkpt lat="47.28969" lon="0.6297">
        <ele>69.4</ele>
        <time>2012-09-23T07:01:16Z</time>
      </trkpt>
      <trkpt lat="47.28966" lon="0.62976">
        <ele>69.4</ele>
        <time>2012-09-23T07:01:17Z</time>
      </trkpt>
      <trkpt lat="47.28963" lon="0.62981">
        <ele>69.4</ele>
        <time>2012-09-23T07:01:18Z</time>
      </trkpt>
      <trkpt lat="47.28963" lon="0.62981">
        <ele>69.4</ele>
        <time>2012-09-23T07:01:18Z</time>
      </trkpt>
      <trkpt lat="47.28959" lon="0.62987">
        <ele>69.4</ele>
        <time>2012-09-23T07:01:19Z</time>
      </trkpt>
      <trkpt lat="47.28957" lon="0.62993">
        <ele>69.4</ele>
        <time>2012-09-23T07:01:20Z</time>
      </trkpt>
      <trkpt lat="47.28956" lon="0.62999">
        <ele>69.4</ele>
        <time>2012-09-23T07:01:21Z</time>
      </trkpt>
      <trkpt lat="47.28954" lon="0.63009">
        <ele>69.3</ele>
        <time>2012-09-23T07:01:22Z</time>
      </trkpt>
      <trkpt lat="47.28951" lon="0.63017">
        <ele>69.1</ele>
        <time>2012-09-23T07:01:23Z</time>
      </trkpt>
      <trkpt lat="47.28949" lon="0.63022">
        <ele>69</ele>
        <time>2012-09-23T07:01:24Z</time>
      </trkpt>
      <trkpt lat="47.28945" lon="0.63027">
        <ele>68.9</ele>
        <time>2012-09-23T07:01:25Z</time>
      </trkpt>
      <trkpt lat="47.28939" lon="0.63032">
        <ele>68.7</ele>
        <time>2012-09-23T07:01:26Z</time>
      </trkpt>
      <trkpt lat="47.28932" lon="0.63037">
        <ele>68.4</ele>
        <time>2012-09-23T07:01:27Z</time>
      </trkpt>
      <trkpt lat="47.28924" lon="0.63042">
        <ele>68.1</ele>
        <time>2012-09-23T07:01:28Z</time>
      </trkpt>
      <trkpt lat="47.28923" lon="0.63051">
        <ele>67.9</ele>
        <time>2012-09-23T07:01:29Z</time>
      </trkpt>
      <trkpt lat="47.28925" lon="0.63061">
        <ele>67.7</ele>
        <time>2012-09-23T07:01:30Z</time>
      </trkpt>
      <trkpt lat="47.28926" lon="0.63072">
        <ele>67.5</ele>
        <time>2012-09-23T07:01:32Z</time>
      </trkpt>
      <trkpt lat="47.28926" lon="0.63083">
        <ele>67.3</ele>
        <time>2012-09-23T07:01:35Z</time>
      </trkpt>
      <trkpt lat="47.28928" lon="0.63089">
        <ele>67.4</ele>
        <time>2012-09-23T07:01:36Z</time>
      </trkpt>
      <trkpt lat="47.28931" lon="0.63104">
        <ele>67.4</ele>
        <time>2012-09-23T07:01:39Z</time>
      </trkpt>
      <trkpt lat="47.28931" lon="0.63115">
        <ele>67.4</ele>
        <time>2012-09-23T07:01:41Z</time>
      </trkpt>
      <trkpt lat="47.28931" lon="0.63126">
        <ele>67.4</ele>
        <time>2012-09-23T07:01:43Z</time>
      </trkpt>
      <trkpt lat="47.28933" lon="0.63137">
        <ele>67.4</ele>
        <time>2012-09-23T07:01:45Z</time>
      </trkpt>
      <trkpt lat="47.28936" lon="0.63143">
        <ele>67.5</ele>
        <time>2012-09-23T07:01:46Z</time>
      </trkpt>
      <trkpt lat="47.28939" lon="0.63151">
        <ele>67.5</ele>
        <time>2012-09-23T07:01:47Z</time>
      </trkpt>
      <trkpt lat="47.28941" lon="0.63157">
        <ele>67.6</ele>
        <time>2012-09-23T07:01:48Z</time>
      </trkpt>
      <trkpt lat="47.28943" lon="0.63164">
        <ele>67.6</ele>
        <time>2012-09-23T07:01:49Z</time>
      </trkpt>
      <trkpt lat="47.28945" lon="0.63175">
        <ele>67.9</ele>
        <time>2012-09-23T07:01:51Z</time>
      </trkpt>
      <trkpt lat="47.28948" lon="0.63186">
        <ele>68.3</ele>
        <time>2012-09-23T07:01:53Z</time>
      </trkpt>
      <trkpt lat="47.2895" lon="0.63197">
        <ele>68.7</ele>
        <time>2012-09-23T07:01:55Z</time>
      </trkpt>
      <trkpt lat="47.2895" lon="0.63207">
        <ele>69</ele>
        <time>2012-09-23T07:01:57Z</time>
      </trkpt>
      <trkpt lat="47.28951" lon="0.63217">
        <ele>69.3</ele>
        <time>2012-09-23T07:01:59Z</time>
      </trkpt>
      <trkpt lat="47.28951" lon="0.63226">
        <ele>69.6</ele>
        <time>2012-09-23T07:02:01Z</time>
      </trkpt>
      <trkpt lat="47.28952" lon="0.63236">
        <ele>69.9</ele>
        <time>2012-09-23T07:02:03Z</time>
      </trkpt>
      <trkpt lat="47.28954" lon="0.63246">
        <ele>70.2</ele>
        <time>2012-09-23T07:02:05Z</time>
      </trkpt>
      <trkpt lat="47.28956" lon="0.63257">
        <ele>70.4</ele>
        <time>2012-09-23T07:02:07Z</time>
      </trkpt>
      <trkpt lat="47.28958" lon="0.63267">
        <ele>70.4</ele>
        <time>2012-09-23T07:02:09Z</time>
      </trkpt>
      <trkpt lat="47.2896" lon="0.63277">
        <ele>70.5</ele>
        <time>2012-09-23T07:02:11Z</time>
      </trkpt>
      <trkpt lat="47.28963" lon="0.63289">
        <ele>70.5</ele>
        <time>2012-09-23T07:02:13Z</time>
      </trkpt>
      <trkpt lat="47.28965" lon="0.63299">
        <ele>70.5</ele>
        <time>2012-09-23T07:02:15Z</time>
      </trkpt>
      <trkpt lat="47.28967" lon="0.63309">
        <ele>70.6</ele>
        <time>2012-09-23T07:02:17Z</time>
      </trkpt>
      <trkpt lat="47.28968" lon="0.6332">
        <ele>70.6</ele>
        <time>2012-09-23T07:02:19Z</time>
      </trkpt>
      <trkpt lat="47.28971" lon="0.63331">
        <ele>70.6</ele>
        <time>2012-09-23T07:02:21Z</time>
      </trkpt>
      <trkpt lat="47.28973" lon="0.63344">
        <ele>70.5</ele>
        <time>2012-09-23T07:02:23Z</time>
      </trkpt>
      <trkpt lat="47.28974" lon="0.63349">
        <ele>70.5</ele>
        <time>2012-09-23T07:02:24Z</time>
      </trkpt>
      <trkpt lat="47.28976" lon="0.63356">
        <ele>70.5</ele>
        <time>2012-09-23T07:02:25Z</time>
      </trkpt>
      <trkpt lat="47.2898" lon="0.63367">
        <ele>70.4</ele>
        <time>2012-09-23T07:02:27Z</time>
      </trkpt>
      <trkpt lat="47.28983" lon="0.63373">
        <ele>70.4</ele>
        <time>2012-09-23T07:02:28Z</time>
      </trkpt>
      <trkpt lat="47.28985" lon="0.63379">
        <ele>70.3</ele>
        <time>2012-09-23T07:02:29Z</time>
      </trkpt>
      <trkpt lat="47.28988" lon="0.63385">
        <ele>70.3</ele>
        <time>2012-09-23T07:02:30Z</time>
      </trkpt>
      <trkpt lat="47.2899" lon="0.63391">
        <ele>70.2</ele>
        <time>2012-09-23T07:02:31Z</time>
      </trkpt>
      <trkpt lat="47.28994" lon="0.63397">
        <ele>70.2</ele>
        <time>2012-09-23T07:02:32Z</time>
      </trkpt>
      <trkpt lat="47.28998" lon="0.63405">
        <ele>70.1</ele>
        <time>2012-09-23T07:02:33Z</time>
      </trkpt>
      <trkpt lat="47.29003" lon="0.63414">
        <ele>69.9</ele>
        <time>2012-09-23T07:02:34Z</time>
      </trkpt>
      <trkpt lat="47.29011" lon="0.63425">
        <ele>69.6</ele>
        <time>2012-09-23T07:02:35Z</time>
      </trkpt>
      <trkpt lat="47.29019" lon="0.63437">
        <ele>69.3</ele>
        <time>2012-09-23T07:02:36Z</time>
      </trkpt>
      <trkpt lat="47.29026" lon="0.63446">
        <ele>69.1</ele>
        <time>2012-09-23T07:02:37Z</time>
      </trkpt>
      <trkpt lat="47.29031" lon="0.63453">
        <ele>68.9</ele>
        <time>2012-09-23T07:02:38Z</time>
      </trkpt>
      <trkpt lat="47.29038" lon="0.6346">
        <ele>68.8</ele>
        <time>2012-09-23T07:02:39Z</time>
      </trkpt>
      <trkpt lat="47.2919" lon="0.63304">
        <ele>71.5</ele>
        <time>2012-09-23T07:03:47Z</time>
      </trkpt>
      <trkpt lat="47.29196" lon="0.63307">
        <ele>71.7</ele>
        <time>2012-09-23T07:03:49Z</time>
      </trkpt>
      <trkpt lat="47.29203" lon="0.63311">
        <ele>71.9</ele>
        <time>2012-09-23T07:03:51Z</time>
      </trkpt>
      <trkpt lat="47.29211" lon="0.63318">
        <ele>72.1</ele>
        <time>2012-09-23T07:03:54Z</time>
      </trkpt>
      <trkpt lat="47.29218" lon="0.63324">
        <ele>72.3</ele>
        <time>2012-09-23T07:03:57Z</time>
      </trkpt>
      <trkpt lat="47.29224" lon="0.63328">
        <ele>72.5</ele>
        <time>2012-09-23T07:03:59Z</time>
      </trkpt>
      <trkpt lat="47.2923" lon="0.63333">
        <ele>72.7</ele>
        <time>2012-09-23T07:04:01Z</time>
      </trkpt>
      <trkpt lat="47.29237" lon="0.63339">
        <ele>72.8</ele>
        <time>2012-09-23T07:04:04Z</time>
      </trkpt>
      <trkpt lat="47.29243" lon="0.63345">
        <ele>72.8</ele>
        <time>2012-09-23T07:04:07Z</time>
      </trkpt>
      <trkpt lat="47.29249" lon="0.6335">
        <ele>72.9</ele>
        <time>2012-09-23T07:04:09Z</time>
      </trkpt>
      <trkpt lat="47.29255" lon="0.63357">
        <ele>73.1</ele>
        <time>2012-09-23T07:04:12Z</time>
      </trkpt>
      <trkpt lat="47.2926" lon="0.63365">
        <ele>73.2</ele>
        <time>2012-09-23T07:04:15Z</time>
      </trkpt>
      <trkpt lat="47.29266" lon="0.63374">
        <ele>73.4</ele>
        <time>2012-09-23T07:04:17Z</time>
      </trkpt>
      <trkpt lat="47.29271" lon="0.63385">
        <ele>73.6</ele>
        <time>2012-09-23T07:04:20Z</time>
      </trkpt>
      <trkpt lat="47.29276" lon="0.63393">
        <ele>73.8</ele>
        <time>2012-09-23T07:04:23Z</time>
      </trkpt>
      <trkpt lat="47.29282" lon="0.634">
        <ele>74</ele>
        <time>2012-09-23T07:04:26Z</time>
      </trkpt>
      <trkpt lat="47.29286" lon="0.63409">
        <ele>74.2</ele>
        <time>2012-09-23T07:04:28Z</time>
      </trkpt>
      <trkpt lat="47.29291" lon="0.63418">
        <ele>74.4</ele>
        <time>2012-09-23T07:04:30Z</time>
      </trkpt>
      <trkpt lat="47.29298" lon="0.63426">
        <ele>74.3</ele>
        <time>2012-09-23T07:04:33Z</time>
      </trkpt>
      <trkpt lat="47.29304" lon="0.63434">
        <ele>74.2</ele>
        <time>2012-09-23T07:04:36Z</time>
      </trkpt>
      <trkpt lat="47.29308" lon="0.63438">
        <ele>74.1</ele>
        <time>2012-09-23T07:04:37Z</time>
      </trkpt>
      <trkpt lat="47.29312" lon="0.63443">
        <ele>74</ele>
        <time>2012-09-23T07:04:38Z</time>
      </trkpt>
      <trkpt lat="47.29317" lon="0.63447">
        <ele>74</ele>
        <time>2012-09-23T07:04:39Z</time>
      </trkpt>
      <trkpt lat="47.2932" lon="0.63452">
        <ele>73.9</ele>
        <time>2012-09-23T07:04:40Z</time>
      </trkpt>
      <trkpt lat="47.29327" lon="0.6346">
        <ele>73.7</ele>
        <time>2012-09-23T07:04:42Z</time>
      </trkpt>
      <trkpt lat="47.29333" lon="0.63463">
        <ele>73.8</ele>
        <time>2012-09-23T07:04:45Z</time>
      </trkpt>
      <trkpt lat="47.29339" lon="0.63467">
        <ele>73.5</ele>
        <time>2012-09-23T07:04:48Z</time>
      </trkpt>
      <trkpt lat="47.29346" lon="0.63472">
        <ele>73.2</ele>
        <time>2012-09-23T07:04:50Z</time>
      </trkpt>
      <trkpt lat="47.29353" lon="0.63475">
        <ele>73</ele>
        <time>2012-09-23T07:04:52Z</time>
      </trkpt>
      <trkpt lat="47.29361" lon="0.63479">
        <ele>72.7</ele>
        <time>2012-09-23T07:04:54Z</time>
      </trkpt>
      <trkpt lat="47.29365" lon="0.63485">
        <ele>72.5</ele>
        <time>2012-09-23T07:04:56Z</time>
      </trkpt>
      <trkpt lat="47.2937" lon="0.6349">
        <ele>72.3</ele>
        <time>2012-09-23T07:04:58Z</time>
      </trkpt>
      <trkpt lat="47.29376" lon="0.63495">
        <ele>72.1</ele>
        <time>2012-09-23T07:05:00Z</time>
      </trkpt>
      <trkpt lat="47.29383" lon="0.635">
        <ele>72</ele>
        <time>2012-09-23T07:05:02Z</time>
      </trkpt>
      <trkpt lat="47.2939" lon="0.63504">
        <ele>71.9</ele>
        <time>2012-09-23T07:05:04Z</time>
      </trkpt>
      <trkpt lat="47.29394" lon="0.63505">
        <ele>71.9</ele>
        <time>2012-09-23T07:05:05Z</time>
      </trkpt>
      <trkpt lat="47.29403" lon="0.63509">
        <ele>71.9</ele>
        <time>2012-09-23T07:05:07Z</time>
      </trkpt>
      <trkpt lat="47.29411" lon="0.63512">
        <ele>71.8</ele>
        <time>2012-09-23T07:05:09Z</time>
      </trkpt>
      <trkpt lat="47.29418" lon="0.63513">
        <ele>71.8</ele>
        <time>2012-09-23T07:05:11Z</time>
      </trkpt>
      <trkpt lat="47.29425" lon="0.63514">
        <ele>71.8</ele>
        <time>2012-09-23T07:05:13Z</time>
      </trkpt>
      <trkpt lat="47.29434" lon="0.63514">
        <ele>71.8</ele>
        <time>2012-09-23T07:05:15Z</time>
      </trkpt>
      <trkpt lat="47.29439" lon="0.63514">
        <ele>71.8</ele>
        <time>2012-09-23T07:05:16Z</time>
      </trkpt>
      <trkpt lat="47.29447" lon="0.63514">
        <ele>71.8</ele>
        <time>2012-09-23T07:05:18Z</time>
      </trkpt>
      <trkpt lat="47.29456" lon="0.63515">
        <ele>71.9</ele>
        <time>2012-09-23T07:05:20Z</time>
      </trkpt>
      <trkpt lat="47.29461" lon="0.63516">
        <ele>71.9</ele>
        <time>2012-09-23T07:05:21Z</time>
      </trkpt>
      <trkpt lat="47.2947" lon="0.63516">
        <ele>71.9</ele>
        <time>2012-09-23T07:05:23Z</time>
      </trkpt>
      <trkpt lat="47.29478" lon="0.63515">
        <ele>71.9</ele>
        <time>2012-09-23T07:05:25Z</time>
      </trkpt>
      <trkpt lat="47.29483" lon="0.63515">
        <ele>71.9</ele>
        <time>2012-09-23T07:05:26Z</time>
      </trkpt>
      <trkpt lat="47.29487" lon="0.63514">
        <ele>71.9</ele>
        <time>2012-09-23T07:05:27Z</time>
      </trkpt>
      <trkpt lat="47.30123" lon="0.63567">
        <ele>85.9</ele>
        <time>2012-09-23T07:08:48Z</time>
      </trkpt>
      <trkpt lat="47.30127" lon="0.63565">
        <ele>85.8</ele>
        <time>2012-09-23T07:08:49Z</time>
      </trkpt>
      <trkpt lat="47.30132" lon="0.63562">
        <ele>85.7</ele>
        <time>2012-09-23T07:08:50Z</time>
      </trkpt>
      <trkpt lat="47.30137" lon="0.6356">
        <ele>85.6</ele>
        <time>2012-09-23T07:08:51Z</time>
      </trkpt>
      <trkpt lat="47.30141" lon="0.63557">
        <ele>85.5</ele>
        <time>2012-09-23T07:08:52Z</time>
      </trkpt>
      <trkpt lat="47.30146" lon="0.63553">
        <ele>85.4</ele>
        <time>2012-09-23T07:08:53Z</time>
      </trkpt>
      <trkpt lat="47.3015" lon="0.6355">
        <ele>85.3</ele>
        <time>2012-09-23T07:08:54Z</time>
      </trkpt>
      <trkpt lat="47.30155" lon="0.63546">
        <ele>85.2</ele>
        <time>2012-09-23T07:08:55Z</time>
      </trkpt>
      <trkpt lat="47.30163" lon="0.6354">
        <ele>85</ele>
        <time>2012-09-23T07:08:57Z</time>
      </trkpt>
      <trkpt lat="47.30167" lon="0.63536">
        <ele>85</ele>
        <time>2012-09-23T07:08:58Z</time>
      </trkpt>
      <trkpt lat="47.30171" lon="0.63531">
        <ele>85</ele>
        <time>2012-09-23T07:08:59Z</time>
      </trkpt>
      <trkpt lat="47.30176" lon="0.63528">
        <ele>85</ele>
        <time>2012-09-23T07:09:00Z</time>
      </trkpt>
      <trkpt lat="47.30182" lon="0.63524">
        <ele>85</ele>
        <time>2012-09-23T07:09:01Z</time>
      </trkpt>
      <trkpt lat="47.30187" lon="0.63517">
        <ele>85.1</ele>
        <time>2012-09-23T07:09:02Z</time>
      </trkpt>
      <trkpt lat="47.30191" lon="0.63512">
        <ele>85.2</ele>
        <time>2012-09-23T07:09:03Z</time>
      </trkpt>
      <trkpt lat="47.30195" lon="0.63507">
        <ele>85.2</ele>
        <time>2012-09-23T07:09:04Z</time>
      </trkpt>
      <trkpt lat="47.30202" lon="0.63499">
        <ele>85.4</ele>
        <time>2012-09-23T07:09:06Z</time>
      </trkpt>
      <trkpt lat="47.30209" lon="0.63491">
        <ele>85.5</ele>
        <time>2012-09-23T07:09:08Z</time>
      </trkpt>
      <trkpt lat="47.30213" lon="0.63486">
        <ele>85.5</ele>
        <time>2012-09-23T07:09:09Z</time>
      </trkpt>
      <trkpt lat="47.30217" lon="0.6348">
        <ele>85.6</ele>
        <time>2012-09-23T07:09:10Z</time>
      </trkpt>
      <trkpt lat="47.30221" lon="0.63475">
        <ele>85.6</ele>
        <time>2012-09-23T07:09:11Z</time>
      </trkpt>
      <trkpt lat="47.30225" lon="0.6347">
        <ele>85.6</ele>
        <time>2012-09-23T07:09:12Z</time>
      </trkpt>
      <trkpt lat="47.30229" lon="0.63465">
        <ele>85.7</ele>
        <time>2012-09-23T07:09:13Z</time>
      </trkpt>
      <trkpt lat="47.30233" lon="0.6346">
        <ele>85.7</ele>
        <time>2012-09-23T07:09:14Z</time>
      </trkpt>
      <trkpt lat="47.30237" lon="0.63456">
        <ele>85.8</ele>
        <time>2012-09-23T07:09:15Z</time>
      </trkpt>
      <trkpt lat="47.30241" lon="0.63451">
        <ele>85.8</ele>
        <time>2012-09-23T07:09:16Z</time>
      </trkpt>
      <trkpt lat="47.30245" lon="0.63445">
        <ele>85.9</ele>
        <time>2012-09-23T07:09:17Z</time>
      </trkpt>
      <trkpt lat="47.30249" lon="0.6344">
        <ele>85.9</ele>
        <time>2012-09-23T07:09:18Z</time>
      </trkpt>
      <trkpt lat="47.30252" lon="0.63435">
        <ele>86</ele>
        <time>2012-09-23T07:09:19Z</time>
      </trkpt>
      <trkpt lat="47.30256" lon="0.6343">
        <ele>86</ele>
        <time>2012-09-23T07:09:20Z</time>
      </trkpt>
      <trkpt lat="47.30258" lon="0.63425">
        <ele>86</ele>
        <time>2012-09-23T07:09:21Z</time>
      </trkpt>
      <trkpt lat="47.30264" lon="0.63415">
        <ele>86.1</ele>
        <time>2012-09-23T07:09:23Z</time>
      </trkpt>
      <trkpt lat="47.30267" lon="0.63409">
        <ele>86.2</ele>
        <time>2012-09-23T07:09:24Z</time>
      </trkpt>
      <trkpt lat="47.30269" lon="0.63404">
        <ele>86.3</ele>
        <time>2012-09-23T07:09:25Z</time>
      </trkpt>
      <trkpt lat="47.30274" lon="0.63392">
        <ele>86.4</ele>
        <time>2012-09-23T07:09:27Z</time>
      </trkpt>
      <trkpt lat="47.30275" lon="0.63386">
        <ele>86.4</ele>
        <time>2012-09-23T07:09:28Z</time>
      </trkpt>
      <trkpt lat="47.30276" lon="0.63379">
        <ele>86.4</ele>
        <time>2012-09-23T07:09:29Z</time>
      </trkpt>
      <trkpt lat="47.30278" lon="0.63371">
        <ele>86.5</ele>
        <time>2012-09-23T07:09:30Z</time>
      </trkpt>
      <trkpt lat="47.30278" lon="0.63364">
        <ele>86.5</ele>
        <time>2012-09-23T07:09:31Z</time>
      </trkpt>
      <trkpt lat="47.30279" lon="0.63358">
        <ele>86.5</ele>
        <time>2012-09-23T07:09:32Z</time>
      </trkpt>
      <trkpt lat="47.3028" lon="0.63351">
        <ele>86.5</ele>
        <time>2012-09-23T07:09:33Z</time>
      </trkpt>
      <trkpt lat="47.30281" lon="0.63344">
        <ele>86.5</ele>
        <time>2012-09-23T07:09:34Z</time>
      </trkpt>
      <trkpt lat="47.30281" lon="0.63337">
        <ele>86.6</ele>
        <time>2012-09-23T07:09:35Z</time>
      </trkpt>
      <trkpt lat="47.30282" lon="0.6333">
        <ele>86.7</ele>
        <time>2012-09-23T07:09:36Z</time>
      </trkpt>
      <trkpt lat="47.30282" lon="0.63321">
        <ele>86.9</ele>
        <time>2012-09-23T07:09:37Z</time>
      </trkpt>
      <trkpt lat="47.30283" lon="0.63314">
        <ele>87.1</ele>
        <time>2012-09-23T07:09:38Z</time>
      </trkpt>
      <trkpt lat="47.30283" lon="0.63307">
        <ele>87.3</ele>
        <time>2012-09-23T07:09:39Z</time>
      </trkpt>
      <trkpt lat="47.30283" lon="0.633">
        <ele>87.4</ele>
        <time>2012-09-23T07:09:40Z</time>
      </trkpt>
      <trkpt lat="47.30284" lon="0.63293">
        <ele>87.6</ele>
        <time>2012-09-23T07:09:41Z</time>
      </trkpt>
      <trkpt lat="47.30284" lon="0.63285">
        <ele>87.8</ele>
        <time>2012-09-23T07:09:42Z</time>
      </trkpt>
      <trkpt lat="47.30284" lon="0.63278">
        <ele>88</ele>
        <time>2012-09-23T07:09:43Z</time>
      </trkpt>
      <trkpt lat="47.30284" lon="0.6327">
        <ele>88.2</ele>
        <time>2012-09-23T07:09:44Z</time>
      </trkpt>
      <trkpt lat="47.30284" lon="0.63263">
        <ele>88.4</ele>
        <time>2012-09-23T07:09:45Z</time>
      </trkpt>
      <trkpt lat="47.30284" lon="0.63256">
        <ele>88.6</ele>
        <time>2012-09-23T07:09:46Z</time>
      </trkpt>
      <trkpt lat="47.30284" lon="0.6325">
        <ele>88.7</ele>
        <time>2012-09-23T07:09:47Z</time>
      </trkpt>
      <trkpt lat="47.30284" lon="0.63242">
        <ele>88.7</ele>
        <time>2012-09-23T07:09:48Z</time>
      </trkpt>
      <trkpt lat="47.30284" lon="0.63235">
        <ele>88.7</ele>
        <time>2012-09-23T07:09:49Z</time>
      </trkpt>
      <trkpt lat="47.30283" lon="0.63229">
        <ele>88.7</ele>
        <time>2012-09-23T07:09:50Z</time>
      </trkpt>
      <trkpt lat="47.30284" lon="0.63221">
        <ele>88.7</ele>
        <time>2012-09-23T07:09:51Z</time>
      </trkpt>
      <trkpt lat="47.30283" lon="0.63215">
        <ele>88.7</ele>
        <time>2012-09-23T07:09:52Z</time>
      </trkpt>
      <trkpt lat="47.30283" lon="0.63208">
        <ele>88.6</ele>
        <time>2012-09-23T07:09:53Z</time>
      </trkpt>
      <trkpt lat="47.30283" lon="0.632">
        <ele>88.6</ele>
        <time>2012-09-23T07:09:54Z</time>
      </trkpt>
      <trkpt lat="47.30284" lon="0.63192">
        <ele>88.6</ele>
        <time>2012-09-23T07:09:55Z</time>
      </trkpt>
      <trkpt lat="47.30284" lon="0.63183">
        <ele>88.6</ele>
        <time>2012-09-23T07:09:56Z</time>
      </trkpt>
      <trkpt lat="47.30285" lon="0.63175">
        <ele>88.5</ele>
        <time>2012-09-23T07:09:57Z</time>
      </trkpt>
      <trkpt lat="47.30285" lon="0.63167">
        <ele>88.5</ele>
        <time>2012-09-23T07:09:58Z</time>
      </trkpt>
      <trkpt lat="47.30285" lon="0.6316">
        <ele>88.4</ele>
        <time>2012-09-23T07:09:59Z</time>
      </trkpt>
      <trkpt lat="47.30285" lon="0.63152">
        <ele>88.3</ele>
        <time>2012-09-23T07:10:00Z</time>
      </trkpt>
      <trkpt lat="47.30285" lon="0.63145">
        <ele>88.1</ele>
        <time>2012-09-23T07:10:01Z</time>
      </trkpt>
      <trkpt lat="47.30286" lon="0.63137">
        <ele>88</ele>
        <time>2012-09-23T07:10:02Z</time>
      </trkpt>
      <trkpt lat="47.30286" lon="0.63129">
        <ele>87.8</ele>
        <time>2012-09-23T07:10:03Z</time>
      </trkpt>
      <trkpt lat="47.30286" lon="0.63122">
        <ele>87.7</ele>
        <time>2012-09-23T07:10:04Z</time>
      </trkpt>
      <trkpt lat="47.30286" lon="0.63114">
        <ele>87.5</ele>
        <time>2012-09-23T07:10:05Z</time>
      </trkpt>
      <trkpt lat="47.30286" lon="0.63105">
        <ele>87.3</ele>
        <time>2012-09-23T07:10:06Z</time>
      </trkpt>
      <trkpt lat="47.30286" lon="0.63098">
        <ele>87.2</ele>
        <time>2012-09-23T07:10:07Z</time>
      </trkpt>
      <trkpt lat="47.30287" lon="0.6309">
        <ele>87.1</ele>
        <time>2012-09-23T07:10:08Z</time>
      </trkpt>
      <trkpt lat="47.30287" lon="0.63082">
        <ele>87</ele>
        <time>2012-09-23T07:10:09Z</time>
      </trkpt>
      <trkpt lat="47.30287" lon="0.63075">
        <ele>87.1</ele>
        <time>2012-09-23T07:10:10Z</time>
      </trkpt>
      <trkpt lat="47.30286" lon="0.63069">
        <ele>87.2</ele>
        <time>2012-09-23T07:10:11Z</time>
      </trkpt>
      <trkpt lat="47.30286" lon="0.63061">
        <ele>87.3</ele>
        <time>2012-09-23T07:10:12Z</time>
      </trkpt>
      <trkpt lat="47.30286" lon="0.63053">
        <ele>87.5</ele>
        <time>2012-09-23T07:10:13Z</time>
      </trkpt>
      <trkpt lat="47.30286" lon="0.63045">
        <ele>87.6</ele>
        <time>2012-09-23T07:10:14Z</time>
      </trkpt>
      <trkpt lat="47.30286" lon="0.63038">
        <ele>87.8</ele>
        <time>2012-09-23T07:10:15Z</time>
      </trkpt>
      <trkpt lat="47.30286" lon="0.63029">
        <ele>87.9</ele>
        <time>2012-09-23T07:10:16Z</time>
      </trkpt>
      <trkpt lat="47.30286" lon="0.6302">
        <ele>88</ele>
        <time>2012-09-23T07:10:17Z</time>
      </trkpt>
      <trkpt lat="47.30286" lon="0.63012">
        <ele>88.2</ele>
        <time>2012-09-23T07:10:18Z</time>
      </trkpt>
      <trkpt lat="47.30286" lon="0.63004">
        <ele>88.3</ele>
        <time>2012-09-23T07:10:19Z</time>
      </trkpt>
      <trkpt lat="47.30286" lon="0.62996">
        <ele>88.4</ele>
        <time>2012-09-23T07:10:20Z</time>
      </trkpt>
      <trkpt lat="47.30286" lon="0.62987">
        <ele>88.5</ele>
        <time>2012-09-23T07:10:21Z</time>
      </trkpt>
      <trkpt lat="47.30286" lon="0.6298">
        <ele>88.5</ele>
        <time>2012-09-23T07:10:22Z</time>
      </trkpt>
      <trkpt lat="47.30285" lon="0.62973">
        <ele>88.6</ele>
        <time>2012-09-23T07:10:23Z</time>
      </trkpt>
      <trkpt lat="47.30285" lon="0.62966">
        <ele>88.6</ele>
        <time>2012-09-23T07:10:24Z</time>
      </trkpt>
      <trkpt lat="47.30284" lon="0.62953">
        <ele>88.7</ele>
        <time>2012-09-23T07:10:26Z</time>
      </trkpt>
      <trkpt lat="47.30283" lon="0.6294">
        <ele>88.8</ele>
        <time>2012-09-23T07:10:28Z</time>
      </trkpt>
      <trkpt lat="47.30282" lon="0.62931">
        <ele>88.8</ele>
        <time>2012-09-23T07:10:29Z</time>
      </trkpt>
      <trkpt lat="47.3028" lon="0.62923">
        <ele>88.9</ele>
        <time>2012-09-23T07:10:30Z</time>
      </trkpt>
      <trkpt lat="47.30279" lon="0.62916">
        <ele>88.9</ele>
        <time>2012-09-23T07:10:31Z</time>
      </trkpt>
      <trkpt lat="47.30277" lon="0.62909">
        <ele>88.9</ele>
        <time>2012-09-23T07:10:32Z</time>
      </trkpt>
      <trkpt lat="47.30276" lon="0.62902">
        <ele>88.9</ele>
        <time>2012-09-23T07:10:33Z</time>
      </trkpt>
      <trkpt lat="47.30274" lon="0.62894">
        <ele>88.9</ele>
        <time>2012-09-23T07:10:34Z</time>
      </trkpt>
      <trkpt lat="47.30273" lon="0.62887">
        <ele>88.9</ele>
        <time>2012-09-23T07:10:35Z</time>
      </trkpt>
      <trkpt lat="47.30272" lon="0.6288">
        <ele>88.8</ele>
        <time>2012-09-23T07:10:36Z</time>
      </trkpt>
      <trkpt lat="47.30271" lon="0.62873">
        <ele>88.8</ele>
        <time>2012-09-23T07:10:37Z</time>
      </trkpt>
      <trkpt lat="47.3027" lon="0.62866">
        <ele>88.8</ele>
        <time>2012-09-23T07:10:38Z</time>
      </trkpt>
      <trkpt lat="47.3027" lon="0.62858">
        <ele>88.8</ele>
        <time>2012-09-23T07:10:39Z</time>
      </trkpt>
      <trkpt lat="47.3027" lon="0.6285">
        <ele>88.8</ele>
        <time>2012-09-23T07:10:40Z</time>
      </trkpt>
      <trkpt lat="47.3027" lon="0.62842">
        <ele>88.7</ele>
        <time>2012-09-23T07:10:41Z</time>
      </trkpt>
      <trkpt lat="47.3027" lon="0.62835">
        <ele>88.7</ele>
        <time>2012-09-23T07:10:42Z</time>
      </trkpt>
      <trkpt lat="47.3027" lon="0.62827">
        <ele>88.7</ele>
        <time>2012-09-23T07:10:43Z</time>
      </trkpt>
      <trkpt lat="47.3027" lon="0.6282">
        <ele>88.7</ele>
        <time>2012-09-23T07:10:44Z</time>
      </trkpt>
      <trkpt lat="47.30271" lon="0.62811">
        <ele>88.7</ele>
        <time>2012-09-23T07:10:45Z</time>
      </trkpt>
      <trkpt lat="47.30271" lon="0.62804">
        <ele>88.7</ele>
        <time>2012-09-23T07:10:46Z</time>
      </trkpt>
      <trkpt lat="47.30272" lon="0.62796">
        <ele>88.7</ele>
        <time>2012-09-23T07:10:47Z</time>
      </trkpt>
      <trkpt lat="47.30272" lon="0.62789">
        <ele>88.7</ele>
        <time>2012-09-23T07:10:48Z</time>
      </trkpt>
      <trkpt lat="47.30273" lon="0.62782">
        <ele>88.7</ele>
        <time>2012-09-23T07:10:49Z</time>
      </trkpt>
      <trkpt lat="47.30274" lon="0.62775">
        <ele>88.7</ele>
        <time>2012-09-23T07:10:50Z</time>
      </trkpt>
      <trkpt lat="47.30275" lon="0.62767">
        <ele>88.6</ele>
        <time>2012-09-23T07:10:51Z</time>
      </trkpt>
      <trkpt lat="47.30276" lon="0.62759">
        <ele>88.6</ele>
        <time>2012-09-23T07:10:52Z</time>
      </trkpt>
      <trkpt lat="47.30277" lon="0.62751">
        <ele>88.6</ele>
        <time>2012-09-23T07:10:53Z</time>
      </trkpt>
      <trkpt lat="47.30279" lon="0.62739">
        <ele>88.9</ele>
        <time>2012-09-23T07:10:55Z</time>
      </trkpt>
      <trkpt lat="47.3028" lon="0.62732">
        <ele>89</ele>
        <time>2012-09-23T07:10:56Z</time>
      </trkpt>
      <trkpt lat="47.30281" lon="0.62725">
        <ele>89.2</ele>
        <time>2012-09-23T07:10:57Z</time>
      </trkpt>
      <trkpt lat="47.30282" lon="0.62717">
        <ele>89.4</ele>
        <time>2012-09-23T07:10:58Z</time>
      </trkpt>
      <trkpt lat="47.30283" lon="0.62709">
        <ele>89.6</ele>
        <time>2012-09-23T07:10:59Z</time>
      </trkpt>
      <trkpt lat="47.30285" lon="0.62697">
        <ele>90</ele>
        <time>2012-09-23T07:11:01Z</time>
      </trkpt>
      <trkpt lat="47.30286" lon="0.62689">
        <ele>90.2</ele>
        <time>2012-09-23T07:11:02Z</time>
      </trkpt>
      <trkpt lat="47.30287" lon="0.62682">
        <ele>90.4</ele>
        <time>2012-09-23T07:11:03Z</time>
      </trkpt>
      <trkpt lat="47.30287" lon="0.62675">
        <ele>90.6</ele>
        <time>2012-09-23T07:11:04Z</time>
      </trkpt>
      <trkpt lat="47.30287" lon="0.62668">
        <ele>90.8</ele>
        <time>2012-09-23T07:11:05Z</time>
      </trkpt>
      <trkpt lat="47.30287" lon="0.62661">
        <ele>91</ele>
        <time>2012-09-23T07:11:06Z</time>
      </trkpt>
      <trkpt lat="47.30286" lon="0.62653">
        <ele>91.2</ele>
        <time>2012-09-23T07:11:07Z</time>
      </trkpt>
      <trkpt lat="47.30285" lon="0.62646">
        <ele>91.4</ele>
        <time>2012-09-23T07:11:08Z</time>
      </trkpt>
      <trkpt lat="47.30282" lon="0.62634">
        <ele>91.7</ele>
        <time>2012-09-23T07:11:10Z</time>
      </trkpt>
      <trkpt lat="47.30279" lon="0.62622">
        <ele>91.9</ele>
        <time>2012-09-23T07:11:12Z</time>
      </trkpt>
      <trkpt lat="47.30275" lon="0.62611">
        <ele>92.1</ele>
        <time>2012-09-23T07:11:14Z</time>
      </trkpt>
      <trkpt lat="47.30273" lon="0.62604">
        <ele>92.3</ele>
        <time>2012-09-23T07:11:15Z</time>
      </trkpt>
      <trkpt lat="47.30272" lon="0.62597">
        <ele>92.4</ele>
        <time>2012-09-23T07:11:16Z</time>
      </trkpt>
      <trkpt lat="47.3027" lon="0.6259">
        <ele>92.5</ele>
        <time>2012-09-23T07:11:17Z</time>
      </trkpt>
      <trkpt lat="47.30269" lon="0.62583">
        <ele>92.6</ele>
        <time>2012-09-23T07:11:18Z</time>
      </trkpt>
      <trkpt lat="47.30268" lon="0.62575">
        <ele>92.5</ele>
        <time>2012-09-23T07:11:19Z</time>
      </trkpt>
      <trkpt lat="47.30267" lon="0.62568">
        <ele>92.4</ele>
        <time>2012-09-23T07:11:20Z</time>
      </trkpt>
      <trkpt lat="47.30267" lon="0.62561">
        <ele>92.3</ele>
        <time>2012-09-23T07:11:21Z</time>
      </trkpt>
      <trkpt lat="47.30266" lon="0.62553">
        <ele>92.2</ele>
        <time>2012-09-23T07:11:22Z</time>
      </trkpt>
      <trkpt lat="47.30265" lon="0.62546">
        <ele>92.1</ele>
        <time>2012-09-23T07:11:23Z</time>
      </trkpt>
      <trkpt lat="47.30265" lon="0.62539">
        <ele>92</ele>
        <time>2012-09-23T07:11:24Z</time>
      </trkpt>
      <trkpt lat="47.30265" lon="0.62531">
        <ele>92</ele>
        <time>2012-09-23T07:11:25Z</time>
      </trkpt>
      <trkpt lat="47.30265" lon="0.62523">
        <ele>91.9</ele>
        <time>2012-09-23T07:11:26Z</time>
      </trkpt>
      <trkpt lat="47.30265" lon="0.62516">
        <ele>91.8</ele>
        <time>2012-09-23T07:11:27Z</time>
      </trkpt>
      <trkpt lat="47.30264" lon="0.6251">
        <ele>91.7</ele>
        <time>2012-09-23T07:11:28Z</time>
      </trkpt>
      <trkpt lat="47.30264" lon="0.62503">
        <ele>91.6</ele>
        <time>2012-09-23T07:11:29Z</time>
      </trkpt>
      <trkpt lat="47.30264" lon="0.62495">
        <ele>91.6</ele>
        <time>2012-09-23T07:11:30Z</time>
      </trkpt>
      <trkpt lat="47.30264" lon="0.62487">
        <ele>91.5</ele>
        <time>2012-09-23T07:11:31Z</time>
      </trkpt>
      <trkpt lat="47.30264" lon="0.62479">
        <ele>91.4</ele>
        <time>2012-09-23T07:11:32Z</time>
      </trkpt>
      <trkpt lat="47.30264" lon="0.62471">
        <ele>91.2</ele>
        <time>2012-09-23T07:11:33Z</time>
      </trkpt>
      <trkpt lat="47.30263" lon="0.62463">
        <ele>91.1</ele>
        <time>2012-09-23T07:11:34Z</time>
      </trkpt>
      <trkpt lat="47.30263" lon="0.62455">
        <ele>91</ele>
        <time>2012-09-23T07:11:35Z</time>
      </trkpt>
      <trkpt lat="47.30263" lon="0.62447">
        <ele>90.9</ele>
        <time>2012-09-23T07:11:36Z</time>
      </trkpt>
      <trkpt lat="47.30262" lon="0.62439">
        <ele>90.8</ele>
        <time>2012-09-23T07:11:37Z</time>
      </trkpt>
      <trkpt lat="47.30262" lon="0.62432">
        <ele>90.7</ele>
        <time>2012-09-23T07:11:38Z</time>
      </trkpt>
      <trkpt lat="47.30262" lon="0.62424">
        <ele>90.6</ele>
        <time>2012-09-23T07:11:39Z</time>
      </trkpt>
      <trkpt lat="47.30262" lon="0.62415">
        <ele>90.6</ele>
        <time>2012-09-23T07:11:40Z</time>
      </trkpt>
      <trkpt lat="47.30262" lon="0.62406">
        <ele>90.7</ele>
        <time>2012-09-23T07:11:41Z</time>
      </trkpt>
      <trkpt lat="47.30261" lon="0.62397">
        <ele>90.7</ele>
        <time>2012-09-23T07:11:42Z</time>
      </trkpt>
      <trkpt lat="47.30261" lon="0.62389">
        <ele>90.8</ele>
        <time>2012-09-23T07:11:43Z</time>
      </trkpt>
      <trkpt lat="47.30261" lon="0.62382">
        <ele>90.9</ele>
        <time>2012-09-23T07:11:44Z</time>
      </trkpt>
      <trkpt lat="47.30261" lon="0.62373">
        <ele>91</ele>
        <time>2012-09-23T07:11:45Z</time>
      </trkpt>
      <trkpt lat="47.30261" lon="0.62365">
        <ele>91.1</ele>
        <time>2012-09-23T07:11:46Z</time>
      </trkpt>
      <trkpt lat="47.30261" lon="0.62355">
        <ele>91.2</ele>
        <time>2012-09-23T07:11:47Z</time>
      </trkpt>
      <trkpt lat="47.30261" lon="0.62346">
        <ele>91.3</ele>
        <time>2012-09-23T07:11:48Z</time>
      </trkpt>
      <trkpt lat="47.30261" lon="0.62338">
        <ele>91.4</ele>
        <time>2012-09-23T07:11:49Z</time>
      </trkpt>
      <trkpt lat="47.30262" lon="0.6233">
        <ele>91.6</ele>
        <time>2012-09-23T07:11:50Z</time>
      </trkpt>
      <trkpt lat="47.30262" lon="0.62322">
        <ele>91.7</ele>
        <time>2012-09-23T07:11:51Z</time>
      </trkpt>
      <trkpt lat="47.30264" lon="0.62313">
        <ele>91.8</ele>
        <time>2012-09-23T07:11:52Z</time>
      </trkpt>
      <trkpt lat="47.30265" lon="0.62305">
        <ele>92</ele>
        <time>2012-09-23T07:11:53Z</time>
      </trkpt>
      <trkpt lat="47.30267" lon="0.62298">
        <ele>92.1</ele>
        <time>2012-09-23T07:11:54Z</time>
      </trkpt>
      <trkpt lat="47.3027" lon="0.6229">
        <ele>92.3</ele>
        <time>2012-09-23T07:11:55Z</time>
      </trkpt>
      <trkpt lat="47.30272" lon="0.62284">
        <ele>92.4</ele>
        <time>2012-09-23T07:11:56Z</time>
      </trkpt>
      <trkpt lat="47.30275" lon="0.62277">
        <ele>92.6</ele>
        <time>2012-09-23T07:11:57Z</time>
      </trkpt>
      <trkpt lat="47.30278" lon="0.6227">
        <ele>92.8</ele>
        <time>2012-09-23T07:11:58Z</time>
      </trkpt>
      <trkpt lat="47.30282" lon="0.62264">
        <ele>93</ele>
        <time>2012-09-23T07:11:59Z</time>
      </trkpt>
      <trkpt lat="47.30285" lon="0.62259">
        <ele>93.2</ele>
        <time>2012-09-23T07:12:00Z</time>
      </trkpt>
      <trkpt lat="47.30289" lon="0.62254">
        <ele>93.4</ele>
        <time>2012-09-23T07:12:01Z</time>
      </trkpt>
      <trkpt lat="47.30293" lon="0.62249">
        <ele>93.5</ele>
        <time>2012-09-23T07:12:02Z</time>
      </trkpt>
      <trkpt lat="47.30297" lon="0.62245">
        <ele>93.6</ele>
        <time>2012-09-23T07:12:03Z</time>
      </trkpt>
      <trkpt lat="47.30301" lon="0.6224">
        <ele>93.8</ele>
        <time>2012-09-23T07:12:04Z</time>
      </trkpt>
      <trkpt lat="47.30306" lon="0.62236">
        <ele>94</ele>
        <time>2012-09-23T07:12:05Z</time>
      </trkpt>
      <trkpt lat="47.3031" lon="0.62231">
        <ele>94.1</ele>
        <time>2012-09-23T07:12:06Z</time>
      </trkpt>
      <trkpt lat="47.30314" lon="0.62226">
        <ele>94.2</ele>
        <time>2012-09-23T07:12:07Z</time>
      </trkpt>
      <trkpt lat="47.3032" lon="0.62218">
        <ele>94.5</ele>
        <time>2012-09-23T07:12:09Z</time>
      </trkpt>
      <trkpt lat="47.30324" lon="0.62213">
        <ele>94.6</ele>
        <time>2012-09-23T07:12:10Z</time>
      </trkpt>
      <trkpt lat="47.3033" lon="0.62203">
        <ele>94.8</ele>
        <time>2012-09-23T07:12:12Z</time>
      </trkpt>
      <trkpt lat="47.30335" lon="0.62194">
        <ele>95</ele>
        <time>2012-09-23T07:12:14Z</time>
      </trkpt>
      <trkpt lat="47.30339" lon="0.62184">
        <ele>95.1</ele>
        <time>2012-09-23T07:12:16Z</time>
      </trkpt>
      <trkpt lat="47.30341" lon="0.62177">
        <ele>95.2</ele>
        <time>2012-09-23T07:12:17Z</time>
      </trkpt>
      <trkpt lat="47.30343" lon="0.6217">
        <ele>95.2</ele>
        <time>2012-09-23T07:12:18Z</time>
      </trkpt>
      <trkpt lat="47.30345" lon="0.62157">
        <ele>95.1</ele>
        <time>2012-09-23T07:12:20Z</time>
      </trkpt>
      <trkpt lat="47.30349" lon="0.62146">
        <ele>95</ele>
        <time>2012-09-23T07:12:22Z</time>
      </trkpt>
      <trkpt lat="47.30354" lon="0.62136">
        <ele>95</ele>
        <time>2012-09-23T07:12:24Z</time>
      </trkpt>
      <trkpt lat="47.30356" lon="0.6213">
        <ele>94.9</ele>
        <time>2012-09-23T07:12:25Z</time>
      </trkpt>
      <trkpt lat="47.30359" lon="0.62125">
        <ele>94.9</ele>
        <time>2012-09-23T07:12:26Z</time>
      </trkpt>
      <trkpt lat="47.30361" lon="0.62118">
        <ele>94.8</ele>
        <time>2012-09-23T07:12:27Z</time>
      </trkpt>
      <trkpt lat="47.30363" lon="0.62111">
        <ele>94.8</ele>
        <time>2012-09-23T07:12:28Z</time>
      </trkpt>
      <trkpt lat="47.30365" lon="0.62103">
        <ele>94.7</ele>
        <time>2012-09-23T07:12:29Z</time>
      </trkpt>
      <trkpt lat="47.30368" lon="0.62098">
        <ele>94.6</ele>
        <time>2012-09-23T07:12:30Z</time>
      </trkpt>
      <trkpt lat="47.3037" lon="0.62091">
        <ele>94.5</ele>
        <time>2012-09-23T07:12:31Z</time>
      </trkpt>
      <trkpt lat="47.30373" lon="0.62085">
        <ele>94.4</ele>
        <time>2012-09-23T07:12:32Z</time>
      </trkpt>
      <trkpt lat="47.30376" lon="0.62079">
        <ele>94.3</ele>
        <time>2012-09-23T07:12:33Z</time>
      </trkpt>
      <trkpt lat="47.30378" lon="0.62073">
        <ele>94.1</ele>
        <time>2012-09-23T07:12:34Z</time>
      </trkpt>
      <trkpt lat="47.3038" lon="0.62066">
        <ele>93.9</ele>
        <time>2012-09-23T07:12:35Z</time>
      </trkpt>
      <trkpt lat="47.30383" lon="0.62058">
        <ele>93.7</ele>
        <time>2012-09-23T07:12:36Z</time>
      </trkpt>
      <trkpt lat="47.30385" lon="0.62051">
        <ele>93.5</ele>
        <time>2012-09-23T07:12:37Z</time>
      </trkpt>
      <trkpt lat="47.30387" lon="0.62045">
        <ele>93.3</ele>
        <time>2012-09-23T07:12:38Z</time>
      </trkpt>
      <trkpt lat="47.3039" lon="0.62039">
        <ele>93.2</ele>
        <time>2012-09-23T07:12:39Z</time>
      </trkpt>
      <trkpt lat="47.30393" lon="0.62033">
        <ele>93.1</ele>
        <time>2012-09-23T07:12:40Z</time>
      </trkpt>
      <trkpt lat="47.30396" lon="0.62027">
        <ele>93</ele>
        <time>2012-09-23T07:12:41Z</time>
      </trkpt>
      <trkpt lat="47.304" lon="0.6202">
        <ele>92.9</ele>
        <time>2012-09-23T07:12:42Z</time>
      </trkpt>
      <trkpt lat="47.30403" lon="0.62013">
        <ele>92.8</ele>
        <time>2012-09-23T07:12:43Z</time>
      </trkpt>
      <trkpt lat="47.30405" lon="0.62006">
        <ele>92.7</ele>
        <time>2012-09-23T07:12:44Z</time>
      </trkpt>
      <trkpt lat="47.30407" lon="0.62">
        <ele>92.6</ele>
        <time>2012-09-23T07:12:45Z</time>
      </trkpt>
      <trkpt lat="47.30409" lon="0.61994">
        <ele>92.7</ele>
        <time>2012-09-23T07:12:46Z</time>
      </trkpt>
      <trkpt lat="47.30411" lon="0.61987">
        <ele>92.8</ele>
        <time>2012-09-23T07:12:47Z</time>
      </trkpt>
      <trkpt lat="47.30413" lon="0.61981">
        <ele>92.8</ele>
        <time>2012-09-23T07:12:48Z</time>
      </trkpt>
      <trkpt lat="47.30417" lon="0.61975">
        <ele>93</ele>
        <time>2012-09-23T07:12:49Z</time>
      </trkpt>
      <trkpt lat="47.3042" lon="0.61969">
        <ele>93</ele>
        <time>2012-09-23T07:12:50Z</time>
      </trkpt>
      <trkpt lat="47.30422" lon="0.61962">
        <ele>93.1</ele>
        <time>2012-09-23T07:12:51Z</time>
      </trkpt>
      <trkpt lat="47.30425" lon="0.61955">
        <ele>93.2</ele>
        <time>2012-09-23T07:12:52Z</time>
      </trkpt>
      <trkpt lat="47.30428" lon="0.61949">
        <ele>93.3</ele>
        <time>2012-09-23T07:12:53Z</time>
      </trkpt>
      <trkpt lat="47.30431" lon="0.61942">
        <ele>93.4</ele>
        <time>2012-09-23T07:12:54Z</time>
      </trkpt>
      <trkpt lat="47.30435" lon="0.61931">
        <ele>93.6</ele>
        <time>2012-09-23T07:12:56Z</time>
      </trkpt>
      <trkpt lat="47.30438" lon="0.61925">
        <ele>93.7</ele>
        <time>2012-09-23T07:12:57Z</time>
      </trkpt>
      <trkpt lat="47.3044" lon="0.61918">
        <ele>93.8</ele>
        <time>2012-09-23T07:12:58Z</time>
      </trkpt>
      <trkpt lat="47.30441" lon="0.61911">
        <ele>93.7</ele>
        <time>2012-09-23T07:12:59Z</time>
      </trkpt>
      <trkpt lat="47.30441" lon="0.61903">
        <ele>93.6</ele>
        <time>2012-09-23T07:13:00Z</time>
      </trkpt>
      <trkpt lat="47.30442" lon="0.61894">
        <ele>93.6</ele>
        <time>2012-09-23T07:13:01Z</time>
      </trkpt>
      <trkpt lat="47.30441" lon="0.61887">
        <ele>93.4</ele>
        <time>2012-09-23T07:13:02Z</time>
      </trkpt>
      <trkpt lat="47.30441" lon="0.6188">
        <ele>93.3</ele>
        <time>2012-09-23T07:13:03Z</time>
      </trkpt>
      <trkpt lat="47.30441" lon="0.61873">
        <ele>93.2</ele>
        <time>2012-09-23T07:13:04Z</time>
      </trkpt>
      <trkpt lat="47.3044" lon="0.61866">
        <ele>93.1</ele>
        <time>2012-09-23T07:13:05Z</time>
      </trkpt>
      <trkpt lat="47.3044" lon="0.61857">
        <ele>93</ele>
        <time>2012-09-23T07:13:06Z</time>
      </trkpt>
      <trkpt lat="47.3044" lon="0.61848">
        <ele>92.9</ele>
        <time>2012-09-23T07:13:07Z</time>
      </trkpt>
      <trkpt lat="47.30441" lon="0.61838">
        <ele>92.7</ele>
        <time>2012-09-23T07:13:08Z</time>
      </trkpt>
      <trkpt lat="47.30441" lon="0.61829">
        <ele>92.7</ele>
        <time>2012-09-23T07:13:09Z</time>
      </trkpt>
      <trkpt lat="47.30442" lon="0.6182">
        <ele>92.7</ele>
        <time>2012-09-23T07:13:10Z</time>
      </trkpt>
      <trkpt lat="47.30443" lon="0.61811">
        <ele>92.7</ele>
        <time>2012-09-23T07:13:11Z</time>
      </trkpt>
      <trkpt lat="47.30444" lon="0.61803">
        <ele>92.7</ele>
        <time>2012-09-23T07:13:12Z</time>
      </trkpt>
      <trkpt lat="47.30446" lon="0.61794">
        <ele>92.8</ele>
        <time>2012-09-23T07:13:13Z</time>
      </trkpt>
      <trkpt lat="47.30448" lon="0.61785">
        <ele>92.8</ele>
        <time>2012-09-23T07:13:14Z</time>
      </trkpt>
      <trkpt lat="47.30449" lon="0.61776">
        <ele>92.9</ele>
        <time>2012-09-23T07:13:15Z</time>
      </trkpt>
      <trkpt lat="47.30451" lon="0.61767">
        <ele>93</ele>
        <time>2012-09-23T07:13:16Z</time>
      </trkpt>
      <trkpt lat="47.30453" lon="0.61758">
        <ele>93</ele>
        <time>2012-09-23T07:13:17Z</time>
      </trkpt>
      <trkpt lat="47.30455" lon="0.6175">
        <ele>93.1</ele>
        <time>2012-09-23T07:13:18Z</time>
      </trkpt>
      <trkpt lat="47.30457" lon="0.61743">
        <ele>93.3</ele>
        <time>2012-09-23T07:13:19Z</time>
      </trkpt>
      <trkpt lat="47.30459" lon="0.61735">
        <ele>93.4</ele>
        <time>2012-09-23T07:13:20Z</time>
      </trkpt>
      <trkpt lat="47.30461" lon="0.61728">
        <ele>93.6</ele>
        <time>2012-09-23T07:13:21Z</time>
      </trkpt>
      <trkpt lat="47.30464" lon="0.6172">
        <ele>93.7</ele>
        <time>2012-09-23T07:13:22Z</time>
      </trkpt>
      <trkpt lat="47.30466" lon="0.61714">
        <ele>93.8</ele>
        <time>2012-09-23T07:13:23Z</time>
      </trkpt>
      <trkpt lat="47.30468" lon="0.61706">
        <ele>93.9</ele>
        <time>2012-09-23T07:13:24Z</time>
      </trkpt>
      <trkpt lat="47.3047" lon="0.61698">
        <ele>94</ele>
        <time>2012-09-23T07:13:25Z</time>
      </trkpt>
      <trkpt lat="47.30472" lon="0.61691">
        <ele>94.1</ele>
        <time>2012-09-23T07:13:26Z</time>
      </trkpt>
      <trkpt lat="47.30474" lon="0.61684">
        <ele>94.2</ele>
        <time>2012-09-23T07:13:27Z</time>
      </trkpt>
      <trkpt lat="47.30475" lon="0.61677">
        <ele>94.3</ele>
        <time>2012-09-23T07:13:28Z</time>
      </trkpt>
      <trkpt lat="47.30476" lon="0.61671">
        <ele>94.3</ele>
        <time>2012-09-23T07:13:29Z</time>
      </trkpt>
      <trkpt lat="47.30478" lon="0.61661">
        <ele>94.3</ele>
        <time>2012-09-23T07:13:30Z</time>
      </trkpt>
      <trkpt lat="47.30479" lon="0.61652">
        <ele>94.3</ele>
        <time>2012-09-23T07:13:31Z</time>
      </trkpt>
      <trkpt lat="47.30479" lon="0.61643">
        <ele>94.3</ele>
        <time>2012-09-23T07:13:32Z</time>
      </trkpt>
      <trkpt lat="47.3048" lon="0.61634">
        <ele>94.3</ele>
        <time>2012-09-23T07:13:33Z</time>
      </trkpt>
      <trkpt lat="47.3048" lon="0.61627">
        <ele>94.3</ele>
        <time>2012-09-23T07:13:34Z</time>
      </trkpt>
      <trkpt lat="47.30481" lon="0.61619">
        <ele>94.3</ele>
        <time>2012-09-23T07:13:35Z</time>
      </trkpt>
      <trkpt lat="47.30481" lon="0.61611">
        <ele>94.2</ele>
        <time>2012-09-23T07:13:36Z</time>
      </trkpt>
      <trkpt lat="47.30482" lon="0.61604">
        <ele>94.2</ele>
        <time>2012-09-23T07:13:37Z</time>
      </trkpt>
      <trkpt lat="47.30482" lon="0.61595">
        <ele>94.2</ele>
        <time>2012-09-23T07:13:38Z</time>
      </trkpt>
      <trkpt lat="47.30482" lon="0.61587">
        <ele>94.1</ele>
        <time>2012-09-23T07:13:39Z</time>
      </trkpt>
      <trkpt lat="47.30482" lon="0.6158">
        <ele>94</ele>
        <time>2012-09-23T07:13:40Z</time>
      </trkpt>
      <trkpt lat="47.30483" lon="0.61573">
        <ele>94</ele>
        <time>2012-09-23T07:13:41Z</time>
      </trkpt>
      <trkpt lat="47.30484" lon="0.61564">
        <ele>93.8</ele>
        <time>2012-09-23T07:13:42Z</time>
      </trkpt>
      <trkpt lat="47.30484" lon="0.61554">
        <ele>93.7</ele>
        <time>2012-09-23T07:13:43Z</time>
      </trkpt>
      <trkpt lat="47.30485" lon="0.61548">
        <ele>93.6</ele>
        <time>2012-09-23T07:13:44Z</time>
      </trkpt>
      <trkpt lat="47.30486" lon="0.61541">
        <ele>93.5</ele>
        <time>2012-09-23T07:13:45Z</time>
      </trkpt>
      <trkpt lat="47.30487" lon="0.61528">
        <ele>93.3</ele>
        <time>2012-09-23T07:13:47Z</time>
      </trkpt>
      <trkpt lat="47.30483" lon="0.61518">
        <ele>93</ele>
        <time>2012-09-23T07:13:49Z</time>
      </trkpt>
      <trkpt lat="47.30483" lon="0.61518">
        <ele>93</ele>
        <time>2012-09-23T07:13:49Z</time>
      </trkpt>
      <trkpt lat="47.30478" lon="0.61514">
        <ele>92.9</ele>
        <time>2012-09-23T07:13:50Z</time>
      </trkpt>
      <trkpt lat="47.30471" lon="0.61511">
        <ele>92.7</ele>
        <time>2012-09-23T07:13:52Z</time>
      </trkpt>
      <trkpt lat="47.30464" lon="0.61512">
        <ele>92.6</ele>
        <time>2012-09-23T07:13:54Z</time>
      </trkpt>
      <trkpt lat="47.30457" lon="0.61512">
        <ele>92.5</ele>
        <time>2012-09-23T07:13:56Z</time>
      </trkpt>
      <trkpt lat="47.30449" lon="0.61513">
        <ele>92.4</ele>
        <time>2012-09-23T07:13:58Z</time>
      </trkpt>
      <trkpt lat="47.30441" lon="0.61513">
        <ele>92.2</ele>
        <time>2012-09-23T07:14:00Z</time>
      </trkpt>
      <trkpt lat="47.30433" lon="0.61514">
        <ele>92.1</ele>
        <time>2012-09-23T07:14:02Z</time>
      </trkpt>
      <trkpt lat="47.30425" lon="0.61514">
        <ele>91.9</ele>
        <time>2012-09-23T07:14:04Z</time>
      </trkpt>
      <trkpt lat="47.30416" lon="0.61514">
        <ele>91.8</ele>
        <time>2012-09-23T07:14:06Z</time>
      </trkpt>
      <trkpt lat="47.30407" lon="0.61513">
        <ele>91.7</ele>
        <time>2012-09-23T07:14:08Z</time>
      </trkpt>
      <trkpt lat="47.304" lon="0.61513">
        <ele>91.6</ele>
        <time>2012-09-23T07:14:10Z</time>
      </trkpt>
      <trkpt lat="47.30393" lon="0.61513">
        <ele>91.5</ele>
        <time>2012-09-23T07:14:12Z</time>
      </trkpt>
      <trkpt lat="47.30385" lon="0.61513">
        <ele>91.4</ele>
        <time>2012-09-23T07:14:14Z</time>
      </trkpt>
      <trkpt lat="47.30381" lon="0.61513">
        <ele>91.4</ele>
        <time>2012-09-23T07:14:15Z</time>
      </trkpt>
      <trkpt lat="47.30372" lon="0.61513">
        <ele>91.3</ele>
        <time>2012-09-23T07:14:17Z</time>
      </trkpt>
      <trkpt lat="47.30364" lon="0.61513">
        <ele>91.2</ele>
        <time>2012-09-23T07:14:19Z</time>
      </trkpt>
      <trkpt lat="47.30359" lon="0.61513">
        <ele>91.1</ele>
        <time>2012-09-23T07:14:20Z</time>
      </trkpt>
      <trkpt lat="47.30355" lon="0.61512">
        <ele>91.1</ele>
        <time>2012-09-23T07:14:21Z</time>
      </trkpt>
      <trkpt lat="47.30347" lon="0.61512">
        <ele>91</ele>
        <time>2012-09-23T07:14:23Z</time>
      </trkpt>
      <trkpt lat="47.30338" lon="0.61512">
        <ele>90.9</ele>
        <time>2012-09-23T07:14:25Z</time>
      </trkpt>
      <trkpt lat="47.30331" lon="0.61511">
        <ele>90.8</ele>
        <time>2012-09-23T07:14:26Z</time>
      </trkpt>
      <trkpt lat="47.30326" lon="0.61512">
        <ele>90.8</ele>
        <time>2012-09-23T07:14:27Z</time>
      </trkpt>
      <trkpt lat="47.30317" lon="0.61512">
        <ele>90.8</ele>
        <time>2012-09-23T07:14:29Z</time>
      </trkpt>
      <trkpt lat="47.30309" lon="0.61512">
        <ele>90.9</ele>
        <time>2012-09-23T07:14:31Z</time>
      </trkpt>
      <trkpt lat="47.30304" lon="0.61513">
        <ele>90.9</ele>
        <time>2012-09-23T07:14:32Z</time>
      </trkpt>
      <trkpt lat="47.30299" lon="0.61513">
        <ele>90.9</ele>
        <time>2012-09-23T07:14:33Z</time>
      </trkpt>
      <trkpt lat="47.30293" lon="0.61514">
        <ele>90.9</ele>
        <time>2012-09-23T07:14:34Z</time>
      </trkpt>
      <trkpt lat="47.30289" lon="0.61513">
        <ele>90.9</ele>
        <time>2012-09-23T07:14:35Z</time>
      </trkpt>
      <trkpt lat="47.30281" lon="0.61512">
        <ele>90.9</ele>
        <time>2012-09-23T07:14:37Z</time>
      </trkpt>
      <trkpt lat="47.30276" lon="0.61512">
        <ele>90.9</ele>
        <time>2012-09-23T07:14:38Z</time>
      </trkpt>
      <trkpt lat="47.30271" lon="0.61512">
        <ele>90.9</ele>
        <time>2012-09-23T07:14:39Z</time>
      </trkpt>
      <trkpt lat="47.30266" lon="0.61512">
        <ele>90.9</ele>
        <time>2012-09-23T07:14:40Z</time>
      </trkpt>
      <trkpt lat="47.30262" lon="0.61512">
        <ele>90.9</ele>
        <time>2012-09-23T07:14:41Z</time>
      </trkpt>
      <trkpt lat="47.30257" lon="0.61512">
        <ele>90.9</ele>
        <time>2012-09-23T07:14:42Z</time>
      </trkpt>
      <trkpt lat="47.30248" lon="0.61513">
        <ele>90.9</ele>
        <time>2012-09-23T07:14:44Z</time>
      </trkpt>
      <trkpt lat="47.3024" lon="0.61513">
        <ele>90.8</ele>
        <time>2012-09-23T07:14:46Z</time>
      </trkpt>
      <trkpt lat="47.30235" lon="0.61513">
        <ele>90.8</ele>
        <time>2012-09-23T07:14:47Z</time>
      </trkpt>
      <trkpt lat="47.3023" lon="0.61513">
        <ele>90.7</ele>
        <time>2012-09-23T07:14:48Z</time>
      </trkpt>
      <trkpt lat="47.30221" lon="0.61513">
        <ele>90.6</ele>
        <time>2012-09-23T07:14:50Z</time>
      </trkpt>
      <trkpt lat="47.30218" lon="0.61512">
        <ele>90.6</ele>
        <time>2012-09-23T07:14:51Z</time>
      </trkpt>
      <trkpt lat="47.30209" lon="0.61512">
        <ele>90.5</ele>
        <time>2012-09-23T07:14:53Z</time>
      </trkpt>
      <trkpt lat="47.30204" lon="0.61512">
        <ele>90.4</ele>
        <time>2012-09-23T07:14:54Z</time>
      </trkpt>
      <trkpt lat="47.302" lon="0.61512">
        <ele>90.3</ele>
        <time>2012-09-23T07:14:55Z</time>
      </trkpt>
      <trkpt lat="47.30195" lon="0.61511">
        <ele>90.3</ele>
        <time>2012-09-23T07:14:56Z</time>
      </trkpt>
      <trkpt lat="47.3019" lon="0.61511">
        <ele>90.2</ele>
        <time>2012-09-23T07:14:57Z</time>
      </trkpt>
      <trkpt lat="47.30181" lon="0.61511">
        <ele>90.1</ele>
        <time>2012-09-23T07:14:59Z</time>
      </trkpt>
      <trkpt lat="47.30173" lon="0.61511">
        <ele>90</ele>
        <time>2012-09-23T07:15:01Z</time>
      </trkpt>
      <trkpt lat="47.30164" lon="0.61513">
        <ele>90</ele>
        <time>2012-09-23T07:15:03Z</time>
      </trkpt>
      <trkpt lat="47.3016" lon="0.61513">
        <ele>90.1</ele>
        <time>2012-09-23T07:15:04Z</time>
      </trkpt>
      <trkpt lat="47.30155" lon="0.61513">
        <ele>90.2</ele>
        <time>2012-09-23T07:15:05Z</time>
      </trkpt>
      <trkpt lat="47.30148" lon="0.61512">
        <ele>90.4</ele>
        <time>2012-09-23T07:15:07Z</time>
      </trkpt>
      <trkpt lat="47.30139" lon="0.61511">
        <ele>90.6</ele>
        <time>2012-09-23T07:15:09Z</time>
      </trkpt>
      <trkpt lat="47.30135" lon="0.61512">
        <ele>90.7</ele>
        <time>2012-09-23T07:15:10Z</time>
      </trkpt>
      <trkpt lat="47.3013" lon="0.61512">
        <ele>90.8</ele>
        <time>2012-09-23T07:15:11Z</time>
      </trkpt>
      <trkpt lat="47.30122" lon="0.61511">
        <ele>91</ele>
        <time>2012-09-23T07:15:13Z</time>
      </trkpt>
      <trkpt lat="47.30114" lon="0.61511">
        <ele>91.2</ele>
        <time>2012-09-23T07:15:15Z</time>
      </trkpt>
      <trkpt lat="47.30105" lon="0.61511">
        <ele>91.4</ele>
        <time>2012-09-23T07:15:17Z</time>
      </trkpt>
      <trkpt lat="47.30097" lon="0.6151">
        <ele>91.6</ele>
        <time>2012-09-23T07:15:19Z</time>
      </trkpt>
      <trkpt lat="47.30092" lon="0.6151">
        <ele>91.7</ele>
        <time>2012-09-23T07:15:20Z</time>
      </trkpt>
      <trkpt lat="47.30087" lon="0.6151">
        <ele>91.9</ele>
        <time>2012-09-23T07:15:21Z</time>
      </trkpt>
      <trkpt lat="47.30082" lon="0.6151">
        <ele>92</ele>
        <time>2012-09-23T07:15:22Z</time>
      </trkpt>
      <trkpt lat="47.30077" lon="0.61511">
        <ele>92</ele>
        <time>2012-09-23T07:15:23Z</time>
      </trkpt>
      <trkpt lat="47.30073" lon="0.61511">
        <ele>92</ele>
        <time>2012-09-23T07:15:24Z</time>
      </trkpt>
      <trkpt lat="47.30067" lon="0.61512">
        <ele>92</ele>
        <time>2012-09-23T07:15:25Z</time>
      </trkpt>
      <trkpt lat="47.30062" lon="0.61512">
        <ele>92</ele>
        <time>2012-09-23T07:15:26Z</time>
      </trkpt>
      <trkpt lat="47.30057" lon="0.61512">
        <ele>92</ele>
        <time>2012-09-23T07:15:27Z</time>
      </trkpt>
      <trkpt lat="47.30049" lon="0.61512">
        <ele>92</ele>
        <time>2012-09-23T07:15:29Z</time>
      </trkpt>
      <trkpt lat="47.30044" lon="0.61512">
        <ele>92</ele>
        <time>2012-09-23T07:15:30Z</time>
      </trkpt>
      <trkpt lat="47.30036" lon="0.61513">
        <ele>92</ele>
        <time>2012-09-23T07:15:32Z</time>
      </trkpt>
      <trkpt lat="47.30028" lon="0.61513">
        <ele>92.1</ele>
        <time>2012-09-23T07:15:34Z</time>
      </trkpt>
      <trkpt lat="47.30019" lon="0.61513">
        <ele>92.1</ele>
        <time>2012-09-23T07:15:36Z</time>
      </trkpt>
      <trkpt lat="47.30015" lon="0.61512">
        <ele>92.1</ele>
        <time>2012-09-23T07:15:37Z</time>
      </trkpt>
      <trkpt lat="47.3001" lon="0.61512">
        <ele>92.1</ele>
        <time>2012-09-23T07:15:38Z</time>
      </trkpt>
      <trkpt lat="47.30005" lon="0.61512">
        <ele>92.1</ele>
        <time>2012-09-23T07:15:39Z</time>
      </trkpt>
      <trkpt lat="47.3" lon="0.61512">
        <ele>92.1</ele>
        <time>2012-09-23T07:15:40Z</time>
      </trkpt>
      <trkpt lat="47.29996" lon="0.61512">
        <ele>92.1</ele>
        <time>2012-09-23T07:15:41Z</time>
      </trkpt>
      <trkpt lat="47.29991" lon="0.61511">
        <ele>92.1</ele>
        <time>2012-09-23T07:15:42Z</time>
      </trkpt>
      <trkpt lat="47.29983" lon="0.61511">
        <ele>92</ele>
        <time>2012-09-23T07:15:44Z</time>
      </trkpt>
      <trkpt lat="47.29974" lon="0.6151">
        <ele>92</ele>
        <time>2012-09-23T07:15:46Z</time>
      </trkpt>
      <trkpt lat="47.2997" lon="0.6151">
        <ele>92</ele>
        <time>2012-09-23T07:15:47Z</time>
      </trkpt>
      <trkpt lat="47.29962" lon="0.6151">
        <ele>92</ele>
        <time>2012-09-23T07:15:49Z</time>
      </trkpt>
      <trkpt lat="47.29954" lon="0.61511">
        <ele>92</ele>
        <time>2012-09-23T07:15:51Z</time>
      </trkpt>
      <trkpt lat="47.2995" lon="0.6151">
        <ele>92</ele>
        <time>2012-09-23T07:15:52Z</time>
      </trkpt>
      <trkpt lat="47.29939" lon="0.61509">
        <ele>92</ele>
        <time>2012-09-23T07:15:55Z</time>
      </trkpt>
      <trkpt lat="47.29931" lon="0.61509">
        <ele>92</ele>
        <time>2012-09-23T07:15:57Z</time>
      </trkpt>
      <trkpt lat="47.29927" lon="0.6151">
        <ele>92</ele>
        <time>2012-09-23T07:15:58Z</time>
      </trkpt>
      <trkpt lat="47.29921" lon="0.6151">
        <ele>92</ele>
        <time>2012-09-23T07:15:59Z</time>
      </trkpt>
      <trkpt lat="47.29917" lon="0.6151">
        <ele>92</ele>
        <time>2012-09-23T07:16:00Z</time>
      </trkpt>
      <trkpt lat="47.29912" lon="0.6151">
        <ele>91.9</ele>
        <time>2012-09-23T07:16:01Z</time>
      </trkpt>
      <trkpt lat="47.29907" lon="0.61509">
        <ele>91.9</ele>
        <time>2012-09-23T07:16:02Z</time>
      </trkpt>
      <trkpt lat="47.29901" lon="0.61503">
        <ele>91.8</ele>
        <time>2012-09-23T07:16:04Z</time>
      </trkpt>
      <trkpt lat="47.29901" lon="0.61503">
        <ele>91.8</ele>
        <time>2012-09-23T07:16:04Z</time>
      </trkpt>
      <trkpt lat="47.29899" lon="0.61494">
        <ele>91.8</ele>
        <time>2012-09-23T07:16:06Z</time>
      </trkpt>
      <trkpt lat="47.299" lon="0.61483">
        <ele>91.8</ele>
        <time>2012-09-23T07:16:08Z</time>
      </trkpt>
      <trkpt lat="47.29901" lon="0.61472">
        <ele>91.8</ele>
        <time>2012-09-23T07:16:10Z</time>
      </trkpt>
      <trkpt lat="47.29902" lon="0.61461">
        <ele>91.9</ele>
        <time>2012-09-23T07:16:12Z</time>
      </trkpt>
      <trkpt lat="47.29903" lon="0.6145">
        <ele>91.9</ele>
        <time>2012-09-23T07:16:14Z</time>
      </trkpt>
      <trkpt lat="47.29904" lon="0.61438">
        <ele>91.9</ele>
        <time>2012-09-23T07:16:16Z</time>
      </trkpt>
      <trkpt lat="47.29905" lon="0.6143">
        <ele>91.9</ele>
        <time>2012-09-23T07:16:18Z</time>
      </trkpt>
      <trkpt lat="47.29906" lon="0.61418">
        <ele>91.9</ele>
        <time>2012-09-23T07:16:20Z</time>
      </trkpt>
      <trkpt lat="47.29907" lon="0.61407">
        <ele>92.1</ele>
        <time>2012-09-23T07:16:22Z</time>
      </trkpt>
      <trkpt lat="47.29907" lon="0.614">
        <ele>92.1</ele>
        <time>2012-09-23T07:16:23Z</time>
      </trkpt>
      <trkpt lat="47.29907" lon="0.61394">
        <ele>92.2</ele>
        <time>2012-09-23T07:16:24Z</time>
      </trkpt>
      <trkpt lat="47.29909" lon="0.61381">
        <ele>92.3</ele>
        <time>2012-09-23T07:16:26Z</time>
      </trkpt>
      <trkpt lat="47.2991" lon="0.61373">
        <ele>92.4</ele>
        <time>2012-09-23T07:16:28Z</time>
      </trkpt>
      <trkpt lat="47.29911" lon="0.61366">
        <ele>92.5</ele>
        <time>2012-09-23T07:16:29Z</time>
      </trkpt>
      <trkpt lat="47.29912" lon="0.61354">
        <ele>92.7</ele>
        <time>2012-09-23T07:16:31Z</time>
      </trkpt>
      <trkpt lat="47.29913" lon="0.61341">
        <ele>92.8</ele>
        <time>2012-09-23T07:16:34Z</time>
      </trkpt>
      <trkpt lat="47.29914" lon="0.61331">
        <ele>92.9</ele>
        <time>2012-09-23T07:16:36Z</time>
      </trkpt>
      <trkpt lat="47.29915" lon="0.61325">
        <ele>92.9</ele>
        <time>2012-09-23T07:16:37Z</time>
      </trkpt>
      <trkpt lat="47.29916" lon="0.61318">
        <ele>92.9</ele>
        <time>2012-09-23T07:16:38Z</time>
      </trkpt>
      <trkpt lat="47.29917" lon="0.6131">
        <ele>93</ele>
        <time>2012-09-23T07:16:39Z</time>
      </trkpt>
      <trkpt lat="47.29918" lon="0.613">
        <ele>93</ele>
        <time>2012-09-23T07:16:41Z</time>
      </trkpt>
      <trkpt lat="47.29919" lon="0.61289">
        <ele>93</ele>
        <time>2012-09-23T07:16:43Z</time>
      </trkpt>
      <trkpt lat="47.2992" lon="0.61281">
        <ele>93</ele>
        <time>2012-09-23T07:16:44Z</time>
      </trkpt>
      <trkpt lat="47.2992" lon="0.6127">
        <ele>93</ele>
        <time>2012-09-23T07:16:46Z</time>
      </trkpt>
      <trkpt lat="47.29921" lon="0.61261">
        <ele>93</ele>
        <time>2012-09-23T07:16:48Z</time>
      </trkpt>
      <trkpt lat="47.29923" lon="0.61249">
        <ele>93</ele>
        <time>2012-09-23T07:16:50Z</time>
      </trkpt>
      <trkpt lat="47.29923" lon="0.61241">
        <ele>93</ele>
        <time>2012-09-23T07:16:52Z</time>
      </trkpt>
      <trkpt lat="47.29924" lon="0.61234">
        <ele>93</ele>
        <time>2012-09-23T07:16:53Z</time>
      </trkpt>
      <trkpt lat="47.29925" lon="0.61215">
        <ele>93</ele>
        <time>2012-09-23T07:16:56Z</time>
      </trkpt>
      <trkpt lat="47.29925" lon="0.61205">
        <ele>93</ele>
        <time>2012-09-23T07:16:58Z</time>
      </trkpt>
      <trkpt lat="47.29925" lon="0.61198">
        <ele>93.1</ele>
        <time>2012-09-23T07:16:59Z</time>
      </trkpt>
      <trkpt lat="47.29926" lon="0.61185">
        <ele>93.1</ele>
        <time>2012-09-23T07:17:01Z</time>
      </trkpt>
      <trkpt lat="47.29927" lon="0.61175">
        <ele>93.1</ele>
        <time>2012-09-23T07:17:03Z</time>
      </trkpt>
      <trkpt lat="47.29929" lon="0.61163">
        <ele>93.1</ele>
        <time>2012-09-23T07:17:05Z</time>
      </trkpt>
      <trkpt lat="47.2993" lon="0.61152">
        <ele>93.1</ele>
        <time>2012-09-23T07:17:07Z</time>
      </trkpt>
      <trkpt lat="47.29927" lon="0.61142">
        <ele>93.1</ele>
        <time>2012-09-23T07:17:09Z</time>
      </trkpt>
      <trkpt lat="47.29803" lon="0.60674">
        <ele>93.5</ele>
        <time>2012-09-23T07:19:13Z</time>
      </trkpt>
      <trkpt lat="47.29799" lon="0.60669">
        <ele>93.5</ele>
        <time>2012-09-23T07:19:15Z</time>
      </trkpt>
      <trkpt lat="47.29792" lon="0.60664">
        <ele>93.4</ele>
        <time>2012-09-23T07:19:17Z</time>
      </trkpt>
      <trkpt lat="47.29786" lon="0.60658">
        <ele>93.3</ele>
        <time>2012-09-23T07:19:19Z</time>
      </trkpt>
      <trkpt lat="47.29779" lon="0.60654">
        <ele>93.2</ele>
        <time>2012-09-23T07:19:21Z</time>
      </trkpt>
      <trkpt lat="47.29771" lon="0.60648">
        <ele>93</ele>
        <time>2012-09-23T07:19:23Z</time>
      </trkpt>
      <trkpt lat="47.29767" lon="0.60644">
        <ele>92.9</ele>
        <time>2012-09-23T07:19:24Z</time>
      </trkpt>
      <trkpt lat="47.29763" lon="0.6064">
        <ele>92.8</ele>
        <time>2012-09-23T07:19:25Z</time>
      </trkpt>
      <trkpt lat="47.29759" lon="0.60637">
        <ele>92.7</ele>
        <time>2012-09-23T07:19:26Z</time>
      </trkpt>
      <trkpt lat="47.29754" lon="0.60632">
        <ele>92.6</ele>
        <time>2012-09-23T07:19:27Z</time>
      </trkpt>
      <trkpt lat="47.2975" lon="0.60628">
        <ele>92.5</ele>
        <time>2012-09-23T07:19:28Z</time>
      </trkpt>
      <trkpt lat="47.29745" lon="0.60624">
        <ele>92.3</ele>
        <time>2012-09-23T07:19:29Z</time>
      </trkpt>
      <trkpt lat="47.2974" lon="0.6062">
        <ele>92.1</ele>
        <time>2012-09-23T07:19:30Z</time>
      </trkpt>
      <trkpt lat="47.29737" lon="0.60616">
        <ele>92</ele>
        <time>2012-09-23T07:19:31Z</time>
      </trkpt>
      <trkpt lat="47.29733" lon="0.60612">
        <ele>91.9</ele>
        <time>2012-09-23T07:19:32Z</time>
      </trkpt>
      <trkpt lat="47.29728" lon="0.60607">
        <ele>91.7</ele>
        <time>2012-09-23T07:19:33Z</time>
      </trkpt>
      <trkpt lat="47.29724" lon="0.60603">
        <ele>91.6</ele>
        <time>2012-09-23T07:19:34Z</time>
      </trkpt>
      <trkpt lat="47.29718" lon="0.60598">
        <ele>91.4</ele>
        <time>2012-09-23T07:19:35Z</time>
      </trkpt>
      <trkpt lat="47.29713" lon="0.60594">
        <ele>91.2</ele>
        <time>2012-09-23T07:19:36Z</time>
      </trkpt>
      <trkpt lat="47.29707" lon="0.60589">
        <ele>91</ele>
        <time>2012-09-23T07:19:37Z</time>
      </trkpt>
      <trkpt lat="47.29702" lon="0.60584">
        <ele>90.8</ele>
        <time>2012-09-23T07:19:38Z</time>
      </trkpt>
      <trkpt lat="47.29696" lon="0.60579">
        <ele>90.6</ele>
        <time>2012-09-23T07:19:39Z</time>
      </trkpt>
      <trkpt lat="47.29691" lon="0.60573">
        <ele>90.4</ele>
        <time>2012-09-23T07:19:40Z</time>
      </trkpt>
      <trkpt lat="47.29685" lon="0.60568">
        <ele>90.2</ele>
        <time>2012-09-23T07:19:41Z</time>
      </trkpt>
      <trkpt lat="47.2968" lon="0.60563">
        <ele>90</ele>
        <time>2012-09-23T07:19:42Z</time>
      </trkpt>
      <trkpt lat="47.29674" lon="0.60557">
        <ele>89.8</ele>
        <time>2012-09-23T07:19:43Z</time>
      </trkpt>
      <trkpt lat="47.29669" lon="0.60552">
        <ele>89.6</ele>
        <time>2012-09-23T07:19:44Z</time>
      </trkpt>
      <trkpt lat="47.29663" lon="0.60546">
        <ele>89.4</ele>
        <time>2012-09-23T07:19:45Z</time>
      </trkpt>
      <trkpt lat="47.29657" lon="0.60541">
        <ele>89.1</ele>
        <time>2012-09-23T07:19:46Z</time>
      </trkpt>
      <trkpt lat="47.29651" lon="0.60536">
        <ele>88.9</ele>
        <time>2012-09-23T07:19:47Z</time>
      </trkpt>
      <trkpt lat="47.29645" lon="0.6053">
        <ele>88.7</ele>
        <time>2012-09-23T07:19:48Z</time>
      </trkpt>
      <trkpt lat="47.29638" lon="0.60524">
        <ele>88.5</ele>
        <time>2012-09-23T07:19:49Z</time>
      </trkpt>
      <trkpt lat="47.29634" lon="0.6052">
        <ele>88.3</ele>
        <time>2012-09-23T07:19:50Z</time>
      </trkpt>
      <trkpt lat="47.29629" lon="0.60515">
        <ele>88.1</ele>
        <time>2012-09-23T07:19:51Z</time>
      </trkpt>
      <trkpt lat="47.29624" lon="0.60511">
        <ele>88</ele>
        <time>2012-09-23T07:19:52Z</time>
      </trkpt>
      <trkpt lat="47.29618" lon="0.60505">
        <ele>87.8</ele>
        <time>2012-09-23T07:19:53Z</time>
      </trkpt>
      <trkpt lat="47.29612" lon="0.605">
        <ele>87.6</ele>
        <time>2012-09-23T07:19:54Z</time>
      </trkpt>
      <trkpt lat="47.29606" lon="0.60495">
        <ele>87.4</ele>
        <time>2012-09-23T07:19:55Z</time>
      </trkpt>
      <trkpt lat="47.29601" lon="0.60491">
        <ele>87.2</ele>
        <time>2012-09-23T07:19:56Z</time>
      </trkpt>
      <trkpt lat="47.29595" lon="0.60487">
        <ele>86.9</ele>
        <time>2012-09-23T07:19:57Z</time>
      </trkpt>
      <trkpt lat="47.29589" lon="0.60483">
        <ele>86.7</ele>
        <time>2012-09-23T07:19:58Z</time>
      </trkpt>
      <trkpt lat="47.29583" lon="0.60478">
        <ele>86.4</ele>
        <time>2012-09-23T07:19:59Z</time>
      </trkpt>
      <trkpt lat="47.29578" lon="0.60475">
        <ele>86.2</ele>
        <time>2012-09-23T07:20:00Z</time>
      </trkpt>
      <trkpt lat="47.29574" lon="0.60471">
        <ele>86</ele>
        <time>2012-09-23T07:20:01Z</time>
      </trkpt>
      <trkpt lat="47.29569" lon="0.60466">
        <ele>85.8</ele>
        <time>2012-09-23T07:20:02Z</time>
      </trkpt>
      <trkpt lat="47.29565" lon="0.60462">
        <ele>85.6</ele>
        <time>2012-09-23T07:20:03Z</time>
      </trkpt>
      <trkpt lat="47.2956" lon="0.60458">
        <ele>85.4</ele>
        <time>2012-09-23T07:20:04Z</time>
      </trkpt>
      <trkpt lat="47.29552" lon="0.60452">
        <ele>85.1</ele>
        <time>2012-09-23T07:20:06Z</time>
      </trkpt>
      <trkpt lat="47.29547" lon="0.60448">
        <ele>84.8</ele>
        <time>2012-09-23T07:20:07Z</time>
      </trkpt>
      <trkpt lat="47.29542" lon="0.60444">
        <ele>84.6</ele>
        <time>2012-09-23T07:20:08Z</time>
      </trkpt>
      <trkpt lat="47.29536" lon="0.6044">
        <ele>84.3</ele>
        <time>2012-09-23T07:20:09Z</time>
      </trkpt>
      <trkpt lat="47.29529" lon="0.60436">
        <ele>84.1</ele>
        <time>2012-09-23T07:20:10Z</time>
      </trkpt>
      <trkpt lat="47.29523" lon="0.60433">
        <ele>83.9</ele>
        <time>2012-09-23T07:20:11Z</time>
      </trkpt>
      <trkpt lat="47.29517" lon="0.60431">
        <ele>83.7</ele>
        <time>2012-09-23T07:20:12Z</time>
      </trkpt>
      <trkpt lat="47.29511" lon="0.60428">
        <ele>83.5</ele>
        <time>2012-09-23T07:20:13Z</time>
      </trkpt>
      <trkpt lat="47.29506" lon="0.60425">
        <ele>83.3</ele>
        <time>2012-09-23T07:20:14Z</time>
      </trkpt>
      <trkpt lat="47.29501" lon="0.60422">
        <ele>83.1</ele>
        <time>2012-09-23T07:20:15Z</time>
      </trkpt>
      <trkpt lat="47.29497" lon="0.6042">
        <ele>83.1</ele>
        <time>2012-09-23T07:20:16Z</time>
      </trkpt>
      <trkpt lat="47.29492" lon="0.60418">
        <ele>83.3</ele>
        <time>2012-09-23T07:20:17Z</time>
      </trkpt>
      <trkpt lat="47.29488" lon="0.60416">
        <ele>83.4</ele>
        <time>2012-09-23T07:20:18Z</time>
      </trkpt>
      <trkpt lat="47.29484" lon="0.60413">
        <ele>83.5</ele>
        <time>2012-09-23T07:20:19Z</time>
      </trkpt>
      <trkpt lat="47.29479" lon="0.60411">
        <ele>83.6</ele>
        <time>2012-09-23T07:20:20Z</time>
      </trkpt>
      <trkpt lat="47.29474" lon="0.60408">
        <ele>83.7</ele>
        <time>2012-09-23T07:20:21Z</time>
      </trkpt>
      <trkpt lat="47.2947" lon="0.60405">
        <ele>83.8</ele>
        <time>2012-09-23T07:20:22Z</time>
      </trkpt>
      <trkpt lat="47.29465" lon="0.60402">
        <ele>84</ele>
        <time>2012-09-23T07:20:23Z</time>
      </trkpt>
      <trkpt lat="47.29461" lon="0.604">
        <ele>84</ele>
        <time>2012-09-23T07:20:24Z</time>
      </trkpt>
      <trkpt lat="47.29456" lon="0.60397">
        <ele>84.1</ele>
        <time>2012-09-23T07:20:25Z</time>
      </trkpt>
      <trkpt lat="47.29452" lon="0.60393">
        <ele>84.2</ele>
        <time>2012-09-23T07:20:26Z</time>
      </trkpt>
      <trkpt lat="47.29447" lon="0.6039">
        <ele>84.3</ele>
        <time>2012-09-23T07:20:27Z</time>
      </trkpt>
      <trkpt lat="47.29442" lon="0.60386">
        <ele>84.4</ele>
        <time>2012-09-23T07:20:28Z</time>
      </trkpt>
      <trkpt lat="47.29437" lon="0.60382">
        <ele>84.5</ele>
        <time>2012-09-23T07:20:29Z</time>
      </trkpt>
      <trkpt lat="47.2943" lon="0.60376">
        <ele>84.6</ele>
        <time>2012-09-23T07:20:31Z</time>
      </trkpt>
      <trkpt lat="47.29422" lon="0.60371">
        <ele>84.7</ele>
        <time>2012-09-23T07:20:33Z</time>
      </trkpt>
      <trkpt lat="47.29415" lon="0.60367">
        <ele>84.8</ele>
        <time>2012-09-23T07:20:35Z</time>
      </trkpt>
      <trkpt lat="47.29407" lon="0.60362">
        <ele>85.1</ele>
        <time>2012-09-23T07:20:37Z</time>
      </trkpt>
      <trkpt lat="47.29398" lon="0.60358">
        <ele>85.4</ele>
        <time>2012-09-23T07:20:39Z</time>
      </trkpt>
      <trkpt lat="47.29394" lon="0.60355">
        <ele>85.5</ele>
        <time>2012-09-23T07:20:40Z</time>
      </trkpt>
      <trkpt lat="47.2939" lon="0.60353">
        <ele>85.7</ele>
        <time>2012-09-23T07:20:41Z</time>
      </trkpt>
      <trkpt lat="47.29385" lon="0.6035">
        <ele>85.8</ele>
        <time>2012-09-23T07:20:42Z</time>
      </trkpt>
      <trkpt lat="47.2938" lon="0.60348">
        <ele>86.1</ele>
        <time>2012-09-23T07:20:43Z</time>
      </trkpt>
      <trkpt lat="47.29374" lon="0.60345">
        <ele>86.2</ele>
        <time>2012-09-23T07:20:44Z</time>
      </trkpt>
      <trkpt lat="47.29368" lon="0.60342">
        <ele>86.5</ele>
        <time>2012-09-23T07:20:45Z</time>
      </trkpt>
      <trkpt lat="47.29363" lon="0.6034">
        <ele>86.7</ele>
        <time>2012-09-23T07:20:46Z</time>
      </trkpt>
      <trkpt lat="47.29357" lon="0.60338">
        <ele>86.9</ele>
        <time>2012-09-23T07:20:47Z</time>
      </trkpt>
      <trkpt lat="47.29353" lon="0.60337">
        <ele>87.1</ele>
        <time>2012-09-23T07:20:48Z</time>
      </trkpt>
      <trkpt lat="47.29347" lon="0.60336">
        <ele>87.3</ele>
        <time>2012-09-23T07:20:49Z</time>
      </trkpt>
      <trkpt lat="47.29342" lon="0.60336">
        <ele>87.6</ele>
        <time>2012-09-23T07:20:50Z</time>
      </trkpt>
      <trkpt lat="47.29337" lon="0.60336">
        <ele>87.8</ele>
        <time>2012-09-23T07:20:51Z</time>
      </trkpt>
      <trkpt lat="47.29331" lon="0.60335">
        <ele>88</ele>
        <time>2012-09-23T07:20:52Z</time>
      </trkpt>
      <trkpt lat="47.29325" lon="0.60334">
        <ele>87.9</ele>
        <time>2012-09-23T07:20:53Z</time>
      </trkpt>
      <trkpt lat="47.29319" lon="0.60334">
        <ele>87.8</ele>
        <time>2012-09-23T07:20:54Z</time>
      </trkpt>
      <trkpt lat="47.29313" lon="0.60334">
        <ele>87.7</ele>
        <time>2012-09-23T07:20:55Z</time>
      </trkpt>
      <trkpt lat="47.29307" lon="0.60334">
        <ele>87.6</ele>
        <time>2012-09-23T07:20:56Z</time>
      </trkpt>
      <trkpt lat="47.29301" lon="0.60334">
        <ele>87.6</ele>
        <time>2012-09-23T07:20:57Z</time>
      </trkpt>
      <trkpt lat="47.29295" lon="0.60335">
        <ele>87.5</ele>
        <time>2012-09-23T07:20:58Z</time>
      </trkpt>
      <trkpt lat="47.29289" lon="0.60335">
        <ele>87.4</ele>
        <time>2012-09-23T07:20:59Z</time>
      </trkpt>
      <trkpt lat="47.29282" lon="0.60335">
        <ele>87.3</ele>
        <time>2012-09-23T07:21:00Z</time>
      </trkpt>
      <trkpt lat="47.29274" lon="0.60336">
        <ele>87.3</ele>
        <time>2012-09-23T07:21:01Z</time>
      </trkpt>
      <trkpt lat="47.29266" lon="0.60336">
        <ele>87.2</ele>
        <time>2012-09-23T07:21:02Z</time>
      </trkpt>
      <trkpt lat="47.29259" lon="0.60336">
        <ele>87.1</ele>
        <time>2012-09-23T07:21:03Z</time>
      </trkpt>
      <trkpt lat="47.29252" lon="0.60337">
        <ele>87</ele>
        <time>2012-09-23T07:21:04Z</time>
      </trkpt>
      <trkpt lat="47.29246" lon="0.60337">
        <ele>86.6</ele>
        <time>2012-09-23T07:21:05Z</time>
      </trkpt>
      <trkpt lat="47.29238" lon="0.60336">
        <ele>86.1</ele>
        <time>2012-09-23T07:21:06Z</time>
      </trkpt>
      <trkpt lat="47.29232" lon="0.60336">
        <ele>85.6</ele>
        <time>2012-09-23T07:21:07Z</time>
      </trkpt>
      <trkpt lat="47.29224" lon="0.60336">
        <ele>85.1</ele>
        <time>2012-09-23T07:21:08Z</time>
      </trkpt>
      <trkpt lat="47.29216" lon="0.60335">
        <ele>84.5</ele>
        <time>2012-09-23T07:21:09Z</time>
      </trkpt>
      <trkpt lat="47.29209" lon="0.60334">
        <ele>84</ele>
        <time>2012-09-23T07:21:10Z</time>
      </trkpt>
      <trkpt lat="47.29201" lon="0.60334">
        <ele>83.4</ele>
        <time>2012-09-23T07:21:11Z</time>
      </trkpt>
      <trkpt lat="47.29193" lon="0.60333">
        <ele>82.8</ele>
        <time>2012-09-23T07:21:12Z</time>
      </trkpt>
      <trkpt lat="47.29186" lon="0.60332">
        <ele>82.3</ele>
        <time>2012-09-23T07:21:13Z</time>
      </trkpt>
      <trkpt lat="47.29179" lon="0.60331">
        <ele>81.8</ele>
        <time>2012-09-23T07:21:14Z</time>
      </trkpt>
      <trkpt lat="47.29171" lon="0.60331">
        <ele>81.2</ele>
        <time>2012-09-23T07:21:15Z</time>
      </trkpt>
      <trkpt lat="47.29163" lon="0.6033">
        <ele>80.7</ele>
        <time>2012-09-23T07:21:16Z</time>
      </trkpt>
      <trkpt lat="47.29155" lon="0.60329">
        <ele>80.2</ele>
        <time>2012-09-23T07:21:17Z</time>
      </trkpt>
      <trkpt lat="47.29147" lon="0.60328">
        <ele>79.7</ele>
        <time>2012-09-23T07:21:18Z</time>
      </trkpt>
      <trkpt lat="47.29141" lon="0.60327">
        <ele>79.4</ele>
        <time>2012-09-23T07:21:19Z</time>
      </trkpt>
      <trkpt lat="47.29135" lon="0.60317">
        <ele>79</ele>
        <time>2012-09-23T07:21:21Z</time>
      </trkpt>
      <trkpt lat="47.29135" lon="0.60317">
        <ele>79</ele>
        <time>2012-09-23T07:21:21Z</time>
      </trkpt>
      <trkpt lat="47.29137" lon="0.60304">
        <ele>79.1</ele>
        <time>2012-09-23T07:21:23Z</time>
      </trkpt>
      <trkpt lat="47.29138" lon="0.60298">
        <ele>79.1</ele>
        <time>2012-09-23T07:21:24Z</time>
      </trkpt>
      <trkpt lat="47.2914" lon="0.60291">
        <ele>79.2</ele>
        <time>2012-09-23T07:21:25Z</time>
      </trkpt>
      <trkpt lat="47.29141" lon="0.60285">
        <ele>79.2</ele>
        <time>2012-09-23T07:21:26Z</time>
      </trkpt>
      <trkpt lat="47.29142" lon="0.60278">
        <ele>79.2</ele>
        <time>2012-09-23T07:21:27Z</time>
      </trkpt>
      <trkpt lat="47.29143" lon="0.60266">
        <ele>79.2</ele>
        <time>2012-09-23T07:21:29Z</time>
      </trkpt>
      <trkpt lat="47.29141" lon="0.60255">
        <ele>79.1</ele>
        <time>2012-09-23T07:21:31Z</time>
      </trkpt>
      <trkpt lat="47.29139" lon="0.60242">
        <ele>79.4</ele>
        <time>2012-09-23T07:21:33Z</time>
      </trkpt>
      <trkpt lat="47.29138" lon="0.6023">
        <ele>79.8</ele>
        <time>2012-09-23T07:21:35Z</time>
      </trkpt>
      <trkpt lat="47.29137" lon="0.60219">
        <ele>80.3</ele>
        <time>2012-09-23T07:21:37Z</time>
      </trkpt>
      <trkpt lat="47.29136" lon="0.60208">
        <ele>80.8</ele>
        <time>2012-09-23T07:21:39Z</time>
      </trkpt>
      <trkpt lat="47.29135" lon="0.60196">
        <ele>81.3</ele>
        <time>2012-09-23T07:21:41Z</time>
      </trkpt>
      <trkpt lat="47.29135" lon="0.60183">
        <ele>81.9</ele>
        <time>2012-09-23T07:21:44Z</time>
      </trkpt>
      <trkpt lat="47.29136" lon="0.60175">
        <ele>82.2</ele>
        <time>2012-09-23T07:21:46Z</time>
      </trkpt>
      <trkpt lat="47.29137" lon="0.60165">
        <ele>82.8</ele>
        <time>2012-09-23T07:21:48Z</time>
      </trkpt>
      <trkpt lat="47.29137" lon="0.60155">
        <ele>83.7</ele>
        <time>2012-09-23T07:21:50Z</time>
      </trkpt>
      <trkpt lat="47.29139" lon="0.60144">
        <ele>84.6</ele>
        <time>2012-09-23T07:21:52Z</time>
      </trkpt>
      <trkpt lat="47.29142" lon="0.60135">
        <ele>85.4</ele>
        <time>2012-09-23T07:21:54Z</time>
      </trkpt>
      <trkpt lat="47.29145" lon="0.60125">
        <ele>86.2</ele>
        <time>2012-09-23T07:21:56Z</time>
      </trkpt>
      <trkpt lat="47.29147" lon="0.60115">
        <ele>87.1</ele>
        <time>2012-09-23T07:21:58Z</time>
      </trkpt>
      <trkpt lat="47.29149" lon="0.6011">
        <ele>87.5</ele>
        <time>2012-09-23T07:21:59Z</time>
      </trkpt>
      <trkpt lat="47.29153" lon="0.60096">
        <ele>88.7</ele>
        <time>2012-09-23T07:22:02Z</time>
      </trkpt>
      <trkpt lat="47.29156" lon="0.60088">
        <ele>89.5</ele>
        <time>2012-09-23T07:22:04Z</time>
      </trkpt>
      <trkpt lat="47.2916" lon="0.60081">
        <ele>89.8</ele>
        <time>2012-09-23T07:22:06Z</time>
      </trkpt>
      <trkpt lat="47.29164" lon="0.60073">
        <ele>89.7</ele>
        <time>2012-09-23T07:22:08Z</time>
      </trkpt>
      <trkpt lat="47.29167" lon="0.60066">
        <ele>89.5</ele>
        <time>2012-09-23T07:22:10Z</time>
      </trkpt>
      <trkpt lat="47.29172" lon="0.60055">
        <ele>89.2</ele>
        <time>2012-09-23T07:22:12Z</time>
      </trkpt>
      <trkpt lat="47.29176" lon="0.60046">
        <ele>89</ele>
        <time>2012-09-23T07:22:14Z</time>
      </trkpt>
      <trkpt lat="47.2918" lon="0.60037">
        <ele>88.8</ele>
        <time>2012-09-23T07:22:16Z</time>
      </trkpt>
      <trkpt lat="47.29184" lon="0.60027">
        <ele>88.7</ele>
        <time>2012-09-23T07:22:19Z</time>
      </trkpt>
      <trkpt lat="47.29188" lon="0.60019">
        <ele>88.5</ele>
        <time>2012-09-23T07:22:21Z</time>
      </trkpt>
      <trkpt lat="47.29192" lon="0.60011">
        <ele>88.4</ele>
        <time>2012-09-23T07:22:23Z</time>
      </trkpt>
      <trkpt lat="47.29196" lon="0.60004">
        <ele>88.4</ele>
        <time>2012-09-23T07:22:25Z</time>
      </trkpt>
      <trkpt lat="47.29201" lon="0.59996">
        <ele>88.2</ele>
        <time>2012-09-23T07:22:27Z</time>
      </trkpt>
      <trkpt lat="47.29205" lon="0.59987">
        <ele>88.1</ele>
        <time>2012-09-23T07:22:29Z</time>
      </trkpt>
      <trkpt lat="47.29211" lon="0.59977">
        <ele>87.9</ele>
        <time>2012-09-23T07:22:31Z</time>
      </trkpt>
      <trkpt lat="47.29213" lon="0.59971">
        <ele>87.9</ele>
        <time>2012-09-23T07:22:32Z</time>
      </trkpt>
      <trkpt lat="47.29216" lon="0.59965">
        <ele>87.9</ele>
        <time>2012-09-23T07:22:33Z</time>
      </trkpt>
      <trkpt lat="47.29219" lon="0.59959">
        <ele>87.8</ele>
        <time>2012-09-23T07:22:34Z</time>
      </trkpt>
      <trkpt lat="47.29221" lon="0.59952">
        <ele>87.8</ele>
        <time>2012-09-23T07:22:35Z</time>
      </trkpt>
      <trkpt lat="47.29224" lon="0.59946">
        <ele>87.8</ele>
        <time>2012-09-23T07:22:36Z</time>
      </trkpt>
      <trkpt lat="47.29226" lon="0.59939">
        <ele>87.8</ele>
        <time>2012-09-23T07:22:37Z</time>
      </trkpt>
      <trkpt lat="47.29228" lon="0.59931">
        <ele>87.8</ele>
        <time>2012-09-23T07:22:38Z</time>
      </trkpt>
      <trkpt lat="47.2923" lon="0.59924">
        <ele>87.9</ele>
        <time>2012-09-23T07:22:39Z</time>
      </trkpt>
      <trkpt lat="47.29232" lon="0.59916">
        <ele>87.9</ele>
        <time>2012-09-23T07:22:40Z</time>
      </trkpt>
      <trkpt lat="47.29234" lon="0.59908">
        <ele>88</ele>
        <time>2012-09-23T07:22:41Z</time>
      </trkpt>
      <trkpt lat="47.29235" lon="0.599">
        <ele>88.1</ele>
        <time>2012-09-23T07:22:42Z</time>
      </trkpt>
      <trkpt lat="47.29236" lon="0.59893">
        <ele>88.1</ele>
        <time>2012-09-23T07:22:43Z</time>
      </trkpt>
      <trkpt lat="47.29237" lon="0.59885">
        <ele>88.2</ele>
        <time>2012-09-23T07:22:44Z</time>
      </trkpt>
      <trkpt lat="47.29237" lon="0.59877">
        <ele>88.2</ele>
        <time>2012-09-23T07:22:45Z</time>
      </trkpt>
      <trkpt lat="47.29238" lon="0.59871">
        <ele>88.2</ele>
        <time>2012-09-23T07:22:46Z</time>
      </trkpt>
      <trkpt lat="47.29238" lon="0.59862">
        <ele>88.2</ele>
        <time>2012-09-23T07:22:47Z</time>
      </trkpt>
      <trkpt lat="47.29239" lon="0.59854">
        <ele>88.3</ele>
        <time>2012-09-23T07:22:48Z</time>
      </trkpt>
      <trkpt lat="47.2924" lon="0.59846">
        <ele>88.3</ele>
        <time>2012-09-23T07:22:49Z</time>
      </trkpt>
      <trkpt lat="47.2924" lon="0.59839">
        <ele>88.4</ele>
        <time>2012-09-23T07:22:50Z</time>
      </trkpt>
      <trkpt lat="47.29241" lon="0.59832">
        <ele>88.4</ele>
        <time>2012-09-23T07:22:51Z</time>
      </trkpt>
      <trkpt lat="47.29242" lon="0.59821">
        <ele>88.3</ele>
        <time>2012-09-23T07:22:53Z</time>
      </trkpt>
      <trkpt lat="47.29243" lon="0.59811">
        <ele>88.3</ele>
        <time>2012-09-23T07:22:55Z</time>
      </trkpt>
      <trkpt lat="47.29244" lon="0.59805">
        <ele>88.3</ele>
        <time>2012-09-23T07:22:56Z</time>
      </trkpt>
      <trkpt lat="47.29245" lon="0.59797">
        <ele>88.3</ele>
        <time>2012-09-23T07:22:57Z</time>
      </trkpt>
      <trkpt lat="47.29246" lon="0.59784">
        <ele>88.2</ele>
        <time>2012-09-23T07:22:59Z</time>
      </trkpt>
      <trkpt lat="47.29247" lon="0.59779">
        <ele>88.1</ele>
        <time>2012-09-23T07:23:00Z</time>
      </trkpt>
      <trkpt lat="47.29248" lon="0.59761">
        <ele>88</ele>
        <time>2012-09-23T07:23:03Z</time>
      </trkpt>
      <trkpt lat="47.2925" lon="0.5975">
        <ele>88</ele>
        <time>2012-09-23T07:23:05Z</time>
      </trkpt>
      <trkpt lat="47.29251" lon="0.59742">
        <ele>88.1</ele>
        <time>2012-09-23T07:23:06Z</time>
      </trkpt>
      <trkpt lat="47.29252" lon="0.59734">
        <ele>88.2</ele>
        <time>2012-09-23T07:23:07Z</time>
      </trkpt>
      <trkpt lat="47.29253" lon="0.59728">
        <ele>88.3</ele>
        <time>2012-09-23T07:23:08Z</time>
      </trkpt>
      <trkpt lat="47.29255" lon="0.59715">
        <ele>88.5</ele>
        <time>2012-09-23T07:23:10Z</time>
      </trkpt>
      <trkpt lat="47.29256" lon="0.59705">
        <ele>88.6</ele>
        <time>2012-09-23T07:23:12Z</time>
      </trkpt>
      <trkpt lat="47.29259" lon="0.59693">
        <ele>88.8</ele>
        <time>2012-09-23T07:23:14Z</time>
      </trkpt>
      <trkpt lat="47.2926" lon="0.59682">
        <ele>88.9</ele>
        <time>2012-09-23T07:23:16Z</time>
      </trkpt>
      <trkpt lat="47.29262" lon="0.59671">
        <ele>89.1</ele>
        <time>2012-09-23T07:23:18Z</time>
      </trkpt>
      <trkpt lat="47.29264" lon="0.59663">
        <ele>89</ele>
        <time>2012-09-23T07:23:20Z</time>
      </trkpt>
      <trkpt lat="47.29266" lon="0.59658">
        <ele>88.9</ele>
        <time>2012-09-23T07:23:21Z</time>
      </trkpt>
      <trkpt lat="47.29268" lon="0.59651">
        <ele>88.8</ele>
        <time>2012-09-23T07:23:22Z</time>
      </trkpt>
      <trkpt lat="47.29272" lon="0.5964">
        <ele>88.6</ele>
        <time>2012-09-23T07:23:24Z</time>
      </trkpt>
      <trkpt lat="47.29274" lon="0.59633">
        <ele>88.5</ele>
        <time>2012-09-23T07:23:25Z</time>
      </trkpt>
      <trkpt lat="47.29276" lon="0.59627">
        <ele>88.4</ele>
        <time>2012-09-23T07:23:26Z</time>
      </trkpt>
      <trkpt lat="47.29278" lon="0.59621">
        <ele>88.3</ele>
        <time>2012-09-23T07:23:27Z</time>
      </trkpt>
      <trkpt lat="47.2928" lon="0.59614">
        <ele>88.3</ele>
        <time>2012-09-23T07:23:28Z</time>
      </trkpt>
      <trkpt lat="47.29282" lon="0.59607">
        <ele>88.2</ele>
        <time>2012-09-23T07:23:29Z</time>
      </trkpt>
      <trkpt lat="47.29284" lon="0.59601">
        <ele>88.1</ele>
        <time>2012-09-23T07:23:30Z</time>
      </trkpt>
      <trkpt lat="47.29287" lon="0.59593">
        <ele>88</ele>
        <time>2012-09-23T07:23:31Z</time>
      </trkpt>
      <trkpt lat="47.2929" lon="0.59584">
        <ele>87.9</ele>
        <time>2012-09-23T07:23:33Z</time>
      </trkpt>
      <trkpt lat="47.29293" lon="0.59577">
        <ele>87.9</ele>
        <time>2012-09-23T07:23:34Z</time>
      </trkpt>
      <trkpt lat="47.29295" lon="0.59569">
        <ele>88</ele>
        <time>2012-09-23T07:23:35Z</time>
      </trkpt>
      <trkpt lat="47.29299" lon="0.59558">
        <ele>88</ele>
        <time>2012-09-23T07:23:37Z</time>
      </trkpt>
      <trkpt lat="47.29301" lon="0.59552">
        <ele>88</ele>
        <time>2012-09-23T07:23:38Z</time>
      </trkpt>
      <trkpt lat="47.29303" lon="0.59546">
        <ele>88</ele>
        <time>2012-09-23T07:23:39Z</time>
      </trkpt>
      <trkpt lat="47.29305" lon="0.59538">
        <ele>88.1</ele>
        <time>2012-09-23T07:23:40Z</time>
      </trkpt>
      <trkpt lat="47.29308" lon="0.59531">
        <ele>88.1</ele>
        <time>2012-09-23T07:23:41Z</time>
      </trkpt>
      <trkpt lat="47.29309" lon="0.59525">
        <ele>88.2</ele>
        <time>2012-09-23T07:23:42Z</time>
      </trkpt>
      <trkpt lat="47.29313" lon="0.59513">
        <ele>88.3</ele>
        <time>2012-09-23T07:23:44Z</time>
      </trkpt>
      <trkpt lat="47.29316" lon="0.59506">
        <ele>88.3</ele>
        <time>2012-09-23T07:23:45Z</time>
      </trkpt>
      <trkpt lat="47.29318" lon="0.59501">
        <ele>88.4</ele>
        <time>2012-09-23T07:23:46Z</time>
      </trkpt>
      <trkpt lat="47.29322" lon="0.59494">
        <ele>88.6</ele>
        <time>2012-09-23T07:23:47Z</time>
      </trkpt>
      <trkpt lat="47.29327" lon="0.59486">
        <ele>88.8</ele>
        <time>2012-09-23T07:23:49Z</time>
      </trkpt>
      <trkpt lat="47.29333" lon="0.59478">
        <ele>89.2</ele>
        <time>2012-09-23T07:23:51Z</time>
      </trkpt>
      <trkpt lat="47.2934" lon="0.5947">
        <ele>89.5</ele>
        <time>2012-09-23T07:23:53Z</time>
      </trkpt>
      <trkpt lat="47.29347" lon="0.59464">
        <ele>89.6</ele>
        <time>2012-09-23T07:23:55Z</time>
      </trkpt>
      <trkpt lat="47.29354" lon="0.59457">
        <ele>89.8</ele>
        <time>2012-09-23T07:23:57Z</time>
      </trkpt>
      <trkpt lat="47.29358" lon="0.59453">
        <ele>89.9</ele>
        <time>2012-09-23T07:23:58Z</time>
      </trkpt>
      <trkpt lat="47.29363" lon="0.5945">
        <ele>90</ele>
        <time>2012-09-23T07:23:59Z</time>
      </trkpt>
      <trkpt lat="47.29368" lon="0.59445">
        <ele>90.2</ele>
        <time>2012-09-23T07:24:00Z</time>
      </trkpt>
      <trkpt lat="47.29372" lon="0.59441">
        <ele>90.3</ele>
        <time>2012-09-23T07:24:01Z</time>
      </trkpt>
      <trkpt lat="47.29376" lon="0.59427">
        <ele>90.4</ele>
        <time>2012-09-23T07:24:04Z</time>
      </trkpt>
      <trkpt lat="47.29377" lon="0.5942">
        <ele>90.5</ele>
        <time>2012-09-23T07:24:05Z</time>
      </trkpt>
      <trkpt lat="47.29377" lon="0.59413">
        <ele>90.3</ele>
        <time>2012-09-23T07:24:06Z</time>
      </trkpt>
      <trkpt lat="47.29377" lon="0.59405">
        <ele>90.1</ele>
        <time>2012-09-23T07:24:07Z</time>
      </trkpt>
      <trkpt lat="47.29376" lon="0.59397">
        <ele>89.8</ele>
        <time>2012-09-23T07:24:08Z</time>
      </trkpt>
      <trkpt lat="47.29376" lon="0.5939">
        <ele>89.5</ele>
        <time>2012-09-23T07:24:09Z</time>
      </trkpt>
      <trkpt lat="47.29375" lon="0.59383">
        <ele>89.2</ele>
        <time>2012-09-23T07:24:10Z</time>
      </trkpt>
      <trkpt lat="47.29374" lon="0.59376">
        <ele>88.9</ele>
        <time>2012-09-23T07:24:11Z</time>
      </trkpt>
      <trkpt lat="47.29373" lon="0.59369">
        <ele>88.7</ele>
        <time>2012-09-23T07:24:12Z</time>
      </trkpt>
      <trkpt lat="47.29372" lon="0.59362">
        <ele>88.4</ele>
        <time>2012-09-23T07:24:13Z</time>
      </trkpt>
      <trkpt lat="47.29371" lon="0.59353">
        <ele>88</ele>
        <time>2012-09-23T07:24:14Z</time>
      </trkpt>
      <trkpt lat="47.2937" lon="0.59344">
        <ele>87.6</ele>
        <time>2012-09-23T07:24:15Z</time>
      </trkpt>
      <trkpt lat="47.29368" lon="0.59335">
        <ele>87.2</ele>
        <time>2012-09-23T07:24:16Z</time>
      </trkpt>
      <trkpt lat="47.29368" lon="0.59329">
        <ele>87.1</ele>
        <time>2012-09-23T07:24:17Z</time>
      </trkpt>
      <trkpt lat="47.29367" lon="0.59322">
        <ele>86.9</ele>
        <time>2012-09-23T07:24:18Z</time>
      </trkpt>
      <trkpt lat="47.29366" lon="0.59309">
        <ele>86.5</ele>
        <time>2012-09-23T07:24:21Z</time>
      </trkpt>
      <trkpt lat="47.29369" lon="0.59299">
        <ele>86.4</ele>
        <time>2012-09-23T07:26:12Z</time>
      </trkpt>
      <trkpt lat="47.29371" lon="0.59294">
        <ele>86.4</ele>
        <time>2012-09-23T07:26:13Z</time>
      </trkpt>
      <trkpt lat="47.29379" lon="0.59283">
        <ele>86.4</ele>
        <time>2012-09-23T07:26:16Z</time>
      </trkpt>
      <trkpt lat="47.29382" lon="0.59277">
        <ele>86.4</ele>
        <time>2012-09-23T07:26:17Z</time>
      </trkpt>
      <trkpt lat="47.29386" lon="0.59272">
        <ele>86.4</ele>
        <time>2012-09-23T07:26:18Z</time>
      </trkpt>
      <trkpt lat="47.2939" lon="0.59268">
        <ele>86.4</ele>
        <time>2012-09-23T07:26:19Z</time>
      </trkpt>
      <trkpt lat="47.29394" lon="0.59263">
        <ele>86.4</ele>
        <time>2012-09-23T07:26:20Z</time>
      </trkpt>
      <trkpt lat="47.29398" lon="0.59256">
        <ele>86.4</ele>
        <time>2012-09-23T07:26:21Z</time>
      </trkpt>
      <trkpt lat="47.29401" lon="0.59249">
        <ele>86.4</ele>
        <time>2012-09-23T07:26:22Z</time>
      </trkpt>
      <trkpt lat="47.29403" lon="0.59241">
        <ele>86.3</ele>
        <time>2012-09-23T07:26:23Z</time>
      </trkpt>
      <trkpt lat="47.29404" lon="0.59231">
        <ele>86.1</ele>
        <time>2012-09-23T07:26:24Z</time>
      </trkpt>
      <trkpt lat="47.29404" lon="0.59221">
        <ele>85.8</ele>
        <time>2012-09-23T07:26:25Z</time>
      </trkpt>
      <trkpt lat="47.29402" lon="0.5921">
        <ele>85.5</ele>
        <time>2012-09-23T07:26:26Z</time>
      </trkpt>
      <trkpt lat="47.294" lon="0.59201">
        <ele>85.3</ele>
        <time>2012-09-23T07:26:27Z</time>
      </trkpt>
      <trkpt lat="47.29398" lon="0.59192">
        <ele>85</ele>
        <time>2012-09-23T07:26:28Z</time>
      </trkpt>
      <trkpt lat="47.29395" lon="0.59184">
        <ele>84.8</ele>
        <time>2012-09-23T07:26:29Z</time>
      </trkpt>
      <trkpt lat="47.29393" lon="0.59175">
        <ele>84.5</ele>
        <time>2012-09-23T07:26:30Z</time>
      </trkpt>
      <trkpt lat="47.2939" lon="0.59166">
        <ele>84.3</ele>
        <time>2012-09-23T07:26:31Z</time>
      </trkpt>
      <trkpt lat="47.29388" lon="0.59157">
        <ele>84.2</ele>
        <time>2012-09-23T07:26:32Z</time>
      </trkpt>
      <trkpt lat="47.29385" lon="0.59148">
        <ele>84.1</ele>
        <time>2012-09-23T07:26:33Z</time>
      </trkpt>
      <trkpt lat="47.29383" lon="0.5914">
        <ele>84.1</ele>
        <time>2012-09-23T07:26:34Z</time>
      </trkpt>
      <trkpt lat="47.29381" lon="0.59132">
        <ele>84</ele>
        <time>2012-09-23T07:26:35Z</time>
      </trkpt>
      <trkpt lat="47.29379" lon="0.59124">
        <ele>84</ele>
        <time>2012-09-23T07:26:36Z</time>
      </trkpt>
      <trkpt lat="47.29377" lon="0.59116">
        <ele>84</ele>
        <time>2012-09-23T07:26:37Z</time>
      </trkpt>
      <trkpt lat="47.29376" lon="0.59109">
        <ele>84</ele>
        <time>2012-09-23T07:26:38Z</time>
      </trkpt>
      <trkpt lat="47.29374" lon="0.59103">
        <ele>83.9</ele>
        <time>2012-09-23T07:26:39Z</time>
      </trkpt>
      <trkpt lat="47.29372" lon="0.59095">
        <ele>83.9</ele>
        <time>2012-09-23T07:26:40Z</time>
      </trkpt>
      <trkpt lat="47.29371" lon="0.59086">
        <ele>83.9</ele>
        <time>2012-09-23T07:26:41Z</time>
      </trkpt>
      <trkpt lat="47.2937" lon="0.59078">
        <ele>84.1</ele>
        <time>2012-09-23T07:26:42Z</time>
      </trkpt>
      <trkpt lat="47.29368" lon="0.59066">
        <ele>84.5</ele>
        <time>2012-09-23T07:26:44Z</time>
      </trkpt>
      <trkpt lat="47.29368" lon="0.59059">
        <ele>84.7</ele>
        <time>2012-09-23T07:26:45Z</time>
      </trkpt>
      <trkpt lat="47.29367" lon="0.5905">
        <ele>85</ele>
        <time>2012-09-23T07:26:46Z</time>
      </trkpt>
      <trkpt lat="47.29367" lon="0.59042">
        <ele>85.3</ele>
        <time>2012-09-23T07:26:47Z</time>
      </trkpt>
      <trkpt lat="47.29366" lon="0.59029">
        <ele>85.7</ele>
        <time>2012-09-23T07:26:49Z</time>
      </trkpt>
      <trkpt lat="47.29366" lon="0.5902">
        <ele>85.9</ele>
        <time>2012-09-23T07:26:50Z</time>
      </trkpt>
      <trkpt lat="47.29366" lon="0.59013">
        <ele>86.2</ele>
        <time>2012-09-23T07:26:51Z</time>
      </trkpt>
      <trkpt lat="47.29366" lon="0.59005">
        <ele>86.4</ele>
        <time>2012-09-23T07:26:52Z</time>
      </trkpt>
      <trkpt lat="47.29366" lon="0.58996">
        <ele>86.6</ele>
        <time>2012-09-23T07:26:53Z</time>
      </trkpt>
      <trkpt lat="47.29367" lon="0.58988">
        <ele>86.8</ele>
        <time>2012-09-23T07:26:54Z</time>
      </trkpt>
      <trkpt lat="47.29368" lon="0.58981">
        <ele>86.9</ele>
        <time>2012-09-23T07:26:55Z</time>
      </trkpt>
      <trkpt lat="47.29368" lon="0.58974">
        <ele>87.1</ele>
        <time>2012-09-23T07:26:56Z</time>
      </trkpt>
      <trkpt lat="47.2937" lon="0.58966">
        <ele>87.2</ele>
        <time>2012-09-23T07:26:57Z</time>
      </trkpt>
      <trkpt lat="47.29372" lon="0.58958">
        <ele>87.3</ele>
        <time>2012-09-23T07:26:58Z</time>
      </trkpt>
      <trkpt lat="47.29374" lon="0.5895">
        <ele>87.4</ele>
        <time>2012-09-23T07:26:59Z</time>
      </trkpt>
      <trkpt lat="47.29376" lon="0.58942">
        <ele>87.5</ele>
        <time>2012-09-23T07:27:00Z</time>
      </trkpt>
      <trkpt lat="47.29377" lon="0.58936">
        <ele>87.6</ele>
        <time>2012-09-23T07:27:01Z</time>
      </trkpt>
      <trkpt lat="47.29379" lon="0.58928">
        <ele>87.6</ele>
        <time>2012-09-23T07:27:02Z</time>
      </trkpt>
      <trkpt lat="47.29382" lon="0.58921">
        <ele>87.7</ele>
        <time>2012-09-23T07:27:03Z</time>
      </trkpt>
      <trkpt lat="47.29384" lon="0.58914">
        <ele>87.8</ele>
        <time>2012-09-23T07:27:04Z</time>
      </trkpt>
      <trkpt lat="47.29387" lon="0.58905">
        <ele>88</ele>
        <time>2012-09-23T07:27:05Z</time>
      </trkpt>
      <trkpt lat="47.29389" lon="0.58897">
        <ele>88.1</ele>
        <time>2012-09-23T07:27:06Z</time>
      </trkpt>
      <trkpt lat="47.2939" lon="0.58889">
        <ele>88.3</ele>
        <time>2012-09-23T07:27:07Z</time>
      </trkpt>
      <trkpt lat="47.29393" lon="0.58877">
        <ele>88.5</ele>
        <time>2012-09-23T07:27:09Z</time>
      </trkpt>
      <trkpt lat="47.29394" lon="0.5887">
        <ele>88.6</ele>
        <time>2012-09-23T07:27:10Z</time>
      </trkpt>
      <trkpt lat="47.29396" lon="0.58863">
        <ele>88.8</ele>
        <time>2012-09-23T07:27:11Z</time>
      </trkpt>
      <trkpt lat="47.29397" lon="0.58857">
        <ele>88.9</ele>
        <time>2012-09-23T07:27:12Z</time>
      </trkpt>
      <trkpt lat="47.29398" lon="0.5885">
        <ele>89</ele>
        <time>2012-09-23T07:27:13Z</time>
      </trkpt>
      <trkpt lat="47.294" lon="0.58843">
        <ele>89.1</ele>
        <time>2012-09-23T07:27:14Z</time>
      </trkpt>
      <trkpt lat="47.29401" lon="0.58837">
        <ele>89.3</ele>
        <time>2012-09-23T07:27:15Z</time>
      </trkpt>
      <trkpt lat="47.29402" lon="0.5883">
        <ele>89.4</ele>
        <time>2012-09-23T07:27:16Z</time>
      </trkpt>
      <trkpt lat="47.29404" lon="0.58824">
        <ele>89.5</ele>
        <time>2012-09-23T07:27:17Z</time>
      </trkpt>
      <trkpt lat="47.29407" lon="0.58812">
        <ele>89.7</ele>
        <time>2012-09-23T07:27:19Z</time>
      </trkpt>
      <trkpt lat="47.2941" lon="0.588">
        <ele>89.9</ele>
        <time>2012-09-23T07:27:21Z</time>
      </trkpt>
      <trkpt lat="47.29413" lon="0.58787">
        <ele>90.2</ele>
        <time>2012-09-23T07:27:23Z</time>
      </trkpt>
      <trkpt lat="47.29415" lon="0.58775">
        <ele>90.4</ele>
        <time>2012-09-23T07:27:25Z</time>
      </trkpt>
      <trkpt lat="47.29418" lon="0.58763">
        <ele>90.6</ele>
        <time>2012-09-23T07:27:27Z</time>
      </trkpt>
      <trkpt lat="47.29419" lon="0.58756">
        <ele>90.7</ele>
        <time>2012-09-23T07:27:28Z</time>
      </trkpt>
      <trkpt lat="47.2942" lon="0.5875">
        <ele>90.9</ele>
        <time>2012-09-23T07:27:29Z</time>
      </trkpt>
      <trkpt lat="47.29421" lon="0.58743">
        <ele>91</ele>
        <time>2012-09-23T07:27:30Z</time>
      </trkpt>
      <trkpt lat="47.29421" lon="0.58736">
        <ele>91</ele>
        <time>2012-09-23T07:27:31Z</time>
      </trkpt>
      <trkpt lat="47.29422" lon="0.58729">
        <ele>91.1</ele>
        <time>2012-09-23T07:27:32Z</time>
      </trkpt>
      <trkpt lat="47.29423" lon="0.58722">
        <ele>91.2</ele>
        <time>2012-09-23T07:27:33Z</time>
      </trkpt>
      <trkpt lat="47.29423" lon="0.58715">
        <ele>91.2</ele>
        <time>2012-09-23T07:27:34Z</time>
      </trkpt>
      <trkpt lat="47.29424" lon="0.58709">
        <ele>91.3</ele>
        <time>2012-09-23T07:27:35Z</time>
      </trkpt>
      <trkpt lat="47.29424" lon="0.58702">
        <ele>91.4</ele>
        <time>2012-09-23T07:27:36Z</time>
      </trkpt>
      <trkpt lat="47.29425" lon="0.58695">
        <ele>91.5</ele>
        <time>2012-09-23T07:27:37Z</time>
      </trkpt>
      <trkpt lat="47.29425" lon="0.58688">
        <ele>91.6</ele>
        <time>2012-09-23T07:27:38Z</time>
      </trkpt>
      <trkpt lat="47.29425" lon="0.58681">
        <ele>91.7</ele>
        <time>2012-09-23T07:27:39Z</time>
      </trkpt>
      <trkpt lat="47.29425" lon="0.58668">
        <ele>91.8</ele>
        <time>2012-09-23T07:27:41Z</time>
      </trkpt>
      <trkpt lat="47.29426" lon="0.58655">
        <ele>92</ele>
        <time>2012-09-23T07:27:43Z</time>
      </trkpt>
      <trkpt lat="47.29426" lon="0.58649">
        <ele>92</ele>
        <time>2012-09-23T07:27:44Z</time>
      </trkpt>
      <trkpt lat="47.29427" lon="0.58642">
        <ele>92.1</ele>
        <time>2012-09-23T07:27:45Z</time>
      </trkpt>
      <trkpt lat="47.29427" lon="0.58634">
        <ele>92.2</ele>
        <time>2012-09-23T07:27:46Z</time>
      </trkpt>
      <trkpt lat="47.29427" lon="0.58627">
        <ele>92.2</ele>
        <time>2012-09-23T07:27:47Z</time>
      </trkpt>
      <trkpt lat="47.29428" lon="0.58619">
        <ele>92.3</ele>
        <time>2012-09-23T07:27:48Z</time>
      </trkpt>
      <trkpt lat="47.29429" lon="0.58613">
        <ele>92.4</ele>
        <time>2012-09-23T07:27:49Z</time>
      </trkpt>
      <trkpt lat="47.29429" lon="0.58605">
        <ele>92.4</ele>
        <time>2012-09-23T07:27:50Z</time>
      </trkpt>
      <trkpt lat="47.2943" lon="0.58597">
        <ele>92.5</ele>
        <time>2012-09-23T07:27:51Z</time>
      </trkpt>
      <trkpt lat="47.2943" lon="0.5859">
        <ele>92.6</ele>
        <time>2012-09-23T07:27:52Z</time>
      </trkpt>
      <trkpt lat="47.29431" lon="0.58582">
        <ele>92.6</ele>
        <time>2012-09-23T07:27:53Z</time>
      </trkpt>
      <trkpt lat="47.29431" lon="0.58574">
        <ele>92.5</ele>
        <time>2012-09-23T07:27:54Z</time>
      </trkpt>
      <trkpt lat="47.29432" lon="0.58566">
        <ele>92.5</ele>
        <time>2012-09-23T07:27:55Z</time>
      </trkpt>
      <trkpt lat="47.29432" lon="0.5856">
        <ele>92.4</ele>
        <time>2012-09-23T07:27:56Z</time>
      </trkpt>
      <trkpt lat="47.29432" lon="0.58552">
        <ele>92.3</ele>
        <time>2012-09-23T07:27:57Z</time>
      </trkpt>
      <trkpt lat="47.29433" lon="0.58544">
        <ele>92.3</ele>
        <time>2012-09-23T07:27:58Z</time>
      </trkpt>
      <trkpt lat="47.29434" lon="0.58531">
        <ele>92.2</ele>
        <time>2012-09-23T07:28:00Z</time>
      </trkpt>
      <trkpt lat="47.29435" lon="0.58525">
        <ele>92.1</ele>
        <time>2012-09-23T07:28:01Z</time>
      </trkpt>
      <trkpt lat="47.29436" lon="0.58518">
        <ele>92.1</ele>
        <time>2012-09-23T07:28:02Z</time>
      </trkpt>
      <trkpt lat="47.29438" lon="0.58505">
        <ele>92</ele>
        <time>2012-09-23T07:28:04Z</time>
      </trkpt>
      <trkpt lat="47.2944" lon="0.58492">
        <ele>91.9</ele>
        <time>2012-09-23T07:28:06Z</time>
      </trkpt>
      <trkpt lat="47.29441" lon="0.58486">
        <ele>91.9</ele>
        <time>2012-09-23T07:28:07Z</time>
      </trkpt>
      <trkpt lat="47.29442" lon="0.58473">
        <ele>91.8</ele>
        <time>2012-09-23T07:28:09Z</time>
      </trkpt>
      <trkpt lat="47.29444" lon="0.58467">
        <ele>91.8</ele>
        <time>2012-09-23T07:28:10Z</time>
      </trkpt>
      <trkpt lat="47.29445" lon="0.5846">
        <ele>91.8</ele>
        <time>2012-09-23T07:28:11Z</time>
      </trkpt>
      <trkpt lat="47.29447" lon="0.58447">
        <ele>91.7</ele>
        <time>2012-09-23T07:28:13Z</time>
      </trkpt>
      <trkpt lat="47.29448" lon="0.58441">
        <ele>91.7</ele>
        <time>2012-09-23T07:28:14Z</time>
      </trkpt>
      <trkpt lat="47.29449" lon="0.58434">
        <ele>91.6</ele>
        <time>2012-09-23T07:28:15Z</time>
      </trkpt>
      <trkpt lat="47.2945" lon="0.58426">
        <ele>91.6</ele>
        <time>2012-09-23T07:28:16Z</time>
      </trkpt>
      <trkpt lat="47.29451" lon="0.58418">
        <ele>91.5</ele>
        <time>2012-09-23T07:28:17Z</time>
      </trkpt>
      <trkpt lat="47.29453" lon="0.5841">
        <ele>91.5</ele>
        <time>2012-09-23T07:28:18Z</time>
      </trkpt>
      <trkpt lat="47.29454" lon="0.58403">
        <ele>91.4</ele>
        <time>2012-09-23T07:28:19Z</time>
      </trkpt>
      <trkpt lat="47.29455" lon="0.58396">
        <ele>91.4</ele>
        <time>2012-09-23T07:28:20Z</time>
      </trkpt>
      <trkpt lat="47.29455" lon="0.58389">
        <ele>91.3</ele>
        <time>2012-09-23T07:28:21Z</time>
      </trkpt>
      <trkpt lat="47.29456" lon="0.58383">
        <ele>91.3</ele>
        <time>2012-09-23T07:28:22Z</time>
      </trkpt>
      <trkpt lat="47.29457" lon="0.58375">
        <ele>91.2</ele>
        <time>2012-09-23T07:28:23Z</time>
      </trkpt>
      <trkpt lat="47.29458" lon="0.58369">
        <ele>91.2</ele>
        <time>2012-09-23T07:28:24Z</time>
      </trkpt>
      <trkpt lat="47.29459" lon="0.58362">
        <ele>91.1</ele>
        <time>2012-09-23T07:28:25Z</time>
      </trkpt>
      <trkpt lat="47.2946" lon="0.58349">
        <ele>91</ele>
        <time>2012-09-23T07:28:27Z</time>
      </trkpt>
      <trkpt lat="47.29461" lon="0.58343">
        <ele>91</ele>
        <time>2012-09-23T07:28:28Z</time>
      </trkpt>
      <trkpt lat="47.29461" lon="0.58336">
        <ele>91</ele>
        <time>2012-09-23T07:28:29Z</time>
      </trkpt>
      <trkpt lat="47.29462" lon="0.58328">
        <ele>91</ele>
        <time>2012-09-23T07:28:30Z</time>
      </trkpt>
      <trkpt lat="47.29463" lon="0.58321">
        <ele>91.1</ele>
        <time>2012-09-23T07:28:31Z</time>
      </trkpt>
      <trkpt lat="47.29463" lon="0.58313">
        <ele>91.2</ele>
        <time>2012-09-23T07:28:32Z</time>
      </trkpt>
      <trkpt lat="47.29464" lon="0.58306">
        <ele>91.2</ele>
        <time>2012-09-23T07:28:33Z</time>
      </trkpt>
      <trkpt lat="47.29464" lon="0.58299">
        <ele>91.3</ele>
        <time>2012-09-23T07:28:34Z</time>
      </trkpt>
      <trkpt lat="47.29465" lon="0.58286">
        <ele>91.4</ele>
        <time>2012-09-23T07:28:36Z</time>
      </trkpt>
      <trkpt lat="47.29465" lon="0.58279">
        <ele>91.5</ele>
        <time>2012-09-23T07:28:37Z</time>
      </trkpt>
      <trkpt lat="47.29466" lon="0.58272">
        <ele>91.5</ele>
        <time>2012-09-23T07:28:38Z</time>
      </trkpt>
      <trkpt lat="47.29467" lon="0.5826">
        <ele>91.7</ele>
        <time>2012-09-23T07:28:40Z</time>
      </trkpt>
      <trkpt lat="47.29467" lon="0.58251">
        <ele>91.7</ele>
        <time>2012-09-23T07:28:42Z</time>
      </trkpt>
      <trkpt lat="47.29469" lon="0.5824">
        <ele>91.7</ele>
        <time>2012-09-23T07:28:44Z</time>
      </trkpt>
      <trkpt lat="47.2947" lon="0.58233">
        <ele>91.7</ele>
        <time>2012-09-23T07:28:45Z</time>
      </trkpt>
      <trkpt lat="47.2947" lon="0.58225">
        <ele>91.7</ele>
        <time>2012-09-23T07:28:46Z</time>
      </trkpt>
      <trkpt lat="47.29471" lon="0.58214">
        <ele>91.6</ele>
        <time>2012-09-23T07:28:48Z</time>
      </trkpt>
      <trkpt lat="47.29472" lon="0.58201">
        <ele>91.6</ele>
        <time>2012-09-23T07:28:50Z</time>
      </trkpt>
      <trkpt lat="47.29472" lon="0.5819">
        <ele>91.6</ele>
        <time>2012-09-23T07:28:52Z</time>
      </trkpt>
      <trkpt lat="47.29473" lon="0.58183">
        <ele>91.6</ele>
        <time>2012-09-23T07:28:53Z</time>
      </trkpt>
      <trkpt lat="47.29473" lon="0.58176">
        <ele>91.6</ele>
        <time>2012-09-23T07:28:54Z</time>
      </trkpt>
      <trkpt lat="47.29473" lon="0.58169">
        <ele>91.6</ele>
        <time>2012-09-23T07:28:55Z</time>
      </trkpt>
      <trkpt lat="47.29473" lon="0.58157">
        <ele>91.6</ele>
        <time>2012-09-23T07:28:57Z</time>
      </trkpt>
      <trkpt lat="47.29473" lon="0.58149">
        <ele>91.5</ele>
        <time>2012-09-23T07:28:58Z</time>
      </trkpt>
      <trkpt lat="47.29473" lon="0.58142">
        <ele>91.5</ele>
        <time>2012-09-23T07:28:59Z</time>
      </trkpt>
      <trkpt lat="47.29473" lon="0.58134">
        <ele>91.5</ele>
        <time>2012-09-23T07:29:00Z</time>
      </trkpt>
      <trkpt lat="47.29473" lon="0.58126">
        <ele>91.4</ele>
        <time>2012-09-23T07:29:01Z</time>
      </trkpt>
      <trkpt lat="47.29472" lon="0.58119">
        <ele>91.4</ele>
        <time>2012-09-23T07:29:02Z</time>
      </trkpt>
      <trkpt lat="47.29471" lon="0.58112">
        <ele>91.4</ele>
        <time>2012-09-23T07:29:03Z</time>
      </trkpt>
      <trkpt lat="47.29471" lon="0.58104">
        <ele>91.4</ele>
        <time>2012-09-23T07:29:04Z</time>
      </trkpt>
      <trkpt lat="47.2947" lon="0.58097">
        <ele>91.4</ele>
        <time>2012-09-23T07:29:05Z</time>
      </trkpt>
      <trkpt lat="47.29469" lon="0.5809">
        <ele>91.4</ele>
        <time>2012-09-23T07:29:06Z</time>
      </trkpt>
      <trkpt lat="47.29468" lon="0.58082">
        <ele>91.3</ele>
        <time>2012-09-23T07:29:07Z</time>
      </trkpt>
      <trkpt lat="47.29467" lon="0.58075">
        <ele>91.4</ele>
        <time>2012-09-23T07:29:08Z</time>
      </trkpt>
      <trkpt lat="47.29465" lon="0.58067">
        <ele>91.4</ele>
        <time>2012-09-23T07:29:09Z</time>
      </trkpt>
      <trkpt lat="47.29463" lon="0.58055">
        <ele>91.4</ele>
        <time>2012-09-23T07:29:11Z</time>
      </trkpt>
      <trkpt lat="47.29461" lon="0.58047">
        <ele>91.4</ele>
        <time>2012-09-23T07:29:12Z</time>
      </trkpt>
      <trkpt lat="47.2946" lon="0.5804">
        <ele>91.5</ele>
        <time>2012-09-23T07:29:13Z</time>
      </trkpt>
      <trkpt lat="47.29459" lon="0.58032">
        <ele>91.5</ele>
        <time>2012-09-23T07:29:14Z</time>
      </trkpt>
      <trkpt lat="47.29457" lon="0.58023">
        <ele>91.4</ele>
        <time>2012-09-23T07:29:15Z</time>
      </trkpt>
      <trkpt lat="47.29457" lon="0.58015">
        <ele>91.4</ele>
        <time>2012-09-23T07:29:16Z</time>
      </trkpt>
      <trkpt lat="47.29456" lon="0.58003">
        <ele>91.4</ele>
        <time>2012-09-23T07:29:18Z</time>
      </trkpt>
      <trkpt lat="47.29455" lon="0.57996">
        <ele>91.4</ele>
        <time>2012-09-23T07:29:19Z</time>
      </trkpt>
      <trkpt lat="47.29454" lon="0.57989">
        <ele>91.5</ele>
        <time>2012-09-23T07:29:20Z</time>
      </trkpt>
      <trkpt lat="47.29452" lon="0.57979">
        <ele>91.5</ele>
        <time>2012-09-23T07:29:21Z</time>
      </trkpt>
      <trkpt lat="47.2945" lon="0.5797">
        <ele>91.6</ele>
        <time>2012-09-23T07:29:22Z</time>
      </trkpt>
      <trkpt lat="47.29448" lon="0.57963">
        <ele>91.6</ele>
        <time>2012-09-23T07:29:23Z</time>
      </trkpt>
      <trkpt lat="47.29446" lon="0.57952">
        <ele>91.7</ele>
        <time>2012-09-23T07:29:24Z</time>
      </trkpt>
      <trkpt lat="47.29445" lon="0.57943">
        <ele>91.7</ele>
        <time>2012-09-23T07:29:25Z</time>
      </trkpt>
      <trkpt lat="47.29443" lon="0.57934">
        <ele>91.8</ele>
        <time>2012-09-23T07:29:26Z</time>
      </trkpt>
      <trkpt lat="47.29441" lon="0.57925">
        <ele>91.9</ele>
        <time>2012-09-23T07:29:27Z</time>
      </trkpt>
      <trkpt lat="47.29438" lon="0.57914">
        <ele>92</ele>
        <time>2012-09-23T07:29:28Z</time>
      </trkpt>
      <trkpt lat="47.29436" lon="0.57905">
        <ele>92</ele>
        <time>2012-09-23T07:29:29Z</time>
      </trkpt>
      <trkpt lat="47.29435" lon="0.57898">
        <ele>92</ele>
        <time>2012-09-23T07:29:30Z</time>
      </trkpt>
      <trkpt lat="47.29434" lon="0.57892">
        <ele>92</ele>
        <time>2012-09-23T07:29:31Z</time>
      </trkpt>
      <trkpt lat="47.29433" lon="0.57885">
        <ele>92</ele>
        <time>2012-09-23T07:29:32Z</time>
      </trkpt>
      <trkpt lat="47.29432" lon="0.57877">
        <ele>92</ele>
        <time>2012-09-23T07:29:33Z</time>
      </trkpt>
      <trkpt lat="47.2943" lon="0.57867">
        <ele>92</ele>
        <time>2012-09-23T07:29:34Z</time>
      </trkpt>
      <trkpt lat="47.29428" lon="0.57859">
        <ele>92</ele>
        <time>2012-09-23T07:29:35Z</time>
      </trkpt>
      <trkpt lat="47.29426" lon="0.57847">
        <ele>92</ele>
        <time>2012-09-23T07:29:37Z</time>
      </trkpt>
      <trkpt lat="47.29424" lon="0.57838">
        <ele>92</ele>
        <time>2012-09-23T07:29:38Z</time>
      </trkpt>
      <trkpt lat="47.29422" lon="0.57825">
        <ele>92</ele>
        <time>2012-09-23T07:29:40Z</time>
      </trkpt>
      <trkpt lat="47.29421" lon="0.57817">
        <ele>92</ele>
        <time>2012-09-23T07:29:41Z</time>
      </trkpt>
      <trkpt lat="47.2942" lon="0.57811">
        <ele>92</ele>
        <time>2012-09-23T07:29:42Z</time>
      </trkpt>
      <trkpt lat="47.29419" lon="0.57803">
        <ele>92</ele>
        <time>2012-09-23T07:29:43Z</time>
      </trkpt>
      <trkpt lat="47.29418" lon="0.57795">
        <ele>92</ele>
        <time>2012-09-23T07:29:44Z</time>
      </trkpt>
      <trkpt lat="47.29417" lon="0.57789">
        <ele>92</ele>
        <time>2012-09-23T07:29:45Z</time>
      </trkpt>
      <trkpt lat="47.29416" lon="0.5778">
        <ele>91.9</ele>
        <time>2012-09-23T07:29:46Z</time>
      </trkpt>
      <trkpt lat="47.29415" lon="0.57773">
        <ele>91.9</ele>
        <time>2012-09-23T07:29:47Z</time>
      </trkpt>
      <trkpt lat="47.29413" lon="0.57761">
        <ele>91.9</ele>
        <time>2012-09-23T07:29:49Z</time>
      </trkpt>
      <trkpt lat="47.29411" lon="0.57754">
        <ele>91.9</ele>
        <time>2012-09-23T07:29:50Z</time>
      </trkpt>
      <trkpt lat="47.29409" lon="0.57741">
        <ele>91.9</ele>
        <time>2012-09-23T07:29:52Z</time>
      </trkpt>
      <trkpt lat="47.29407" lon="0.57735">
        <ele>91.9</ele>
        <time>2012-09-23T07:29:53Z</time>
      </trkpt>
      <trkpt lat="47.29405" lon="0.57729">
        <ele>91.9</ele>
        <time>2012-09-23T07:29:54Z</time>
      </trkpt>
      <trkpt lat="47.29403" lon="0.57721">
        <ele>91.9</ele>
        <time>2012-09-23T07:29:55Z</time>
      </trkpt>
      <trkpt lat="47.29402" lon="0.57713">
        <ele>91.9</ele>
        <time>2012-09-23T07:29:56Z</time>
      </trkpt>
      <trkpt lat="47.294" lon="0.57706">
        <ele>91.8</ele>
        <time>2012-09-23T07:29:57Z</time>
      </trkpt>
      <trkpt lat="47.29399" lon="0.57698">
        <ele>91.8</ele>
        <time>2012-09-23T07:29:58Z</time>
      </trkpt>
      <trkpt lat="47.29397" lon="0.57691">
        <ele>91.8</ele>
        <time>2012-09-23T07:29:59Z</time>
      </trkpt>
      <trkpt lat="47.29394" lon="0.57685">
        <ele>91.7</ele>
        <time>2012-09-23T07:30:00Z</time>
      </trkpt>
      <trkpt lat="47.29392" lon="0.57678">
        <ele>91.7</ele>
        <time>2012-09-23T07:30:01Z</time>
      </trkpt>
      <trkpt lat="47.29389" lon="0.57669">
        <ele>91.6</ele>
        <time>2012-09-23T07:30:02Z</time>
      </trkpt>
      <trkpt lat="47.29387" lon="0.57663">
        <ele>91.6</ele>
        <time>2012-09-23T07:30:03Z</time>
      </trkpt>
      <trkpt lat="47.29384" lon="0.57655">
        <ele>91.6</ele>
        <time>2012-09-23T07:30:04Z</time>
      </trkpt>
      <trkpt lat="47.29383" lon="0.57648">
        <ele>91.6</ele>
        <time>2012-09-23T07:30:05Z</time>
      </trkpt>
      <trkpt lat="47.29381" lon="0.57642">
        <ele>91.7</ele>
        <time>2012-09-23T07:30:06Z</time>
      </trkpt>
      <trkpt lat="47.2938" lon="0.57635">
        <ele>91.7</ele>
        <time>2012-09-23T07:30:07Z</time>
      </trkpt>
      <trkpt lat="47.29376" lon="0.57623">
        <ele>91.7</ele>
        <time>2012-09-23T07:30:09Z</time>
      </trkpt>
      <trkpt lat="47.29373" lon="0.57613">
        <ele>91.8</ele>
        <time>2012-09-23T07:30:11Z</time>
      </trkpt>
      <trkpt lat="47.2937" lon="0.57604">
        <ele>91.8</ele>
        <time>2012-09-23T07:30:12Z</time>
      </trkpt>
      <trkpt lat="47.29368" lon="0.57596">
        <ele>91.9</ele>
        <time>2012-09-23T07:30:13Z</time>
      </trkpt>
      <trkpt lat="47.29365" lon="0.57585">
        <ele>91.9</ele>
        <time>2012-09-23T07:30:15Z</time>
      </trkpt>
      <trkpt lat="47.29362" lon="0.57573">
        <ele>92.2</ele>
        <time>2012-09-23T07:30:17Z</time>
      </trkpt>
      <trkpt lat="47.2936" lon="0.57566">
        <ele>92.3</ele>
        <time>2012-09-23T07:30:18Z</time>
      </trkpt>
      <trkpt lat="47.29356" lon="0.57555">
        <ele>92.5</ele>
        <time>2012-09-23T07:30:20Z</time>
      </trkpt>
      <trkpt lat="47.29353" lon="0.57544">
        <ele>92.8</ele>
        <time>2012-09-23T07:30:22Z</time>
      </trkpt>
      <trkpt lat="47.29352" lon="0.57537">
        <ele>92.9</ele>
        <time>2012-09-23T07:30:23Z</time>
      </trkpt>
      <trkpt lat="47.29349" lon="0.57526">
        <ele>93.2</ele>
        <time>2012-09-23T07:30:25Z</time>
      </trkpt>
      <trkpt lat="47.29346" lon="0.57513">
        <ele>93.5</ele>
        <time>2012-09-23T07:30:27Z</time>
      </trkpt>
      <trkpt lat="47.29344" lon="0.57508">
        <ele>93.6</ele>
        <time>2012-09-23T07:30:28Z</time>
      </trkpt>
      <trkpt lat="47.29342" lon="0.57501">
        <ele>93.8</ele>
        <time>2012-09-23T07:30:29Z</time>
      </trkpt>
      <trkpt lat="47.2934" lon="0.57494">
        <ele>93.9</ele>
        <time>2012-09-23T07:30:30Z</time>
      </trkpt>
      <trkpt lat="47.29335" lon="0.57484">
        <ele>93.9</ele>
        <time>2012-09-23T07:30:32Z</time>
      </trkpt>
      <trkpt lat="47.29331" lon="0.57474">
        <ele>93.9</ele>
        <time>2012-09-23T07:30:34Z</time>
      </trkpt>
      <trkpt lat="47.29327" lon="0.57468">
        <ele>93.9</ele>
        <time>2012-09-23T07:30:35Z</time>
      </trkpt>
      <trkpt lat="47.29324" lon="0.57462">
        <ele>93.8</ele>
        <time>2012-09-23T07:30:36Z</time>
      </trkpt>
      <trkpt lat="47.2932" lon="0.57455">
        <ele>93.8</ele>
        <time>2012-09-23T07:30:37Z</time>
      </trkpt>
      <trkpt lat="47.29315" lon="0.57446">
        <ele>93.7</ele>
        <time>2012-09-23T07:30:39Z</time>
      </trkpt>
      <trkpt lat="47.29313" lon="0.57441">
        <ele>93.7</ele>
        <time>2012-09-23T07:30:40Z</time>
      </trkpt>
      <trkpt lat="47.29309" lon="0.57434">
        <ele>93.7</ele>
        <time>2012-09-23T07:30:41Z</time>
      </trkpt>
      <trkpt lat="47.29305" lon="0.57428">
        <ele>93.6</ele>
        <time>2012-09-23T07:30:42Z</time>
      </trkpt>
      <trkpt lat="47.29302" lon="0.57422">
        <ele>93.6</ele>
        <time>2012-09-23T07:30:43Z</time>
      </trkpt>
      <trkpt lat="47.29298" lon="0.57417">
        <ele>93.5</ele>
        <time>2012-09-23T07:30:44Z</time>
      </trkpt>
      <trkpt lat="47.29293" lon="0.57408">
        <ele>93.3</ele>
        <time>2012-09-23T07:30:46Z</time>
      </trkpt>
      <trkpt lat="47.2929" lon="0.57402">
        <ele>93.2</ele>
        <time>2012-09-23T07:30:47Z</time>
      </trkpt>
      <trkpt lat="47.29284" lon="0.57392">
        <ele>92.9</ele>
        <time>2012-09-23T07:30:49Z</time>
      </trkpt>
      <trkpt lat="47.29279" lon="0.57382">
        <ele>92.7</ele>
        <time>2012-09-23T07:30:51Z</time>
      </trkpt>
      <trkpt lat="47.29273" lon="0.57372">
        <ele>92.5</ele>
        <time>2012-09-23T07:30:53Z</time>
      </trkpt>
      <trkpt lat="47.29271" lon="0.57366">
        <ele>92.4</ele>
        <time>2012-09-23T07:30:54Z</time>
      </trkpt>
      <trkpt lat="47.29267" lon="0.5736">
        <ele>92.3</ele>
        <time>2012-09-23T07:30:55Z</time>
      </trkpt>
      <trkpt lat="47.29264" lon="0.57353">
        <ele>92.2</ele>
        <time>2012-09-23T07:30:56Z</time>
      </trkpt>
      <trkpt lat="47.2926" lon="0.57342">
        <ele>92.1</ele>
        <time>2012-09-23T07:30:58Z</time>
      </trkpt>
      <trkpt lat="47.29258" lon="0.57335">
        <ele>92</ele>
        <time>2012-09-23T07:30:59Z</time>
      </trkpt>
      <trkpt lat="47.29255" lon="0.57328">
        <ele>92</ele>
        <time>2012-09-23T07:31:00Z</time>
      </trkpt>
      <trkpt lat="47.29254" lon="0.57322">
        <ele>92</ele>
        <time>2012-09-23T07:31:01Z</time>
      </trkpt>
      <trkpt lat="47.29252" lon="0.57315">
        <ele>92</ele>
        <time>2012-09-23T07:31:02Z</time>
      </trkpt>
      <trkpt lat="47.29251" lon="0.57303">
        <ele>92</ele>
        <time>2012-09-23T07:31:04Z</time>
      </trkpt>
      <trkpt lat="47.29251" lon="0.57292">
        <ele>92</ele>
        <time>2012-09-23T07:31:06Z</time>
      </trkpt>
      <trkpt lat="47.29253" lon="0.57281">
        <ele>92</ele>
        <time>2012-09-23T07:31:08Z</time>
      </trkpt>
      <trkpt lat="47.29253" lon="0.57272">
        <ele>92</ele>
        <time>2012-09-23T07:31:09Z</time>
      </trkpt>
      <trkpt lat="47.29254" lon="0.57265">
        <ele>92</ele>
        <time>2012-09-23T07:31:10Z</time>
      </trkpt>
      <trkpt lat="47.29254" lon="0.57252">
        <ele>92</ele>
        <time>2012-09-23T07:31:12Z</time>
      </trkpt>
      <trkpt lat="47.29255" lon="0.57244">
        <ele>92.1</ele>
        <time>2012-09-23T07:31:13Z</time>
      </trkpt>
      <trkpt lat="47.29255" lon="0.57232">
        <ele>92.2</ele>
        <time>2012-09-23T07:31:15Z</time>
      </trkpt>
      <trkpt lat="47.29255" lon="0.57225">
        <ele>92.3</ele>
        <time>2012-09-23T07:31:16Z</time>
      </trkpt>
      <trkpt lat="47.29255" lon="0.57217">
        <ele>92.4</ele>
        <time>2012-09-23T07:31:17Z</time>
      </trkpt>
      <trkpt lat="47.29255" lon="0.5721">
        <ele>92.5</ele>
        <time>2012-09-23T07:31:18Z</time>
      </trkpt>
      <trkpt lat="47.29255" lon="0.57203">
        <ele>92.6</ele>
        <time>2012-09-23T07:31:19Z</time>
      </trkpt>
      <trkpt lat="47.29255" lon="0.57196">
        <ele>92.6</ele>
        <time>2012-09-23T07:31:20Z</time>
      </trkpt>
      <trkpt lat="47.29254" lon="0.57182">
        <ele>92.8</ele>
        <time>2012-09-23T07:31:22Z</time>
      </trkpt>
      <trkpt lat="47.29254" lon="0.57176">
        <ele>92.8</ele>
        <time>2012-09-23T07:31:23Z</time>
      </trkpt>
      <trkpt lat="47.29254" lon="0.57164">
        <ele>92.9</ele>
        <time>2012-09-23T07:31:25Z</time>
      </trkpt>
      <trkpt lat="47.29254" lon="0.57152">
        <ele>92.8</ele>
        <time>2012-09-23T07:31:27Z</time>
      </trkpt>
      <trkpt lat="47.29254" lon="0.57141">
        <ele>92.7</ele>
        <time>2012-09-23T07:31:29Z</time>
      </trkpt>
      <trkpt lat="47.29255" lon="0.57131">
        <ele>92.5</ele>
        <time>2012-09-23T07:31:31Z</time>
      </trkpt>
      <trkpt lat="47.29255" lon="0.57122">
        <ele>92.4</ele>
        <time>2012-09-23T07:31:33Z</time>
      </trkpt>
      <trkpt lat="47.29255" lon="0.5711">
        <ele>92.3</ele>
        <time>2012-09-23T07:31:35Z</time>
      </trkpt>
      <trkpt lat="47.29255" lon="0.57098">
        <ele>92.2</ele>
        <time>2012-09-23T07:31:37Z</time>
      </trkpt>
      <trkpt lat="47.29256" lon="0.57085">
        <ele>92</ele>
        <time>2012-09-23T07:31:39Z</time>
      </trkpt>
      <trkpt lat="47.29256" lon="0.57072">
        <ele>92</ele>
        <time>2012-09-23T07:31:41Z</time>
      </trkpt>
      <trkpt lat="47.29256" lon="0.57059">
        <ele>92</ele>
        <time>2012-09-23T07:31:43Z</time>
      </trkpt>
      <trkpt lat="47.29257" lon="0.57046">
        <ele>92.1</ele>
        <time>2012-09-23T07:31:45Z</time>
      </trkpt>
      <trkpt lat="47.29257" lon="0.57034">
        <ele>92.1</ele>
        <time>2012-09-23T07:31:47Z</time>
      </trkpt>
      <trkpt lat="47.29258" lon="0.57021">
        <ele>92.1</ele>
        <time>2012-09-23T07:31:49Z</time>
      </trkpt>
      <trkpt lat="47.29258" lon="0.57008">
        <ele>92.1</ele>
        <time>2012-09-23T07:31:51Z</time>
      </trkpt>
      <trkpt lat="47.29259" lon="0.56996">
        <ele>92.2</ele>
        <time>2012-09-23T07:31:53Z</time>
      </trkpt>
      <trkpt lat="47.29259" lon="0.56983">
        <ele>92.2</ele>
        <time>2012-09-23T07:31:55Z</time>
      </trkpt>
      <trkpt lat="47.29259" lon="0.56971">
        <ele>92.2</ele>
        <time>2012-09-23T07:31:57Z</time>
      </trkpt>
      <trkpt lat="47.29259" lon="0.56964">
        <ele>92.2</ele>
        <time>2012-09-23T07:31:58Z</time>
      </trkpt>
      <trkpt lat="47.2926" lon="0.56957">
        <ele>92.2</ele>
        <time>2012-09-23T07:31:59Z</time>
      </trkpt>
      <trkpt lat="47.2926" lon="0.5695">
        <ele>92.2</ele>
        <time>2012-09-23T07:32:00Z</time>
      </trkpt>
      <trkpt lat="47.2926" lon="0.56943">
        <ele>92.2</ele>
        <time>2012-09-23T07:32:01Z</time>
      </trkpt>
      <trkpt lat="47.29261" lon="0.56936">
        <ele>92.2</ele>
        <time>2012-09-23T07:32:02Z</time>
      </trkpt>
      <trkpt lat="47.29261" lon="0.56929">
        <ele>92.2</ele>
        <time>2012-09-23T07:32:03Z</time>
      </trkpt>
      <trkpt lat="47.29261" lon="0.56922">
        <ele>92.2</ele>
        <time>2012-09-23T07:32:04Z</time>
      </trkpt>
      <trkpt lat="47.2926" lon="0.56915">
        <ele>92.2</ele>
        <time>2012-09-23T07:32:05Z</time>
      </trkpt>
      <trkpt lat="47.29258" lon="0.56908">
        <ele>92.2</ele>
        <time>2012-09-23T07:32:06Z</time>
      </trkpt>
      <trkpt lat="47.29256" lon="0.56902">
        <ele>92.1</ele>
        <time>2012-09-23T07:32:07Z</time>
      </trkpt>
      <trkpt lat="47.29253" lon="0.56896">
        <ele>92</ele>
        <time>2012-09-23T07:32:08Z</time>
      </trkpt>
      <trkpt lat="47.29249" lon="0.56892">
        <ele>92</ele>
        <time>2012-09-23T07:32:09Z</time>
      </trkpt>
      <trkpt lat="47.29249" lon="0.56892">
        <ele>92</ele>
        <time>2012-09-23T07:32:09Z</time>
      </trkpt>
      <trkpt lat="47.29244" lon="0.56889">
        <ele>92</ele>
        <time>2012-09-23T07:32:10Z</time>
      </trkpt>
      <trkpt lat="47.2924" lon="0.56886">
        <ele>92</ele>
        <time>2012-09-23T07:32:11Z</time>
      </trkpt>
      <trkpt lat="47.29235" lon="0.56884">
        <ele>92</ele>
        <time>2012-09-23T07:32:12Z</time>
      </trkpt>
      <trkpt lat="47.29231" lon="0.56881">
        <ele>92</ele>
        <time>2012-09-23T07:32:13Z</time>
      </trkpt>
      <trkpt lat="47.29226" lon="0.56879">
        <ele>92</ele>
        <time>2012-09-23T07:32:14Z</time>
      </trkpt>
      <trkpt lat="47.29221" lon="0.56876">
        <ele>92</ele>
        <time>2012-09-23T07:32:15Z</time>
      </trkpt>
      <trkpt lat="47.29217" lon="0.56873">
        <ele>91.9</ele>
        <time>2012-09-23T07:32:16Z</time>
      </trkpt>
      <trkpt lat="47.29212" lon="0.5687">
        <ele>91.9</ele>
        <time>2012-09-23T07:32:17Z</time>
      </trkpt>
      <trkpt lat="47.29208" lon="0.56867">
        <ele>91.9</ele>
        <time>2012-09-23T07:32:18Z</time>
      </trkpt>
      <trkpt lat="47.29204" lon="0.56864">
        <ele>91.8</ele>
        <time>2012-09-23T07:32:19Z</time>
      </trkpt>
      <trkpt lat="47.29199" lon="0.5686">
        <ele>91.7</ele>
        <time>2012-09-23T07:32:20Z</time>
      </trkpt>
      <trkpt lat="47.29195" lon="0.56856">
        <ele>91.6</ele>
        <time>2012-09-23T07:32:21Z</time>
      </trkpt>
      <trkpt lat="47.2919" lon="0.56852">
        <ele>91.5</ele>
        <time>2012-09-23T07:32:22Z</time>
      </trkpt>
      <trkpt lat="47.29186" lon="0.56848">
        <ele>91.4</ele>
        <time>2012-09-23T07:32:23Z</time>
      </trkpt>
      <trkpt lat="47.29182" lon="0.56844">
        <ele>91.3</ele>
        <time>2012-09-23T07:32:24Z</time>
      </trkpt>
      <trkpt lat="47.29178" lon="0.5684">
        <ele>91.2</ele>
        <time>2012-09-23T07:32:25Z</time>
      </trkpt>
      <trkpt lat="47.29174" lon="0.56836">
        <ele>91.1</ele>
        <time>2012-09-23T07:32:26Z</time>
      </trkpt>
      <trkpt lat="47.2917" lon="0.56831">
        <ele>91</ele>
        <time>2012-09-23T07:32:27Z</time>
      </trkpt>
      <trkpt lat="47.29166" lon="0.56827">
        <ele>91</ele>
        <time>2012-09-23T07:32:28Z</time>
      </trkpt>
      <trkpt lat="47.29162" lon="0.56823">
        <ele>91</ele>
        <time>2012-09-23T07:32:29Z</time>
      </trkpt>
      <trkpt lat="47.29158" lon="0.56818">
        <ele>91.1</ele>
        <time>2012-09-23T07:32:30Z</time>
      </trkpt>
      <trkpt lat="47.29155" lon="0.56813">
        <ele>91.1</ele>
        <time>2012-09-23T07:32:31Z</time>
      </trkpt>
      <trkpt lat="47.29151" lon="0.56809">
        <ele>91.1</ele>
        <time>2012-09-23T07:32:32Z</time>
      </trkpt>
      <trkpt lat="47.29147" lon="0.56803">
        <ele>91.2</ele>
        <time>2012-09-23T07:32:33Z</time>
      </trkpt>
      <trkpt lat="47.29144" lon="0.56798">
        <ele>91.2</ele>
        <time>2012-09-23T07:32:34Z</time>
      </trkpt>
      <trkpt lat="47.29138" lon="0.56789">
        <ele>91.3</ele>
        <time>2012-09-23T07:32:36Z</time>
      </trkpt>
      <trkpt lat="47.29135" lon="0.56784">
        <ele>91.3</ele>
        <time>2012-09-23T07:32:37Z</time>
      </trkpt>
      <trkpt lat="47.2913" lon="0.56778">
        <ele>91.4</ele>
        <time>2012-09-23T07:32:38Z</time>
      </trkpt>
      <trkpt lat="47.29125" lon="0.56771">
        <ele>91.4</ele>
        <time>2012-09-23T07:32:40Z</time>
      </trkpt>
      <trkpt lat="47.29119" lon="0.56762">
        <ele>91.5</ele>
        <time>2012-09-23T07:32:42Z</time>
      </trkpt>
      <trkpt lat="47.29115" lon="0.56756">
        <ele>91.6</ele>
        <time>2012-09-23T07:32:43Z</time>
      </trkpt>
      <trkpt lat="47.2911" lon="0.56748">
        <ele>91.6</ele>
        <time>2012-09-23T07:32:45Z</time>
      </trkpt>
      <trkpt lat="47.29105" lon="0.56741">
        <ele>91.7</ele>
        <time>2012-09-23T07:32:47Z</time>
      </trkpt>
      <trkpt lat="47.291" lon="0.56733">
        <ele>91.7</ele>
        <time>2012-09-23T07:32:49Z</time>
      </trkpt>
      <trkpt lat="47.29094" lon="0.56725">
        <ele>91.8</ele>
        <time>2012-09-23T07:32:51Z</time>
      </trkpt>
      <trkpt lat="47.29087" lon="0.56717">
        <ele>91.9</ele>
        <time>2012-09-23T07:32:53Z</time>
      </trkpt>
      <trkpt lat="47.29081" lon="0.56711">
        <ele>92</ele>
        <time>2012-09-23T07:32:55Z</time>
      </trkpt>
      <trkpt lat="47.29075" lon="0.56705">
        <ele>92</ele>
        <time>2012-09-23T07:32:57Z</time>
      </trkpt>
      <trkpt lat="47.29069" lon="0.56698">
        <ele>92.1</ele>
        <time>2012-09-23T07:32:59Z</time>
      </trkpt>
      <trkpt lat="47.29064" lon="0.5669">
        <ele>92.2</ele>
        <time>2012-09-23T07:33:01Z</time>
      </trkpt>
      <trkpt lat="47.2906" lon="0.56684">
        <ele>92.2</ele>
        <time>2012-09-23T07:33:03Z</time>
      </trkpt>
      <trkpt lat="47.29055" lon="0.56676">
        <ele>92.3</ele>
        <time>2012-09-23T07:33:05Z</time>
      </trkpt>
      <trkpt lat="47.29049" lon="0.56667">
        <ele>92.4</ele>
        <time>2012-09-23T07:33:07Z</time>
      </trkpt>
      <trkpt lat="47.29043" lon="0.56659">
        <ele>92.4</ele>
        <time>2012-09-23T07:33:09Z</time>
      </trkpt>
      <trkpt lat="47.29036" lon="0.56651">
        <ele>92.5</ele>
        <time>2012-09-23T07:33:11Z</time>
      </trkpt>
      <trkpt lat="47.29032" lon="0.56645">
        <ele>92.6</ele>
        <time>2012-09-23T07:33:12Z</time>
      </trkpt>
      <trkpt lat="47.29027" lon="0.56639">
        <ele>92.6</ele>
        <time>2012-09-23T07:33:13Z</time>
      </trkpt>
      <trkpt lat="47.2902" lon="0.5663">
        <ele>92.7</ele>
        <time>2012-09-23T07:33:15Z</time>
      </trkpt>
      <trkpt lat="47.29014" lon="0.56622">
        <ele>92.8</ele>
        <time>2012-09-23T07:33:17Z</time>
      </trkpt>
      <trkpt lat="47.29007" lon="0.56614">
        <ele>92.9</ele>
        <time>2012-09-23T07:33:19Z</time>
      </trkpt>
      <trkpt lat="47.29003" lon="0.56609">
        <ele>92.9</ele>
        <time>2012-09-23T07:33:20Z</time>
      </trkpt>
      <trkpt lat="47.29" lon="0.56605">
        <ele>93</ele>
        <time>2012-09-23T07:33:21Z</time>
      </trkpt>
      <trkpt lat="47.28993" lon="0.56598">
        <ele>93</ele>
        <time>2012-09-23T07:33:23Z</time>
      </trkpt>
      <trkpt lat="47.28989" lon="0.56594">
        <ele>93</ele>
        <time>2012-09-23T07:33:24Z</time>
      </trkpt>
      <trkpt lat="47.28984" lon="0.5659">
        <ele>93</ele>
        <time>2012-09-23T07:33:25Z</time>
      </trkpt>
      <trkpt lat="47.2898" lon="0.56585">
        <ele>93</ele>
        <time>2012-09-23T07:33:26Z</time>
      </trkpt>
      <trkpt lat="47.28976" lon="0.56581">
        <ele>92.9</ele>
        <time>2012-09-23T07:33:27Z</time>
      </trkpt>
      <trkpt lat="47.28972" lon="0.56576">
        <ele>92.9</ele>
        <time>2012-09-23T07:33:28Z</time>
      </trkpt>
      <trkpt lat="47.28966" lon="0.56567">
        <ele>92.7</ele>
        <time>2012-09-23T07:33:30Z</time>
      </trkpt>
      <trkpt lat="47.28959" lon="0.5656">
        <ele>92.7</ele>
        <time>2012-09-23T07:33:32Z</time>
      </trkpt>
      <trkpt lat="47.28955" lon="0.56555">
        <ele>92.6</ele>
        <time>2012-09-23T07:33:33Z</time>
      </trkpt>
      <trkpt lat="47.28951" lon="0.5655">
        <ele>92.5</ele>
        <time>2012-09-23T07:33:34Z</time>
      </trkpt>
      <trkpt lat="47.28944" lon="0.56542">
        <ele>92.5</ele>
        <time>2012-09-23T07:33:36Z</time>
      </trkpt>
      <trkpt lat="47.2894" lon="0.56537">
        <ele>92.4</ele>
        <time>2012-09-23T07:33:37Z</time>
      </trkpt>
      <trkpt lat="47.28936" lon="0.56532">
        <ele>92.3</ele>
        <time>2012-09-23T07:33:38Z</time>
      </trkpt>
      <trkpt lat="47.28929" lon="0.56523">
        <ele>92.2</ele>
        <time>2012-09-23T07:33:40Z</time>
      </trkpt>
      <trkpt lat="47.28923" lon="0.56514">
        <ele>92.1</ele>
        <time>2012-09-23T07:33:42Z</time>
      </trkpt>
      <trkpt lat="47.2892" lon="0.56508">
        <ele>92</ele>
        <time>2012-09-23T07:33:43Z</time>
      </trkpt>
      <trkpt lat="47.28917" lon="0.56503">
        <ele>92</ele>
        <time>2012-09-23T07:33:44Z</time>
      </trkpt>
      <trkpt lat="47.28912" lon="0.56492">
        <ele>92.1</ele>
        <time>2012-09-23T07:33:46Z</time>
      </trkpt>
      <trkpt lat="47.28909" lon="0.56486">
        <ele>92.1</ele>
        <time>2012-09-23T07:33:47Z</time>
      </trkpt>
      <trkpt lat="47.28906" lon="0.5648">
        <ele>92.2</ele>
        <time>2012-09-23T07:33:48Z</time>
      </trkpt>
      <trkpt lat="47.28903" lon="0.56475">
        <ele>92.2</ele>
        <time>2012-09-23T07:33:49Z</time>
      </trkpt>
      <trkpt lat="47.289" lon="0.56468">
        <ele>92.2</ele>
        <time>2012-09-23T07:33:50Z</time>
      </trkpt>
      <trkpt lat="47.28896" lon="0.56461">
        <ele>92.2</ele>
        <time>2012-09-23T07:33:51Z</time>
      </trkpt>
      <trkpt lat="47.28894" lon="0.56455">
        <ele>92.2</ele>
        <time>2012-09-23T07:33:52Z</time>
      </trkpt>
      <trkpt lat="47.28891" lon="0.5645">
        <ele>92.2</ele>
        <time>2012-09-23T07:33:53Z</time>
      </trkpt>
      <trkpt lat="47.28889" lon="0.56443">
        <ele>92.2</ele>
        <time>2012-09-23T07:33:54Z</time>
      </trkpt>
      <trkpt lat="47.28886" lon="0.56436">
        <ele>92.1</ele>
        <time>2012-09-23T07:33:55Z</time>
      </trkpt>
      <trkpt lat="47.28884" lon="0.5643">
        <ele>92.1</ele>
        <time>2012-09-23T07:33:56Z</time>
      </trkpt>
      <trkpt lat="47.28882" lon="0.56425">
        <ele>92</ele>
        <time>2012-09-23T07:33:57Z</time>
      </trkpt>
      <trkpt lat="47.28879" lon="0.56417">
        <ele>92</ele>
        <time>2012-09-23T07:33:58Z</time>
      </trkpt>
      <trkpt lat="47.28876" lon="0.5641">
        <ele>92</ele>
        <time>2012-09-23T07:33:59Z</time>
      </trkpt>
      <trkpt lat="47.28874" lon="0.56404">
        <ele>92</ele>
        <time>2012-09-23T07:34:00Z</time>
      </trkpt>
      <trkpt lat="47.28871" lon="0.56396">
        <ele>92.1</ele>
        <time>2012-09-23T07:34:01Z</time>
      </trkpt>
      <trkpt lat="47.28869" lon="0.56389">
        <ele>92.1</ele>
        <time>2012-09-23T07:34:02Z</time>
      </trkpt>
      <trkpt lat="47.28868" lon="0.56382">
        <ele>92.1</ele>
        <time>2012-09-23T07:34:03Z</time>
      </trkpt>
      <trkpt lat="47.28866" lon="0.56374">
        <ele>92.1</ele>
        <time>2012-09-23T07:34:04Z</time>
      </trkpt>
      <trkpt lat="47.28863" lon="0.56366">
        <ele>92.2</ele>
        <time>2012-09-23T07:34:05Z</time>
      </trkpt>
      <trkpt lat="47.28861" lon="0.5636">
        <ele>92.2</ele>
        <time>2012-09-23T07:34:06Z</time>
      </trkpt>
      <trkpt lat="47.28859" lon="0.56353">
        <ele>92.2</ele>
        <time>2012-09-23T07:34:07Z</time>
      </trkpt>
      <trkpt lat="47.28857" lon="0.56345">
        <ele>92.2</ele>
        <time>2012-09-23T07:34:08Z</time>
      </trkpt>
      <trkpt lat="47.28855" lon="0.56336">
        <ele>92.2</ele>
        <time>2012-09-23T07:34:09Z</time>
      </trkpt>
      <trkpt lat="47.28854" lon="0.5633">
        <ele>92.3</ele>
        <time>2012-09-23T07:34:10Z</time>
      </trkpt>
      <trkpt lat="47.28853" lon="0.56323">
        <ele>92.4</ele>
        <time>2012-09-23T07:34:11Z</time>
      </trkpt>
      <trkpt lat="47.28852" lon="0.56314">
        <ele>92.5</ele>
        <time>2012-09-23T07:34:12Z</time>
      </trkpt>
      <trkpt lat="47.28851" lon="0.56306">
        <ele>92.7</ele>
        <time>2012-09-23T07:34:13Z</time>
      </trkpt>
      <trkpt lat="47.2885" lon="0.56298">
        <ele>92.8</ele>
        <time>2012-09-23T07:34:14Z</time>
      </trkpt>
      <trkpt lat="47.28849" lon="0.56291">
        <ele>93</ele>
        <time>2012-09-23T07:34:15Z</time>
      </trkpt>
      <trkpt lat="47.28848" lon="0.56285">
        <ele>93.1</ele>
        <time>2012-09-23T07:34:16Z</time>
      </trkpt>
      <trkpt lat="47.28847" lon="0.56277">
        <ele>93.3</ele>
        <time>2012-09-23T07:34:17Z</time>
      </trkpt>
      <trkpt lat="47.28845" lon="0.56269">
        <ele>93.4</ele>
        <time>2012-09-23T07:34:18Z</time>
      </trkpt>
      <trkpt lat="47.28844" lon="0.56263">
        <ele>93.6</ele>
        <time>2012-09-23T07:34:19Z</time>
      </trkpt>
      <trkpt lat="47.28842" lon="0.56255">
        <ele>93.7</ele>
        <time>2012-09-23T07:34:20Z</time>
      </trkpt>
      <trkpt lat="47.28841" lon="0.56247">
        <ele>93.8</ele>
        <time>2012-09-23T07:34:21Z</time>
      </trkpt>
      <trkpt lat="47.28839" lon="0.56241">
        <ele>93.8</ele>
        <time>2012-09-23T07:34:22Z</time>
      </trkpt>
      <trkpt lat="47.28837" lon="0.56234">
        <ele>93.7</ele>
        <time>2012-09-23T07:34:23Z</time>
      </trkpt>
      <trkpt lat="47.28835" lon="0.56226">
        <ele>93.6</ele>
        <time>2012-09-23T07:34:24Z</time>
      </trkpt>
      <trkpt lat="47.28832" lon="0.56218">
        <ele>93.5</ele>
        <time>2012-09-23T07:34:25Z</time>
      </trkpt>
      <trkpt lat="47.28829" lon="0.56209">
        <ele>93.4</ele>
        <time>2012-09-23T07:34:26Z</time>
      </trkpt>
      <trkpt lat="47.28827" lon="0.56203">
        <ele>93.3</ele>
        <time>2012-09-23T07:34:27Z</time>
      </trkpt>
      <trkpt lat="47.28825" lon="0.56197">
        <ele>93.2</ele>
        <time>2012-09-23T07:34:28Z</time>
      </trkpt>
      <trkpt lat="47.28822" lon="0.5619">
        <ele>93.2</ele>
        <time>2012-09-23T07:34:29Z</time>
      </trkpt>
      <trkpt lat="47.2882" lon="0.56182">
        <ele>93.1</ele>
        <time>2012-09-23T07:34:30Z</time>
      </trkpt>
      <trkpt lat="47.28817" lon="0.56175">
        <ele>93</ele>
        <time>2012-09-23T07:34:31Z</time>
      </trkpt>
      <trkpt lat="47.28814" lon="0.56168">
        <ele>93</ele>
        <time>2012-09-23T07:34:32Z</time>
      </trkpt>
      <trkpt lat="47.28812" lon="0.56161">
        <ele>92.9</ele>
        <time>2012-09-23T07:34:33Z</time>
      </trkpt>
      <trkpt lat="47.28809" lon="0.56154">
        <ele>92.8</ele>
        <time>2012-09-23T07:34:34Z</time>
      </trkpt>
      <trkpt lat="47.28805" lon="0.56147">
        <ele>92.8</ele>
        <time>2012-09-23T07:34:35Z</time>
      </trkpt>
      <trkpt lat="47.28801" lon="0.56141">
        <ele>92.8</ele>
        <time>2012-09-23T07:34:36Z</time>
      </trkpt>
      <trkpt lat="47.28797" lon="0.56135">
        <ele>92.7</ele>
        <time>2012-09-23T07:34:37Z</time>
      </trkpt>
      <trkpt lat="47.28794" lon="0.56129">
        <ele>92.7</ele>
        <time>2012-09-23T07:34:38Z</time>
      </trkpt>
      <trkpt lat="47.2879" lon="0.56122">
        <ele>92.7</ele>
        <time>2012-09-23T07:34:39Z</time>
      </trkpt>
      <trkpt lat="47.28787" lon="0.56116">
        <ele>92.7</ele>
        <time>2012-09-23T07:34:40Z</time>
      </trkpt>
      <trkpt lat="47.28783" lon="0.56109">
        <ele>92.7</ele>
        <time>2012-09-23T07:34:41Z</time>
      </trkpt>
      <trkpt lat="47.2878" lon="0.56103">
        <ele>92.7</ele>
        <time>2012-09-23T07:34:42Z</time>
      </trkpt>
      <trkpt lat="47.28776" lon="0.56096">
        <ele>92.7</ele>
        <time>2012-09-23T07:34:43Z</time>
      </trkpt>
      <trkpt lat="47.28773" lon="0.5609">
        <ele>92.7</ele>
        <time>2012-09-23T07:34:44Z</time>
      </trkpt>
      <trkpt lat="47.28769" lon="0.56083">
        <ele>92.7</ele>
        <time>2012-09-23T07:34:45Z</time>
      </trkpt>
      <trkpt lat="47.28766" lon="0.56077">
        <ele>92.7</ele>
        <time>2012-09-23T07:34:46Z</time>
      </trkpt>
      <trkpt lat="47.28763" lon="0.56071">
        <ele>92.6</ele>
        <time>2012-09-23T07:34:47Z</time>
      </trkpt>
      <trkpt lat="47.28759" lon="0.56065">
        <ele>92.6</ele>
        <time>2012-09-23T07:34:48Z</time>
      </trkpt>
      <trkpt lat="47.28757" lon="0.56059">
        <ele>92.6</ele>
        <time>2012-09-23T07:34:49Z</time>
      </trkpt>
      <trkpt lat="47.28754" lon="0.56053">
        <ele>92.5</ele>
        <time>2012-09-23T07:34:50Z</time>
      </trkpt>
      <trkpt lat="47.28751" lon="0.56047">
        <ele>92.5</ele>
        <time>2012-09-23T07:34:51Z</time>
      </trkpt>
      <trkpt lat="47.28748" lon="0.56041">
        <ele>92.4</ele>
        <time>2012-09-23T07:34:52Z</time>
      </trkpt>
      <trkpt lat="47.28745" lon="0.56034">
        <ele>92.4</ele>
        <time>2012-09-23T07:34:53Z</time>
      </trkpt>
      <trkpt lat="47.28742" lon="0.56029">
        <ele>92.4</ele>
        <time>2012-09-23T07:34:54Z</time>
      </trkpt>
      <trkpt lat="47.28739" lon="0.56022">
        <ele>92.4</ele>
        <time>2012-09-23T07:34:55Z</time>
      </trkpt>
      <trkpt lat="47.28735" lon="0.56016">
        <ele>92.4</ele>
        <time>2012-09-23T07:34:56Z</time>
      </trkpt>
      <trkpt lat="47.28732" lon="0.5601">
        <ele>92.4</ele>
        <time>2012-09-23T07:34:57Z</time>
      </trkpt>
      <trkpt lat="47.28729" lon="0.56004">
        <ele>92.5</ele>
        <time>2012-09-23T07:34:58Z</time>
      </trkpt>
      <trkpt lat="47.28726" lon="0.55998">
        <ele>92.5</ele>
        <time>2012-09-23T07:34:59Z</time>
      </trkpt>
      <trkpt lat="47.28723" lon="0.55992">
        <ele>92.4</ele>
        <time>2012-09-23T07:35:00Z</time>
      </trkpt>
      <trkpt lat="47.28719" lon="0.55986">
        <ele>92.3</ele>
        <time>2012-09-23T07:35:01Z</time>
      </trkpt>
      <trkpt lat="47.28716" lon="0.55979">
        <ele>92.3</ele>
        <time>2012-09-23T07:35:02Z</time>
      </trkpt>
      <trkpt lat="47.28712" lon="0.55972">
        <ele>92.2</ele>
        <time>2012-09-23T07:35:03Z</time>
      </trkpt>
      <trkpt lat="47.28709" lon="0.55966">
        <ele>92.1</ele>
        <time>2012-09-23T07:35:04Z</time>
      </trkpt>
      <trkpt lat="47.28705" lon="0.5596">
        <ele>92.1</ele>
        <time>2012-09-23T07:35:05Z</time>
      </trkpt>
      <trkpt lat="47.28701" lon="0.55954">
        <ele>92</ele>
        <time>2012-09-23T07:35:06Z</time>
      </trkpt>
      <trkpt lat="47.28698" lon="0.55947">
        <ele>91.9</ele>
        <time>2012-09-23T07:35:07Z</time>
      </trkpt>
      <trkpt lat="47.28694" lon="0.55941">
        <ele>91.8</ele>
        <time>2012-09-23T07:35:08Z</time>
      </trkpt>
      <trkpt lat="47.28691" lon="0.55935">
        <ele>91.8</ele>
        <time>2012-09-23T07:35:09Z</time>
      </trkpt>
      <trkpt lat="47.28688" lon="0.55928">
        <ele>91.7</ele>
        <time>2012-09-23T07:35:10Z</time>
      </trkpt>
      <trkpt lat="47.28684" lon="0.55921">
        <ele>91.6</ele>
        <time>2012-09-23T07:35:11Z</time>
      </trkpt>
      <trkpt lat="47.28681" lon="0.55916">
        <ele>91.6</ele>
        <time>2012-09-23T07:35:12Z</time>
      </trkpt>
      <trkpt lat="47.28677" lon="0.5591">
        <ele>91.5</ele>
        <time>2012-09-23T07:35:13Z</time>
      </trkpt>
      <trkpt lat="47.28673" lon="0.55903">
        <ele>91.4</ele>
        <time>2012-09-23T07:35:14Z</time>
      </trkpt>
      <trkpt lat="47.28669" lon="0.55897">
        <ele>91.4</ele>
        <time>2012-09-23T07:35:15Z</time>
      </trkpt>
      <trkpt lat="47.28665" lon="0.5589">
        <ele>91.3</ele>
        <time>2012-09-23T07:35:16Z</time>
      </trkpt>
      <trkpt lat="47.28661" lon="0.55884">
        <ele>91.2</ele>
        <time>2012-09-23T07:35:17Z</time>
      </trkpt>
      <trkpt lat="47.28656" lon="0.55877">
        <ele>91</ele>
        <time>2012-09-23T07:35:18Z</time>
      </trkpt>
      <trkpt lat="47.28652" lon="0.55872">
        <ele>91</ele>
        <time>2012-09-23T07:35:19Z</time>
      </trkpt>
      <trkpt lat="47.28648" lon="0.55865">
        <ele>90.8</ele>
        <time>2012-09-23T07:35:20Z</time>
      </trkpt>
      <trkpt lat="47.28644" lon="0.55859">
        <ele>90.8</ele>
        <time>2012-09-23T07:35:21Z</time>
      </trkpt>
      <trkpt lat="47.2864" lon="0.55854">
        <ele>90.7</ele>
        <time>2012-09-23T07:35:22Z</time>
      </trkpt>
      <trkpt lat="47.28636" lon="0.55848">
        <ele>90.6</ele>
        <time>2012-09-23T07:35:23Z</time>
      </trkpt>
      <trkpt lat="47.28632" lon="0.55842">
        <ele>90.5</ele>
        <time>2012-09-23T07:35:24Z</time>
      </trkpt>
      <trkpt lat="47.28628" lon="0.55836">
        <ele>90.5</ele>
        <time>2012-09-23T07:35:25Z</time>
      </trkpt>
      <trkpt lat="47.28624" lon="0.55831">
        <ele>90.4</ele>
        <time>2012-09-23T07:35:26Z</time>
      </trkpt>
      <trkpt lat="47.2862" lon="0.55825">
        <ele>90.4</ele>
        <time>2012-09-23T07:35:27Z</time>
      </trkpt>
      <trkpt lat="47.28615" lon="0.55819">
        <ele>90.4</ele>
        <time>2012-09-23T07:35:28Z</time>
      </trkpt>
      <trkpt lat="47.28611" lon="0.55813">
        <ele>90.4</ele>
        <time>2012-09-23T07:35:29Z</time>
      </trkpt>
      <trkpt lat="47.28607" lon="0.55807">
        <ele>90.3</ele>
        <time>2012-09-23T07:35:30Z</time>
      </trkpt>
      <trkpt lat="47.28603" lon="0.55801">
        <ele>90.3</ele>
        <time>2012-09-23T07:35:31Z</time>
      </trkpt>
      <trkpt lat="47.28599" lon="0.55795">
        <ele>90.3</ele>
        <time>2012-09-23T07:35:32Z</time>
      </trkpt>
      <trkpt lat="47.28595" lon="0.55789">
        <ele>90.3</ele>
        <time>2012-09-23T07:35:33Z</time>
      </trkpt>
      <trkpt lat="47.28591" lon="0.55784">
        <ele>90.3</ele>
        <time>2012-09-23T07:35:34Z</time>
      </trkpt>
      <trkpt lat="47.28586" lon="0.55777">
        <ele>90.2</ele>
        <time>2012-09-23T07:35:35Z</time>
      </trkpt>
      <trkpt lat="47.28582" lon="0.55772">
        <ele>90.2</ele>
        <time>2012-09-23T07:35:36Z</time>
      </trkpt>
      <trkpt lat="47.28578" lon="0.55766">
        <ele>90.1</ele>
        <time>2012-09-23T07:35:37Z</time>
      </trkpt>
      <trkpt lat="47.28573" lon="0.55761">
        <ele>90.1</ele>
        <time>2012-09-23T07:35:38Z</time>
      </trkpt>
      <trkpt lat="47.28568" lon="0.55756">
        <ele>90</ele>
        <time>2012-09-23T07:35:39Z</time>
      </trkpt>
      <trkpt lat="47.28564" lon="0.55751">
        <ele>90</ele>
        <time>2012-09-23T07:35:40Z</time>
      </trkpt>
      <trkpt lat="47.28559" lon="0.55746">
        <ele>89.9</ele>
        <time>2012-09-23T07:35:41Z</time>
      </trkpt>
      <trkpt lat="47.28554" lon="0.55741">
        <ele>89.8</ele>
        <time>2012-09-23T07:35:42Z</time>
      </trkpt>
      <trkpt lat="47.28549" lon="0.55736">
        <ele>89.8</ele>
        <time>2012-09-23T07:35:43Z</time>
      </trkpt>
      <trkpt lat="47.28544" lon="0.55731">
        <ele>89.7</ele>
        <time>2012-09-23T07:35:44Z</time>
      </trkpt>
      <trkpt lat="47.28539" lon="0.55726">
        <ele>89.7</ele>
        <time>2012-09-23T07:35:45Z</time>
      </trkpt>
      <trkpt lat="47.28533" lon="0.55721">
        <ele>89.6</ele>
        <time>2012-09-23T07:35:46Z</time>
      </trkpt>
      <trkpt lat="47.28528" lon="0.55715">
        <ele>89.5</ele>
        <time>2012-09-23T07:35:47Z</time>
      </trkpt>
      <trkpt lat="47.28522" lon="0.55708">
        <ele>89.4</ele>
        <time>2012-09-23T07:35:48Z</time>
      </trkpt>
      <trkpt lat="47.28517" lon="0.557">
        <ele>89.3</ele>
        <time>2012-09-23T07:35:49Z</time>
      </trkpt>
      <trkpt lat="47.28513" lon="0.55692">
        <ele>89.2</ele>
        <time>2012-09-23T07:35:50Z</time>
      </trkpt>
      <trkpt lat="47.28509" lon="0.55685">
        <ele>89.2</ele>
        <time>2012-09-23T07:35:51Z</time>
      </trkpt>
      <trkpt lat="47.28506" lon="0.55676">
        <ele>89.1</ele>
        <time>2012-09-23T07:35:52Z</time>
      </trkpt>
      <trkpt lat="47.28502" lon="0.55669">
        <ele>89</ele>
        <time>2012-09-23T07:35:53Z</time>
      </trkpt>
      <trkpt lat="47.285" lon="0.55661">
        <ele>88.7</ele>
        <time>2012-09-23T07:35:54Z</time>
      </trkpt>
      <trkpt lat="47.28497" lon="0.55653">
        <ele>88.3</ele>
        <time>2012-09-23T07:35:55Z</time>
      </trkpt>
      <trkpt lat="47.28494" lon="0.55645">
        <ele>88</ele>
        <time>2012-09-23T07:35:56Z</time>
      </trkpt>
      <trkpt lat="47.28491" lon="0.55637">
        <ele>87.6</ele>
        <time>2012-09-23T07:35:57Z</time>
      </trkpt>
      <trkpt lat="47.28489" lon="0.55629">
        <ele>87.2</ele>
        <time>2012-09-23T07:35:58Z</time>
      </trkpt>
      <trkpt lat="47.28486" lon="0.5562">
        <ele>86.9</ele>
        <time>2012-09-23T07:35:59Z</time>
      </trkpt>
      <trkpt lat="47.28483" lon="0.55612">
        <ele>86.5</ele>
        <time>2012-09-23T07:36:00Z</time>
      </trkpt>
      <trkpt lat="47.28481" lon="0.55604">
        <ele>86.2</ele>
        <time>2012-09-23T07:36:01Z</time>
      </trkpt>
      <trkpt lat="47.28479" lon="0.55595">
        <ele>85.8</ele>
        <time>2012-09-23T07:36:02Z</time>
      </trkpt>
      <trkpt lat="47.28476" lon="0.55586">
        <ele>85.4</ele>
        <time>2012-09-23T07:36:03Z</time>
      </trkpt>
      <trkpt lat="47.28474" lon="0.55579">
        <ele>85.2</ele>
        <time>2012-09-23T07:36:04Z</time>
      </trkpt>
      <trkpt lat="47.28471" lon="0.55573">
        <ele>85</ele>
        <time>2012-09-23T07:36:05Z</time>
      </trkpt>
      <trkpt lat="47.28469" lon="0.55565">
        <ele>84.8</ele>
        <time>2012-09-23T07:36:06Z</time>
      </trkpt>
      <trkpt lat="47.28466" lon="0.55557">
        <ele>84.6</ele>
        <time>2012-09-23T07:36:07Z</time>
      </trkpt>
      <trkpt lat="47.28464" lon="0.5555">
        <ele>84.5</ele>
        <time>2012-09-23T07:36:08Z</time>
      </trkpt>
      <trkpt lat="47.28462" lon="0.55543">
        <ele>84.3</ele>
        <time>2012-09-23T07:36:09Z</time>
      </trkpt>
      <trkpt lat="47.2846" lon="0.55535">
        <ele>84.1</ele>
        <time>2012-09-23T07:36:10Z</time>
      </trkpt>
      <trkpt lat="47.28457" lon="0.55527">
        <ele>83.9</ele>
        <time>2012-09-23T07:36:11Z</time>
      </trkpt>
      <trkpt lat="47.28454" lon="0.5552">
        <ele>83.7</ele>
        <time>2012-09-23T07:36:12Z</time>
      </trkpt>
      <trkpt lat="47.28452" lon="0.55512">
        <ele>83.6</ele>
        <time>2012-09-23T07:36:13Z</time>
      </trkpt>
      <trkpt lat="47.28449" lon="0.55504">
        <ele>83.4</ele>
        <time>2012-09-23T07:36:14Z</time>
      </trkpt>
      <trkpt lat="47.28447" lon="0.55497">
        <ele>83.3</ele>
        <time>2012-09-23T07:36:15Z</time>
      </trkpt>
      <trkpt lat="47.28444" lon="0.55488">
        <ele>83.1</ele>
        <time>2012-09-23T07:36:16Z</time>
      </trkpt>
      <trkpt lat="47.28441" lon="0.55479">
        <ele>83</ele>
        <time>2012-09-23T07:36:17Z</time>
      </trkpt>
      <trkpt lat="47.28437" lon="0.55471">
        <ele>82.8</ele>
        <time>2012-09-23T07:36:18Z</time>
      </trkpt>
      <trkpt lat="47.28435" lon="0.55464">
        <ele>82.7</ele>
        <time>2012-09-23T07:36:19Z</time>
      </trkpt>
      <trkpt lat="47.28433" lon="0.55457">
        <ele>82.6</ele>
        <time>2012-09-23T07:36:20Z</time>
      </trkpt>
      <trkpt lat="47.2843" lon="0.55451">
        <ele>82.5</ele>
        <time>2012-09-23T07:36:21Z</time>
      </trkpt>
      <trkpt lat="47.28427" lon="0.55443">
        <ele>82.4</ele>
        <time>2012-09-23T07:36:22Z</time>
      </trkpt>
      <trkpt lat="47.28425" lon="0.55437">
        <ele>82.3</ele>
        <time>2012-09-23T07:36:23Z</time>
      </trkpt>
      <trkpt lat="47.28422" lon="0.55431">
        <ele>82.2</ele>
        <time>2012-09-23T07:36:24Z</time>
      </trkpt>
      <trkpt lat="47.28419" lon="0.55424">
        <ele>82.1</ele>
        <time>2012-09-23T07:36:25Z</time>
      </trkpt>
      <trkpt lat="47.28416" lon="0.55416">
        <ele>81.9</ele>
        <time>2012-09-23T07:36:26Z</time>
      </trkpt>
      <trkpt lat="47.28413" lon="0.55408">
        <ele>81.5</ele>
        <time>2012-09-23T07:36:27Z</time>
      </trkpt>
      <trkpt lat="47.28411" lon="0.55401">
        <ele>81.1</ele>
        <time>2012-09-23T07:36:28Z</time>
      </trkpt>
      <trkpt lat="47.28407" lon="0.55391">
        <ele>80.6</ele>
        <time>2012-09-23T07:36:29Z</time>
      </trkpt>
      <trkpt lat="47.28402" lon="0.5538">
        <ele>80</ele>
        <time>2012-09-23T07:36:30Z</time>
      </trkpt>
      <trkpt lat="47.28398" lon="0.5537">
        <ele>79.5</ele>
        <time>2012-09-23T07:36:31Z</time>
      </trkpt>
      <trkpt lat="47.28393" lon="0.5536">
        <ele>78.9</ele>
        <time>2012-09-23T07:36:32Z</time>
      </trkpt>
      <trkpt lat="47.28388" lon="0.5535">
        <ele>78.4</ele>
        <time>2012-09-23T07:36:33Z</time>
      </trkpt>
      <trkpt lat="47.28383" lon="0.55341">
        <ele>77.9</ele>
        <time>2012-09-23T07:36:34Z</time>
      </trkpt>
      <trkpt lat="47.28378" lon="0.5533">
        <ele>77.3</ele>
        <time>2012-09-23T07:36:35Z</time>
      </trkpt>
      <trkpt lat="47.28372" lon="0.5532">
        <ele>76.6</ele>
        <time>2012-09-23T07:36:36Z</time>
      </trkpt>
      <trkpt lat="47.28366" lon="0.5531">
        <ele>75.9</ele>
        <time>2012-09-23T07:36:37Z</time>
      </trkpt>
      <trkpt lat="47.28361" lon="0.55301">
        <ele>75.3</ele>
        <time>2012-09-23T07:36:38Z</time>
      </trkpt>
      <trkpt lat="47.28357" lon="0.55294">
        <ele>74.7</ele>
        <time>2012-09-23T07:36:39Z</time>
      </trkpt>
      <trkpt lat="47.28351" lon="0.55289">
        <ele>74.3</ele>
        <time>2012-09-23T07:36:40Z</time>
      </trkpt>
      <trkpt lat="47.28346" lon="0.55285">
        <ele>73.9</ele>
        <time>2012-09-23T07:36:41Z</time>
      </trkpt>
      <trkpt lat="47.2834" lon="0.55282">
        <ele>73.4</ele>
        <time>2012-09-23T07:36:42Z</time>
      </trkpt>
      <trkpt lat="47.28333" lon="0.5528">
        <ele>73.1</ele>
        <time>2012-09-23T07:36:43Z</time>
      </trkpt>
      <trkpt lat="47.28326" lon="0.55279">
        <ele>73.2</ele>
        <time>2012-09-23T07:36:44Z</time>
      </trkpt>
      <trkpt lat="47.28318" lon="0.55278">
        <ele>73.3</ele>
        <time>2012-09-23T07:36:45Z</time>
      </trkpt>
      <trkpt lat="47.28312" lon="0.55279">
        <ele>73.5</ele>
        <time>2012-09-23T07:36:46Z</time>
      </trkpt>
      <trkpt lat="47.28304" lon="0.55279">
        <ele>73.7</ele>
        <time>2012-09-23T07:36:47Z</time>
      </trkpt>
      <trkpt lat="47.28297" lon="0.5528">
        <ele>74</ele>
        <time>2012-09-23T07:36:48Z</time>
      </trkpt>
      <trkpt lat="47.28291" lon="0.55281">
        <ele>74.1</ele>
        <time>2012-09-23T07:36:49Z</time>
      </trkpt>
      <trkpt lat="47.28273" lon="0.55227">
        <ele>74.2</ele>
        <time>2012-09-23T07:37:29Z</time>
      </trkpt>
      <trkpt lat="47.28265" lon="0.55221">
        <ele>74.7</ele>
        <time>2012-09-23T07:37:43Z</time>
      </trkpt>
      <trkpt lat="47.28263" lon="0.5521">
        <ele>75.4</ele>
        <time>2012-09-23T07:37:45Z</time>
      </trkpt>
      <trkpt lat="47.28263" lon="0.552">
        <ele>76.2</ele>
        <time>2012-09-23T07:37:47Z</time>
      </trkpt>
      <trkpt lat="47.28263" lon="0.55188">
        <ele>77</ele>
        <time>2012-09-23T07:37:50Z</time>
      </trkpt>
      <trkpt lat="47.28262" lon="0.55176">
        <ele>77.8</ele>
        <time>2012-09-23T07:37:53Z</time>
      </trkpt>
      <trkpt lat="47.28262" lon="0.55164">
        <ele>78.6</ele>
        <time>2012-09-23T07:37:56Z</time>
      </trkpt>
      <trkpt lat="47.28262" lon="0.55151">
        <ele>80</ele>
        <time>2012-09-23T07:38:00Z</time>
      </trkpt>
      <trkpt lat="47.28263" lon="0.55139">
        <ele>81.4</ele>
        <time>2012-09-23T07:38:04Z</time>
      </trkpt>
      <trkpt lat="47.28262" lon="0.55128">
        <ele>82.5</ele>
        <time>2012-09-23T07:38:09Z</time>
      </trkpt>
      <trkpt lat="47.28261" lon="0.55116">
        <ele>83.7</ele>
        <time>2012-09-23T07:38:14Z</time>
      </trkpt>
      <trkpt lat="47.2826" lon="0.55105">
        <ele>84.7</ele>
        <time>2012-09-23T07:38:19Z</time>
      </trkpt>
      <trkpt lat="47.28258" lon="0.55094">
        <ele>85.9</ele>
        <time>2012-09-23T07:38:24Z</time>
      </trkpt>
      <trkpt lat="47.28258" lon="0.55092">
        <ele>86.1</ele>
        <time>2012-09-23T07:38:25Z</time>
      </trkpt>
      <trkpt lat="47.28255" lon="0.5507">
        <ele>87.3</ele>
        <time>2012-09-23T07:38:36Z</time>
      </trkpt>
      <trkpt lat="47.28252" lon="0.55059">
        <ele>87.5</ele>
        <time>2012-09-23T07:38:41Z</time>
      </trkpt>
      <trkpt lat="47.28249" lon="0.55048">
        <ele>87.8</ele>
        <time>2012-09-23T07:38:45Z</time>
      </trkpt>
      <trkpt lat="47.28248" lon="0.55038">
        <ele>87.9</ele>
        <time>2012-09-23T07:38:48Z</time>
      </trkpt>
      <trkpt lat="47.28248" lon="0.55027">
        <ele>88.2</ele>
        <time>2012-09-23T07:38:51Z</time>
      </trkpt>
      <trkpt lat="47.28253" lon="0.55019">
        <ele>88.5</ele>
        <time>2012-09-23T07:38:58Z</time>
      </trkpt>
      <trkpt lat="47.28352" lon="0.54869">
        <ele>79.9</ele>
        <time>2012-09-23T07:39:54Z</time>
      </trkpt>
      <trkpt lat="47.28355" lon="0.54858">
        <ele>79.6</ele>
        <time>2012-09-23T07:39:56Z</time>
      </trkpt>
      <trkpt lat="47.28356" lon="0.54851">
        <ele>79.4</ele>
        <time>2012-09-23T07:39:57Z</time>
      </trkpt>
      <trkpt lat="47.28358" lon="0.54839">
        <ele>79</ele>
        <time>2012-09-23T07:39:59Z</time>
      </trkpt>
      <trkpt lat="47.28359" lon="0.54832">
        <ele>78.9</ele>
        <time>2012-09-23T07:40:00Z</time>
      </trkpt>
      <trkpt lat="47.28363" lon="0.54821">
        <ele>79.1</ele>
        <time>2012-09-23T07:40:02Z</time>
      </trkpt>
      <trkpt lat="47.28366" lon="0.54813">
        <ele>79.3</ele>
        <time>2012-09-23T07:40:04Z</time>
      </trkpt>
      <trkpt lat="47.28369" lon="0.54802">
        <ele>79.5</ele>
        <time>2012-09-23T07:40:07Z</time>
      </trkpt>
      <trkpt lat="47.28368" lon="0.5479">
        <ele>79.5</ele>
        <time>2012-09-23T07:40:10Z</time>
      </trkpt>
      <trkpt lat="47.28368" lon="0.54778">
        <ele>79.6</ele>
        <time>2012-09-23T07:40:12Z</time>
      </trkpt>
      <trkpt lat="47.28366" lon="0.54766">
        <ele>79.6</ele>
        <time>2012-09-23T07:40:14Z</time>
      </trkpt>
      <trkpt lat="47.2836" lon="0.54758">
        <ele>79.5</ele>
        <time>2012-09-23T07:40:16Z</time>
      </trkpt>
      <trkpt lat="47.28354" lon="0.54749">
        <ele>79.5</ele>
        <time>2012-09-23T07:40:18Z</time>
      </trkpt>
      <trkpt lat="47.28349" lon="0.54743">
        <ele>79.7</ele>
        <time>2012-09-23T07:40:20Z</time>
      </trkpt>
      <trkpt lat="47.28344" lon="0.54735">
        <ele>80</ele>
        <time>2012-09-23T07:40:22Z</time>
      </trkpt>
      <trkpt lat="47.28341" lon="0.54726">
        <ele>80.3</ele>
        <time>2012-09-23T07:40:24Z</time>
      </trkpt>
      <trkpt lat="47.28338" lon="0.54715">
        <ele>80.8</ele>
        <time>2012-09-23T07:40:26Z</time>
      </trkpt>
      <trkpt lat="47.28337" lon="0.5471">
        <ele>81</ele>
        <time>2012-09-23T07:40:27Z</time>
      </trkpt>
      <trkpt lat="47.28335" lon="0.54696">
        <ele>81.6</ele>
        <time>2012-09-23T07:40:30Z</time>
      </trkpt>
      <trkpt lat="47.28333" lon="0.54688">
        <ele>82</ele>
        <time>2012-09-23T07:40:31Z</time>
      </trkpt>
      <trkpt lat="47.28331" lon="0.54677">
        <ele>82.5</ele>
        <time>2012-09-23T07:40:33Z</time>
      </trkpt>
      <trkpt lat="47.28327" lon="0.54667">
        <ele>82.9</ele>
        <time>2012-09-23T07:40:35Z</time>
      </trkpt>
      <trkpt lat="47.28324" lon="0.54659">
        <ele>83</ele>
        <time>2012-09-23T07:40:36Z</time>
      </trkpt>
      <trkpt lat="47.28318" lon="0.5465">
        <ele>83.2</ele>
        <time>2012-09-23T07:40:38Z</time>
      </trkpt>
      <trkpt lat="47.28313" lon="0.54642">
        <ele>83.4</ele>
        <time>2012-09-23T07:40:40Z</time>
      </trkpt>
      <trkpt lat="47.28309" lon="0.54632">
        <ele>83.6</ele>
        <time>2012-09-23T07:40:42Z</time>
      </trkpt>
      <trkpt lat="47.28303" lon="0.54624">
        <ele>83.8</ele>
        <time>2012-09-23T07:40:45Z</time>
      </trkpt>
      <trkpt lat="47.28296" lon="0.54615">
        <ele>84</ele>
        <time>2012-09-23T07:40:49Z</time>
      </trkpt>
      <trkpt lat="47.28294" lon="0.54605">
        <ele>84.3</ele>
        <time>2012-09-23T07:40:51Z</time>
      </trkpt>
      <trkpt lat="47.28291" lon="0.54597">
        <ele>84.6</ele>
        <time>2012-09-23T07:40:53Z</time>
      </trkpt>
      <trkpt lat="47.28288" lon="0.54588">
        <ele>84.8</ele>
        <time>2012-09-23T07:40:55Z</time>
      </trkpt>
      <trkpt lat="47.28284" lon="0.5458">
        <ele>85</ele>
        <time>2012-09-23T07:40:57Z</time>
      </trkpt>
      <trkpt lat="47.2828" lon="0.5457">
        <ele>85</ele>
        <time>2012-09-23T07:40:59Z</time>
      </trkpt>
      <trkpt lat="47.28275" lon="0.5456">
        <ele>85</ele>
        <time>2012-09-23T07:41:01Z</time>
      </trkpt>
      <trkpt lat="47.28272" lon="0.54552">
        <ele>85</ele>
        <time>2012-09-23T07:41:03Z</time>
      </trkpt>
      <trkpt lat="47.28268" lon="0.54541">
        <ele>85</ele>
        <time>2012-09-23T07:41:05Z</time>
      </trkpt>
      <trkpt lat="47.28265" lon="0.54532">
        <ele>85</ele>
        <time>2012-09-23T07:41:07Z</time>
      </trkpt>
      <trkpt lat="47.28262" lon="0.5452">
        <ele>85</ele>
        <time>2012-09-23T07:41:09Z</time>
      </trkpt>
      <trkpt lat="47.2826" lon="0.5451">
        <ele>85</ele>
        <time>2012-09-23T07:41:11Z</time>
      </trkpt>
      <trkpt lat="47.28258" lon="0.54499">
        <ele>85</ele>
        <time>2012-09-23T07:41:13Z</time>
      </trkpt>
      <trkpt lat="47.28257" lon="0.54487">
        <ele>85.5</ele>
        <time>2012-09-23T07:41:15Z</time>
      </trkpt>
      <trkpt lat="47.28257" lon="0.54474">
        <ele>85.9</ele>
        <time>2012-09-23T07:41:17Z</time>
      </trkpt>
      <trkpt lat="47.28258" lon="0.54464">
        <ele>86.3</ele>
        <time>2012-09-23T07:41:19Z</time>
      </trkpt>
      <trkpt lat="47.2826" lon="0.54453">
        <ele>86.6</ele>
        <time>2012-09-23T07:41:21Z</time>
      </trkpt>
      <trkpt lat="47.2826" lon="0.54442">
        <ele>87.1</ele>
        <time>2012-09-23T07:41:23Z</time>
      </trkpt>
      <trkpt lat="47.28261" lon="0.5443">
        <ele>87.5</ele>
        <time>2012-09-23T07:41:25Z</time>
      </trkpt>
      <trkpt lat="47.28261" lon="0.54424">
        <ele>87.7</ele>
        <time>2012-09-23T07:41:26Z</time>
      </trkpt>
      <trkpt lat="47.28261" lon="0.54417">
        <ele>88</ele>
        <time>2012-09-23T07:41:27Z</time>
      </trkpt>
      <trkpt lat="47.28261" lon="0.54409">
        <ele>88</ele>
        <time>2012-09-23T07:41:28Z</time>
      </trkpt>
      <trkpt lat="47.28261" lon="0.54398">
        <ele>88.1</ele>
        <time>2012-09-23T07:41:30Z</time>
      </trkpt>
      <trkpt lat="47.28261" lon="0.54388">
        <ele>88.1</ele>
        <time>2012-09-23T07:41:32Z</time>
      </trkpt>
      <trkpt lat="47.2826" lon="0.54376">
        <ele>88.2</ele>
        <time>2012-09-23T07:41:34Z</time>
      </trkpt>
      <trkpt lat="47.28258" lon="0.54365">
        <ele>88.2</ele>
        <time>2012-09-23T07:41:36Z</time>
      </trkpt>
      <trkpt lat="47.28254" lon="0.54356">
        <ele>88.1</ele>
        <time>2012-09-23T07:41:38Z</time>
      </trkpt>
      <trkpt lat="47.2825" lon="0.54345">
        <ele>88</ele>
        <time>2012-09-23T07:41:40Z</time>
      </trkpt>
      <trkpt lat="47.28247" lon="0.54339">
        <ele>88.1</ele>
        <time>2012-09-23T07:41:41Z</time>
      </trkpt>
      <trkpt lat="47.28244" lon="0.54333">
        <ele>88.2</ele>
        <time>2012-09-23T07:41:42Z</time>
      </trkpt>
      <trkpt lat="47.28241" lon="0.54327">
        <ele>88.4</ele>
        <time>2012-09-23T07:41:43Z</time>
      </trkpt>
      <trkpt lat="47.28238" lon="0.54315">
        <ele>88.8</ele>
        <time>2012-09-23T07:41:45Z</time>
      </trkpt>
      <trkpt lat="47.28236" lon="0.54308">
        <ele>89</ele>
        <time>2012-09-23T07:41:46Z</time>
      </trkpt>
      <trkpt lat="47.28234" lon="0.54302">
        <ele>89.2</ele>
        <time>2012-09-23T07:41:47Z</time>
      </trkpt>
      <trkpt lat="47.28232" lon="0.54296">
        <ele>89.4</ele>
        <time>2012-09-23T07:41:48Z</time>
      </trkpt>
      <trkpt lat="47.28229" lon="0.54289">
        <ele>89.6</ele>
        <time>2012-09-23T07:41:49Z</time>
      </trkpt>
      <trkpt lat="47.28227" lon="0.54283">
        <ele>89.8</ele>
        <time>2012-09-23T07:41:50Z</time>
      </trkpt>
      <trkpt lat="47.28224" lon="0.54277">
        <ele>90</ele>
        <time>2012-09-23T07:41:51Z</time>
      </trkpt>
      <trkpt lat="47.28222" lon="0.5427">
        <ele>90.2</ele>
        <time>2012-09-23T07:41:52Z</time>
      </trkpt>
      <trkpt lat="47.28219" lon="0.54264">
        <ele>90.4</ele>
        <time>2012-09-23T07:41:53Z</time>
      </trkpt>
      <trkpt lat="47.28214" lon="0.54253">
        <ele>90.8</ele>
        <time>2012-09-23T07:41:55Z</time>
      </trkpt>
      <trkpt lat="47.28209" lon="0.54243">
        <ele>91</ele>
        <time>2012-09-23T07:41:57Z</time>
      </trkpt>
      <trkpt lat="47.28207" lon="0.54238">
        <ele>91.2</ele>
        <time>2012-09-23T07:41:58Z</time>
      </trkpt>
      <trkpt lat="47.28204" lon="0.54232">
        <ele>91.4</ele>
        <time>2012-09-23T07:41:59Z</time>
      </trkpt>
      <trkpt lat="47.28199" lon="0.54222">
        <ele>91.7</ele>
        <time>2012-09-23T07:42:01Z</time>
      </trkpt>
      <trkpt lat="47.28197" lon="0.54214">
        <ele>91.8</ele>
        <time>2012-09-23T07:42:03Z</time>
      </trkpt>
      <trkpt lat="47.28194" lon="0.54209">
        <ele>92</ele>
        <time>2012-09-23T07:42:04Z</time>
      </trkpt>
      <trkpt lat="47.28192" lon="0.54203">
        <ele>92.1</ele>
        <time>2012-09-23T07:42:05Z</time>
      </trkpt>
      <trkpt lat="47.28187" lon="0.54192">
        <ele>92.3</ele>
        <time>2012-09-23T07:42:07Z</time>
      </trkpt>
      <trkpt lat="47.28182" lon="0.54182">
        <ele>92.6</ele>
        <time>2012-09-23T07:42:09Z</time>
      </trkpt>
      <trkpt lat="47.28179" lon="0.54175">
        <ele>92.7</ele>
        <time>2012-09-23T07:42:10Z</time>
      </trkpt>
      <trkpt lat="47.28177" lon="0.54163">
        <ele>92.9</ele>
        <time>2012-09-23T07:42:12Z</time>
      </trkpt>
      <trkpt lat="47.28174" lon="0.54151">
        <ele>93</ele>
        <time>2012-09-23T07:42:14Z</time>
      </trkpt>
      <trkpt lat="47.28173" lon="0.54138">
        <ele>93.2</ele>
        <time>2012-09-23T07:42:16Z</time>
      </trkpt>
      <trkpt lat="47.28171" lon="0.54126">
        <ele>93.3</ele>
        <time>2012-09-23T07:42:18Z</time>
      </trkpt>
      <trkpt lat="47.28169" lon="0.54114">
        <ele>93.5</ele>
        <time>2012-09-23T07:42:20Z</time>
      </trkpt>
      <trkpt lat="47.28168" lon="0.54108">
        <ele>93.6</ele>
        <time>2012-09-23T07:42:21Z</time>
      </trkpt>
      <trkpt lat="47.28166" lon="0.54101">
        <ele>93.8</ele>
        <time>2012-09-23T07:42:22Z</time>
      </trkpt>
      <trkpt lat="47.28164" lon="0.54088">
        <ele>94</ele>
        <time>2012-09-23T07:42:24Z</time>
      </trkpt>
      <trkpt lat="47.2816" lon="0.54078">
        <ele>94.3</ele>
        <time>2012-09-23T07:42:27Z</time>
      </trkpt>
      <trkpt lat="47.28155" lon="0.54067">
        <ele>94.8</ele>
        <time>2012-09-23T07:43:30Z</time>
      </trkpt>
      <trkpt lat="47.28154" lon="0.54067">
        <ele>94.8</ele>
        <time>2012-09-23T07:43:31Z</time>
      </trkpt>
      <trkpt lat="47.28144" lon="0.54053">
        <ele>95.5</ele>
        <time>2012-09-23T07:44:29Z</time>
      </trkpt>
      <trkpt lat="47.2814" lon="0.54044">
        <ele>95.9</ele>
        <time>2012-09-23T07:44:31Z</time>
      </trkpt>
      <trkpt lat="47.28135" lon="0.54035">
        <ele>96.2</ele>
        <time>2012-09-23T07:44:33Z</time>
      </trkpt>
      <trkpt lat="47.28134" lon="0.54032">
        <ele>96.4</ele>
        <time>2012-09-23T07:44:34Z</time>
      </trkpt>
      <trkpt lat="47.28129" lon="0.54016">
        <ele>96.9</ele>
        <time>2012-09-23T07:44:38Z</time>
      </trkpt>
      <trkpt lat="47.28125" lon="0.54007">
        <ele>97.3</ele>
        <time>2012-09-23T07:44:40Z</time>
      </trkpt>
      <trkpt lat="47.2812" lon="0.53996">
        <ele>97.6</ele>
        <time>2012-09-23T07:44:43Z</time>
      </trkpt>
      <trkpt lat="47.28116" lon="0.53984">
        <ele>97.8</ele>
        <time>2012-09-23T07:44:46Z</time>
      </trkpt>
      <trkpt lat="47.28113" lon="0.53974">
        <ele>98</ele>
        <time>2012-09-23T07:44:48Z</time>
      </trkpt>
      <trkpt lat="47.2811" lon="0.53964">
        <ele>98.2</ele>
        <time>2012-09-23T07:44:50Z</time>
      </trkpt>
      <trkpt lat="47.28106" lon="0.53954">
        <ele>98.4</ele>
        <time>2012-09-23T07:44:52Z</time>
      </trkpt>
      <trkpt lat="47.28103" lon="0.53944">
        <ele>98.5</ele>
        <time>2012-09-23T07:44:54Z</time>
      </trkpt>
      <trkpt lat="47.28101" lon="0.53934">
        <ele>98.7</ele>
        <time>2012-09-23T07:44:56Z</time>
      </trkpt>
      <trkpt lat="47.28099" lon="0.53928">
        <ele>98.8</ele>
        <time>2012-09-23T07:44:57Z</time>
      </trkpt>
      <trkpt lat="47.28096" lon="0.53922">
        <ele>98.9</ele>
        <time>2012-09-23T07:44:58Z</time>
      </trkpt>
      <trkpt lat="47.28092" lon="0.53911">
        <ele>98.9</ele>
        <time>2012-09-23T07:45:00Z</time>
      </trkpt>
      <trkpt lat="47.28088" lon="0.53902">
        <ele>98.8</ele>
        <time>2012-09-23T07:45:02Z</time>
      </trkpt>
      <trkpt lat="47.28084" lon="0.53892">
        <ele>98.7</ele>
        <time>2012-09-23T07:45:04Z</time>
      </trkpt>
      <trkpt lat="47.2808" lon="0.53881">
        <ele>98.5</ele>
        <time>2012-09-23T07:45:06Z</time>
      </trkpt>
      <trkpt lat="47.28075" lon="0.53871">
        <ele>98.3</ele>
        <time>2012-09-23T07:45:08Z</time>
      </trkpt>
      <trkpt lat="47.28074" lon="0.53859">
        <ele>98.2</ele>
        <time>2012-09-23T07:45:10Z</time>
      </trkpt>
      <trkpt lat="47.28074" lon="0.53849">
        <ele>98.2</ele>
        <time>2012-09-23T07:45:12Z</time>
      </trkpt>
      <trkpt lat="47.28075" lon="0.53837">
        <ele>98.1</ele>
        <time>2012-09-23T07:45:14Z</time>
      </trkpt>
      <trkpt lat="47.28076" lon="0.53825">
        <ele>98.1</ele>
        <time>2012-09-23T07:45:16Z</time>
      </trkpt>
      <trkpt lat="47.28078" lon="0.53814">
        <ele>98.2</ele>
        <time>2012-09-23T07:45:18Z</time>
      </trkpt>
      <trkpt lat="47.28079" lon="0.53801">
        <ele>98.4</ele>
        <time>2012-09-23T07:45:20Z</time>
      </trkpt>
      <trkpt lat="47.2808" lon="0.5379">
        <ele>98.5</ele>
        <time>2012-09-23T07:45:22Z</time>
      </trkpt>
      <trkpt lat="47.28081" lon="0.53778">
        <ele>98.6</ele>
        <time>2012-09-23T07:45:24Z</time>
      </trkpt>
      <trkpt lat="47.28083" lon="0.53766">
        <ele>98.8</ele>
        <time>2012-09-23T07:45:26Z</time>
      </trkpt>
      <trkpt lat="47.28082" lon="0.53753">
        <ele>98.9</ele>
        <time>2012-09-23T07:45:28Z</time>
      </trkpt>
      <trkpt lat="47.28083" lon="0.53746">
        <ele>99</ele>
        <time>2012-09-23T07:45:29Z</time>
      </trkpt>
      <trkpt lat="47.28083" lon="0.53733">
        <ele>99.2</ele>
        <time>2012-09-23T07:45:31Z</time>
      </trkpt>
      <trkpt lat="47.28084" lon="0.53722">
        <ele>99.3</ele>
        <time>2012-09-23T07:45:33Z</time>
      </trkpt>
      <trkpt lat="47.28085" lon="0.53716">
        <ele>99.4</ele>
        <time>2012-09-23T07:45:34Z</time>
      </trkpt>
      <trkpt lat="47.28086" lon="0.53709">
        <ele>99.4</ele>
        <time>2012-09-23T07:45:35Z</time>
      </trkpt>
      <trkpt lat="47.28085" lon="0.53692">
        <ele>99.6</ele>
        <time>2012-09-23T07:45:38Z</time>
      </trkpt>
      <trkpt lat="47.28081" lon="0.53685">
        <ele>99.7</ele>
        <time>2012-09-23T07:45:40Z</time>
      </trkpt>
      <trkpt lat="47.28081" lon="0.53685">
        <ele>99.7</ele>
        <time>2012-09-23T07:45:40Z</time>
      </trkpt>
      <trkpt lat="47.28073" lon="0.53683">
        <ele>99.9</ele>
        <time>2012-09-23T07:45:42Z</time>
      </trkpt>
      <trkpt lat="47.28066" lon="0.53684">
        <ele>99.9</ele>
        <time>2012-09-23T07:45:44Z</time>
      </trkpt>
      <trkpt lat="47.28058" lon="0.53687">
        <ele>99.9</ele>
        <time>2012-09-23T07:45:46Z</time>
      </trkpt>
      <trkpt lat="47.2805" lon="0.53689">
        <ele>100</ele>
        <time>2012-09-23T07:45:48Z</time>
      </trkpt>
      <trkpt lat="47.28044" lon="0.53691">
        <ele>100</ele>
        <time>2012-09-23T07:45:50Z</time>
      </trkpt>
      <trkpt lat="47.28036" lon="0.53694">
        <ele>100</ele>
        <time>2012-09-23T07:45:52Z</time>
      </trkpt>
      <trkpt lat="47.28032" lon="0.53695">
        <ele>100</ele>
        <time>2012-09-23T07:45:53Z</time>
      </trkpt>
      <trkpt lat="47.28027" lon="0.53696">
        <ele>100</ele>
        <time>2012-09-23T07:45:54Z</time>
      </trkpt>
      <trkpt lat="47.28019" lon="0.53699">
        <ele>100.1</ele>
        <time>2012-09-23T07:45:56Z</time>
      </trkpt>
      <trkpt lat="47.28011" lon="0.53701">
        <ele>100.1</ele>
        <time>2012-09-23T07:45:58Z</time>
      </trkpt>
      <trkpt lat="47.28006" lon="0.53702">
        <ele>100.1</ele>
        <time>2012-09-23T07:45:59Z</time>
      </trkpt>
      <trkpt lat="47.27998" lon="0.53706">
        <ele>100</ele>
        <time>2012-09-23T07:46:01Z</time>
      </trkpt>
      <trkpt lat="47.2799" lon="0.53708">
        <ele>99.7</ele>
        <time>2012-09-23T07:46:03Z</time>
      </trkpt>
      <trkpt lat="47.27983" lon="0.53711">
        <ele>99.4</ele>
        <time>2012-09-23T07:46:05Z</time>
      </trkpt>
      <trkpt lat="47.27976" lon="0.53713">
        <ele>99.2</ele>
        <time>2012-09-23T07:46:07Z</time>
      </trkpt>
      <trkpt lat="47.27968" lon="0.53713">
        <ele>99</ele>
        <time>2012-09-23T07:46:09Z</time>
      </trkpt>
      <trkpt lat="47.27964" lon="0.53713">
        <ele>98.8</ele>
        <time>2012-09-23T07:46:10Z</time>
      </trkpt>
      <trkpt lat="47.27959" lon="0.53713">
        <ele>98.7</ele>
        <time>2012-09-23T07:46:11Z</time>
      </trkpt>
      <trkpt lat="47.27954" lon="0.53714">
        <ele>98.6</ele>
        <time>2012-09-23T07:46:12Z</time>
      </trkpt>
      <trkpt lat="47.27948" lon="0.53714">
        <ele>98.4</ele>
        <time>2012-09-23T07:46:13Z</time>
      </trkpt>
      <trkpt lat="47.27942" lon="0.53713">
        <ele>98.3</ele>
        <time>2012-09-23T07:46:14Z</time>
      </trkpt>
      <trkpt lat="47.27937" lon="0.53713">
        <ele>98.1</ele>
        <time>2012-09-23T07:46:15Z</time>
      </trkpt>
      <trkpt lat="47.27932" lon="0.53713">
        <ele>98.1</ele>
        <time>2012-09-23T07:46:16Z</time>
      </trkpt>
      <trkpt lat="47.27928" lon="0.53713">
        <ele>98</ele>
        <time>2012-09-23T07:46:17Z</time>
      </trkpt>
      <trkpt lat="47.27923" lon="0.53713">
        <ele>97.8</ele>
        <time>2012-09-23T07:46:18Z</time>
      </trkpt>
      <trkpt lat="47.27914" lon="0.53713">
        <ele>97.7</ele>
        <time>2012-09-23T07:46:20Z</time>
      </trkpt>
      <trkpt lat="47.27906" lon="0.53713">
        <ele>98</ele>
        <time>2012-09-23T07:46:22Z</time>
      </trkpt>
      <trkpt lat="47.27901" lon="0.53713">
        <ele>98.1</ele>
        <time>2012-09-23T07:46:23Z</time>
      </trkpt>
      <trkpt lat="47.27895" lon="0.53713">
        <ele>98.3</ele>
        <time>2012-09-23T07:46:24Z</time>
      </trkpt>
      <trkpt lat="47.2789" lon="0.53713">
        <ele>98.5</ele>
        <time>2012-09-23T07:46:25Z</time>
      </trkpt>
      <trkpt lat="47.27884" lon="0.53713">
        <ele>98.7</ele>
        <time>2012-09-23T07:46:26Z</time>
      </trkpt>
      <trkpt lat="47.27876" lon="0.53715">
        <ele>98.8</ele>
        <time>2012-09-23T07:46:28Z</time>
      </trkpt>
      <trkpt lat="47.27868" lon="0.53717">
        <ele>98.8</ele>
        <time>2012-09-23T07:46:30Z</time>
      </trkpt>
      <trkpt lat="47.27859" lon="0.53719">
        <ele>99.1</ele>
        <time>2012-09-23T07:46:32Z</time>
      </trkpt>
      <trkpt lat="47.27855" lon="0.53719">
        <ele>99.1</ele>
        <time>2012-09-23T07:46:33Z</time>
      </trkpt>
      <trkpt lat="47.27846" lon="0.5372">
        <ele>99.4</ele>
        <time>2012-09-23T07:46:35Z</time>
      </trkpt>
      <trkpt lat="47.27841" lon="0.5372">
        <ele>99.6</ele>
        <time>2012-09-23T07:46:36Z</time>
      </trkpt>
      <trkpt lat="47.27832" lon="0.53721">
        <ele>99.8</ele>
        <time>2012-09-23T07:46:38Z</time>
      </trkpt>
      <trkpt lat="47.27825" lon="0.53721">
        <ele>99.8</ele>
        <time>2012-09-23T07:46:40Z</time>
      </trkpt>
      <trkpt lat="47.2782" lon="0.53722">
        <ele>99.9</ele>
        <time>2012-09-23T07:46:41Z</time>
      </trkpt>
      <trkpt lat="47.27812" lon="0.53722">
        <ele>100</ele>
        <time>2012-09-23T07:46:43Z</time>
      </trkpt>
      <trkpt lat="47.27803" lon="0.53723">
        <ele>100.1</ele>
        <time>2012-09-23T07:46:45Z</time>
      </trkpt>
      <trkpt lat="47.27794" lon="0.53723">
        <ele>100.2</ele>
        <time>2012-09-23T07:46:47Z</time>
      </trkpt>
      <trkpt lat="47.27787" lon="0.53724">
        <ele>100.3</ele>
        <time>2012-09-23T07:46:49Z</time>
      </trkpt>
      <trkpt lat="47.27782" lon="0.53724">
        <ele>100.4</ele>
        <time>2012-09-23T07:46:50Z</time>
      </trkpt>
      <trkpt lat="47.27777" lon="0.53726">
        <ele>100.4</ele>
        <time>2012-09-23T07:46:51Z</time>
      </trkpt>
      <trkpt lat="47.27773" lon="0.53727">
        <ele>100.4</ele>
        <time>2012-09-23T07:46:52Z</time>
      </trkpt>
      <trkpt lat="47.27767" lon="0.53729">
        <ele>100.4</ele>
        <time>2012-09-23T07:46:53Z</time>
      </trkpt>
      <trkpt lat="47.27761" lon="0.5373">
        <ele>100.5</ele>
        <time>2012-09-23T07:46:54Z</time>
      </trkpt>
      <trkpt lat="47.27756" lon="0.53731">
        <ele>100.6</ele>
        <time>2012-09-23T07:46:55Z</time>
      </trkpt>
      <trkpt lat="47.2775" lon="0.53732">
        <ele>100.6</ele>
        <time>2012-09-23T07:46:56Z</time>
      </trkpt>
      <trkpt lat="47.27745" lon="0.53734">
        <ele>100.4</ele>
        <time>2012-09-23T07:46:57Z</time>
      </trkpt>
      <trkpt lat="47.27737" lon="0.53738">
        <ele>100</ele>
        <time>2012-09-23T07:46:59Z</time>
      </trkpt>
      <trkpt lat="47.27732" lon="0.53741">
        <ele>99.8</ele>
        <time>2012-09-23T07:47:00Z</time>
      </trkpt>
      <trkpt lat="47.27726" lon="0.53745">
        <ele>99.5</ele>
        <time>2012-09-23T07:47:01Z</time>
      </trkpt>
      <trkpt lat="47.27719" lon="0.53749">
        <ele>99.2</ele>
        <time>2012-09-23T07:47:02Z</time>
      </trkpt>
      <trkpt lat="47.27713" lon="0.53754">
        <ele>98.9</ele>
        <time>2012-09-23T07:47:03Z</time>
      </trkpt>
      <trkpt lat="47.27707" lon="0.53759">
        <ele>98.5</ele>
        <time>2012-09-23T07:47:04Z</time>
      </trkpt>
      <trkpt lat="47.27703" lon="0.53763">
        <ele>98.3</ele>
        <time>2012-09-23T07:47:05Z</time>
      </trkpt>
      <trkpt lat="47.27697" lon="0.53769">
        <ele>97.9</ele>
        <time>2012-09-23T07:47:06Z</time>
      </trkpt>
      <trkpt lat="47.27692" lon="0.53773">
        <ele>97.6</ele>
        <time>2012-09-23T07:47:07Z</time>
      </trkpt>
      <trkpt lat="47.27688" lon="0.53778">
        <ele>97.4</ele>
        <time>2012-09-23T07:47:08Z</time>
      </trkpt>
      <trkpt lat="47.27684" lon="0.53782">
        <ele>97.2</ele>
        <time>2012-09-23T07:47:09Z</time>
      </trkpt>
      <trkpt lat="47.2768" lon="0.53786">
        <ele>96.9</ele>
        <time>2012-09-23T07:47:10Z</time>
      </trkpt>
      <trkpt lat="47.27676" lon="0.5379">
        <ele>96.7</ele>
        <time>2012-09-23T07:47:11Z</time>
      </trkpt>
      <trkpt lat="47.27671" lon="0.53794">
        <ele>96.5</ele>
        <time>2012-09-23T07:47:12Z</time>
      </trkpt>
      <trkpt lat="47.27667" lon="0.53798">
        <ele>96.2</ele>
        <time>2012-09-23T07:47:13Z</time>
      </trkpt>
      <trkpt lat="47.27662" lon="0.53803">
        <ele>95.9</ele>
        <time>2012-09-23T07:47:14Z</time>
      </trkpt>
      <trkpt lat="47.27658" lon="0.53807">
        <ele>95.7</ele>
        <time>2012-09-23T07:47:15Z</time>
      </trkpt>
      <trkpt lat="47.27654" lon="0.53811">
        <ele>95.4</ele>
        <time>2012-09-23T07:47:16Z</time>
      </trkpt>
      <trkpt lat="47.27649" lon="0.53816">
        <ele>95.1</ele>
        <time>2012-09-23T07:47:17Z</time>
      </trkpt>
      <trkpt lat="47.27645" lon="0.5382">
        <ele>94.9</ele>
        <time>2012-09-23T07:47:18Z</time>
      </trkpt>
      <trkpt lat="47.27641" lon="0.53823">
        <ele>94.6</ele>
        <time>2012-09-23T07:47:19Z</time>
      </trkpt>
      <trkpt lat="47.27637" lon="0.53828">
        <ele>94.4</ele>
        <time>2012-09-23T07:47:20Z</time>
      </trkpt>
      <trkpt lat="47.27632" lon="0.53832">
        <ele>94.1</ele>
        <time>2012-09-23T07:47:21Z</time>
      </trkpt>
      <trkpt lat="47.27628" lon="0.53836">
        <ele>93.9</ele>
        <time>2012-09-23T07:47:22Z</time>
      </trkpt>
      <trkpt lat="47.27624" lon="0.53839">
        <ele>93.7</ele>
        <time>2012-09-23T07:47:23Z</time>
      </trkpt>
      <trkpt lat="47.2762" lon="0.53843">
        <ele>93.5</ele>
        <time>2012-09-23T07:47:24Z</time>
      </trkpt>
      <trkpt lat="47.27615" lon="0.53846">
        <ele>93.3</ele>
        <time>2012-09-23T07:47:25Z</time>
      </trkpt>
      <trkpt lat="47.27611" lon="0.5385">
        <ele>93.1</ele>
        <time>2012-09-23T07:47:26Z</time>
      </trkpt>
      <trkpt lat="47.27607" lon="0.53853">
        <ele>92.9</ele>
        <time>2012-09-23T07:47:27Z</time>
      </trkpt>
      <trkpt lat="47.27602" lon="0.53856">
        <ele>92.8</ele>
        <time>2012-09-23T07:47:28Z</time>
      </trkpt>
      <trkpt lat="47.27597" lon="0.53859">
        <ele>92.6</ele>
        <time>2012-09-23T07:47:29Z</time>
      </trkpt>
      <trkpt lat="47.27593" lon="0.53863">
        <ele>92.4</ele>
        <time>2012-09-23T07:47:30Z</time>
      </trkpt>
      <trkpt lat="47.27588" lon="0.53866">
        <ele>92.3</ele>
        <time>2012-09-23T07:47:31Z</time>
      </trkpt>
      <trkpt lat="47.27583" lon="0.53868">
        <ele>92.1</ele>
        <time>2012-09-23T07:47:32Z</time>
      </trkpt>
      <trkpt lat="47.27578" lon="0.53871">
        <ele>91.9</ele>
        <time>2012-09-23T07:47:33Z</time>
      </trkpt>
      <trkpt lat="47.27573" lon="0.53873">
        <ele>91.8</ele>
        <time>2012-09-23T07:47:34Z</time>
      </trkpt>
      <trkpt lat="47.27568" lon="0.53876">
        <ele>91.6</ele>
        <time>2012-09-23T07:47:35Z</time>
      </trkpt>
      <trkpt lat="47.27564" lon="0.53878">
        <ele>91.4</ele>
        <time>2012-09-23T07:47:36Z</time>
      </trkpt>
      <trkpt lat="47.27559" lon="0.53881">
        <ele>91.3</ele>
        <time>2012-09-23T07:47:37Z</time>
      </trkpt>
      <trkpt lat="47.27551" lon="0.53886">
        <ele>91</ele>
        <time>2012-09-23T07:47:39Z</time>
      </trkpt>
      <trkpt lat="47.27546" lon="0.53896">
        <ele>90.8</ele>
        <time>2012-09-23T07:47:42Z</time>
      </trkpt>
      <trkpt lat="47.27546" lon="0.53896">
        <ele>90.8</ele>
        <time>2012-09-23T07:47:42Z</time>
      </trkpt>
      <trkpt lat="47.27553" lon="0.53903">
        <ele>90.8</ele>
        <time>2012-09-23T07:47:57Z</time>
      </trkpt>
      <trkpt lat="47.27558" lon="0.53912">
        <ele>90.7</ele>
        <time>2012-09-23T07:48:00Z</time>
      </trkpt>
      <trkpt lat="47.27562" lon="0.53919">
        <ele>90.7</ele>
        <time>2012-09-23T07:48:02Z</time>
      </trkpt>
      <trkpt lat="47.27567" lon="0.53927">
        <ele>90.6</ele>
        <time>2012-09-23T07:48:04Z</time>
      </trkpt>
      <trkpt lat="47.27572" lon="0.53936">
        <ele>90.6</ele>
        <time>2012-09-23T07:48:06Z</time>
      </trkpt>
      <trkpt lat="47.27578" lon="0.53943">
        <ele>90.6</ele>
        <time>2012-09-23T07:48:08Z</time>
      </trkpt>
      <trkpt lat="47.27583" lon="0.5395">
        <ele>90.6</ele>
        <time>2012-09-23T07:48:10Z</time>
      </trkpt>
      <trkpt lat="47.27588" lon="0.53959">
        <ele>90.5</ele>
        <time>2012-09-23T07:48:12Z</time>
      </trkpt>
      <trkpt lat="47.27594" lon="0.53968">
        <ele>90.3</ele>
        <time>2012-09-23T07:48:14Z</time>
      </trkpt>
      <trkpt lat="47.27599" lon="0.53976">
        <ele>90.2</ele>
        <time>2012-09-23T07:48:16Z</time>
      </trkpt>
      <trkpt lat="47.27604" lon="0.53985">
        <ele>90.1</ele>
        <time>2012-09-23T07:48:18Z</time>
      </trkpt>
      <trkpt lat="47.27611" lon="0.53993">
        <ele>90</ele>
        <time>2012-09-23T07:48:20Z</time>
      </trkpt>
      <trkpt lat="47.27615" lon="0.54">
        <ele>90</ele>
        <time>2012-09-23T07:48:22Z</time>
      </trkpt>
      <trkpt lat="47.27621" lon="0.54008">
        <ele>89.9</ele>
        <time>2012-09-23T07:48:24Z</time>
      </trkpt>
      <trkpt lat="47.27626" lon="0.54014">
        <ele>89.9</ele>
        <time>2012-09-23T07:48:26Z</time>
      </trkpt>
      <trkpt lat="47.27631" lon="0.54022">
        <ele>89.8</ele>
        <time>2012-09-23T07:48:28Z</time>
      </trkpt>
      <trkpt lat="47.27637" lon="0.54031">
        <ele>89.7</ele>
        <time>2012-09-23T07:48:30Z</time>
      </trkpt>
      <trkpt lat="47.27642" lon="0.54039">
        <ele>89.6</ele>
        <time>2012-09-23T07:48:32Z</time>
      </trkpt>
      <trkpt lat="47.27648" lon="0.54047">
        <ele>89.5</ele>
        <time>2012-09-23T07:48:34Z</time>
      </trkpt>
      <trkpt lat="47.27654" lon="0.54057">
        <ele>89.4</ele>
        <time>2012-09-23T07:48:37Z</time>
      </trkpt>
      <trkpt lat="47.27656" lon="0.5406">
        <ele>89.3</ele>
        <time>2012-09-23T07:48:38Z</time>
      </trkpt>
      <trkpt lat="47.27663" lon="0.54072">
        <ele>89.1</ele>
        <time>2012-09-23T07:48:41Z</time>
      </trkpt>
      <trkpt lat="47.27669" lon="0.5408">
        <ele>89</ele>
        <time>2012-09-23T07:48:43Z</time>
      </trkpt>
      <trkpt lat="47.27674" lon="0.54087">
        <ele>89</ele>
        <time>2012-09-23T07:48:45Z</time>
      </trkpt>
      <trkpt lat="47.2768" lon="0.54095">
        <ele>89</ele>
        <time>2012-09-23T07:48:47Z</time>
      </trkpt>
      <trkpt lat="47.27686" lon="0.54104">
        <ele>89</ele>
        <time>2012-09-23T07:48:49Z</time>
      </trkpt>
      <trkpt lat="47.27691" lon="0.54113">
        <ele>89</ele>
        <time>2012-09-23T07:48:51Z</time>
      </trkpt>
      <trkpt lat="47.27694" lon="0.54118">
        <ele>89</ele>
        <time>2012-09-23T07:48:52Z</time>
      </trkpt>
      <trkpt lat="47.277" lon="0.54128">
        <ele>89</ele>
        <time>2012-09-23T07:48:54Z</time>
      </trkpt>
      <trkpt lat="47.27703" lon="0.54133">
        <ele>89</ele>
        <time>2012-09-23T07:48:55Z</time>
      </trkpt>
      <trkpt lat="47.27707" lon="0.54138">
        <ele>89</ele>
        <time>2012-09-23T07:48:56Z</time>
      </trkpt>
      <trkpt lat="47.2771" lon="0.54144">
        <ele>89</ele>
        <time>2012-09-23T07:48:57Z</time>
      </trkpt>
      <trkpt lat="47.27713" lon="0.5415">
        <ele>89</ele>
        <time>2012-09-23T07:48:58Z</time>
      </trkpt>
      <trkpt lat="47.27716" lon="0.54155">
        <ele>89</ele>
        <time>2012-09-23T07:48:59Z</time>
      </trkpt>
      <trkpt lat="47.27719" lon="0.5416">
        <ele>89</ele>
        <time>2012-09-23T07:49:00Z</time>
      </trkpt>
      <trkpt lat="47.27724" lon="0.54171">
        <ele>89</ele>
        <time>2012-09-23T07:49:02Z</time>
      </trkpt>
      <trkpt lat="47.27729" lon="0.54181">
        <ele>89</ele>
        <time>2012-09-23T07:49:04Z</time>
      </trkpt>
      <trkpt lat="47.27734" lon="0.54192">
        <ele>89</ele>
        <time>2012-09-23T07:49:06Z</time>
      </trkpt>
      <trkpt lat="47.27738" lon="0.54203">
        <ele>89</ele>
        <time>2012-09-23T07:49:08Z</time>
      </trkpt>
      <trkpt lat="47.2774" lon="0.54209">
        <ele>89</ele>
        <time>2012-09-23T07:49:09Z</time>
      </trkpt>
      <trkpt lat="47.27741" lon="0.54216">
        <ele>89</ele>
        <time>2012-09-23T07:49:10Z</time>
      </trkpt>
      <trkpt lat="47.27743" lon="0.54222">
        <ele>89</ele>
        <time>2012-09-23T07:49:11Z</time>
      </trkpt>
      <trkpt lat="47.27746" lon="0.54234">
        <ele>89</ele>
        <time>2012-09-23T07:49:13Z</time>
      </trkpt>
      <trkpt lat="47.2775" lon="0.54245">
        <ele>89</ele>
        <time>2012-09-23T07:49:15Z</time>
      </trkpt>
      <trkpt lat="47.27752" lon="0.54251">
        <ele>88.9</ele>
        <time>2012-09-23T07:49:16Z</time>
      </trkpt>
      <trkpt lat="47.27755" lon="0.54257">
        <ele>88.9</ele>
        <time>2012-09-23T07:49:17Z</time>
      </trkpt>
      <trkpt lat="47.27757" lon="0.54263">
        <ele>88.9</ele>
        <time>2012-09-23T07:49:18Z</time>
      </trkpt>
      <trkpt lat="47.27762" lon="0.54273">
        <ele>88.9</ele>
        <time>2012-09-23T07:49:20Z</time>
      </trkpt>
      <trkpt lat="47.27767" lon="0.54282">
        <ele>88.9</ele>
        <time>2012-09-23T07:49:22Z</time>
      </trkpt>
      <trkpt lat="47.27772" lon="0.54289">
        <ele>88.9</ele>
        <time>2012-09-23T07:49:24Z</time>
      </trkpt>
      <trkpt lat="47.27776" lon="0.54297">
        <ele>88.9</ele>
        <time>2012-09-23T07:49:26Z</time>
      </trkpt>
      <trkpt lat="47.27781" lon="0.54307">
        <ele>88.9</ele>
        <time>2012-09-23T07:49:28Z</time>
      </trkpt>
      <trkpt lat="47.27785" lon="0.54317">
        <ele>88.9</ele>
        <time>2012-09-23T07:49:30Z</time>
      </trkpt>
      <trkpt lat="47.27788" lon="0.54327">
        <ele>89</ele>
        <time>2012-09-23T07:49:32Z</time>
      </trkpt>
      <trkpt lat="47.27791" lon="0.54338">
        <ele>88.9</ele>
        <time>2012-09-23T07:49:34Z</time>
      </trkpt>
      <trkpt lat="47.27793" lon="0.5435">
        <ele>88.8</ele>
        <time>2012-09-23T07:49:36Z</time>
      </trkpt>
      <trkpt lat="47.27794" lon="0.54361">
        <ele>88.7</ele>
        <time>2012-09-23T07:49:38Z</time>
      </trkpt>
      <trkpt lat="47.27795" lon="0.54367">
        <ele>88.7</ele>
        <time>2012-09-23T07:49:39Z</time>
      </trkpt>
      <trkpt lat="47.27796" lon="0.54386">
        <ele>88.6</ele>
        <time>2012-09-23T07:49:42Z</time>
      </trkpt>
      <trkpt lat="47.27795" lon="0.54398">
        <ele>88.5</ele>
        <time>2012-09-23T07:49:44Z</time>
      </trkpt>
      <trkpt lat="47.27797" lon="0.54409">
        <ele>88.4</ele>
        <time>2012-09-23T07:49:46Z</time>
      </trkpt>
      <trkpt lat="47.27799" lon="0.54421">
        <ele>88.3</ele>
        <time>2012-09-23T07:49:48Z</time>
      </trkpt>
      <trkpt lat="47.27801" lon="0.54433">
        <ele>88.3</ele>
        <time>2012-09-23T07:49:50Z</time>
      </trkpt>
      <trkpt lat="47.27803" lon="0.54445">
        <ele>88.2</ele>
        <time>2012-09-23T07:49:52Z</time>
      </trkpt>
      <trkpt lat="47.27805" lon="0.54456">
        <ele>88.1</ele>
        <time>2012-09-23T07:49:54Z</time>
      </trkpt>
      <trkpt lat="47.27808" lon="0.54468">
        <ele>88.1</ele>
        <time>2012-09-23T07:49:56Z</time>
      </trkpt>
      <trkpt lat="47.27811" lon="0.5448">
        <ele>88</ele>
        <time>2012-09-23T07:49:58Z</time>
      </trkpt>
      <trkpt lat="47.27814" lon="0.54492">
        <ele>88</ele>
        <time>2012-09-23T07:50:00Z</time>
      </trkpt>
      <trkpt lat="47.27815" lon="0.54498">
        <ele>88</ele>
        <time>2012-09-23T07:50:01Z</time>
      </trkpt>
      <trkpt lat="47.27817" lon="0.54504">
        <ele>88</ele>
        <time>2012-09-23T07:50:02Z</time>
      </trkpt>
      <trkpt lat="47.27818" lon="0.54511">
        <ele>88</ele>
        <time>2012-09-23T07:50:03Z</time>
      </trkpt>
      <trkpt lat="47.27819" lon="0.54518">
        <ele>88</ele>
        <time>2012-09-23T07:50:04Z</time>
      </trkpt>
      <trkpt lat="47.2782" lon="0.54531">
        <ele>88</ele>
        <time>2012-09-23T07:50:06Z</time>
      </trkpt>
      <trkpt lat="47.27821" lon="0.54538">
        <ele>88</ele>
        <time>2012-09-23T07:50:07Z</time>
      </trkpt>
      <trkpt lat="47.27821" lon="0.54545">
        <ele>88</ele>
        <time>2012-09-23T07:50:08Z</time>
      </trkpt>
      <trkpt lat="47.27823" lon="0.54558">
        <ele>88</ele>
        <time>2012-09-23T07:50:10Z</time>
      </trkpt>
      <trkpt lat="47.27823" lon="0.5457">
        <ele>88</ele>
        <time>2012-09-23T07:50:12Z</time>
      </trkpt>
      <trkpt lat="47.27822" lon="0.5458">
        <ele>88.1</ele>
        <time>2012-09-23T07:50:14Z</time>
      </trkpt>
      <trkpt lat="47.27822" lon="0.54591">
        <ele>88</ele>
        <time>2012-09-23T07:50:16Z</time>
      </trkpt>
      <trkpt lat="47.27821" lon="0.54603">
        <ele>87.9</ele>
        <time>2012-09-23T07:50:19Z</time>
      </trkpt>
      <trkpt lat="47.27821" lon="0.54603">
        <ele>87.9</ele>
        <time>2012-09-23T07:50:19Z</time>
      </trkpt>
      <trkpt lat="47.27813" lon="0.54601">
        <ele>88</ele>
        <time>2012-09-23T07:50:24Z</time>
      </trkpt>
      <trkpt lat="47.27805" lon="0.54597">
        <ele>88.2</ele>
        <time>2012-09-23T07:50:27Z</time>
      </trkpt>
      <trkpt lat="47.27798" lon="0.54592">
        <ele>88.3</ele>
        <time>2012-09-23T07:50:30Z</time>
      </trkpt>
      <trkpt lat="47.27791" lon="0.54587">
        <ele>88.4</ele>
        <time>2012-09-23T07:50:32Z</time>
      </trkpt>
      <trkpt lat="47.27783" lon="0.54581">
        <ele>88.5</ele>
        <time>2012-09-23T07:50:35Z</time>
      </trkpt>
      <trkpt lat="47.27777" lon="0.54578">
        <ele>88.6</ele>
        <time>2012-09-23T07:50:37Z</time>
      </trkpt>
      <trkpt lat="47.27769" lon="0.54576">
        <ele>88.7</ele>
        <time>2012-09-23T07:50:39Z</time>
      </trkpt>
      <trkpt lat="47.27765" lon="0.54575">
        <ele>88.7</ele>
        <time>2012-09-23T07:50:40Z</time>
      </trkpt>
      <trkpt lat="47.27756" lon="0.54573">
        <ele>88.7</ele>
        <time>2012-09-23T07:50:42Z</time>
      </trkpt>
      <trkpt lat="47.27751" lon="0.54571">
        <ele>88.8</ele>
        <time>2012-09-23T07:50:43Z</time>
      </trkpt>
      <trkpt lat="47.27743" lon="0.5457">
        <ele>89.2</ele>
        <time>2012-09-23T07:50:45Z</time>
      </trkpt>
      <trkpt lat="47.27736" lon="0.54571">
        <ele>89.7</ele>
        <time>2012-09-23T07:50:47Z</time>
      </trkpt>
      <trkpt lat="47.27728" lon="0.54572">
        <ele>90.3</ele>
        <time>2012-09-23T07:50:49Z</time>
      </trkpt>
      <trkpt lat="47.27719" lon="0.54574">
        <ele>90.9</ele>
        <time>2012-09-23T07:50:51Z</time>
      </trkpt>
      <trkpt lat="47.27715" lon="0.54575">
        <ele>91.2</ele>
        <time>2012-09-23T07:50:52Z</time>
      </trkpt>
      <trkpt lat="47.2771" lon="0.54576">
        <ele>91.6</ele>
        <time>2012-09-23T07:50:53Z</time>
      </trkpt>
      <trkpt lat="47.27706" lon="0.54577">
        <ele>91.9</ele>
        <time>2012-09-23T07:50:54Z</time>
      </trkpt>
      <trkpt lat="47.27701" lon="0.54579">
        <ele>92.3</ele>
        <time>2012-09-23T07:50:55Z</time>
      </trkpt>
      <trkpt lat="47.27696" lon="0.5458">
        <ele>92.7</ele>
        <time>2012-09-23T07:50:56Z</time>
      </trkpt>
      <trkpt lat="47.27691" lon="0.54582">
        <ele>93.1</ele>
        <time>2012-09-23T07:50:57Z</time>
      </trkpt>
      <trkpt lat="47.27685" lon="0.54583">
        <ele>93.6</ele>
        <time>2012-09-23T07:50:58Z</time>
      </trkpt>
      <trkpt lat="47.2768" lon="0.54584">
        <ele>94</ele>
        <time>2012-09-23T07:50:59Z</time>
      </trkpt>
      <trkpt lat="47.27674" lon="0.54585">
        <ele>94.4</ele>
        <time>2012-09-23T07:51:00Z</time>
      </trkpt>
      <trkpt lat="47.2767" lon="0.54587">
        <ele>94.7</ele>
        <time>2012-09-23T07:51:01Z</time>
      </trkpt>
      <trkpt lat="47.27664" lon="0.54587">
        <ele>94.8</ele>
        <time>2012-09-23T07:51:02Z</time>
      </trkpt>
      <trkpt lat="47.27659" lon="0.54587">
        <ele>94.5</ele>
        <time>2012-09-23T07:51:03Z</time>
      </trkpt>
      <trkpt lat="47.27654" lon="0.54588">
        <ele>94.1</ele>
        <time>2012-09-23T07:51:04Z</time>
      </trkpt>
      <trkpt lat="47.27649" lon="0.54589">
        <ele>93.8</ele>
        <time>2012-09-23T07:51:05Z</time>
      </trkpt>
      <trkpt lat="47.27643" lon="0.5459">
        <ele>93.5</ele>
        <time>2012-09-23T07:51:06Z</time>
      </trkpt>
      <trkpt lat="47.27638" lon="0.54592">
        <ele>93.2</ele>
        <time>2012-09-23T07:51:07Z</time>
      </trkpt>
      <trkpt lat="47.27633" lon="0.54592">
        <ele>92.9</ele>
        <time>2012-09-23T07:51:08Z</time>
      </trkpt>
      <trkpt lat="47.27629" lon="0.54593">
        <ele>92.6</ele>
        <time>2012-09-23T07:51:09Z</time>
      </trkpt>
      <trkpt lat="47.2762" lon="0.54592">
        <ele>92.1</ele>
        <time>2012-09-23T07:51:11Z</time>
      </trkpt>
      <trkpt lat="47.27612" lon="0.54593">
        <ele>91.6</ele>
        <time>2012-09-23T07:51:13Z</time>
      </trkpt>
      <trkpt lat="47.27604" lon="0.54593">
        <ele>91.1</ele>
        <time>2012-09-23T07:51:15Z</time>
      </trkpt>
      <trkpt lat="47.27599" lon="0.54594">
        <ele>90.8</ele>
        <time>2012-09-23T07:51:16Z</time>
      </trkpt>
      <trkpt lat="47.27591" lon="0.54596">
        <ele>90.3</ele>
        <time>2012-09-23T07:51:18Z</time>
      </trkpt>
      <trkpt lat="47.27586" lon="0.54602">
        <ele>89.9</ele>
        <time>2012-09-23T07:51:20Z</time>
      </trkpt>
      <trkpt lat="47.2758" lon="0.54608">
        <ele>89.5</ele>
        <time>2012-09-23T07:51:22Z</time>
      </trkpt>
      <trkpt lat="47.27574" lon="0.54614">
        <ele>89</ele>
        <time>2012-09-23T07:51:24Z</time>
      </trkpt>
      <trkpt lat="47.27568" lon="0.5462">
        <ele>88.6</ele>
        <time>2012-09-23T07:51:26Z</time>
      </trkpt>
      <trkpt lat="47.27562" lon="0.5462">
        <ele>88.2</ele>
        <time>2012-09-23T07:51:28Z</time>
      </trkpt>
      <trkpt lat="47.27554" lon="0.54619">
        <ele>87.8</ele>
        <time>2012-09-23T07:51:30Z</time>
      </trkpt>
      <trkpt lat="47.27549" lon="0.54619">
        <ele>87.5</ele>
        <time>2012-09-23T07:51:31Z</time>
      </trkpt>
      <trkpt lat="47.27541" lon="0.54618">
        <ele>87</ele>
        <time>2012-09-23T07:51:33Z</time>
      </trkpt>
      <trkpt lat="47.27534" lon="0.54617">
        <ele>86.6</ele>
        <time>2012-09-23T07:51:35Z</time>
      </trkpt>
      <trkpt lat="47.27527" lon="0.54615">
        <ele>86.2</ele>
        <time>2012-09-23T07:51:37Z</time>
      </trkpt>
      <trkpt lat="47.2752" lon="0.54612">
        <ele>85.8</ele>
        <time>2012-09-23T07:51:39Z</time>
      </trkpt>
      <trkpt lat="47.27512" lon="0.54608">
        <ele>85.4</ele>
        <time>2012-09-23T07:51:41Z</time>
      </trkpt>
      <trkpt lat="47.27508" lon="0.54606">
        <ele>85.2</ele>
        <time>2012-09-23T07:51:42Z</time>
      </trkpt>
      <trkpt lat="47.27499" lon="0.546">
        <ele>84.7</ele>
        <time>2012-09-23T07:51:44Z</time>
      </trkpt>
      <trkpt lat="47.27496" lon="0.54596">
        <ele>84.6</ele>
        <time>2012-09-23T07:51:45Z</time>
      </trkpt>
      <trkpt lat="47.27493" lon="0.5459">
        <ele>84.4</ele>
        <time>2012-09-23T07:51:46Z</time>
      </trkpt>
      <trkpt lat="47.27489" lon="0.54583">
        <ele>84.3</ele>
        <time>2012-09-23T07:51:47Z</time>
      </trkpt>
      <trkpt lat="47.27487" lon="0.54577">
        <ele>84.2</ele>
        <time>2012-09-23T07:51:48Z</time>
      </trkpt>
      <trkpt lat="47.27483" lon="0.5457">
        <ele>84</ele>
        <time>2012-09-23T07:51:49Z</time>
      </trkpt>
      <trkpt lat="47.27478" lon="0.54564">
        <ele>83.8</ele>
        <time>2012-09-23T07:51:50Z</time>
      </trkpt>
      <trkpt lat="47.27473" lon="0.54558">
        <ele>83.6</ele>
        <time>2012-09-23T07:51:51Z</time>
      </trkpt>
      <trkpt lat="47.27468" lon="0.54551">
        <ele>83.5</ele>
        <time>2012-09-23T07:51:52Z</time>
      </trkpt>
      <trkpt lat="47.27465" lon="0.54545">
        <ele>83.4</ele>
        <time>2012-09-23T07:51:53Z</time>
      </trkpt>
      <trkpt lat="47.27462" lon="0.5454">
        <ele>83.4</ele>
        <time>2012-09-23T07:51:54Z</time>
      </trkpt>
      <trkpt lat="47.27458" lon="0.54534">
        <ele>83.3</ele>
        <time>2012-09-23T07:51:55Z</time>
      </trkpt>
      <trkpt lat="47.27453" lon="0.5453">
        <ele>83.2</ele>
        <time>2012-09-23T07:51:56Z</time>
      </trkpt>
      <trkpt lat="47.27447" lon="0.54538">
        <ele>82.8</ele>
        <time>2012-09-23T07:52:00Z</time>
      </trkpt>
      <trkpt lat="47.27432" lon="0.54705">
        <ele>79.5</ele>
        <time>2012-09-23T07:52:35Z</time>
      </trkpt>
      <trkpt lat="47.27423" lon="0.54707">
        <ele>78.9</ele>
        <time>2012-09-23T07:52:40Z</time>
      </trkpt>
      <trkpt lat="47.27416" lon="0.54711">
        <ele>78.4</ele>
        <time>2012-09-23T07:52:44Z</time>
      </trkpt>
      <trkpt lat="47.27415" lon="0.54713">
        <ele>78.5</ele>
        <time>2012-09-23T07:52:45Z</time>
      </trkpt>
      <trkpt lat="47.27402" lon="0.54727">
        <ele>78.8</ele>
        <time>2012-09-23T07:52:55Z</time>
      </trkpt>
      <trkpt lat="47.27395" lon="0.54735">
        <ele>79</ele>
        <time>2012-09-23T07:53:00Z</time>
      </trkpt>
      <trkpt lat="47.27388" lon="0.54744">
        <ele>79.3</ele>
        <time>2012-09-23T07:53:04Z</time>
      </trkpt>
      <trkpt lat="47.27383" lon="0.54751">
        <ele>79.6</ele>
        <time>2012-09-23T07:53:07Z</time>
      </trkpt>
      <trkpt lat="47.27377" lon="0.5476">
        <ele>79.7</ele>
        <time>2012-09-23T07:53:11Z</time>
      </trkpt>
      <trkpt lat="47.2737" lon="0.54768">
        <ele>79.7</ele>
        <time>2012-09-23T07:53:16Z</time>
      </trkpt>
      <trkpt lat="47.27363" lon="0.54776">
        <ele>79.7</ele>
        <time>2012-09-23T07:53:19Z</time>
      </trkpt>
      <trkpt lat="47.27357" lon="0.54782">
        <ele>79.7</ele>
        <time>2012-09-23T07:53:21Z</time>
      </trkpt>
      <trkpt lat="47.27351" lon="0.54788">
        <ele>79.7</ele>
        <time>2012-09-23T07:53:23Z</time>
      </trkpt>
      <trkpt lat="47.27344" lon="0.54794">
        <ele>79.6</ele>
        <time>2012-09-23T07:53:26Z</time>
      </trkpt>
      <trkpt lat="47.27338" lon="0.54798">
        <ele>79.5</ele>
        <time>2012-09-23T07:53:29Z</time>
      </trkpt>
      <trkpt lat="47.27332" lon="0.54804">
        <ele>79.5</ele>
        <time>2012-09-23T07:53:32Z</time>
      </trkpt>
      <trkpt lat="47.27327" lon="0.54809">
        <ele>79.7</ele>
        <time>2012-09-23T07:53:35Z</time>
      </trkpt>
      <trkpt lat="47.2732" lon="0.54815">
        <ele>80.2</ele>
        <time>2012-09-23T07:53:38Z</time>
      </trkpt>
      <trkpt lat="47.27311" lon="0.54818">
        <ele>80.8</ele>
        <time>2012-09-23T07:53:42Z</time>
      </trkpt>
      <trkpt lat="47.27303" lon="0.54821">
        <ele>81.5</ele>
        <time>2012-09-23T07:53:46Z</time>
      </trkpt>
      <trkpt lat="47.273" lon="0.54823">
        <ele>81.6</ele>
        <time>2012-09-23T07:53:47Z</time>
      </trkpt>
      <trkpt lat="47.27287" lon="0.5483">
        <ele>82.6</ele>
        <time>2012-09-23T07:53:52Z</time>
      </trkpt>
      <trkpt lat="47.2728" lon="0.54834">
        <ele>83</ele>
        <time>2012-09-23T07:53:54Z</time>
      </trkpt>
      <trkpt lat="47.27273" lon="0.54839">
        <ele>83.3</ele>
        <time>2012-09-23T07:53:57Z</time>
      </trkpt>
      <trkpt lat="47.27264" lon="0.54843">
        <ele>83.8</ele>
        <time>2012-09-23T07:54:00Z</time>
      </trkpt>
      <trkpt lat="47.27258" lon="0.54844">
        <ele>84.3</ele>
        <time>2012-09-23T07:54:02Z</time>
      </trkpt>
      <trkpt lat="47.27249" lon="0.54845">
        <ele>84.9</ele>
        <time>2012-09-23T07:54:05Z</time>
      </trkpt>
      <trkpt lat="47.27244" lon="0.54846">
        <ele>85.4</ele>
        <time>2012-09-23T07:54:07Z</time>
      </trkpt>
      <trkpt lat="47.27236" lon="0.54848">
        <ele>86.3</ele>
        <time>2012-09-23T07:54:09Z</time>
      </trkpt>
      <trkpt lat="47.27228" lon="0.5485">
        <ele>87.1</ele>
        <time>2012-09-23T07:54:11Z</time>
      </trkpt>
      <trkpt lat="47.27222" lon="0.54851">
        <ele>87.8</ele>
        <time>2012-09-23T07:54:13Z</time>
      </trkpt>
      <trkpt lat="47.27215" lon="0.54851">
        <ele>88.6</ele>
        <time>2012-09-23T07:54:15Z</time>
      </trkpt>
      <trkpt lat="47.27207" lon="0.54852">
        <ele>89.5</ele>
        <time>2012-09-23T07:54:17Z</time>
      </trkpt>
      <trkpt lat="47.272" lon="0.54855">
        <ele>90.3</ele>
        <time>2012-09-23T07:54:19Z</time>
      </trkpt>
      <trkpt lat="47.27193" lon="0.54857">
        <ele>91</ele>
        <time>2012-09-23T07:54:21Z</time>
      </trkpt>
      <trkpt lat="47.27184" lon="0.54858">
        <ele>92</ele>
        <time>2012-09-23T07:54:24Z</time>
      </trkpt>
      <trkpt lat="47.27176" lon="0.54861">
        <ele>93</ele>
        <time>2012-09-23T07:54:27Z</time>
      </trkpt>
      <trkpt lat="47.27168" lon="0.54863">
        <ele>94.1</ele>
        <time>2012-09-23T07:54:30Z</time>
      </trkpt>
      <trkpt lat="47.2716" lon="0.54867">
        <ele>94.2</ele>
        <time>2012-09-23T07:54:33Z</time>
      </trkpt>
      <trkpt lat="47.27152" lon="0.5487">
        <ele>94.2</ele>
        <time>2012-09-23T07:54:36Z</time>
      </trkpt>
      <trkpt lat="47.27144" lon="0.54871">
        <ele>94.3</ele>
        <time>2012-09-23T07:54:39Z</time>
      </trkpt>
      <trkpt lat="47.27137" lon="0.54871">
        <ele>94.4</ele>
        <time>2012-09-23T07:55:32Z</time>
      </trkpt>
      <trkpt lat="47.27135" lon="0.54871">
        <ele>94.4</ele>
        <time>2012-09-23T07:55:33Z</time>
      </trkpt>
      <trkpt lat="47.27121" lon="0.54872">
        <ele>94.5</ele>
        <time>2012-09-23T07:55:37Z</time>
      </trkpt>
      <trkpt lat="47.27114" lon="0.54874">
        <ele>94.6</ele>
        <time>2012-09-23T07:55:39Z</time>
      </trkpt>
      <trkpt lat="47.27109" lon="0.54875">
        <ele>94.6</ele>
        <time>2012-09-23T07:55:40Z</time>
      </trkpt>
      <trkpt lat="47.27105" lon="0.54877">
        <ele>94.7</ele>
        <time>2012-09-23T07:55:41Z</time>
      </trkpt>
      <trkpt lat="47.271" lon="0.5488">
        <ele>94.7</ele>
        <time>2012-09-23T07:55:42Z</time>
      </trkpt>
      <trkpt lat="47.27095" lon="0.54884">
        <ele>94.8</ele>
        <time>2012-09-23T07:55:43Z</time>
      </trkpt>
      <trkpt lat="47.27091" lon="0.54888">
        <ele>94.8</ele>
        <time>2012-09-23T07:55:44Z</time>
      </trkpt>
      <trkpt lat="47.27084" lon="0.54895">
        <ele>94.9</ele>
        <time>2012-09-23T07:55:46Z</time>
      </trkpt>
      <trkpt lat="47.27078" lon="0.54902">
        <ele>95</ele>
        <time>2012-09-23T07:55:48Z</time>
      </trkpt>
      <trkpt lat="47.27071" lon="0.54907">
        <ele>95</ele>
        <time>2012-09-23T07:55:51Z</time>
      </trkpt>
      <trkpt lat="47.27063" lon="0.54911">
        <ele>95</ele>
        <time>2012-09-23T07:55:53Z</time>
      </trkpt>
      <trkpt lat="47.27056" lon="0.54913">
        <ele>95</ele>
        <time>2012-09-23T07:55:55Z</time>
      </trkpt>
      <trkpt lat="47.27048" lon="0.54914">
        <ele>95</ele>
        <time>2012-09-23T07:55:57Z</time>
      </trkpt>
      <trkpt lat="47.27043" lon="0.54914">
        <ele>95</ele>
        <time>2012-09-23T07:55:58Z</time>
      </trkpt>
      <trkpt lat="47.27037" lon="0.54915">
        <ele>95</ele>
        <time>2012-09-23T07:55:59Z</time>
      </trkpt>
      <trkpt lat="47.27032" lon="0.54915">
        <ele>95</ele>
        <time>2012-09-23T07:56:00Z</time>
      </trkpt>
      <trkpt lat="47.27025" lon="0.54914">
        <ele>95</ele>
        <time>2012-09-23T07:56:01Z</time>
      </trkpt>
      <trkpt lat="47.27019" lon="0.54912">
        <ele>95</ele>
        <time>2012-09-23T07:56:02Z</time>
      </trkpt>
      <trkpt lat="47.27012" lon="0.54911">
        <ele>95</ele>
        <time>2012-09-23T07:56:03Z</time>
      </trkpt>
      <trkpt lat="47.27007" lon="0.54911">
        <ele>95</ele>
        <time>2012-09-23T07:56:04Z</time>
      </trkpt>
      <trkpt lat="47.27002" lon="0.54912">
        <ele>95</ele>
        <time>2012-09-23T07:56:05Z</time>
      </trkpt>
      <trkpt lat="47.26997" lon="0.54914">
        <ele>94.9</ele>
        <time>2012-09-23T07:56:06Z</time>
      </trkpt>
      <trkpt lat="47.26993" lon="0.54915">
        <ele>94.8</ele>
        <time>2012-09-23T07:56:07Z</time>
      </trkpt>
      <trkpt lat="47.26988" lon="0.54918">
        <ele>94.6</ele>
        <time>2012-09-23T07:56:08Z</time>
      </trkpt>
      <trkpt lat="47.26984" lon="0.54922">
        <ele>94.4</ele>
        <time>2012-09-23T07:56:09Z</time>
      </trkpt>
      <trkpt lat="47.26979" lon="0.54927">
        <ele>94.2</ele>
        <time>2012-09-23T07:56:10Z</time>
      </trkpt>
      <trkpt lat="47.26974" lon="0.54931">
        <ele>93.9</ele>
        <time>2012-09-23T07:56:11Z</time>
      </trkpt>
      <trkpt lat="47.26967" lon="0.54937">
        <ele>93.6</ele>
        <time>2012-09-23T07:56:12Z</time>
      </trkpt>
      <trkpt lat="47.26962" lon="0.54939">
        <ele>93.4</ele>
        <time>2012-09-23T07:56:13Z</time>
      </trkpt>
      <trkpt lat="47.26957" lon="0.5494">
        <ele>93.3</ele>
        <time>2012-09-23T07:56:14Z</time>
      </trkpt>
      <trkpt lat="47.26949" lon="0.54941">
        <ele>92.9</ele>
        <time>2012-09-23T07:56:16Z</time>
      </trkpt>
      <trkpt lat="47.26944" lon="0.54943">
        <ele>92.8</ele>
        <time>2012-09-23T07:56:17Z</time>
      </trkpt>
      <trkpt lat="47.26935" lon="0.54945">
        <ele>92.4</ele>
        <time>2012-09-23T07:56:19Z</time>
      </trkpt>
      <trkpt lat="47.26928" lon="0.54946">
        <ele>92.2</ele>
        <time>2012-09-23T07:56:21Z</time>
      </trkpt>
      <trkpt lat="47.2692" lon="0.54948">
        <ele>91.9</ele>
        <time>2012-09-23T07:56:23Z</time>
      </trkpt>
      <trkpt lat="47.26914" lon="0.5495">
        <ele>91.8</ele>
        <time>2012-09-23T07:56:25Z</time>
      </trkpt>
      <trkpt lat="47.26907" lon="0.54953">
        <ele>91.6</ele>
        <time>2012-09-23T07:56:27Z</time>
      </trkpt>
      <trkpt lat="47.269" lon="0.54954">
        <ele>91.6</ele>
        <time>2012-09-23T07:56:29Z</time>
      </trkpt>
      <trkpt lat="47.26893" lon="0.54956">
        <ele>91.4</ele>
        <time>2012-09-23T07:56:31Z</time>
      </trkpt>
      <trkpt lat="47.26885" lon="0.54957">
        <ele>91.3</ele>
        <time>2012-09-23T07:56:33Z</time>
      </trkpt>
      <trkpt lat="47.2688" lon="0.54958">
        <ele>91.3</ele>
        <time>2012-09-23T07:56:34Z</time>
      </trkpt>
      <trkpt lat="47.26875" lon="0.54959">
        <ele>91.2</ele>
        <time>2012-09-23T07:56:35Z</time>
      </trkpt>
      <trkpt lat="47.26871" lon="0.5496">
        <ele>91.1</ele>
        <time>2012-09-23T07:56:36Z</time>
      </trkpt>
      <trkpt lat="47.26866" lon="0.54962">
        <ele>91</ele>
        <time>2012-09-23T07:56:37Z</time>
      </trkpt>
      <trkpt lat="47.26857" lon="0.54965">
        <ele>90.8</ele>
        <time>2012-09-23T07:56:39Z</time>
      </trkpt>
      <trkpt lat="47.26848" lon="0.54967">
        <ele>90.6</ele>
        <time>2012-09-23T07:56:41Z</time>
      </trkpt>
      <trkpt lat="47.26844" lon="0.54968">
        <ele>90.6</ele>
        <time>2012-09-23T07:56:42Z</time>
      </trkpt>
      <trkpt lat="47.26835" lon="0.54969">
        <ele>90.5</ele>
        <time>2012-09-23T07:56:44Z</time>
      </trkpt>
      <trkpt lat="47.26827" lon="0.54968">
        <ele>90.5</ele>
        <time>2012-09-23T07:56:46Z</time>
      </trkpt>
      <trkpt lat="47.26822" lon="0.54968">
        <ele>90.6</ele>
        <time>2012-09-23T07:56:47Z</time>
      </trkpt>
      <trkpt lat="47.26817" lon="0.54968">
        <ele>90.6</ele>
        <time>2012-09-23T07:56:48Z</time>
      </trkpt>
      <trkpt lat="47.26812" lon="0.54968">
        <ele>90.6</ele>
        <time>2012-09-23T07:56:49Z</time>
      </trkpt>
      <trkpt lat="47.26806" lon="0.54969">
        <ele>90.6</ele>
        <time>2012-09-23T07:56:50Z</time>
      </trkpt>
      <trkpt lat="47.268" lon="0.54969">
        <ele>90.6</ele>
        <time>2012-09-23T07:56:51Z</time>
      </trkpt>
      <trkpt lat="47.26795" lon="0.5497">
        <ele>90.6</ele>
        <time>2012-09-23T07:56:52Z</time>
      </trkpt>
      <trkpt lat="47.26789" lon="0.54972">
        <ele>90.5</ele>
        <time>2012-09-23T07:56:53Z</time>
      </trkpt>
      <trkpt lat="47.26784" lon="0.54974">
        <ele>90.4</ele>
        <time>2012-09-23T07:56:54Z</time>
      </trkpt>
      <trkpt lat="47.2678" lon="0.54977">
        <ele>90.3</ele>
        <time>2012-09-23T07:56:55Z</time>
      </trkpt>
      <trkpt lat="47.26775" lon="0.5498">
        <ele>90.1</ele>
        <time>2012-09-23T07:56:56Z</time>
      </trkpt>
      <trkpt lat="47.26771" lon="0.54985">
        <ele>89.8</ele>
        <time>2012-09-23T07:56:57Z</time>
      </trkpt>
      <trkpt lat="47.26768" lon="0.54991">
        <ele>89.5</ele>
        <time>2012-09-23T07:56:58Z</time>
      </trkpt>
      <trkpt lat="47.26764" lon="0.54996">
        <ele>89.2</ele>
        <time>2012-09-23T07:56:59Z</time>
      </trkpt>
      <trkpt lat="47.26761" lon="0.55001">
        <ele>89</ele>
        <time>2012-09-23T07:57:00Z</time>
      </trkpt>
      <trkpt lat="47.26755" lon="0.5501">
        <ele>88.3</ele>
        <time>2012-09-23T07:57:02Z</time>
      </trkpt>
      <trkpt lat="47.2675" lon="0.55014">
        <ele>87.9</ele>
        <time>2012-09-23T07:57:03Z</time>
      </trkpt>
      <trkpt lat="47.26746" lon="0.55018">
        <ele>87.9</ele>
        <time>2012-09-23T07:57:04Z</time>
      </trkpt>
      <trkpt lat="47.26743" lon="0.55023">
        <ele>87.6</ele>
        <time>2012-09-23T07:57:05Z</time>
      </trkpt>
      <trkpt lat="47.26739" lon="0.55028">
        <ele>87.5</ele>
        <time>2012-09-23T07:57:06Z</time>
      </trkpt>
      <trkpt lat="47.26733" lon="0.55038">
        <ele>87</ele>
        <time>2012-09-23T07:57:08Z</time>
      </trkpt>
      <trkpt lat="47.26728" lon="0.55046">
        <ele>86.7</ele>
        <time>2012-09-23T07:57:10Z</time>
      </trkpt>
      <trkpt lat="47.26722" lon="0.55053">
        <ele>86.5</ele>
        <time>2012-09-23T07:57:12Z</time>
      </trkpt>
      <trkpt lat="47.26714" lon="0.55058">
        <ele>86.5</ele>
        <time>2012-09-23T07:57:15Z</time>
      </trkpt>
      <trkpt lat="47.26709" lon="0.55062">
        <ele>86.5</ele>
        <time>2012-09-23T07:57:17Z</time>
      </trkpt>
      <trkpt lat="47.26702" lon="0.55063">
        <ele>86.7</ele>
        <time>2012-09-23T07:57:19Z</time>
      </trkpt>
      <trkpt lat="47.26695" lon="0.55062">
        <ele>87.2</ele>
        <time>2012-09-23T07:57:21Z</time>
      </trkpt>
      <trkpt lat="47.26687" lon="0.55062">
        <ele>87.5</ele>
        <time>2012-09-23T07:57:23Z</time>
      </trkpt>
      <trkpt lat="47.26681" lon="0.55062">
        <ele>87.9</ele>
        <time>2012-09-23T07:57:25Z</time>
      </trkpt>
      <trkpt lat="47.26675" lon="0.55062">
        <ele>88.1</ele>
        <time>2012-09-23T07:57:27Z</time>
      </trkpt>
      <trkpt lat="47.26668" lon="0.55064">
        <ele>88.3</ele>
        <time>2012-09-23T07:57:29Z</time>
      </trkpt>
      <trkpt lat="47.2666" lon="0.55064">
        <ele>88.6</ele>
        <time>2012-09-23T07:57:31Z</time>
      </trkpt>
      <trkpt lat="47.26652" lon="0.55063">
        <ele>88.9</ele>
        <time>2012-09-23T07:57:33Z</time>
      </trkpt>
      <trkpt lat="47.26645" lon="0.55063">
        <ele>89.1</ele>
        <time>2012-09-23T07:57:35Z</time>
      </trkpt>
      <trkpt lat="47.26643" lon="0.55062">
        <ele>89.2</ele>
        <time>2012-09-23T07:57:36Z</time>
      </trkpt>
      <trkpt lat="47.26628" lon="0.5506">
        <ele>89.8</ele>
        <time>2012-09-23T07:57:40Z</time>
      </trkpt>
      <trkpt lat="47.26621" lon="0.55061">
        <ele>90</ele>
        <time>2012-09-23T07:57:42Z</time>
      </trkpt>
      <trkpt lat="47.26615" lon="0.55062">
        <ele>90.1</ele>
        <time>2012-09-23T07:57:44Z</time>
      </trkpt>
      <trkpt lat="47.26606" lon="0.55066">
        <ele>90</ele>
        <time>2012-09-23T07:57:46Z</time>
      </trkpt>
      <trkpt lat="47.26599" lon="0.5507">
        <ele>90.1</ele>
        <time>2012-09-23T07:57:48Z</time>
      </trkpt>
      <trkpt lat="47.26593" lon="0.55073">
        <ele>90.1</ele>
        <time>2012-09-23T07:57:50Z</time>
      </trkpt>
      <trkpt lat="47.26585" lon="0.55076">
        <ele>90.3</ele>
        <time>2012-09-23T07:57:52Z</time>
      </trkpt>
      <trkpt lat="47.26577" lon="0.5508">
        <ele>90.4</ele>
        <time>2012-09-23T07:57:54Z</time>
      </trkpt>
      <trkpt lat="47.26569" lon="0.55084">
        <ele>90.5</ele>
        <time>2012-09-23T07:57:56Z</time>
      </trkpt>
      <trkpt lat="47.26562" lon="0.55087">
        <ele>90.6</ele>
        <time>2012-09-23T07:57:58Z</time>
      </trkpt>
      <trkpt lat="47.26555" lon="0.55091">
        <ele>90.8</ele>
        <time>2012-09-23T07:58:00Z</time>
      </trkpt>
      <trkpt lat="47.26546" lon="0.55095">
        <ele>91</ele>
        <time>2012-09-23T07:58:02Z</time>
      </trkpt>
      <trkpt lat="47.26538" lon="0.551">
        <ele>91.1</ele>
        <time>2012-09-23T07:58:04Z</time>
      </trkpt>
      <trkpt lat="47.26531" lon="0.55103">
        <ele>91.2</ele>
        <time>2012-09-23T07:58:06Z</time>
      </trkpt>
      <trkpt lat="47.26525" lon="0.55105">
        <ele>91.3</ele>
        <time>2012-09-23T07:58:08Z</time>
      </trkpt>
      <trkpt lat="47.26517" lon="0.55109">
        <ele>91.5</ele>
        <time>2012-09-23T07:58:10Z</time>
      </trkpt>
      <trkpt lat="47.26509" lon="0.55112">
        <ele>91.6</ele>
        <time>2012-09-23T07:58:12Z</time>
      </trkpt>
      <trkpt lat="47.26504" lon="0.55113">
        <ele>91.7</ele>
        <time>2012-09-23T07:58:13Z</time>
      </trkpt>
      <trkpt lat="47.26497" lon="0.55117">
        <ele>91.8</ele>
        <time>2012-09-23T07:58:15Z</time>
      </trkpt>
      <trkpt lat="47.2649" lon="0.55121">
        <ele>91.7</ele>
        <time>2012-09-23T07:58:17Z</time>
      </trkpt>
      <trkpt lat="47.26483" lon="0.55123">
        <ele>91.7</ele>
        <time>2012-09-23T07:58:19Z</time>
      </trkpt>
      <trkpt lat="47.26477" lon="0.55118">
        <ele>92</ele>
        <time>2012-09-23T07:58:21Z</time>
      </trkpt>
      <trkpt lat="47.26477" lon="0.55118">
        <ele>92</ele>
        <time>2012-09-23T07:58:21Z</time>
      </trkpt>
      <trkpt lat="47.26473" lon="0.55109">
        <ele>92.3</ele>
        <time>2012-09-23T07:58:24Z</time>
      </trkpt>
      <trkpt lat="47.26465" lon="0.55104">
        <ele>92.4</ele>
        <time>2012-09-23T07:58:38Z</time>
      </trkpt>
      <trkpt lat="47.26464" lon="0.55104">
        <ele>92.4</ele>
        <time>2012-09-23T07:58:39Z</time>
      </trkpt>
      <trkpt lat="47.26455" lon="0.55105">
        <ele>92.4</ele>
        <time>2012-09-23T07:59:45Z</time>
      </trkpt>
      <trkpt lat="47.26444" lon="0.55112">
        <ele>92.4</ele>
        <time>2012-09-23T07:59:49Z</time>
      </trkpt>
      <trkpt lat="47.26439" lon="0.55115">
        <ele>92.4</ele>
        <time>2012-09-23T07:59:51Z</time>
      </trkpt>
      <trkpt lat="47.26431" lon="0.55118">
        <ele>92.4</ele>
        <time>2012-09-23T07:59:53Z</time>
      </trkpt>
      <trkpt lat="47.26425" lon="0.55123">
        <ele>92.4</ele>
        <time>2012-09-23T07:59:55Z</time>
      </trkpt>
      <trkpt lat="47.26418" lon="0.55126">
        <ele>92.4</ele>
        <time>2012-09-23T07:59:57Z</time>
      </trkpt>
      <trkpt lat="47.26414" lon="0.55128">
        <ele>92.7</ele>
        <time>2012-09-23T07:59:58Z</time>
      </trkpt>
      <trkpt lat="47.26409" lon="0.5513">
        <ele>93.1</ele>
        <time>2012-09-23T07:59:59Z</time>
      </trkpt>
      <trkpt lat="47.26404" lon="0.55132">
        <ele>93.6</ele>
        <time>2012-09-23T08:00:00Z</time>
      </trkpt>
      <trkpt lat="47.26396" lon="0.55134">
        <ele>94.3</ele>
        <time>2012-09-23T08:00:02Z</time>
      </trkpt>
      <trkpt lat="47.26389" lon="0.55137">
        <ele>95.1</ele>
        <time>2012-09-23T08:00:04Z</time>
      </trkpt>
      <trkpt lat="47.26385" lon="0.55139">
        <ele>95.5</ele>
        <time>2012-09-23T08:00:05Z</time>
      </trkpt>
      <trkpt lat="47.2638" lon="0.55143">
        <ele>96</ele>
        <time>2012-09-23T08:00:06Z</time>
      </trkpt>
      <trkpt lat="47.26376" lon="0.55148">
        <ele>96.3</ele>
        <time>2012-09-23T08:00:07Z</time>
      </trkpt>
      <trkpt lat="47.26376" lon="0.55148">
        <ele>96.3</ele>
        <time>2012-09-23T08:00:07Z</time>
      </trkpt>
      <trkpt lat="47.26375" lon="0.5516">
        <ele>96.5</ele>
        <time>2012-09-23T08:00:09Z</time>
      </trkpt>
      <trkpt lat="47.26377" lon="0.5517">
        <ele>96.2</ele>
        <time>2012-09-23T08:00:11Z</time>
      </trkpt>
      <trkpt lat="47.26381" lon="0.5518">
        <ele>95.9</ele>
        <time>2012-09-23T08:00:13Z</time>
      </trkpt>
      <trkpt lat="47.26384" lon="0.55192">
        <ele>95.7</ele>
        <time>2012-09-23T08:00:15Z</time>
      </trkpt>
      <trkpt lat="47.26387" lon="0.55204">
        <ele>95.7</ele>
        <time>2012-09-23T08:00:17Z</time>
      </trkpt>
      <trkpt lat="47.2639" lon="0.55216">
        <ele>95.7</ele>
        <time>2012-09-23T08:00:19Z</time>
      </trkpt>
      <trkpt lat="47.2639" lon="0.55223">
        <ele>95.8</ele>
        <time>2012-09-23T08:00:20Z</time>
      </trkpt>
      <trkpt lat="47.26391" lon="0.5523">
        <ele>95.8</ele>
        <time>2012-09-23T08:00:21Z</time>
      </trkpt>
      <trkpt lat="47.26392" lon="0.55237">
        <ele>95.9</ele>
        <time>2012-09-23T08:00:22Z</time>
      </trkpt>
      <trkpt lat="47.26394" lon="0.55245">
        <ele>95.9</ele>
        <time>2012-09-23T08:00:23Z</time>
      </trkpt>
      <trkpt lat="47.26396" lon="0.55253">
        <ele>95.9</ele>
        <time>2012-09-23T08:00:24Z</time>
      </trkpt>
      <trkpt lat="47.26399" lon="0.55262">
        <ele>95.8</ele>
        <time>2012-09-23T08:00:25Z</time>
      </trkpt>
      <trkpt lat="47.26402" lon="0.55271">
        <ele>95.6</ele>
        <time>2012-09-23T08:00:26Z</time>
      </trkpt>
      <trkpt lat="47.26405" lon="0.55279">
        <ele>95.6</ele>
        <time>2012-09-23T08:00:27Z</time>
      </trkpt>
      <trkpt lat="47.26407" lon="0.55285">
        <ele>95.5</ele>
        <time>2012-09-23T08:00:28Z</time>
      </trkpt>
      <trkpt lat="47.2641" lon="0.55293">
        <ele>95.5</ele>
        <time>2012-09-23T08:00:29Z</time>
      </trkpt>
      <trkpt lat="47.26413" lon="0.55301">
        <ele>95.6</ele>
        <time>2012-09-23T08:00:30Z</time>
      </trkpt>
      <trkpt lat="47.26415" lon="0.55308">
        <ele>95.6</ele>
        <time>2012-09-23T08:00:31Z</time>
      </trkpt>
      <trkpt lat="47.26416" lon="0.55316">
        <ele>95.7</ele>
        <time>2012-09-23T08:00:32Z</time>
      </trkpt>
      <trkpt lat="47.26419" lon="0.55325">
        <ele>95.6</ele>
        <time>2012-09-23T08:00:33Z</time>
      </trkpt>
      <trkpt lat="47.2642" lon="0.55333">
        <ele>95.7</ele>
        <time>2012-09-23T08:00:34Z</time>
      </trkpt>
      <trkpt lat="47.26422" lon="0.55339">
        <ele>95.5</ele>
        <time>2012-09-23T08:00:35Z</time>
      </trkpt>
      <trkpt lat="47.26422" lon="0.55346">
        <ele>95.3</ele>
        <time>2012-09-23T08:00:36Z</time>
      </trkpt>
      <trkpt lat="47.26424" lon="0.55353">
        <ele>95.1</ele>
        <time>2012-09-23T08:00:37Z</time>
      </trkpt>
      <trkpt lat="47.26425" lon="0.55361">
        <ele>94.9</ele>
        <time>2012-09-23T08:00:38Z</time>
      </trkpt>
      <trkpt lat="47.26427" lon="0.55368">
        <ele>94.6</ele>
        <time>2012-09-23T08:00:39Z</time>
      </trkpt>
      <trkpt lat="47.26428" lon="0.55376">
        <ele>94.4</ele>
        <time>2012-09-23T08:00:40Z</time>
      </trkpt>
      <trkpt lat="47.26429" lon="0.55384">
        <ele>94.2</ele>
        <time>2012-09-23T08:00:41Z</time>
      </trkpt>
      <trkpt lat="47.26431" lon="0.55392">
        <ele>94</ele>
        <time>2012-09-23T08:00:42Z</time>
      </trkpt>
      <trkpt lat="47.26433" lon="0.55398">
        <ele>93.7</ele>
        <time>2012-09-23T08:00:43Z</time>
      </trkpt>
      <trkpt lat="47.26435" lon="0.55404">
        <ele>93.4</ele>
        <time>2012-09-23T08:00:44Z</time>
      </trkpt>
      <trkpt lat="47.26437" lon="0.55411">
        <ele>93.1</ele>
        <time>2012-09-23T08:00:45Z</time>
      </trkpt>
      <trkpt lat="47.26439" lon="0.55419">
        <ele>92.8</ele>
        <time>2012-09-23T08:00:46Z</time>
      </trkpt>
      <trkpt lat="47.26441" lon="0.55427">
        <ele>92.6</ele>
        <time>2012-09-23T08:00:47Z</time>
      </trkpt>
      <trkpt lat="47.26444" lon="0.55435">
        <ele>92.4</ele>
        <time>2012-09-23T08:00:48Z</time>
      </trkpt>
      <trkpt lat="47.26446" lon="0.55444">
        <ele>92.3</ele>
        <time>2012-09-23T08:00:49Z</time>
      </trkpt>
      <trkpt lat="47.26448" lon="0.55452">
        <ele>92.1</ele>
        <time>2012-09-23T08:00:50Z</time>
      </trkpt>
      <trkpt lat="47.2645" lon="0.5546">
        <ele>92.1</ele>
        <time>2012-09-23T08:00:51Z</time>
      </trkpt>
      <trkpt lat="47.26452" lon="0.55467">
        <ele>92</ele>
        <time>2012-09-23T08:00:52Z</time>
      </trkpt>
      <trkpt lat="47.26454" lon="0.55474">
        <ele>91.9</ele>
        <time>2012-09-23T08:00:53Z</time>
      </trkpt>
      <trkpt lat="47.26456" lon="0.55483">
        <ele>91.9</ele>
        <time>2012-09-23T08:00:54Z</time>
      </trkpt>
      <trkpt lat="47.26458" lon="0.55491">
        <ele>91.9</ele>
        <time>2012-09-23T08:00:55Z</time>
      </trkpt>
      <trkpt lat="47.2646" lon="0.55499">
        <ele>91.8</ele>
        <time>2012-09-23T08:00:56Z</time>
      </trkpt>
      <trkpt lat="47.26461" lon="0.55507">
        <ele>91.8</ele>
        <time>2012-09-23T08:00:57Z</time>
      </trkpt>
      <trkpt lat="47.26462" lon="0.55514">
        <ele>91.8</ele>
        <time>2012-09-23T08:00:58Z</time>
      </trkpt>
      <trkpt lat="47.26464" lon="0.55522">
        <ele>91.7</ele>
        <time>2012-09-23T08:00:59Z</time>
      </trkpt>
      <trkpt lat="47.26466" lon="0.5553">
        <ele>91.6</ele>
        <time>2012-09-23T08:01:00Z</time>
      </trkpt>
      <trkpt lat="47.26468" lon="0.55537">
        <ele>91.6</ele>
        <time>2012-09-23T08:01:01Z</time>
      </trkpt>
      <trkpt lat="47.2647" lon="0.55544">
        <ele>91.6</ele>
        <time>2012-09-23T08:01:02Z</time>
      </trkpt>
      <trkpt lat="47.26472" lon="0.55551">
        <ele>91.5</ele>
        <time>2012-09-23T08:01:03Z</time>
      </trkpt>
      <trkpt lat="47.26474" lon="0.55558">
        <ele>91.5</ele>
        <time>2012-09-23T08:01:04Z</time>
      </trkpt>
      <trkpt lat="47.26476" lon="0.55566">
        <ele>91.4</ele>
        <time>2012-09-23T08:01:05Z</time>
      </trkpt>
      <trkpt lat="47.26477" lon="0.55574">
        <ele>91.4</ele>
        <time>2012-09-23T08:01:06Z</time>
      </trkpt>
      <trkpt lat="47.26479" lon="0.55581">
        <ele>91.4</ele>
        <time>2012-09-23T08:01:07Z</time>
      </trkpt>
      <trkpt lat="47.26481" lon="0.55588">
        <ele>91.3</ele>
        <time>2012-09-23T08:01:08Z</time>
      </trkpt>
      <trkpt lat="47.26482" lon="0.55596">
        <ele>91.1</ele>
        <time>2012-09-23T08:01:09Z</time>
      </trkpt>
      <trkpt lat="47.26484" lon="0.55603">
        <ele>90.9</ele>
        <time>2012-09-23T08:01:10Z</time>
      </trkpt>
      <trkpt lat="47.26485" lon="0.55611">
        <ele>90.7</ele>
        <time>2012-09-23T08:01:11Z</time>
      </trkpt>
      <trkpt lat="47.26488" lon="0.55619">
        <ele>90.5</ele>
        <time>2012-09-23T08:01:12Z</time>
      </trkpt>
      <trkpt lat="47.26492" lon="0.55627">
        <ele>90.4</ele>
        <time>2012-09-23T08:01:13Z</time>
      </trkpt>
      <trkpt lat="47.26496" lon="0.55632">
        <ele>90.3</ele>
        <time>2012-09-23T08:01:14Z</time>
      </trkpt>
      <trkpt lat="47.26499" lon="0.55636">
        <ele>90.3</ele>
        <time>2012-09-23T08:01:15Z</time>
      </trkpt>
      <trkpt lat="47.26507" lon="0.55643">
        <ele>90</ele>
        <time>2012-09-23T08:01:17Z</time>
      </trkpt>
      <trkpt lat="47.26515" lon="0.55647">
        <ele>89.6</ele>
        <time>2012-09-23T08:01:19Z</time>
      </trkpt>
      <trkpt lat="47.26515" lon="0.55647">
        <ele>89.6</ele>
        <time>2012-09-23T08:01:19Z</time>
      </trkpt>
      <trkpt lat="47.26521" lon="0.55647">
        <ele>89.4</ele>
        <time>2012-09-23T08:01:20Z</time>
      </trkpt>
      <trkpt lat="47.26526" lon="0.55647">
        <ele>89.2</ele>
        <time>2012-09-23T08:01:21Z</time>
      </trkpt>
      <trkpt lat="47.26535" lon="0.55648">
        <ele>88.8</ele>
        <time>2012-09-23T08:01:23Z</time>
      </trkpt>
      <trkpt lat="47.26539" lon="0.5565">
        <ele>88.7</ele>
        <time>2012-09-23T08:01:24Z</time>
      </trkpt>
      <trkpt lat="47.26543" lon="0.55654">
        <ele>88.5</ele>
        <time>2012-09-23T08:01:25Z</time>
      </trkpt>
      <trkpt lat="47.26548" lon="0.55659">
        <ele>88.2</ele>
        <time>2012-09-23T08:01:26Z</time>
      </trkpt>
      <trkpt lat="47.26554" lon="0.55665">
        <ele>88</ele>
        <time>2012-09-23T08:01:27Z</time>
      </trkpt>
      <trkpt lat="47.2656" lon="0.55672">
        <ele>87.8</ele>
        <time>2012-09-23T08:01:28Z</time>
      </trkpt>
      <trkpt lat="47.26565" lon="0.55678">
        <ele>87.6</ele>
        <time>2012-09-23T08:01:29Z</time>
      </trkpt>
      <trkpt lat="47.2657" lon="0.55685">
        <ele>87.5</ele>
        <time>2012-09-23T08:01:30Z</time>
      </trkpt>
      <trkpt lat="47.26574" lon="0.55691">
        <ele>87.4</ele>
        <time>2012-09-23T08:01:31Z</time>
      </trkpt>
      <trkpt lat="47.26578" lon="0.55697">
        <ele>87.4</ele>
        <time>2012-09-23T08:01:32Z</time>
      </trkpt>
      <trkpt lat="47.26581" lon="0.55703">
        <ele>87.4</ele>
        <time>2012-09-23T08:01:33Z</time>
      </trkpt>
      <trkpt lat="47.26584" lon="0.5571">
        <ele>87.3</ele>
        <time>2012-09-23T08:01:34Z</time>
      </trkpt>
      <trkpt lat="47.2659" lon="0.55716">
        <ele>86.7</ele>
        <time>2012-09-23T08:01:35Z</time>
      </trkpt>
      <trkpt lat="47.26595" lon="0.55724">
        <ele>86.1</ele>
        <time>2012-09-23T08:01:36Z</time>
      </trkpt>
      <trkpt lat="47.26599" lon="0.55731">
        <ele>85.5</ele>
        <time>2012-09-23T08:01:37Z</time>
      </trkpt>
      <trkpt lat="47.26602" lon="0.55736">
        <ele>85</ele>
        <time>2012-09-23T08:01:38Z</time>
      </trkpt>
      <trkpt lat="47.26608" lon="0.55745">
        <ele>84.1</ele>
        <time>2012-09-23T08:01:40Z</time>
      </trkpt>
      <trkpt lat="47.26612" lon="0.55751">
        <ele>83.5</ele>
        <time>2012-09-23T08:01:41Z</time>
      </trkpt>
      <trkpt lat="47.26616" lon="0.55756">
        <ele>82.6</ele>
        <time>2012-09-23T08:01:42Z</time>
      </trkpt>
      <trkpt lat="47.26621" lon="0.55762">
        <ele>81.6</ele>
        <time>2012-09-23T08:01:43Z</time>
      </trkpt>
      <trkpt lat="47.26626" lon="0.55768">
        <ele>80.6</ele>
        <time>2012-09-23T08:01:44Z</time>
      </trkpt>
      <trkpt lat="47.2663" lon="0.55774">
        <ele>79.8</ele>
        <time>2012-09-23T08:01:45Z</time>
      </trkpt>
      <trkpt lat="47.26634" lon="0.55779">
        <ele>78.9</ele>
        <time>2012-09-23T08:01:46Z</time>
      </trkpt>
      <trkpt lat="47.26639" lon="0.55784">
        <ele>78</ele>
        <time>2012-09-23T08:01:47Z</time>
      </trkpt>
      <trkpt lat="47.26643" lon="0.55789">
        <ele>77.3</ele>
        <time>2012-09-23T08:01:48Z</time>
      </trkpt>
      <trkpt lat="47.26648" lon="0.55794">
        <ele>76.3</ele>
        <time>2012-09-23T08:01:49Z</time>
      </trkpt>
      <trkpt lat="47.26653" lon="0.55799">
        <ele>75.3</ele>
        <time>2012-09-23T08:01:50Z</time>
      </trkpt>
      <trkpt lat="47.2666" lon="0.55806">
        <ele>74</ele>
        <time>2012-09-23T08:01:51Z</time>
      </trkpt>
      <trkpt lat="47.26666" lon="0.55812">
        <ele>72.8</ele>
        <time>2012-09-23T08:01:52Z</time>
      </trkpt>
      <trkpt lat="47.26671" lon="0.55817">
        <ele>72.3</ele>
        <time>2012-09-23T08:01:53Z</time>
      </trkpt>
      <trkpt lat="47.26674" lon="0.55821">
        <ele>71.9</ele>
        <time>2012-09-23T08:01:54Z</time>
      </trkpt>
      <trkpt lat="47.26682" lon="0.55827">
        <ele>71.1</ele>
        <time>2012-09-23T08:01:56Z</time>
      </trkpt>
      <trkpt lat="47.26688" lon="0.55835">
        <ele>70.3</ele>
        <time>2012-09-23T08:01:59Z</time>
      </trkpt>
      <trkpt lat="47.26696" lon="0.55836">
        <ele>69.7</ele>
        <time>2012-09-23T08:02:43Z</time>
      </trkpt>
      <trkpt lat="47.26704" lon="0.55839">
        <ele>69.1</ele>
        <time>2012-09-23T08:02:48Z</time>
      </trkpt>
      <trkpt lat="47.26705" lon="0.55694">
        <ele>76.3</ele>
        <time>2012-09-23T08:03:19Z</time>
      </trkpt>
      <trkpt lat="47.26712" lon="0.55689">
        <ele>76.3</ele>
        <time>2012-09-23T08:03:21Z</time>
      </trkpt>
      <trkpt lat="47.26719" lon="0.55685">
        <ele>76.2</ele>
        <time>2012-09-23T08:03:23Z</time>
      </trkpt>
      <trkpt lat="47.26727" lon="0.55683">
        <ele>76</ele>
        <time>2012-09-23T08:03:25Z</time>
      </trkpt>
      <trkpt lat="47.26732" lon="0.55681">
        <ele>75.9</ele>
        <time>2012-09-23T08:03:26Z</time>
      </trkpt>
      <trkpt lat="47.26737" lon="0.55679">
        <ele>75.8</ele>
        <time>2012-09-23T08:03:27Z</time>
      </trkpt>
      <trkpt lat="47.26742" lon="0.55677">
        <ele>75.7</ele>
        <time>2012-09-23T08:03:28Z</time>
      </trkpt>
      <trkpt lat="47.26748" lon="0.55675">
        <ele>75.7</ele>
        <time>2012-09-23T08:03:29Z</time>
      </trkpt>
      <trkpt lat="47.26753" lon="0.55672">
        <ele>75.6</ele>
        <time>2012-09-23T08:03:30Z</time>
      </trkpt>
      <trkpt lat="47.26758" lon="0.5567">
        <ele>75.5</ele>
        <time>2012-09-23T08:03:31Z</time>
      </trkpt>
      <trkpt lat="47.26763" lon="0.55667">
        <ele>75.5</ele>
        <time>2012-09-23T08:03:32Z</time>
      </trkpt>
      <trkpt lat="47.26769" lon="0.55665">
        <ele>75.3</ele>
        <time>2012-09-23T08:03:33Z</time>
      </trkpt>
      <trkpt lat="47.26774" lon="0.55662">
        <ele>75.2</ele>
        <time>2012-09-23T08:03:34Z</time>
      </trkpt>
      <trkpt lat="47.2678" lon="0.5566">
        <ele>75.1</ele>
        <time>2012-09-23T08:03:35Z</time>
      </trkpt>
      <trkpt lat="47.26786" lon="0.55657">
        <ele>75</ele>
        <time>2012-09-23T08:03:36Z</time>
      </trkpt>
      <trkpt lat="47.26791" lon="0.55654">
        <ele>74.9</ele>
        <time>2012-09-23T08:03:37Z</time>
      </trkpt>
      <trkpt lat="47.26797" lon="0.55651">
        <ele>74.8</ele>
        <time>2012-09-23T08:03:38Z</time>
      </trkpt>
      <trkpt lat="47.26802" lon="0.55648">
        <ele>74.8</ele>
        <time>2012-09-23T08:03:39Z</time>
      </trkpt>
      <trkpt lat="47.26808" lon="0.55645">
        <ele>74.8</ele>
        <time>2012-09-23T08:03:40Z</time>
      </trkpt>
      <trkpt lat="47.26814" lon="0.55642">
        <ele>74.7</ele>
        <time>2012-09-23T08:03:41Z</time>
      </trkpt>
      <trkpt lat="47.2682" lon="0.55639">
        <ele>74.7</ele>
        <time>2012-09-23T08:03:42Z</time>
      </trkpt>
      <trkpt lat="47.26825" lon="0.55635">
        <ele>74.7</ele>
        <time>2012-09-23T08:03:43Z</time>
      </trkpt>
      <trkpt lat="47.26831" lon="0.55632">
        <ele>74.7</ele>
        <time>2012-09-23T08:03:44Z</time>
      </trkpt>
      <trkpt lat="47.26836" lon="0.55629">
        <ele>74.6</ele>
        <time>2012-09-23T08:03:45Z</time>
      </trkpt>
      <trkpt lat="47.26841" lon="0.55625">
        <ele>74.5</ele>
        <time>2012-09-23T08:03:46Z</time>
      </trkpt>
      <trkpt lat="47.26847" lon="0.55622">
        <ele>74.3</ele>
        <time>2012-09-23T08:03:47Z</time>
      </trkpt>
      <trkpt lat="47.26852" lon="0.55618">
        <ele>74.2</ele>
        <time>2012-09-23T08:03:48Z</time>
      </trkpt>
      <trkpt lat="47.26857" lon="0.55614">
        <ele>74.1</ele>
        <time>2012-09-23T08:03:49Z</time>
      </trkpt>
      <trkpt lat="47.26862" lon="0.5561">
        <ele>74</ele>
        <time>2012-09-23T08:03:50Z</time>
      </trkpt>
      <trkpt lat="47.26867" lon="0.55607">
        <ele>73.8</ele>
        <time>2012-09-23T08:03:51Z</time>
      </trkpt>
      <trkpt lat="47.26871" lon="0.55604">
        <ele>73.7</ele>
        <time>2012-09-23T08:03:52Z</time>
      </trkpt>
      <trkpt lat="47.26876" lon="0.55601">
        <ele>73.6</ele>
        <time>2012-09-23T08:03:53Z</time>
      </trkpt>
      <trkpt lat="47.2688" lon="0.55597">
        <ele>73.5</ele>
        <time>2012-09-23T08:03:54Z</time>
      </trkpt>
      <trkpt lat="47.26885" lon="0.55594">
        <ele>73.4</ele>
        <time>2012-09-23T08:03:55Z</time>
      </trkpt>
      <trkpt lat="47.2689" lon="0.5559">
        <ele>73.2</ele>
        <time>2012-09-23T08:03:56Z</time>
      </trkpt>
      <trkpt lat="47.26895" lon="0.55587">
        <ele>73.1</ele>
        <time>2012-09-23T08:03:57Z</time>
      </trkpt>
      <trkpt lat="47.269" lon="0.55584">
        <ele>72.9</ele>
        <time>2012-09-23T08:03:58Z</time>
      </trkpt>
      <trkpt lat="47.26904" lon="0.55582">
        <ele>72.9</ele>
        <time>2012-09-23T08:03:59Z</time>
      </trkpt>
      <trkpt lat="47.26909" lon="0.55579">
        <ele>72.8</ele>
        <time>2012-09-23T08:04:00Z</time>
      </trkpt>
      <trkpt lat="47.26915" lon="0.55576">
        <ele>72.7</ele>
        <time>2012-09-23T08:04:01Z</time>
      </trkpt>
      <trkpt lat="47.2692" lon="0.55573">
        <ele>72.7</ele>
        <time>2012-09-23T08:04:02Z</time>
      </trkpt>
      <trkpt lat="47.26925" lon="0.55571">
        <ele>72.6</ele>
        <time>2012-09-23T08:04:03Z</time>
      </trkpt>
      <trkpt lat="47.26931" lon="0.55568">
        <ele>72.5</ele>
        <time>2012-09-23T08:04:04Z</time>
      </trkpt>
      <trkpt lat="47.26937" lon="0.55564">
        <ele>72.6</ele>
        <time>2012-09-23T08:04:05Z</time>
      </trkpt>
      <trkpt lat="47.26943" lon="0.5556">
        <ele>72.6</ele>
        <time>2012-09-23T08:04:06Z</time>
      </trkpt>
      <trkpt lat="47.26948" lon="0.55555">
        <ele>72.7</ele>
        <time>2012-09-23T08:04:07Z</time>
      </trkpt>
      <trkpt lat="47.26953" lon="0.55549">
        <ele>73</ele>
        <time>2012-09-23T08:04:08Z</time>
      </trkpt>
      <trkpt lat="47.26956" lon="0.55542">
        <ele>73.3</ele>
        <time>2012-09-23T08:04:09Z</time>
      </trkpt>
      <trkpt lat="47.2696" lon="0.55536">
        <ele>73.6</ele>
        <time>2012-09-23T08:04:10Z</time>
      </trkpt>
      <trkpt lat="47.26963" lon="0.55528">
        <ele>74</ele>
        <time>2012-09-23T08:04:11Z</time>
      </trkpt>
      <trkpt lat="47.26966" lon="0.55519">
        <ele>74.6</ele>
        <time>2012-09-23T08:04:12Z</time>
      </trkpt>
      <trkpt lat="47.26969" lon="0.55511">
        <ele>75</ele>
        <time>2012-09-23T08:04:13Z</time>
      </trkpt>
      <trkpt lat="47.26972" lon="0.55503">
        <ele>75.4</ele>
        <time>2012-09-23T08:04:14Z</time>
      </trkpt>
      <trkpt lat="47.26975" lon="0.55494">
        <ele>75.5</ele>
        <time>2012-09-23T08:04:15Z</time>
      </trkpt>
      <trkpt lat="47.26978" lon="0.55486">
        <ele>75.2</ele>
        <time>2012-09-23T08:04:16Z</time>
      </trkpt>
      <trkpt lat="47.26981" lon="0.55478">
        <ele>75</ele>
        <time>2012-09-23T08:04:17Z</time>
      </trkpt>
      <trkpt lat="47.26984" lon="0.55468">
        <ele>74.7</ele>
        <time>2012-09-23T08:04:18Z</time>
      </trkpt>
      <trkpt lat="47.26987" lon="0.55459">
        <ele>74.5</ele>
        <time>2012-09-23T08:04:19Z</time>
      </trkpt>
      <trkpt lat="47.26989" lon="0.55452">
        <ele>74.2</ele>
        <time>2012-09-23T08:04:20Z</time>
      </trkpt>
      <trkpt lat="47.26992" lon="0.55443">
        <ele>74</ele>
        <time>2012-09-23T08:04:21Z</time>
      </trkpt>
      <trkpt lat="47.26994" lon="0.55435">
        <ele>73.7</ele>
        <time>2012-09-23T08:04:22Z</time>
      </trkpt>
      <trkpt lat="47.26997" lon="0.55427">
        <ele>73.3</ele>
        <time>2012-09-23T08:04:23Z</time>
      </trkpt>
      <trkpt lat="47.27" lon="0.55419">
        <ele>73</ele>
        <time>2012-09-23T08:04:24Z</time>
      </trkpt>
      <trkpt lat="47.27003" lon="0.55412">
        <ele>72.5</ele>
        <time>2012-09-23T08:04:25Z</time>
      </trkpt>
      <trkpt lat="47.27005" lon="0.55404">
        <ele>72.1</ele>
        <time>2012-09-23T08:04:26Z</time>
      </trkpt>
      <trkpt lat="47.27008" lon="0.55395">
        <ele>71.5</ele>
        <time>2012-09-23T08:04:27Z</time>
      </trkpt>
      <trkpt lat="47.27011" lon="0.55384">
        <ele>71</ele>
        <time>2012-09-23T08:04:28Z</time>
      </trkpt>
      <trkpt lat="47.27014" lon="0.55375">
        <ele>70.5</ele>
        <time>2012-09-23T08:04:29Z</time>
      </trkpt>
      <trkpt lat="47.27017" lon="0.55369">
        <ele>70.2</ele>
        <time>2012-09-23T08:04:30Z</time>
      </trkpt>
      <trkpt lat="47.27024" lon="0.55361">
        <ele>69.8</ele>
        <time>2012-09-23T08:04:32Z</time>
      </trkpt>
      <trkpt lat="47.2703" lon="0.5536">
        <ele>69.6</ele>
        <time>2012-09-23T08:04:34Z</time>
      </trkpt>
      <trkpt lat="47.27034" lon="0.55362">
        <ele>69.6</ele>
        <time>2012-09-23T08:04:35Z</time>
      </trkpt>
      <trkpt lat="47.27195" lon="0.55924">
        <ele>66.3</ele>
        <time>2012-09-23T08:07:04Z</time>
      </trkpt>
      <trkpt lat="47.27192" lon="0.55935">
        <ele>66.7</ele>
        <time>2012-09-23T08:07:07Z</time>
      </trkpt>
      <trkpt lat="47.27186" lon="0.55944">
        <ele>66.8</ele>
        <time>2012-09-23T08:07:12Z</time>
      </trkpt>
      <trkpt lat="47.27178" lon="0.55947">
        <ele>66.5</ele>
        <time>2012-09-23T08:07:15Z</time>
      </trkpt>
      <trkpt lat="47.27172" lon="0.55955">
        <ele>66.6</ele>
        <time>2012-09-23T08:07:18Z</time>
      </trkpt>
      <trkpt lat="47.27167" lon="0.55964">
        <ele>66.8</ele>
        <time>2012-09-23T08:07:21Z</time>
      </trkpt>
      <trkpt lat="47.27167" lon="0.55975">
        <ele>67.4</ele>
        <time>2012-09-23T08:07:24Z</time>
      </trkpt>
      <trkpt lat="47.2717" lon="0.55987">
        <ele>68.3</ele>
        <time>2012-09-23T08:07:28Z</time>
      </trkpt>
      <trkpt lat="47.27173" lon="0.55999">
        <ele>69.2</ele>
        <time>2012-09-23T08:07:34Z</time>
      </trkpt>
      <trkpt lat="47.27175" lon="0.5601">
        <ele>70.1</ele>
        <time>2012-09-23T08:07:43Z</time>
      </trkpt>
      <trkpt lat="47.27177" lon="0.56023">
        <ele>71.3</ele>
        <time>2012-09-23T08:07:47Z</time>
      </trkpt>
      <trkpt lat="47.27178" lon="0.5603">
        <ele>71.9</ele>
        <time>2012-09-23T08:07:51Z</time>
      </trkpt>
      <trkpt lat="47.27181" lon="0.56039">
        <ele>72.8</ele>
        <time>2012-09-23T08:07:55Z</time>
      </trkpt>
      <trkpt lat="47.27182" lon="0.56051">
        <ele>73.7</ele>
        <time>2012-09-23T08:07:58Z</time>
      </trkpt>
      <trkpt lat="47.27182" lon="0.56053">
        <ele>74.1</ele>
        <time>2012-09-23T08:07:59Z</time>
      </trkpt>
      <trkpt lat="47.27187" lon="0.56073">
        <ele>75.9</ele>
        <time>2012-09-23T08:08:10Z</time>
      </trkpt>
      <trkpt lat="47.27191" lon="0.56083">
        <ele>76.7</ele>
        <time>2012-09-23T08:08:14Z</time>
      </trkpt>
      <trkpt lat="47.27194" lon="0.56094">
        <ele>77.7</ele>
        <time>2012-09-23T08:08:19Z</time>
      </trkpt>
      <trkpt lat="47.27198" lon="0.56103">
        <ele>78.5</ele>
        <time>2012-09-23T08:08:25Z</time>
      </trkpt>
      <trkpt lat="47.27201" lon="0.56115">
        <ele>79.5</ele>
        <time>2012-09-23T08:08:30Z</time>
      </trkpt>
      <trkpt lat="47.27204" lon="0.56128">
        <ele>80.5</ele>
        <time>2012-09-23T08:08:35Z</time>
      </trkpt>
      <trkpt lat="47.27208" lon="0.56138">
        <ele>81.4</ele>
        <time>2012-09-23T08:08:39Z</time>
      </trkpt>
      <trkpt lat="47.27212" lon="0.5615">
        <ele>82.3</ele>
        <time>2012-09-23T08:08:45Z</time>
      </trkpt>
      <trkpt lat="47.27215" lon="0.56162">
        <ele>83.2</ele>
        <time>2012-09-23T08:08:50Z</time>
      </trkpt>
      <trkpt lat="47.27217" lon="0.56175">
        <ele>83.7</ele>
        <time>2012-09-23T08:08:56Z</time>
      </trkpt>
      <trkpt lat="47.27217" lon="0.56175">
        <ele>83.7</ele>
        <time>2012-09-23T08:08:56Z</time>
      </trkpt>
      <trkpt lat="47.2721" lon="0.56181">
        <ele>83.8</ele>
        <time>2012-09-23T08:10:53Z</time>
      </trkpt>
      <trkpt lat="47.27208" lon="0.56185">
        <ele>83.9</ele>
        <time>2012-09-23T08:10:54Z</time>
      </trkpt>
      <trkpt lat="47.27197" lon="0.56188">
        <ele>83.9</ele>
        <time>2012-09-23T08:11:00Z</time>
      </trkpt>
      <trkpt lat="47.27191" lon="0.56192">
        <ele>84</ele>
        <time>2012-09-23T08:11:03Z</time>
      </trkpt>
      <trkpt lat="47.27183" lon="0.56197">
        <ele>84.1</ele>
        <time>2012-09-23T08:11:06Z</time>
      </trkpt>
      <trkpt lat="47.27175" lon="0.56202">
        <ele>84.2</ele>
        <time>2012-09-23T08:11:09Z</time>
      </trkpt>
      <trkpt lat="47.27168" lon="0.56209">
        <ele>84.5</ele>
        <time>2012-09-23T08:11:13Z</time>
      </trkpt>
      <trkpt lat="47.27161" lon="0.56214">
        <ele>84.5</ele>
        <time>2012-09-23T08:11:16Z</time>
      </trkpt>
      <trkpt lat="47.27154" lon="0.56219">
        <ele>84.5</ele>
        <time>2012-09-23T08:11:20Z</time>
      </trkpt>
      <trkpt lat="47.27146" lon="0.56224">
        <ele>84.4</ele>
        <time>2012-09-23T08:11:23Z</time>
      </trkpt>
      <trkpt lat="47.27139" lon="0.56228">
        <ele>84.3</ele>
        <time>2012-09-23T08:11:26Z</time>
      </trkpt>
      <trkpt lat="47.27131" lon="0.56232">
        <ele>84.2</ele>
        <time>2012-09-23T08:11:29Z</time>
      </trkpt>
      <trkpt lat="47.27124" lon="0.56237">
        <ele>84.1</ele>
        <time>2012-09-23T08:11:31Z</time>
      </trkpt>
      <trkpt lat="47.27116" lon="0.56238">
        <ele>83.8</ele>
        <time>2012-09-23T08:11:34Z</time>
      </trkpt>
      <trkpt lat="47.27108" lon="0.56238">
        <ele>83.6</ele>
        <time>2012-09-23T08:11:37Z</time>
      </trkpt>
      <trkpt lat="47.271" lon="0.56237">
        <ele>83.3</ele>
        <time>2012-09-23T08:11:40Z</time>
      </trkpt>
      <trkpt lat="47.27095" lon="0.56234">
        <ele>83.1</ele>
        <time>2012-09-23T08:11:42Z</time>
      </trkpt>
      <trkpt lat="47.27088" lon="0.56228">
        <ele>82.8</ele>
        <time>2012-09-23T08:11:44Z</time>
      </trkpt>
      <trkpt lat="47.27082" lon="0.56237">
        <ele>82.8</ele>
        <time>2012-09-23T08:11:48Z</time>
      </trkpt>
      <trkpt lat="47.27082" lon="0.56237">
        <ele>82.8</ele>
        <time>2012-09-23T08:11:48Z</time>
      </trkpt>
      <trkpt lat="47.27081" lon="0.56249">
        <ele>82.9</ele>
        <time>2012-09-23T08:11:51Z</time>
      </trkpt>
      <trkpt lat="47.2708" lon="0.56261">
        <ele>82.7</ele>
        <time>2012-09-23T08:11:54Z</time>
      </trkpt>
      <trkpt lat="47.2708" lon="0.56265">
        <ele>82.6</ele>
        <time>2012-09-23T08:11:55Z</time>
      </trkpt>
      <trkpt lat="47.27079" lon="0.56279">
        <ele>82.3</ele>
        <time>2012-09-23T08:11:58Z</time>
      </trkpt>
      <trkpt lat="47.27079" lon="0.5629">
        <ele>82</ele>
        <time>2012-09-23T08:12:00Z</time>
      </trkpt>
      <trkpt lat="47.2708" lon="0.563">
        <ele>81.8</ele>
        <time>2012-09-23T08:12:02Z</time>
      </trkpt>
      <trkpt lat="47.27083" lon="0.56306">
        <ele>81.6</ele>
        <time>2012-09-23T08:12:04Z</time>
      </trkpt>
      <trkpt lat="47.27088" lon="0.56314">
        <ele>81.6</ele>
        <time>2012-09-23T08:12:06Z</time>
      </trkpt>
      <trkpt lat="47.27091" lon="0.56326">
        <ele>81.4</ele>
        <time>2012-09-23T08:12:09Z</time>
      </trkpt>
      <trkpt lat="47.27092" lon="0.56336">
        <ele>81.1</ele>
        <time>2012-09-23T08:12:11Z</time>
      </trkpt>
      <trkpt lat="47.27091" lon="0.56347">
        <ele>80.6</ele>
        <time>2012-09-23T08:12:13Z</time>
      </trkpt>
      <trkpt lat="47.27091" lon="0.56357">
        <ele>80</ele>
        <time>2012-09-23T08:12:15Z</time>
      </trkpt>
      <trkpt lat="47.27091" lon="0.56367">
        <ele>79.6</ele>
        <time>2012-09-23T08:12:17Z</time>
      </trkpt>
      <trkpt lat="47.27091" lon="0.56376">
        <ele>79.1</ele>
        <time>2012-09-23T08:12:19Z</time>
      </trkpt>
      <trkpt lat="47.27093" lon="0.56386">
        <ele>78.6</ele>
        <time>2012-09-23T08:12:21Z</time>
      </trkpt>
      <trkpt lat="47.27095" lon="0.56397">
        <ele>78.1</ele>
        <time>2012-09-23T08:12:23Z</time>
      </trkpt>
      <trkpt lat="47.27096" lon="0.56407">
        <ele>77.6</ele>
        <time>2012-09-23T08:12:25Z</time>
      </trkpt>
      <trkpt lat="47.27098" lon="0.56418">
        <ele>77.1</ele>
        <time>2012-09-23T08:12:27Z</time>
      </trkpt>
      <trkpt lat="47.271" lon="0.56428">
        <ele>76.9</ele>
        <time>2012-09-23T08:12:29Z</time>
      </trkpt>
      <trkpt lat="47.27102" lon="0.5644">
        <ele>76.6</ele>
        <time>2012-09-23T08:12:31Z</time>
      </trkpt>
      <trkpt lat="47.27103" lon="0.5645">
        <ele>76.4</ele>
        <time>2012-09-23T08:12:33Z</time>
      </trkpt>
      <trkpt lat="47.27105" lon="0.56457">
        <ele>76.2</ele>
        <time>2012-09-23T08:12:34Z</time>
      </trkpt>
      <trkpt lat="47.27106" lon="0.56464">
        <ele>76.1</ele>
        <time>2012-09-23T08:12:35Z</time>
      </trkpt>
      <trkpt lat="47.27108" lon="0.56471">
        <ele>76</ele>
        <time>2012-09-23T08:12:36Z</time>
      </trkpt>
      <trkpt lat="47.27109" lon="0.56478">
        <ele>75.8</ele>
        <time>2012-09-23T08:12:37Z</time>
      </trkpt>
      <trkpt lat="47.2711" lon="0.56484">
        <ele>75.6</ele>
        <time>2012-09-23T08:12:38Z</time>
      </trkpt>
      <trkpt lat="47.27111" lon="0.56492">
        <ele>75.5</ele>
        <time>2012-09-23T08:12:39Z</time>
      </trkpt>
      <trkpt lat="47.27112" lon="0.56499">
        <ele>75.3</ele>
        <time>2012-09-23T08:12:40Z</time>
      </trkpt>
      <trkpt lat="47.27114" lon="0.56506">
        <ele>75.1</ele>
        <time>2012-09-23T08:12:41Z</time>
      </trkpt>
      <trkpt lat="47.27115" lon="0.56512">
        <ele>74.9</ele>
        <time>2012-09-23T08:12:42Z</time>
      </trkpt>
      <trkpt lat="47.27116" lon="0.56519">
        <ele>74.7</ele>
        <time>2012-09-23T08:12:43Z</time>
      </trkpt>
      <trkpt lat="47.27117" lon="0.56525">
        <ele>74.5</ele>
        <time>2012-09-23T08:12:44Z</time>
      </trkpt>
      <trkpt lat="47.27118" lon="0.56532">
        <ele>74.2</ele>
        <time>2012-09-23T08:12:45Z</time>
      </trkpt>
      <trkpt lat="47.27119" lon="0.56539">
        <ele>74</ele>
        <time>2012-09-23T08:12:46Z</time>
      </trkpt>
      <trkpt lat="47.2712" lon="0.56547">
        <ele>73.7</ele>
        <time>2012-09-23T08:12:47Z</time>
      </trkpt>
      <trkpt lat="47.27121" lon="0.56554">
        <ele>73.5</ele>
        <time>2012-09-23T08:12:48Z</time>
      </trkpt>
      <trkpt lat="47.27122" lon="0.56562">
        <ele>73.2</ele>
        <time>2012-09-23T08:12:49Z</time>
      </trkpt>
      <trkpt lat="47.27123" lon="0.5657">
        <ele>72.9</ele>
        <time>2012-09-23T08:12:50Z</time>
      </trkpt>
      <trkpt lat="47.27124" lon="0.56578">
        <ele>72.6</ele>
        <time>2012-09-23T08:12:51Z</time>
      </trkpt>
      <trkpt lat="47.27125" lon="0.56587">
        <ele>72.2</ele>
        <time>2012-09-23T08:12:52Z</time>
      </trkpt>
      <trkpt lat="47.27125" lon="0.56596">
        <ele>71.8</ele>
        <time>2012-09-23T08:12:53Z</time>
      </trkpt>
      <trkpt lat="47.27125" lon="0.56605">
        <ele>71.3</ele>
        <time>2012-09-23T08:12:54Z</time>
      </trkpt>
      <trkpt lat="47.27125" lon="0.56614">
        <ele>70.8</ele>
        <time>2012-09-23T08:12:55Z</time>
      </trkpt>
      <trkpt lat="47.27125" lon="0.56624">
        <ele>70.3</ele>
        <time>2012-09-23T08:12:56Z</time>
      </trkpt>
      <trkpt lat="47.27125" lon="0.56633">
        <ele>69.8</ele>
        <time>2012-09-23T08:12:57Z</time>
      </trkpt>
      <trkpt lat="47.27125" lon="0.56641">
        <ele>69.4</ele>
        <time>2012-09-23T08:12:58Z</time>
      </trkpt>
      <trkpt lat="47.27126" lon="0.56653">
        <ele>68.8</ele>
        <time>2012-09-23T08:13:00Z</time>
      </trkpt>
      <trkpt lat="47.27304" lon="0.56627">
        <ele>78.4</ele>
        <time>2012-09-23T08:13:54Z</time>
      </trkpt>
      <trkpt lat="47.27312" lon="0.5663">
        <ele>78.5</ele>
        <time>2012-09-23T08:13:56Z</time>
      </trkpt>
      <trkpt lat="47.27315" lon="0.56632">
        <ele>78.6</ele>
        <time>2012-09-23T08:13:57Z</time>
      </trkpt>
      <trkpt lat="47.27321" lon="0.56647">
        <ele>78.7</ele>
        <time>2012-09-23T08:14:02Z</time>
      </trkpt>
      <trkpt lat="47.27321" lon="0.56657">
        <ele>78.7</ele>
        <time>2012-09-23T08:14:05Z</time>
      </trkpt>
      <trkpt lat="47.27325" lon="0.56669">
        <ele>78.7</ele>
        <time>2012-09-23T08:14:10Z</time>
      </trkpt>
      <trkpt lat="47.27326" lon="0.56679">
        <ele>78.5</ele>
        <time>2012-09-23T08:22:40Z</time>
      </trkpt>
      <trkpt lat="47.27327" lon="0.56682">
        <ele>78.4</ele>
        <time>2012-09-23T08:22:41Z</time>
      </trkpt>
      <trkpt lat="47.27331" lon="0.56699">
        <ele>78.1</ele>
        <time>2012-09-23T08:22:46Z</time>
      </trkpt>
      <trkpt lat="47.27327" lon="0.56709">
        <ele>77.7</ele>
        <time>2012-09-23T08:22:49Z</time>
      </trkpt>
      <trkpt lat="47.27048" lon="0.5685">
        <ele>74.1</ele>
        <time>2012-09-23T08:25:34Z</time>
      </trkpt>
      <trkpt lat="47.27041" lon="0.56852">
        <ele>73.3</ele>
        <time>2012-09-23T08:25:37Z</time>
      </trkpt>
      <trkpt lat="47.27033" lon="0.56856">
        <ele>72.4</ele>
        <time>2012-09-23T08:25:39Z</time>
      </trkpt>
      <trkpt lat="47.27029" lon="0.56859">
        <ele>72</ele>
        <time>2012-09-23T08:25:40Z</time>
      </trkpt>
      <trkpt lat="47.27025" lon="0.56862">
        <ele>71.5</ele>
        <time>2012-09-23T08:25:41Z</time>
      </trkpt>
      <trkpt lat="47.2702" lon="0.56865">
        <ele>70.9</ele>
        <time>2012-09-23T08:25:42Z</time>
      </trkpt>
      <trkpt lat="47.27015" lon="0.56868">
        <ele>70.4</ele>
        <time>2012-09-23T08:25:43Z</time>
      </trkpt>
      <trkpt lat="47.27009" lon="0.56872">
        <ele>69.7</ele>
        <time>2012-09-23T08:25:44Z</time>
      </trkpt>
      <trkpt lat="47.27004" lon="0.56877">
        <ele>69</ele>
        <time>2012-09-23T08:25:45Z</time>
      </trkpt>
      <trkpt lat="47.27" lon="0.5688">
        <ele>68.5</ele>
        <time>2012-09-23T08:25:46Z</time>
      </trkpt>
      <trkpt lat="47.26996" lon="0.56883">
        <ele>68.2</ele>
        <time>2012-09-23T08:25:47Z</time>
      </trkpt>
      <trkpt lat="47.2699" lon="0.56887">
        <ele>67.7</ele>
        <time>2012-09-23T08:25:48Z</time>
      </trkpt>
      <trkpt lat="47.26985" lon="0.5689">
        <ele>67.3</ele>
        <time>2012-09-23T08:25:49Z</time>
      </trkpt>
      <trkpt lat="47.26979" lon="0.56893">
        <ele>66.8</ele>
        <time>2012-09-23T08:25:51Z</time>
      </trkpt>
      <trkpt lat="47.26972" lon="0.56896">
        <ele>66.2</ele>
        <time>2012-09-23T08:26:00Z</time>
      </trkpt>
      <trkpt lat="47.26967" lon="0.56905">
        <ele>65.7</ele>
        <time>2012-09-23T08:26:03Z</time>
      </trkpt>
      <trkpt lat="47.26965" lon="0.56915">
        <ele>65.5</ele>
        <time>2012-09-23T08:26:05Z</time>
      </trkpt>
      <trkpt lat="47.26962" lon="0.56927">
        <ele>65.1</ele>
        <time>2012-09-23T08:26:07Z</time>
      </trkpt>
      <trkpt lat="47.26961" lon="0.56934">
        <ele>64.8</ele>
        <time>2012-09-23T08:26:08Z</time>
      </trkpt>
      <trkpt lat="47.2696" lon="0.56941">
        <ele>64.5</ele>
        <time>2012-09-23T08:26:09Z</time>
      </trkpt>
      <trkpt lat="47.26958" lon="0.56948">
        <ele>64.2</ele>
        <time>2012-09-23T08:26:10Z</time>
      </trkpt>
      <trkpt lat="47.26957" lon="0.56955">
        <ele>63.9</ele>
        <time>2012-09-23T08:26:11Z</time>
      </trkpt>
      <trkpt lat="47.26954" lon="0.56962">
        <ele>63.6</ele>
        <time>2012-09-23T08:26:12Z</time>
      </trkpt>
      <trkpt lat="47.26952" lon="0.56971">
        <ele>63.1</ele>
        <time>2012-09-23T08:26:13Z</time>
      </trkpt>
      <trkpt lat="47.26949" lon="0.56978">
        <ele>62.8</ele>
        <time>2012-09-23T08:26:14Z</time>
      </trkpt>
      <trkpt lat="47.26947" lon="0.56984">
        <ele>62.5</ele>
        <time>2012-09-23T08:26:15Z</time>
      </trkpt>
      <trkpt lat="47.26943" lon="0.5699">
        <ele>62.1</ele>
        <time>2012-09-23T08:26:16Z</time>
      </trkpt>
      <trkpt lat="47.26941" lon="0.56996">
        <ele>61.8</ele>
        <time>2012-09-23T08:26:17Z</time>
      </trkpt>
      <trkpt lat="47.26935" lon="0.57006">
        <ele>61.2</ele>
        <time>2012-09-23T08:26:19Z</time>
      </trkpt>
      <trkpt lat="47.26931" lon="0.57011">
        <ele>60.8</ele>
        <time>2012-09-23T08:26:20Z</time>
      </trkpt>
      <trkpt lat="47.26926" lon="0.57017">
        <ele>60.2</ele>
        <time>2012-09-23T08:26:21Z</time>
      </trkpt>
      <trkpt lat="47.26922" lon="0.57021">
        <ele>59.8</ele>
        <time>2012-09-23T08:26:22Z</time>
      </trkpt>
      <trkpt lat="47.26918" lon="0.57026">
        <ele>59.4</ele>
        <time>2012-09-23T08:26:23Z</time>
      </trkpt>
      <trkpt lat="47.26913" lon="0.57031">
        <ele>59.1</ele>
        <time>2012-09-23T08:26:24Z</time>
      </trkpt>
      <trkpt lat="47.26909" lon="0.57034">
        <ele>58.9</ele>
        <time>2012-09-23T08:26:25Z</time>
      </trkpt>
      <trkpt lat="47.26905" lon="0.57039">
        <ele>58.7</ele>
        <time>2012-09-23T08:26:26Z</time>
      </trkpt>
      <trkpt lat="47.269" lon="0.57043">
        <ele>58.4</ele>
        <time>2012-09-23T08:26:27Z</time>
      </trkpt>
      <trkpt lat="47.26895" lon="0.57047">
        <ele>58.2</ele>
        <time>2012-09-23T08:26:28Z</time>
      </trkpt>
      <trkpt lat="47.2689" lon="0.57051">
        <ele>58</ele>
        <time>2012-09-23T08:26:29Z</time>
      </trkpt>
      <trkpt lat="47.26885" lon="0.57055">
        <ele>57.7</ele>
        <time>2012-09-23T08:26:30Z</time>
      </trkpt>
      <trkpt lat="47.2688" lon="0.57059">
        <ele>57.5</ele>
        <time>2012-09-23T08:26:31Z</time>
      </trkpt>
      <trkpt lat="47.26876" lon="0.57063">
        <ele>57.3</ele>
        <time>2012-09-23T08:26:32Z</time>
      </trkpt>
      <trkpt lat="47.26872" lon="0.57067">
        <ele>57.2</ele>
        <time>2012-09-23T08:26:33Z</time>
      </trkpt>
      <trkpt lat="47.26868" lon="0.57072">
        <ele>57</ele>
        <time>2012-09-23T08:26:34Z</time>
      </trkpt>
      <trkpt lat="47.26863" lon="0.5708">
        <ele>56.7</ele>
        <time>2012-09-23T08:26:35Z</time>
      </trkpt>
      <trkpt lat="47.26859" lon="0.57085">
        <ele>56.6</ele>
        <time>2012-09-23T08:26:36Z</time>
      </trkpt>
      <trkpt lat="47.26855" lon="0.57092">
        <ele>56.5</ele>
        <time>2012-09-23T08:26:37Z</time>
      </trkpt>
      <trkpt lat="47.26852" lon="0.57099">
        <ele>56.4</ele>
        <time>2012-09-23T08:26:38Z</time>
      </trkpt>
      <trkpt lat="47.26849" lon="0.57106">
        <ele>56.3</ele>
        <time>2012-09-23T08:26:39Z</time>
      </trkpt>
      <trkpt lat="47.26846" lon="0.57114">
        <ele>56.2</ele>
        <time>2012-09-23T08:26:40Z</time>
      </trkpt>
      <trkpt lat="47.26843" lon="0.57123">
        <ele>56.2</ele>
        <time>2012-09-23T08:26:41Z</time>
      </trkpt>
      <trkpt lat="47.26841" lon="0.57131">
        <ele>56.1</ele>
        <time>2012-09-23T08:26:42Z</time>
      </trkpt>
      <trkpt lat="47.26838" lon="0.57139">
        <ele>56.1</ele>
        <time>2012-09-23T08:26:43Z</time>
      </trkpt>
      <trkpt lat="47.26835" lon="0.57149">
        <ele>56</ele>
        <time>2012-09-23T08:26:44Z</time>
      </trkpt>
      <trkpt lat="47.26833" lon="0.57158">
        <ele>55.9</ele>
        <time>2012-09-23T08:26:45Z</time>
      </trkpt>
      <trkpt lat="47.26831" lon="0.57167">
        <ele>55.8</ele>
        <time>2012-09-23T08:26:46Z</time>
      </trkpt>
      <trkpt lat="47.26829" lon="0.57176">
        <ele>55.8</ele>
        <time>2012-09-23T08:26:47Z</time>
      </trkpt>
      <trkpt lat="47.26827" lon="0.57185">
        <ele>55.7</ele>
        <time>2012-09-23T08:26:48Z</time>
      </trkpt>
      <trkpt lat="47.26826" lon="0.57194">
        <ele>55.6</ele>
        <time>2012-09-23T08:26:49Z</time>
      </trkpt>
      <trkpt lat="47.26824" lon="0.57204">
        <ele>55.6</ele>
        <time>2012-09-23T08:26:50Z</time>
      </trkpt>
      <trkpt lat="47.26823" lon="0.57215">
        <ele>55.5</ele>
        <time>2012-09-23T08:26:51Z</time>
      </trkpt>
      <trkpt lat="47.26822" lon="0.57224">
        <ele>55.5</ele>
        <time>2012-09-23T08:26:52Z</time>
      </trkpt>
      <trkpt lat="47.26821" lon="0.57234">
        <ele>55.5</ele>
        <time>2012-09-23T08:26:53Z</time>
      </trkpt>
      <trkpt lat="47.26821" lon="0.57244">
        <ele>55.5</ele>
        <time>2012-09-23T08:26:54Z</time>
      </trkpt>
      <trkpt lat="47.2682" lon="0.57256">
        <ele>55.4</ele>
        <time>2012-09-23T08:26:55Z</time>
      </trkpt>
      <trkpt lat="47.26819" lon="0.57267">
        <ele>55.4</ele>
        <time>2012-09-23T08:26:56Z</time>
      </trkpt>
      <trkpt lat="47.26818" lon="0.57279">
        <ele>55.3</ele>
        <time>2012-09-23T08:26:57Z</time>
      </trkpt>
      <trkpt lat="47.26818" lon="0.5729">
        <ele>55.3</ele>
        <time>2012-09-23T08:26:58Z</time>
      </trkpt>
      <trkpt lat="47.26818" lon="0.57301">
        <ele>55.3</ele>
        <time>2012-09-23T08:26:59Z</time>
      </trkpt>
      <trkpt lat="47.26818" lon="0.57311">
        <ele>55.3</ele>
        <time>2012-09-23T08:27:00Z</time>
      </trkpt>
      <trkpt lat="47.26818" lon="0.57321">
        <ele>55.2</ele>
        <time>2012-09-23T08:27:01Z</time>
      </trkpt>
      <trkpt lat="47.26818" lon="0.57331">
        <ele>55.2</ele>
        <time>2012-09-23T08:27:02Z</time>
      </trkpt>
      <trkpt lat="47.26818" lon="0.57342">
        <ele>55.2</ele>
        <time>2012-09-23T08:27:03Z</time>
      </trkpt>
      <trkpt lat="47.26819" lon="0.57353">
        <ele>55.2</ele>
        <time>2012-09-23T08:27:04Z</time>
      </trkpt>
      <trkpt lat="47.26819" lon="0.57364">
        <ele>55.2</ele>
        <time>2012-09-23T08:27:05Z</time>
      </trkpt>
      <trkpt lat="47.2682" lon="0.57375">
        <ele>55.2</ele>
        <time>2012-09-23T08:27:06Z</time>
      </trkpt>
      <trkpt lat="47.26821" lon="0.57385">
        <ele>55.2</ele>
        <time>2012-09-23T08:27:07Z</time>
      </trkpt>
      <trkpt lat="47.26822" lon="0.57395">
        <ele>55.3</ele>
        <time>2012-09-23T08:27:08Z</time>
      </trkpt>
      <trkpt lat="47.26823" lon="0.57405">
        <ele>55.3</ele>
        <time>2012-09-23T08:27:09Z</time>
      </trkpt>
      <trkpt lat="47.26824" lon="0.57417">
        <ele>55.4</ele>
        <time>2012-09-23T08:27:10Z</time>
      </trkpt>
      <trkpt lat="47.26825" lon="0.57427">
        <ele>55.7</ele>
        <time>2012-09-23T08:27:11Z</time>
      </trkpt>
      <trkpt lat="47.26827" lon="0.57438">
        <ele>56</ele>
        <time>2012-09-23T08:27:12Z</time>
      </trkpt>
      <trkpt lat="47.26828" lon="0.57447">
        <ele>56.3</ele>
        <time>2012-09-23T08:27:13Z</time>
      </trkpt>
      <trkpt lat="47.26828" lon="0.57457">
        <ele>56.5</ele>
        <time>2012-09-23T08:27:14Z</time>
      </trkpt>
      <trkpt lat="47.26829" lon="0.57465">
        <ele>56.8</ele>
        <time>2012-09-23T08:27:15Z</time>
      </trkpt>
      <trkpt lat="47.26831" lon="0.57474">
        <ele>57.1</ele>
        <time>2012-09-23T08:27:16Z</time>
      </trkpt>
      <trkpt lat="47.26832" lon="0.57485">
        <ele>57.5</ele>
        <time>2012-09-23T08:27:17Z</time>
      </trkpt>
      <trkpt lat="47.26834" lon="0.57493">
        <ele>57.8</ele>
        <time>2012-09-23T08:27:18Z</time>
      </trkpt>
      <trkpt lat="47.26835" lon="0.57499">
        <ele>58</ele>
        <time>2012-09-23T08:27:19Z</time>
      </trkpt>
      <trkpt lat="47.26836" lon="0.57508">
        <ele>58</ele>
        <time>2012-09-23T08:27:20Z</time>
      </trkpt>
      <trkpt lat="47.26837" lon="0.57515">
        <ele>58</ele>
        <time>2012-09-23T08:27:21Z</time>
      </trkpt>
      <trkpt lat="47.26838" lon="0.57524">
        <ele>58.1</ele>
        <time>2012-09-23T08:27:22Z</time>
      </trkpt>
      <trkpt lat="47.2684" lon="0.57532">
        <ele>58.1</ele>
        <time>2012-09-23T08:27:23Z</time>
      </trkpt>
      <trkpt lat="47.26842" lon="0.57542">
        <ele>58.2</ele>
        <time>2012-09-23T08:27:24Z</time>
      </trkpt>
      <trkpt lat="47.26843" lon="0.57551">
        <ele>58.3</ele>
        <time>2012-09-23T08:27:25Z</time>
      </trkpt>
      <trkpt lat="47.26845" lon="0.57558">
        <ele>58.3</ele>
        <time>2012-09-23T08:27:26Z</time>
      </trkpt>
      <trkpt lat="47.26846" lon="0.57565">
        <ele>58.4</ele>
        <time>2012-09-23T08:27:27Z</time>
      </trkpt>
      <trkpt lat="47.26847" lon="0.57572">
        <ele>58.4</ele>
        <time>2012-09-23T08:27:28Z</time>
      </trkpt>
      <trkpt lat="47.26849" lon="0.5758">
        <ele>58.5</ele>
        <time>2012-09-23T08:27:29Z</time>
      </trkpt>
      <trkpt lat="47.26851" lon="0.57589">
        <ele>58.5</ele>
        <time>2012-09-23T08:27:30Z</time>
      </trkpt>
      <trkpt lat="47.26853" lon="0.57596">
        <ele>58.4</ele>
        <time>2012-09-23T08:27:31Z</time>
      </trkpt>
      <trkpt lat="47.26854" lon="0.57603">
        <ele>58.2</ele>
        <time>2012-09-23T08:27:32Z</time>
      </trkpt>
      <trkpt lat="47.26855" lon="0.5761">
        <ele>58.1</ele>
        <time>2012-09-23T08:27:33Z</time>
      </trkpt>
      <trkpt lat="47.26856" lon="0.57618">
        <ele>58</ele>
        <time>2012-09-23T08:27:34Z</time>
      </trkpt>
      <trkpt lat="47.26858" lon="0.57628">
        <ele>57.8</ele>
        <time>2012-09-23T08:27:36Z</time>
      </trkpt>
      <trkpt lat="47.26977" lon="0.5746">
        <ele>62.1</ele>
        <time>2012-09-23T08:28:37Z</time>
      </trkpt>
      <trkpt lat="47.26983" lon="0.57455">
        <ele>62.4</ele>
        <time>2012-09-23T08:28:40Z</time>
      </trkpt>
      <trkpt lat="47.26991" lon="0.57453">
        <ele>62.6</ele>
        <time>2012-09-23T08:28:43Z</time>
      </trkpt>
      <trkpt lat="47.26999" lon="0.57451">
        <ele>62.9</ele>
        <time>2012-09-23T08:28:47Z</time>
      </trkpt>
      <trkpt lat="47.27006" lon="0.57449">
        <ele>63.3</ele>
        <time>2012-09-23T08:28:51Z</time>
      </trkpt>
      <trkpt lat="47.27008" lon="0.57448">
        <ele>63.4</ele>
        <time>2012-09-23T08:28:52Z</time>
      </trkpt>
      <trkpt lat="47.27022" lon="0.57445">
        <ele>64.1</ele>
        <time>2012-09-23T08:29:02Z</time>
      </trkpt>
      <trkpt lat="47.27031" lon="0.57446">
        <ele>64.6</ele>
        <time>2012-09-23T08:29:07Z</time>
      </trkpt>
      <trkpt lat="47.27039" lon="0.57444">
        <ele>65</ele>
        <time>2012-09-23T08:29:12Z</time>
      </trkpt>
      <trkpt lat="47.27046" lon="0.57443">
        <ele>65.4</ele>
        <time>2012-09-23T08:29:16Z</time>
      </trkpt>
      <trkpt lat="47.27054" lon="0.57441">
        <ele>65.8</ele>
        <time>2012-09-23T08:29:21Z</time>
      </trkpt>
      <trkpt lat="47.27063" lon="0.5744">
        <ele>66.3</ele>
        <time>2012-09-23T08:29:25Z</time>
      </trkpt>
      <trkpt lat="47.27071" lon="0.57439">
        <ele>66.8</ele>
        <time>2012-09-23T08:29:30Z</time>
      </trkpt>
      <trkpt lat="47.27079" lon="0.57438">
        <ele>67.2</ele>
        <time>2012-09-23T08:29:35Z</time>
      </trkpt>
      <trkpt lat="47.27087" lon="0.57436">
        <ele>67.6</ele>
        <time>2012-09-23T08:29:38Z</time>
      </trkpt>
      <trkpt lat="47.27094" lon="0.57435">
        <ele>68.1</ele>
        <time>2012-09-23T08:29:42Z</time>
      </trkpt>
      <trkpt lat="47.27102" lon="0.57434">
        <ele>68.5</ele>
        <time>2012-09-23T08:29:46Z</time>
      </trkpt>
      <trkpt lat="47.2711" lon="0.57432">
        <ele>68.9</ele>
        <time>2012-09-23T08:29:50Z</time>
      </trkpt>
      <trkpt lat="47.27118" lon="0.5743">
        <ele>69.4</ele>
        <time>2012-09-23T08:29:54Z</time>
      </trkpt>
      <trkpt lat="47.2712" lon="0.5743">
        <ele>69.5</ele>
        <time>2012-09-23T08:29:55Z</time>
      </trkpt>
      <trkpt lat="47.27133" lon="0.57428">
        <ele>70.1</ele>
        <time>2012-09-23T08:30:02Z</time>
      </trkpt>
      <trkpt lat="47.27139" lon="0.57428">
        <ele>70.5</ele>
        <time>2012-09-23T08:30:05Z</time>
      </trkpt>
      <trkpt lat="47.27147" lon="0.57427">
        <ele>70.8</ele>
        <time>2012-09-23T08:30:09Z</time>
      </trkpt>
      <trkpt lat="47.27155" lon="0.57425">
        <ele>71.3</ele>
        <time>2012-09-23T08:30:13Z</time>
      </trkpt>
      <trkpt lat="47.27164" lon="0.57423">
        <ele>71.7</ele>
        <time>2012-09-23T08:30:17Z</time>
      </trkpt>
      <trkpt lat="47.27171" lon="0.57421">
        <ele>72.1</ele>
        <time>2012-09-23T08:30:21Z</time>
      </trkpt>
      <trkpt lat="47.27178" lon="0.57419">
        <ele>72.5</ele>
        <time>2012-09-23T08:30:25Z</time>
      </trkpt>
      <trkpt lat="47.27186" lon="0.57417">
        <ele>72.9</ele>
        <time>2012-09-23T08:30:28Z</time>
      </trkpt>
      <trkpt lat="47.27194" lon="0.57416">
        <ele>73.3</ele>
        <time>2012-09-23T08:30:33Z</time>
      </trkpt>
      <trkpt lat="47.27203" lon="0.57415">
        <ele>73.8</ele>
        <time>2012-09-23T08:30:38Z</time>
      </trkpt>
      <trkpt lat="47.27211" lon="0.57414">
        <ele>74.1</ele>
        <time>2012-09-23T08:30:41Z</time>
      </trkpt>
      <trkpt lat="47.27218" lon="0.57415">
        <ele>74.4</ele>
        <time>2012-09-23T08:30:45Z</time>
      </trkpt>
      <trkpt lat="47.27226" lon="0.57412">
        <ele>74.9</ele>
        <time>2012-09-23T08:30:49Z</time>
      </trkpt>
      <trkpt lat="47.27234" lon="0.57411">
        <ele>75.3</ele>
        <time>2012-09-23T08:30:54Z</time>
      </trkpt>
      <trkpt lat="47.27241" lon="0.5741">
        <ele>75.6</ele>
        <time>2012-09-23T08:30:58Z</time>
      </trkpt>
      <trkpt lat="47.27243" lon="0.57409">
        <ele>75.7</ele>
        <time>2012-09-23T08:30:59Z</time>
      </trkpt>
      <trkpt lat="47.27257" lon="0.57407">
        <ele>76.4</ele>
        <time>2012-09-23T08:31:06Z</time>
      </trkpt>
      <trkpt lat="47.27265" lon="0.57405">
        <ele>76.7</ele>
        <time>2012-09-23T08:31:10Z</time>
      </trkpt>
      <trkpt lat="47.27273" lon="0.57404">
        <ele>77</ele>
        <time>2012-09-23T08:31:14Z</time>
      </trkpt>
      <trkpt lat="47.27281" lon="0.57402">
        <ele>77.3</ele>
        <time>2012-09-23T08:31:19Z</time>
      </trkpt>
      <trkpt lat="47.2729" lon="0.57402">
        <ele>77.7</ele>
        <time>2012-09-23T08:31:23Z</time>
      </trkpt>
      <trkpt lat="47.27297" lon="0.57401">
        <ele>78</ele>
        <time>2012-09-23T08:31:27Z</time>
      </trkpt>
      <trkpt lat="47.27306" lon="0.574">
        <ele>78.3</ele>
        <time>2012-09-23T08:31:31Z</time>
      </trkpt>
      <trkpt lat="47.27313" lon="0.57398">
        <ele>78.6</ele>
        <time>2012-09-23T08:31:34Z</time>
      </trkpt>
      <trkpt lat="47.27322" lon="0.57396">
        <ele>79</ele>
        <time>2012-09-23T08:31:39Z</time>
      </trkpt>
      <trkpt lat="47.27329" lon="0.57395">
        <ele>79.3</ele>
        <time>2012-09-23T08:31:43Z</time>
      </trkpt>
      <trkpt lat="47.27336" lon="0.57393">
        <ele>79.7</ele>
        <time>2012-09-23T08:31:46Z</time>
      </trkpt>
      <trkpt lat="47.27344" lon="0.57391">
        <ele>80</ele>
        <time>2012-09-23T08:31:50Z</time>
      </trkpt>
      <trkpt lat="47.27352" lon="0.57391">
        <ele>80.4</ele>
        <time>2012-09-23T08:31:55Z</time>
      </trkpt>
      <trkpt lat="47.2736" lon="0.5739">
        <ele>80.7</ele>
        <time>2012-09-23T08:31:59Z</time>
      </trkpt>
      <trkpt lat="47.27363" lon="0.5739">
        <ele>80.8</ele>
        <time>2012-09-23T08:32:00Z</time>
      </trkpt>
      <trkpt lat="47.27375" lon="0.57385">
        <ele>81.3</ele>
        <time>2012-09-23T08:32:06Z</time>
      </trkpt>
      <trkpt lat="47.27383" lon="0.57383">
        <ele>81.7</ele>
        <time>2012-09-23T08:32:10Z</time>
      </trkpt>
      <trkpt lat="47.2739" lon="0.57381">
        <ele>81.9</ele>
        <time>2012-09-23T08:32:13Z</time>
      </trkpt>
      <trkpt lat="47.27398" lon="0.57381">
        <ele>82.3</ele>
        <time>2012-09-23T08:32:16Z</time>
      </trkpt>
      <trkpt lat="47.27405" lon="0.57381">
        <ele>82.5</ele>
        <time>2012-09-23T08:32:19Z</time>
      </trkpt>
      <trkpt lat="47.27413" lon="0.57379">
        <ele>82.8</ele>
        <time>2012-09-23T08:32:23Z</time>
      </trkpt>
      <trkpt lat="47.27422" lon="0.57377">
        <ele>83.2</ele>
        <time>2012-09-23T08:32:26Z</time>
      </trkpt>
      <trkpt lat="47.2743" lon="0.57374">
        <ele>83.5</ele>
        <time>2012-09-23T08:32:30Z</time>
      </trkpt>
      <trkpt lat="47.27438" lon="0.57374">
        <ele>83.9</ele>
        <time>2012-09-23T08:32:34Z</time>
      </trkpt>
      <trkpt lat="47.27445" lon="0.57372">
        <ele>84.1</ele>
        <time>2012-09-23T08:32:37Z</time>
      </trkpt>
      <trkpt lat="47.27452" lon="0.57371">
        <ele>84.4</ele>
        <time>2012-09-23T08:32:40Z</time>
      </trkpt>
      <trkpt lat="47.27459" lon="0.5737">
        <ele>84.7</ele>
        <time>2012-09-23T08:32:43Z</time>
      </trkpt>
      <trkpt lat="47.27466" lon="0.57369">
        <ele>85</ele>
        <time>2012-09-23T08:32:46Z</time>
      </trkpt>
      <trkpt lat="47.27475" lon="0.57368">
        <ele>85.4</ele>
        <time>2012-09-23T08:32:50Z</time>
      </trkpt>
      <trkpt lat="47.27483" lon="0.57367">
        <ele>85.7</ele>
        <time>2012-09-23T08:32:53Z</time>
      </trkpt>
      <trkpt lat="47.2749" lon="0.57367">
        <ele>85.9</ele>
        <time>2012-09-23T08:32:56Z</time>
      </trkpt>
      <trkpt lat="47.27497" lon="0.57366">
        <ele>86.2</ele>
        <time>2012-09-23T08:32:59Z</time>
      </trkpt>
      <trkpt lat="47.27505" lon="0.57365">
        <ele>86.5</ele>
        <time>2012-09-23T08:33:02Z</time>
      </trkpt>
      <trkpt lat="47.27507" lon="0.57364">
        <ele>86.6</ele>
        <time>2012-09-23T08:33:03Z</time>
      </trkpt>
      <trkpt lat="47.27521" lon="0.57362">
        <ele>87.1</ele>
        <time>2012-09-23T08:33:09Z</time>
      </trkpt>
      <trkpt lat="47.27528" lon="0.5736">
        <ele>87.4</ele>
        <time>2012-09-23T08:33:12Z</time>
      </trkpt>
      <trkpt lat="47.27535" lon="0.57359">
        <ele>87.6</ele>
        <time>2012-09-23T08:33:15Z</time>
      </trkpt>
      <trkpt lat="47.27541" lon="0.57358">
        <ele>87.8</ele>
        <time>2012-09-23T08:33:18Z</time>
      </trkpt>
      <trkpt lat="47.27549" lon="0.57357">
        <ele>88.1</ele>
        <time>2012-09-23T08:33:21Z</time>
      </trkpt>
      <trkpt lat="47.27556" lon="0.57356">
        <ele>88.3</ele>
        <time>2012-09-23T08:33:24Z</time>
      </trkpt>
      <trkpt lat="47.27564" lon="0.57354">
        <ele>88.5</ele>
        <time>2012-09-23T08:33:27Z</time>
      </trkpt>
      <trkpt lat="47.27573" lon="0.57352">
        <ele>88.7</ele>
        <time>2012-09-23T08:33:30Z</time>
      </trkpt>
      <trkpt lat="47.2758" lon="0.5735">
        <ele>88.8</ele>
        <time>2012-09-23T08:33:33Z</time>
      </trkpt>
      <trkpt lat="47.27587" lon="0.5735">
        <ele>89</ele>
        <time>2012-09-23T08:33:36Z</time>
      </trkpt>
      <trkpt lat="47.27594" lon="0.57349">
        <ele>89.1</ele>
        <time>2012-09-23T08:33:39Z</time>
      </trkpt>
      <trkpt lat="47.27601" lon="0.57348">
        <ele>89.2</ele>
        <time>2012-09-23T08:33:42Z</time>
      </trkpt>
      <trkpt lat="47.27608" lon="0.57347">
        <ele>89.3</ele>
        <time>2012-09-23T08:33:45Z</time>
      </trkpt>
      <trkpt lat="47.27616" lon="0.57346">
        <ele>89.4</ele>
        <time>2012-09-23T08:33:48Z</time>
      </trkpt>
      <trkpt lat="47.27624" lon="0.57345">
        <ele>89.5</ele>
        <time>2012-09-23T08:33:51Z</time>
      </trkpt>
      <trkpt lat="47.27631" lon="0.57343">
        <ele>89.6</ele>
        <time>2012-09-23T08:33:54Z</time>
      </trkpt>
      <trkpt lat="47.27639" lon="0.57343">
        <ele>89.8</ele>
        <time>2012-09-23T08:33:57Z</time>
      </trkpt>
      <trkpt lat="47.27647" lon="0.57342">
        <ele>89.9</ele>
        <time>2012-09-23T08:34:00Z</time>
      </trkpt>
      <trkpt lat="47.27655" lon="0.57341">
        <ele>90</ele>
        <time>2012-09-23T08:34:04Z</time>
      </trkpt>
      <trkpt lat="47.27657" lon="0.57341">
        <ele>90.1</ele>
        <time>2012-09-23T08:34:05Z</time>
      </trkpt>
      <trkpt lat="47.27657" lon="0.57341">
        <ele>90.1</ele>
        <time>2012-09-23T08:34:05Z</time>
      </trkpt>
      <trkpt lat="47.27657" lon="0.57363">
        <ele>91.2</ele>
        <time>2012-09-23T08:34:15Z</time>
      </trkpt>
      <trkpt lat="47.27654" lon="0.57376">
        <ele>91.7</ele>
        <time>2012-09-23T08:34:20Z</time>
      </trkpt>
      <trkpt lat="47.27651" lon="0.57386">
        <ele>92.2</ele>
        <time>2012-09-23T08:34:23Z</time>
      </trkpt>
      <trkpt lat="47.27648" lon="0.57399">
        <ele>92.8</ele>
        <time>2012-09-23T08:34:27Z</time>
      </trkpt>
      <trkpt lat="47.27646" lon="0.57411">
        <ele>93.4</ele>
        <time>2012-09-23T08:34:31Z</time>
      </trkpt>
      <trkpt lat="47.27643" lon="0.5742">
        <ele>93.7</ele>
        <time>2012-09-23T08:34:34Z</time>
      </trkpt>
      <trkpt lat="47.27641" lon="0.57432">
        <ele>93.8</ele>
        <time>2012-09-23T08:34:38Z</time>
      </trkpt>
      <trkpt lat="47.27639" lon="0.57442">
        <ele>93.9</ele>
        <time>2012-09-23T08:34:41Z</time>
      </trkpt>
      <trkpt lat="47.27636" lon="0.57452">
        <ele>94</ele>
        <time>2012-09-23T08:34:44Z</time>
      </trkpt>
      <trkpt lat="47.27634" lon="0.57464">
        <ele>94.1</ele>
        <time>2012-09-23T08:34:48Z</time>
      </trkpt>
      <trkpt lat="47.27631" lon="0.57475">
        <ele>94.2</ele>
        <time>2012-09-23T08:34:52Z</time>
      </trkpt>
      <trkpt lat="47.2763" lon="0.57487">
        <ele>94.3</ele>
        <time>2012-09-23T08:34:57Z</time>
      </trkpt>
      <trkpt lat="47.27628" lon="0.57498">
        <ele>94.5</ele>
        <time>2012-09-23T08:36:57Z</time>
      </trkpt>
      <trkpt lat="47.27628" lon="0.57501">
        <ele>94.5</ele>
        <time>2012-09-23T08:36:58Z</time>
      </trkpt>
      <trkpt lat="47.27626" lon="0.57523">
        <ele>94.1</ele>
        <time>2012-09-23T08:37:04Z</time>
      </trkpt>
      <trkpt lat="47.27625" lon="0.57533">
        <ele>93.9</ele>
        <time>2012-09-23T08:37:06Z</time>
      </trkpt>
      <trkpt lat="47.27625" lon="0.57544">
        <ele>93.7</ele>
        <time>2012-09-23T08:37:08Z</time>
      </trkpt>
      <trkpt lat="47.27624" lon="0.57556">
        <ele>93.4</ele>
        <time>2012-09-23T08:37:10Z</time>
      </trkpt>
      <trkpt lat="47.27623" lon="0.57568">
        <ele>93.2</ele>
        <time>2012-09-23T08:37:12Z</time>
      </trkpt>
      <trkpt lat="47.27622" lon="0.57574">
        <ele>93</ele>
        <time>2012-09-23T08:37:13Z</time>
      </trkpt>
      <trkpt lat="47.27622" lon="0.57581">
        <ele>92.9</ele>
        <time>2012-09-23T08:37:14Z</time>
      </trkpt>
      <trkpt lat="47.27621" lon="0.57589">
        <ele>92.8</ele>
        <time>2012-09-23T08:37:15Z</time>
      </trkpt>
      <trkpt lat="47.2762" lon="0.57596">
        <ele>92.7</ele>
        <time>2012-09-23T08:37:16Z</time>
      </trkpt>
      <trkpt lat="47.2762" lon="0.57602">
        <ele>92.6</ele>
        <time>2012-09-23T08:37:17Z</time>
      </trkpt>
      <trkpt lat="47.27619" lon="0.5761">
        <ele>92.4</ele>
        <time>2012-09-23T08:37:18Z</time>
      </trkpt>
      <trkpt lat="47.27618" lon="0.57617">
        <ele>92.3</ele>
        <time>2012-09-23T08:37:19Z</time>
      </trkpt>
      <trkpt lat="47.27617" lon="0.57624">
        <ele>92.2</ele>
        <time>2012-09-23T08:37:20Z</time>
      </trkpt>
      <trkpt lat="47.27617" lon="0.57632">
        <ele>92.1</ele>
        <time>2012-09-23T08:37:21Z</time>
      </trkpt>
      <trkpt lat="47.27616" lon="0.5764">
        <ele>91.9</ele>
        <time>2012-09-23T08:37:22Z</time>
      </trkpt>
      <trkpt lat="47.27616" lon="0.57647">
        <ele>91.8</ele>
        <time>2012-09-23T08:37:23Z</time>
      </trkpt>
      <trkpt lat="47.27615" lon="0.57655">
        <ele>91.6</ele>
        <time>2012-09-23T08:37:24Z</time>
      </trkpt>
      <trkpt lat="47.27614" lon="0.57663">
        <ele>91.5</ele>
        <time>2012-09-23T08:37:25Z</time>
      </trkpt>
      <trkpt lat="47.27614" lon="0.57671">
        <ele>91.4</ele>
        <time>2012-09-23T08:37:26Z</time>
      </trkpt>
      <trkpt lat="47.27613" lon="0.57679">
        <ele>91.3</ele>
        <time>2012-09-23T08:37:27Z</time>
      </trkpt>
      <trkpt lat="47.27613" lon="0.57687">
        <ele>91.2</ele>
        <time>2012-09-23T08:37:28Z</time>
      </trkpt>
      <trkpt lat="47.27612" lon="0.57695">
        <ele>91.1</ele>
        <time>2012-09-23T08:37:29Z</time>
      </trkpt>
      <trkpt lat="47.27612" lon="0.57703">
        <ele>91</ele>
        <time>2012-09-23T08:37:30Z</time>
      </trkpt>
      <trkpt lat="47.27611" lon="0.57711">
        <ele>90.9</ele>
        <time>2012-09-23T08:37:31Z</time>
      </trkpt>
      <trkpt lat="47.27611" lon="0.57719">
        <ele>90.9</ele>
        <time>2012-09-23T08:37:32Z</time>
      </trkpt>
      <trkpt lat="47.2761" lon="0.57727">
        <ele>90.8</ele>
        <time>2012-09-23T08:37:33Z</time>
      </trkpt>
      <trkpt lat="47.2761" lon="0.57734">
        <ele>90.7</ele>
        <time>2012-09-23T08:37:34Z</time>
      </trkpt>
      <trkpt lat="47.2761" lon="0.57742">
        <ele>90.6</ele>
        <time>2012-09-23T08:37:35Z</time>
      </trkpt>
      <trkpt lat="47.27609" lon="0.5775">
        <ele>90.5</ele>
        <time>2012-09-23T08:37:36Z</time>
      </trkpt>
      <trkpt lat="47.27609" lon="0.57758">
        <ele>90.4</ele>
        <time>2012-09-23T08:37:37Z</time>
      </trkpt>
      <trkpt lat="47.27608" lon="0.57765">
        <ele>90.2</ele>
        <time>2012-09-23T08:37:38Z</time>
      </trkpt>
      <trkpt lat="47.27608" lon="0.57773">
        <ele>90.1</ele>
        <time>2012-09-23T08:37:39Z</time>
      </trkpt>
      <trkpt lat="47.27607" lon="0.57781">
        <ele>89.9</ele>
        <time>2012-09-23T08:37:40Z</time>
      </trkpt>
      <trkpt lat="47.27606" lon="0.57788">
        <ele>89.8</ele>
        <time>2012-09-23T08:37:41Z</time>
      </trkpt>
      <trkpt lat="47.27606" lon="0.57795">
        <ele>89.6</ele>
        <time>2012-09-23T08:37:42Z</time>
      </trkpt>
      <trkpt lat="47.27605" lon="0.57802">
        <ele>89.5</ele>
        <time>2012-09-23T08:37:43Z</time>
      </trkpt>
      <trkpt lat="47.27605" lon="0.57809">
        <ele>89.4</ele>
        <time>2012-09-23T08:37:44Z</time>
      </trkpt>
      <trkpt lat="47.27604" lon="0.57815">
        <ele>89.2</ele>
        <time>2012-09-23T08:37:45Z</time>
      </trkpt>
      <trkpt lat="47.27604" lon="0.57822">
        <ele>89.1</ele>
        <time>2012-09-23T08:37:46Z</time>
      </trkpt>
      <trkpt lat="47.27604" lon="0.57829">
        <ele>89</ele>
        <time>2012-09-23T08:37:47Z</time>
      </trkpt>
      <trkpt lat="47.27604" lon="0.57837">
        <ele>88.9</ele>
        <time>2012-09-23T08:37:48Z</time>
      </trkpt>
      <trkpt lat="47.27604" lon="0.57843">
        <ele>88.9</ele>
        <time>2012-09-23T08:37:49Z</time>
      </trkpt>
      <trkpt lat="47.27604" lon="0.5785">
        <ele>88.9</ele>
        <time>2012-09-23T08:37:50Z</time>
      </trkpt>
      <trkpt lat="47.27603" lon="0.57857">
        <ele>88.9</ele>
        <time>2012-09-23T08:37:51Z</time>
      </trkpt>
      <trkpt lat="47.27603" lon="0.57864">
        <ele>88.9</ele>
        <time>2012-09-23T08:37:52Z</time>
      </trkpt>
      <trkpt lat="47.27602" lon="0.57871">
        <ele>88.9</ele>
        <time>2012-09-23T08:37:53Z</time>
      </trkpt>
      <trkpt lat="47.27601" lon="0.57878">
        <ele>88.8</ele>
        <time>2012-09-23T08:37:54Z</time>
      </trkpt>
      <trkpt lat="47.276" lon="0.5789">
        <ele>88.8</ele>
        <time>2012-09-23T08:37:56Z</time>
      </trkpt>
      <trkpt lat="47.276" lon="0.57902">
        <ele>88.7</ele>
        <time>2012-09-23T08:37:58Z</time>
      </trkpt>
      <trkpt lat="47.276" lon="0.57907">
        <ele>88.7</ele>
        <time>2012-09-23T08:37:59Z</time>
      </trkpt>
      <trkpt lat="47.27601" lon="0.57924">
        <ele>88.7</ele>
        <time>2012-09-23T08:38:02Z</time>
      </trkpt>
      <trkpt lat="47.27601" lon="0.57934">
        <ele>88.6</ele>
        <time>2012-09-23T08:38:04Z</time>
      </trkpt>
      <trkpt lat="47.27602" lon="0.57944">
        <ele>88.4</ele>
        <time>2012-09-23T08:38:06Z</time>
      </trkpt>
      <trkpt lat="47.27602" lon="0.57955">
        <ele>88.3</ele>
        <time>2012-09-23T08:38:08Z</time>
      </trkpt>
      <trkpt lat="47.27602" lon="0.57966">
        <ele>88.1</ele>
        <time>2012-09-23T08:38:10Z</time>
      </trkpt>
      <trkpt lat="47.27603" lon="0.57977">
        <ele>88</ele>
        <time>2012-09-23T08:38:12Z</time>
      </trkpt>
      <trkpt lat="47.27603" lon="0.57989">
        <ele>87.8</ele>
        <time>2012-09-23T08:38:14Z</time>
      </trkpt>
      <trkpt lat="47.27604" lon="0.58002">
        <ele>87.6</ele>
        <time>2012-09-23T08:38:16Z</time>
      </trkpt>
      <trkpt lat="47.27604" lon="0.58015">
        <ele>87.2</ele>
        <time>2012-09-23T08:38:18Z</time>
      </trkpt>
      <trkpt lat="47.27604" lon="0.58022">
        <ele>87</ele>
        <time>2012-09-23T08:38:19Z</time>
      </trkpt>
      <trkpt lat="47.27605" lon="0.58028">
        <ele>86.7</ele>
        <time>2012-09-23T08:38:20Z</time>
      </trkpt>
      <trkpt lat="47.27605" lon="0.58035">
        <ele>86.5</ele>
        <time>2012-09-23T08:38:21Z</time>
      </trkpt>
      <trkpt lat="47.27605" lon="0.58042">
        <ele>86.2</ele>
        <time>2012-09-23T08:38:22Z</time>
      </trkpt>
      <trkpt lat="47.27605" lon="0.58049">
        <ele>86</ele>
        <time>2012-09-23T08:38:23Z</time>
      </trkpt>
      <trkpt lat="47.27606" lon="0.58056">
        <ele>85.7</ele>
        <time>2012-09-23T08:38:24Z</time>
      </trkpt>
      <trkpt lat="47.27606" lon="0.58063">
        <ele>85.5</ele>
        <time>2012-09-23T08:38:25Z</time>
      </trkpt>
      <trkpt lat="47.27606" lon="0.5807">
        <ele>85.2</ele>
        <time>2012-09-23T08:38:26Z</time>
      </trkpt>
      <trkpt lat="47.27606" lon="0.58078">
        <ele>85</ele>
        <time>2012-09-23T08:38:27Z</time>
      </trkpt>
      <trkpt lat="47.27607" lon="0.58085">
        <ele>84.8</ele>
        <time>2012-09-23T08:38:28Z</time>
      </trkpt>
      <trkpt lat="47.27607" lon="0.58093">
        <ele>84.7</ele>
        <time>2012-09-23T08:38:29Z</time>
      </trkpt>
      <trkpt lat="47.27607" lon="0.581">
        <ele>84.6</ele>
        <time>2012-09-23T08:38:30Z</time>
      </trkpt>
      <trkpt lat="47.27607" lon="0.58107">
        <ele>84.5</ele>
        <time>2012-09-23T08:38:31Z</time>
      </trkpt>
      <trkpt lat="47.27607" lon="0.58115">
        <ele>84.4</ele>
        <time>2012-09-23T08:38:32Z</time>
      </trkpt>
      <trkpt lat="47.27607" lon="0.58123">
        <ele>84.3</ele>
        <time>2012-09-23T08:38:33Z</time>
      </trkpt>
      <trkpt lat="47.27608" lon="0.58131">
        <ele>84.2</ele>
        <time>2012-09-23T08:38:34Z</time>
      </trkpt>
      <trkpt lat="47.27608" lon="0.5814">
        <ele>84.2</ele>
        <time>2012-09-23T08:38:35Z</time>
      </trkpt>
      <trkpt lat="47.27608" lon="0.58148">
        <ele>84.1</ele>
        <time>2012-09-23T08:38:36Z</time>
      </trkpt>
      <trkpt lat="47.27608" lon="0.58156">
        <ele>84</ele>
        <time>2012-09-23T08:38:37Z</time>
      </trkpt>
      <trkpt lat="47.27608" lon="0.58164">
        <ele>83.9</ele>
        <time>2012-09-23T08:38:38Z</time>
      </trkpt>
      <trkpt lat="47.27609" lon="0.58172">
        <ele>83.7</ele>
        <time>2012-09-23T08:38:39Z</time>
      </trkpt>
      <trkpt lat="47.27609" lon="0.58181">
        <ele>83.5</ele>
        <time>2012-09-23T08:38:40Z</time>
      </trkpt>
      <trkpt lat="47.27609" lon="0.5819">
        <ele>83.3</ele>
        <time>2012-09-23T08:38:41Z</time>
      </trkpt>
      <trkpt lat="47.27609" lon="0.58199">
        <ele>83.1</ele>
        <time>2012-09-23T08:38:42Z</time>
      </trkpt>
      <trkpt lat="47.27609" lon="0.58207">
        <ele>82.9</ele>
        <time>2012-09-23T08:38:43Z</time>
      </trkpt>
      <trkpt lat="47.2761" lon="0.58216">
        <ele>82.7</ele>
        <time>2012-09-23T08:38:44Z</time>
      </trkpt>
      <trkpt lat="47.2761" lon="0.58224">
        <ele>82.6</ele>
        <time>2012-09-23T08:38:45Z</time>
      </trkpt>
      <trkpt lat="47.2761" lon="0.58232">
        <ele>82.4</ele>
        <time>2012-09-23T08:38:46Z</time>
      </trkpt>
      <trkpt lat="47.27611" lon="0.58239">
        <ele>82.2</ele>
        <time>2012-09-23T08:38:47Z</time>
      </trkpt>
      <trkpt lat="47.27611" lon="0.58247">
        <ele>82</ele>
        <time>2012-09-23T08:38:48Z</time>
      </trkpt>
      <trkpt lat="47.27611" lon="0.58255">
        <ele>81.9</ele>
        <time>2012-09-23T08:38:49Z</time>
      </trkpt>
      <trkpt lat="47.27612" lon="0.58262">
        <ele>81.7</ele>
        <time>2012-09-23T08:38:50Z</time>
      </trkpt>
      <trkpt lat="47.27612" lon="0.58269">
        <ele>81.5</ele>
        <time>2012-09-23T08:38:51Z</time>
      </trkpt>
      <trkpt lat="47.27612" lon="0.58276">
        <ele>81.4</ele>
        <time>2012-09-23T08:38:52Z</time>
      </trkpt>
      <trkpt lat="47.27612" lon="0.58284">
        <ele>81.2</ele>
        <time>2012-09-23T08:38:53Z</time>
      </trkpt>
      <trkpt lat="47.27612" lon="0.5829">
        <ele>81</ele>
        <time>2012-09-23T08:38:54Z</time>
      </trkpt>
      <trkpt lat="47.27612" lon="0.58297">
        <ele>80.9</ele>
        <time>2012-09-23T08:38:55Z</time>
      </trkpt>
      <trkpt lat="47.27612" lon="0.58304">
        <ele>80.7</ele>
        <time>2012-09-23T08:38:56Z</time>
      </trkpt>
      <trkpt lat="47.27612" lon="0.58311">
        <ele>80.5</ele>
        <time>2012-09-23T08:38:57Z</time>
      </trkpt>
      <trkpt lat="47.27612" lon="0.58318">
        <ele>80.4</ele>
        <time>2012-09-23T08:38:58Z</time>
      </trkpt>
      <trkpt lat="47.27612" lon="0.58325">
        <ele>80.2</ele>
        <time>2012-09-23T08:38:59Z</time>
      </trkpt>
      <trkpt lat="47.27613" lon="0.58332">
        <ele>80</ele>
        <time>2012-09-23T08:39:00Z</time>
      </trkpt>
      <trkpt lat="47.27613" lon="0.5834">
        <ele>79.9</ele>
        <time>2012-09-23T08:39:01Z</time>
      </trkpt>
      <trkpt lat="47.27613" lon="0.58347">
        <ele>79.8</ele>
        <time>2012-09-23T08:39:02Z</time>
      </trkpt>
      <trkpt lat="47.27614" lon="0.58355">
        <ele>79.7</ele>
        <time>2012-09-23T08:39:03Z</time>
      </trkpt>
      <trkpt lat="47.27614" lon="0.58362">
        <ele>79.6</ele>
        <time>2012-09-23T08:39:04Z</time>
      </trkpt>
      <trkpt lat="47.27614" lon="0.5837">
        <ele>79.5</ele>
        <time>2012-09-23T08:39:05Z</time>
      </trkpt>
      <trkpt lat="47.27615" lon="0.58378">
        <ele>79.4</ele>
        <time>2012-09-23T08:39:06Z</time>
      </trkpt>
      <trkpt lat="47.27615" lon="0.58385">
        <ele>79.3</ele>
        <time>2012-09-23T08:39:07Z</time>
      </trkpt>
      <trkpt lat="47.27615" lon="0.58393">
        <ele>79.2</ele>
        <time>2012-09-23T08:39:08Z</time>
      </trkpt>
      <trkpt lat="47.27615" lon="0.58401">
        <ele>79.1</ele>
        <time>2012-09-23T08:39:09Z</time>
      </trkpt>
      <trkpt lat="47.27615" lon="0.58408">
        <ele>79</ele>
        <time>2012-09-23T08:39:10Z</time>
      </trkpt>
      <trkpt lat="47.27615" lon="0.58416">
        <ele>78.9</ele>
        <time>2012-09-23T08:39:11Z</time>
      </trkpt>
      <trkpt lat="47.27615" lon="0.58423">
        <ele>79</ele>
        <time>2012-09-23T08:39:12Z</time>
      </trkpt>
      <trkpt lat="47.27615" lon="0.5843">
        <ele>79.2</ele>
        <time>2012-09-23T08:39:13Z</time>
      </trkpt>
      <trkpt lat="47.27615" lon="0.58437">
        <ele>79.4</ele>
        <time>2012-09-23T08:39:14Z</time>
      </trkpt>
      <trkpt lat="47.27615" lon="0.58444">
        <ele>79.6</ele>
        <time>2012-09-23T08:39:15Z</time>
      </trkpt>
      <trkpt lat="47.27614" lon="0.58451">
        <ele>79.7</ele>
        <time>2012-09-23T08:39:16Z</time>
      </trkpt>
      <trkpt lat="47.27614" lon="0.58458">
        <ele>79.9</ele>
        <time>2012-09-23T08:39:17Z</time>
      </trkpt>
      <trkpt lat="47.27614" lon="0.58465">
        <ele>80.1</ele>
        <time>2012-09-23T08:39:18Z</time>
      </trkpt>
      <trkpt lat="47.27612" lon="0.58478">
        <ele>80.3</ele>
        <time>2012-09-23T08:39:20Z</time>
      </trkpt>
      <trkpt lat="47.2761" lon="0.5849">
        <ele>80.6</ele>
        <time>2012-09-23T08:39:22Z</time>
      </trkpt>
      <trkpt lat="47.27607" lon="0.58502">
        <ele>80.8</ele>
        <time>2012-09-23T08:39:24Z</time>
      </trkpt>
      <trkpt lat="47.27604" lon="0.58514">
        <ele>81</ele>
        <time>2012-09-23T08:39:26Z</time>
      </trkpt>
      <trkpt lat="47.27602" lon="0.58525">
        <ele>81.1</ele>
        <time>2012-09-23T08:39:28Z</time>
      </trkpt>
      <trkpt lat="47.276" lon="0.58537">
        <ele>81.3</ele>
        <time>2012-09-23T08:39:30Z</time>
      </trkpt>
      <trkpt lat="47.27598" lon="0.5855">
        <ele>81.6</ele>
        <time>2012-09-23T08:39:32Z</time>
      </trkpt>
      <trkpt lat="47.27596" lon="0.58561">
        <ele>81.8</ele>
        <time>2012-09-23T08:39:34Z</time>
      </trkpt>
      <trkpt lat="47.27595" lon="0.58572">
        <ele>82</ele>
        <time>2012-09-23T08:39:36Z</time>
      </trkpt>
      <trkpt lat="47.27594" lon="0.58582">
        <ele>82.2</ele>
        <time>2012-09-23T08:39:38Z</time>
      </trkpt>
      <trkpt lat="47.27592" lon="0.58592">
        <ele>82.2</ele>
        <time>2012-09-23T08:39:40Z</time>
      </trkpt>
      <trkpt lat="47.27591" lon="0.58604">
        <ele>82.1</ele>
        <time>2012-09-23T08:39:43Z</time>
      </trkpt>
      <trkpt lat="47.27589" lon="0.58616">
        <ele>82.1</ele>
        <time>2012-09-23T08:39:47Z</time>
      </trkpt>
      <trkpt lat="47.2759" lon="0.58628">
        <ele>82.1</ele>
        <time>2012-09-23T08:39:51Z</time>
      </trkpt>
      <trkpt lat="47.2759" lon="0.58639">
        <ele>82.1</ele>
        <time>2012-09-23T08:39:55Z</time>
      </trkpt>
      <trkpt lat="47.27589" lon="0.58651">
        <ele>82.1</ele>
        <time>2012-09-23T08:40:00Z</time>
      </trkpt>
      <trkpt lat="47.27589" lon="0.58654">
        <ele>82.1</ele>
        <time>2012-09-23T08:40:01Z</time>
      </trkpt>
      <trkpt lat="47.27587" lon="0.58673">
        <ele>82.1</ele>
        <time>2012-09-23T08:40:25Z</time>
      </trkpt>
      <trkpt lat="47.27587" lon="0.58683">
        <ele>82.2</ele>
        <time>2012-09-23T08:40:28Z</time>
      </trkpt>
      <trkpt lat="47.27586" lon="0.58694">
        <ele>82.3</ele>
        <time>2012-09-23T08:40:31Z</time>
      </trkpt>
      <trkpt lat="47.27586" lon="0.58706">
        <ele>82.5</ele>
        <time>2012-09-23T08:40:34Z</time>
      </trkpt>
      <trkpt lat="47.27585" lon="0.58717">
        <ele>82.6</ele>
        <time>2012-09-23T08:40:37Z</time>
      </trkpt>
      <trkpt lat="47.27584" lon="0.58729">
        <ele>82.7</ele>
        <time>2012-09-23T08:40:40Z</time>
      </trkpt>
      <trkpt lat="47.27583" lon="0.58741">
        <ele>82.8</ele>
        <time>2012-09-23T08:40:43Z</time>
      </trkpt>
      <trkpt lat="47.27583" lon="0.58753">
        <ele>83</ele>
        <time>2012-09-23T08:40:46Z</time>
      </trkpt>
      <trkpt lat="47.27582" lon="0.58762">
        <ele>83.1</ele>
        <time>2012-09-23T08:40:48Z</time>
      </trkpt>
      <trkpt lat="47.27582" lon="0.58775">
        <ele>83.2</ele>
        <time>2012-09-23T08:40:51Z</time>
      </trkpt>
      <trkpt lat="47.27581" lon="0.58788">
        <ele>83.3</ele>
        <time>2012-09-23T08:40:54Z</time>
      </trkpt>
      <trkpt lat="47.2758" lon="0.58797">
        <ele>83.4</ele>
        <time>2012-09-23T08:40:56Z</time>
      </trkpt>
      <trkpt lat="47.2758" lon="0.58807">
        <ele>83.5</ele>
        <time>2012-09-23T08:40:58Z</time>
      </trkpt>
      <trkpt lat="47.27579" lon="0.58816">
        <ele>83.6</ele>
        <time>2012-09-23T08:41:00Z</time>
      </trkpt>
      <trkpt lat="47.27579" lon="0.58825">
        <ele>83.7</ele>
        <time>2012-09-23T08:41:02Z</time>
      </trkpt>
      <trkpt lat="47.27579" lon="0.5883">
        <ele>83.7</ele>
        <time>2012-09-23T08:41:03Z</time>
      </trkpt>
      <trkpt lat="47.27578" lon="0.58845">
        <ele>83.5</ele>
        <time>2012-09-23T08:41:06Z</time>
      </trkpt>
      <trkpt lat="47.27577" lon="0.58854">
        <ele>83.2</ele>
        <time>2012-09-23T08:41:08Z</time>
      </trkpt>
      <trkpt lat="47.27576" lon="0.58865">
        <ele>83</ele>
        <time>2012-09-23T08:41:10Z</time>
      </trkpt>
      <trkpt lat="47.27576" lon="0.58874">
        <ele>82.7</ele>
        <time>2012-09-23T08:41:12Z</time>
      </trkpt>
      <trkpt lat="47.27575" lon="0.58885">
        <ele>82.5</ele>
        <time>2012-09-23T08:41:14Z</time>
      </trkpt>
      <trkpt lat="47.27575" lon="0.58895">
        <ele>82.2</ele>
        <time>2012-09-23T08:41:16Z</time>
      </trkpt>
      <trkpt lat="47.27574" lon="0.58906">
        <ele>82</ele>
        <time>2012-09-23T08:41:18Z</time>
      </trkpt>
      <trkpt lat="47.27573" lon="0.58916">
        <ele>81.7</ele>
        <time>2012-09-23T08:41:20Z</time>
      </trkpt>
      <trkpt lat="47.27573" lon="0.58927">
        <ele>81.6</ele>
        <time>2012-09-23T08:41:22Z</time>
      </trkpt>
      <trkpt lat="47.27571" lon="0.58938">
        <ele>81.4</ele>
        <time>2012-09-23T08:41:24Z</time>
      </trkpt>
      <trkpt lat="47.27571" lon="0.5895">
        <ele>81.2</ele>
        <time>2012-09-23T08:41:26Z</time>
      </trkpt>
      <trkpt lat="47.2757" lon="0.58962">
        <ele>81.1</ele>
        <time>2012-09-23T08:41:28Z</time>
      </trkpt>
      <trkpt lat="47.2757" lon="0.58973">
        <ele>81</ele>
        <time>2012-09-23T08:41:30Z</time>
      </trkpt>
      <trkpt lat="47.27569" lon="0.58984">
        <ele>80.8</ele>
        <time>2012-09-23T08:41:32Z</time>
      </trkpt>
      <trkpt lat="47.27568" lon="0.58996">
        <ele>80.7</ele>
        <time>2012-09-23T08:41:34Z</time>
      </trkpt>
      <trkpt lat="47.27569" lon="0.59007">
        <ele>80.5</ele>
        <time>2012-09-23T08:41:36Z</time>
      </trkpt>
      <trkpt lat="47.27569" lon="0.59019">
        <ele>80.4</ele>
        <time>2012-09-23T08:41:38Z</time>
      </trkpt>
      <trkpt lat="47.27568" lon="0.59031">
        <ele>80.3</ele>
        <time>2012-09-23T08:41:40Z</time>
      </trkpt>
      <trkpt lat="47.27567" lon="0.59043">
        <ele>80.2</ele>
        <time>2012-09-23T08:41:42Z</time>
      </trkpt>
      <trkpt lat="47.27567" lon="0.59055">
        <ele>80</ele>
        <time>2012-09-23T08:41:44Z</time>
      </trkpt>
      <trkpt lat="47.27566" lon="0.59068">
        <ele>79.9</ele>
        <time>2012-09-23T08:41:46Z</time>
      </trkpt>
      <trkpt lat="47.27565" lon="0.5908">
        <ele>79.8</ele>
        <time>2012-09-23T08:41:48Z</time>
      </trkpt>
      <trkpt lat="47.27564" lon="0.59091">
        <ele>79.7</ele>
        <time>2012-09-23T08:41:50Z</time>
      </trkpt>
      <trkpt lat="47.27563" lon="0.59103">
        <ele>79.5</ele>
        <time>2012-09-23T08:41:52Z</time>
      </trkpt>
      <trkpt lat="47.27562" lon="0.59114">
        <ele>79.4</ele>
        <time>2012-09-23T08:41:54Z</time>
      </trkpt>
      <trkpt lat="47.2756" lon="0.59125">
        <ele>79.3</ele>
        <time>2012-09-23T08:41:56Z</time>
      </trkpt>
      <trkpt lat="47.2756" lon="0.59137">
        <ele>79.2</ele>
        <time>2012-09-23T08:41:58Z</time>
      </trkpt>
      <trkpt lat="47.27559" lon="0.59147">
        <ele>79.1</ele>
        <time>2012-09-23T08:42:00Z</time>
      </trkpt>
      <trkpt lat="47.27558" lon="0.59157">
        <ele>79</ele>
        <time>2012-09-23T08:42:02Z</time>
      </trkpt>
      <trkpt lat="47.27557" lon="0.59167">
        <ele>79</ele>
        <time>2012-09-23T08:42:04Z</time>
      </trkpt>
      <trkpt lat="47.27556" lon="0.59172">
        <ele>79</ele>
        <time>2012-09-23T08:42:05Z</time>
      </trkpt>
      <trkpt lat="47.27558" lon="0.59188">
        <ele>79.2</ele>
        <time>2012-09-23T08:42:08Z</time>
      </trkpt>
      <trkpt lat="47.27559" lon="0.59197">
        <ele>79.3</ele>
        <time>2012-09-23T08:42:10Z</time>
      </trkpt>
      <trkpt lat="47.27559" lon="0.59207">
        <ele>79.4</ele>
        <time>2012-09-23T08:42:12Z</time>
      </trkpt>
      <trkpt lat="47.27559" lon="0.59217">
        <ele>79.5</ele>
        <time>2012-09-23T08:42:14Z</time>
      </trkpt>
      <trkpt lat="47.27559" lon="0.59229">
        <ele>79.7</ele>
        <time>2012-09-23T08:42:16Z</time>
      </trkpt>
      <trkpt lat="47.27558" lon="0.59239">
        <ele>79.8</ele>
        <time>2012-09-23T08:42:18Z</time>
      </trkpt>
      <trkpt lat="47.27555" lon="0.5925">
        <ele>80</ele>
        <time>2012-09-23T08:42:20Z</time>
      </trkpt>
      <trkpt lat="47.27554" lon="0.59261">
        <ele>79.9</ele>
        <time>2012-09-23T08:42:22Z</time>
      </trkpt>
      <trkpt lat="47.27554" lon="0.59271">
        <ele>79.9</ele>
        <time>2012-09-23T08:42:24Z</time>
      </trkpt>
      <trkpt lat="47.27554" lon="0.5928">
        <ele>79.8</ele>
        <time>2012-09-23T08:42:26Z</time>
      </trkpt>
      <trkpt lat="47.27557" lon="0.5929">
        <ele>79.8</ele>
        <time>2012-09-23T08:42:28Z</time>
      </trkpt>
      <trkpt lat="47.27561" lon="0.59297">
        <ele>79.8</ele>
        <time>2012-09-23T08:42:30Z</time>
      </trkpt>
      <trkpt lat="47.27565" lon="0.59308">
        <ele>79.8</ele>
        <time>2012-09-23T08:42:33Z</time>
      </trkpt>
      <trkpt lat="47.27568" lon="0.59316">
        <ele>79.8</ele>
        <time>2012-09-23T08:42:35Z</time>
      </trkpt>
      <trkpt lat="47.2757" lon="0.59326">
        <ele>79.8</ele>
        <time>2012-09-23T08:42:37Z</time>
      </trkpt>
      <trkpt lat="47.27573" lon="0.59334">
        <ele>79.8</ele>
        <time>2012-09-23T08:42:39Z</time>
      </trkpt>
      <trkpt lat="47.27577" lon="0.59343">
        <ele>79.8</ele>
        <time>2012-09-23T08:42:41Z</time>
      </trkpt>
      <trkpt lat="47.27581" lon="0.5935">
        <ele>79.7</ele>
        <time>2012-09-23T08:42:43Z</time>
      </trkpt>
      <trkpt lat="47.27586" lon="0.59358">
        <ele>79.7</ele>
        <time>2012-09-23T08:42:45Z</time>
      </trkpt>
      <trkpt lat="47.27591" lon="0.59365">
        <ele>79.5</ele>
        <time>2012-09-23T08:42:47Z</time>
      </trkpt>
      <trkpt lat="47.27595" lon="0.59373">
        <ele>79.4</ele>
        <time>2012-09-23T08:42:49Z</time>
      </trkpt>
      <trkpt lat="47.276" lon="0.59381">
        <ele>79.3</ele>
        <time>2012-09-23T08:42:51Z</time>
      </trkpt>
      <trkpt lat="47.27606" lon="0.59388">
        <ele>79.1</ele>
        <time>2012-09-23T08:42:53Z</time>
      </trkpt>
      <trkpt lat="47.27611" lon="0.59396">
        <ele>79</ele>
        <time>2012-09-23T08:42:55Z</time>
      </trkpt>
      <trkpt lat="47.27616" lon="0.59403">
        <ele>78.8</ele>
        <time>2012-09-23T08:42:57Z</time>
      </trkpt>
      <trkpt lat="47.27621" lon="0.59412">
        <ele>78.6</ele>
        <time>2012-09-23T08:42:59Z</time>
      </trkpt>
      <trkpt lat="47.27626" lon="0.59421">
        <ele>78.5</ele>
        <time>2012-09-23T08:43:01Z</time>
      </trkpt>
      <trkpt lat="47.27631" lon="0.5943">
        <ele>78.4</ele>
        <time>2012-09-23T08:43:03Z</time>
      </trkpt>
      <trkpt lat="47.27634" lon="0.59441">
        <ele>78.5</ele>
        <time>2012-09-23T08:43:06Z</time>
      </trkpt>
      <trkpt lat="47.27635" lon="0.59442">
        <ele>78.5</ele>
        <time>2012-09-23T08:43:07Z</time>
      </trkpt>
      <trkpt lat="47.27633" lon="0.59463">
        <ele>78.6</ele>
        <time>2012-09-23T08:43:35Z</time>
      </trkpt>
      <trkpt lat="47.27629" lon="0.59474">
        <ele>78.7</ele>
        <time>2012-09-23T08:43:38Z</time>
      </trkpt>
      <trkpt lat="47.27627" lon="0.59482">
        <ele>78.8</ele>
        <time>2012-09-23T08:43:40Z</time>
      </trkpt>
      <trkpt lat="47.27624" lon="0.59491">
        <ele>78.9</ele>
        <time>2012-09-23T08:43:42Z</time>
      </trkpt>
      <trkpt lat="47.2762" lon="0.595">
        <ele>79.1</ele>
        <time>2012-09-23T08:43:44Z</time>
      </trkpt>
      <trkpt lat="47.27616" lon="0.59509">
        <ele>79</ele>
        <time>2012-09-23T08:43:46Z</time>
      </trkpt>
      <trkpt lat="47.27611" lon="0.59519">
        <ele>78.8</ele>
        <time>2012-09-23T08:43:48Z</time>
      </trkpt>
      <trkpt lat="47.27606" lon="0.59529">
        <ele>78.7</ele>
        <time>2012-09-23T08:43:50Z</time>
      </trkpt>
      <trkpt lat="47.27602" lon="0.5954">
        <ele>78.6</ele>
        <time>2012-09-23T08:43:52Z</time>
      </trkpt>
      <trkpt lat="47.27598" lon="0.5955">
        <ele>78.4</ele>
        <time>2012-09-23T08:43:54Z</time>
      </trkpt>
      <trkpt lat="47.27599" lon="0.5956">
        <ele>78.2</ele>
        <time>2012-09-23T08:43:56Z</time>
      </trkpt>
      <trkpt lat="47.27601" lon="0.5957">
        <ele>77.9</ele>
        <time>2012-09-23T08:43:58Z</time>
      </trkpt>
      <trkpt lat="47.27603" lon="0.59576">
        <ele>77.7</ele>
        <time>2012-09-23T08:43:59Z</time>
      </trkpt>
      <trkpt lat="47.27605" lon="0.59582">
        <ele>77.5</ele>
        <time>2012-09-23T08:44:00Z</time>
      </trkpt>
      <trkpt lat="47.27607" lon="0.59588">
        <ele>77.2</ele>
        <time>2012-09-23T08:44:01Z</time>
      </trkpt>
      <trkpt lat="47.27609" lon="0.59595">
        <ele>77</ele>
        <time>2012-09-23T08:44:02Z</time>
      </trkpt>
      <trkpt lat="47.27611" lon="0.59601">
        <ele>76.7</ele>
        <time>2012-09-23T08:44:03Z</time>
      </trkpt>
      <trkpt lat="47.27615" lon="0.59613">
        <ele>76.2</ele>
        <time>2012-09-23T08:44:05Z</time>
      </trkpt>
      <trkpt lat="47.27617" lon="0.59622">
        <ele>75.8</ele>
        <time>2012-09-23T08:44:07Z</time>
      </trkpt>
      <trkpt lat="47.27618" lon="0.59626">
        <ele>75.6</ele>
        <time>2012-09-23T08:44:08Z</time>
      </trkpt>
      <trkpt lat="47.2762" lon="0.59641">
        <ele>75</ele>
        <time>2012-09-23T08:44:11Z</time>
      </trkpt>
      <trkpt lat="47.27622" lon="0.59651">
        <ele>74.6</ele>
        <time>2012-09-23T08:44:13Z</time>
      </trkpt>
      <trkpt lat="47.27625" lon="0.59662">
        <ele>74.1</ele>
        <time>2012-09-23T08:44:15Z</time>
      </trkpt>
      <trkpt lat="47.27626" lon="0.59675">
        <ele>73.5</ele>
        <time>2012-09-23T08:44:23Z</time>
      </trkpt>
      <trkpt lat="47.27828" lon="0.59614">
        <ele>73.9</ele>
        <time>2012-09-23T08:45:35Z</time>
      </trkpt>
      <trkpt lat="47.27832" lon="0.59618">
        <ele>73.9</ele>
        <time>2012-09-23T08:45:36Z</time>
      </trkpt>
      <trkpt lat="47.27836" lon="0.59621">
        <ele>74.2</ele>
        <time>2012-09-23T08:45:37Z</time>
      </trkpt>
      <trkpt lat="47.27841" lon="0.59625">
        <ele>74.7</ele>
        <time>2012-09-23T08:45:38Z</time>
      </trkpt>
      <trkpt lat="47.27846" lon="0.59629">
        <ele>75.2</ele>
        <time>2012-09-23T08:45:39Z</time>
      </trkpt>
      <trkpt lat="47.27852" lon="0.59635">
        <ele>75.8</ele>
        <time>2012-09-23T08:45:40Z</time>
      </trkpt>
      <trkpt lat="47.27857" lon="0.5964">
        <ele>76.4</ele>
        <time>2012-09-23T08:45:41Z</time>
      </trkpt>
      <trkpt lat="47.27863" lon="0.59646">
        <ele>76.9</ele>
        <time>2012-09-23T08:45:42Z</time>
      </trkpt>
      <trkpt lat="47.27868" lon="0.59652">
        <ele>77.6</ele>
        <time>2012-09-23T08:45:43Z</time>
      </trkpt>
      <trkpt lat="47.27875" lon="0.59658">
        <ele>78.3</ele>
        <time>2012-09-23T08:45:44Z</time>
      </trkpt>
      <trkpt lat="47.27881" lon="0.59664">
        <ele>79</ele>
        <time>2012-09-23T08:45:45Z</time>
      </trkpt>
      <trkpt lat="47.27889" lon="0.59669">
        <ele>79.9</ele>
        <time>2012-09-23T08:45:46Z</time>
      </trkpt>
      <trkpt lat="47.27896" lon="0.59675">
        <ele>80.6</ele>
        <time>2012-09-23T08:45:47Z</time>
      </trkpt>
      <trkpt lat="47.27901" lon="0.5968">
        <ele>81</ele>
        <time>2012-09-23T08:45:48Z</time>
      </trkpt>
      <trkpt lat="47.27904" lon="0.59685">
        <ele>81.3</ele>
        <time>2012-09-23T08:45:49Z</time>
      </trkpt>
      <trkpt lat="47.27908" lon="0.59691">
        <ele>81.8</ele>
        <time>2012-09-23T08:45:50Z</time>
      </trkpt>
      <trkpt lat="47.27912" lon="0.59697">
        <ele>82.1</ele>
        <time>2012-09-23T08:45:51Z</time>
      </trkpt>
      <trkpt lat="47.27917" lon="0.59705">
        <ele>82.5</ele>
        <time>2012-09-23T08:45:52Z</time>
      </trkpt>
      <trkpt lat="47.2792" lon="0.59711">
        <ele>82.4</ele>
        <time>2012-09-23T08:45:53Z</time>
      </trkpt>
      <trkpt lat="47.27925" lon="0.59721">
        <ele>82.3</ele>
        <time>2012-09-23T08:45:55Z</time>
      </trkpt>
      <trkpt lat="47.2793" lon="0.59727">
        <ele>82.2</ele>
        <time>2012-09-23T08:45:57Z</time>
      </trkpt>
      <trkpt lat="47.27937" lon="0.59732">
        <ele>82.2</ele>
        <time>2012-09-23T08:46:00Z</time>
      </trkpt>
      <trkpt lat="47.27945" lon="0.59738">
        <ele>82.2</ele>
        <time>2012-09-23T08:46:04Z</time>
      </trkpt>
      <trkpt lat="47.27952" lon="0.59742">
        <ele>82.3</ele>
        <time>2012-09-23T08:46:07Z</time>
      </trkpt>
      <trkpt lat="47.2796" lon="0.59745">
        <ele>82.4</ele>
        <time>2012-09-23T08:46:10Z</time>
      </trkpt>
      <trkpt lat="47.27963" lon="0.59747">
        <ele>82.4</ele>
        <time>2012-09-23T08:46:11Z</time>
      </trkpt>
      <trkpt lat="47.27976" lon="0.59755">
        <ele>82.6</ele>
        <time>2012-09-23T08:46:16Z</time>
      </trkpt>
      <trkpt lat="47.27983" lon="0.59757">
        <ele>82.6</ele>
        <time>2012-09-23T08:46:19Z</time>
      </trkpt>
      <trkpt lat="47.2799" lon="0.59758">
        <ele>82.7</ele>
        <time>2012-09-23T08:46:22Z</time>
      </trkpt>
      <trkpt lat="47.27997" lon="0.5976">
        <ele>82.7</ele>
        <time>2012-09-23T08:46:25Z</time>
      </trkpt>
      <trkpt lat="47.28004" lon="0.59761">
        <ele>82.8</ele>
        <time>2012-09-23T08:46:28Z</time>
      </trkpt>
      <trkpt lat="47.28011" lon="0.59764">
        <ele>82.9</ele>
        <time>2012-09-23T08:46:30Z</time>
      </trkpt>
      <trkpt lat="47.28016" lon="0.59766">
        <ele>82.9</ele>
        <time>2012-09-23T08:46:32Z</time>
      </trkpt>
      <trkpt lat="47.28022" lon="0.5977">
        <ele>83</ele>
        <time>2012-09-23T08:46:34Z</time>
      </trkpt>
      <trkpt lat="47.28031" lon="0.59774">
        <ele>83</ele>
        <time>2012-09-23T08:46:37Z</time>
      </trkpt>
      <trkpt lat="47.28036" lon="0.59776">
        <ele>83.1</ele>
        <time>2012-09-23T08:46:39Z</time>
      </trkpt>
      <trkpt lat="47.28043" lon="0.5978">
        <ele>83.1</ele>
        <time>2012-09-23T08:46:41Z</time>
      </trkpt>
      <trkpt lat="47.28049" lon="0.59783">
        <ele>83.1</ele>
        <time>2012-09-23T08:46:43Z</time>
      </trkpt>
      <trkpt lat="47.28056" lon="0.59787">
        <ele>83.1</ele>
        <time>2012-09-23T08:46:45Z</time>
      </trkpt>
      <trkpt lat="47.28062" lon="0.59792">
        <ele>83.1</ele>
        <time>2012-09-23T08:46:47Z</time>
      </trkpt>
      <trkpt lat="47.28069" lon="0.59799">
        <ele>83</ele>
        <time>2012-09-23T08:46:50Z</time>
      </trkpt>
      <trkpt lat="47.28076" lon="0.59804">
        <ele>82.9</ele>
        <time>2012-09-23T08:46:53Z</time>
      </trkpt>
      <trkpt lat="47.28081" lon="0.59808">
        <ele>82.9</ele>
        <time>2012-09-23T08:46:55Z</time>
      </trkpt>
      <trkpt lat="47.28088" lon="0.59811">
        <ele>83</ele>
        <time>2012-09-23T08:46:57Z</time>
      </trkpt>
      <trkpt lat="47.28094" lon="0.59814">
        <ele>83.2</ele>
        <time>2012-09-23T08:46:59Z</time>
      </trkpt>
      <trkpt lat="47.28102" lon="0.59817">
        <ele>83.5</ele>
        <time>2012-09-23T08:47:01Z</time>
      </trkpt>
      <trkpt lat="47.28109" lon="0.5982">
        <ele>83.6</ele>
        <time>2012-09-23T08:47:03Z</time>
      </trkpt>
      <trkpt lat="47.28115" lon="0.59824">
        <ele>83.8</ele>
        <time>2012-09-23T08:47:05Z</time>
      </trkpt>
      <trkpt lat="47.28121" lon="0.59827">
        <ele>84</ele>
        <time>2012-09-23T08:47:07Z</time>
      </trkpt>
      <trkpt lat="47.28128" lon="0.59831">
        <ele>84.2</ele>
        <time>2012-09-23T08:47:09Z</time>
      </trkpt>
      <trkpt lat="47.28135" lon="0.59834">
        <ele>84.4</ele>
        <time>2012-09-23T08:47:11Z</time>
      </trkpt>
      <trkpt lat="47.28138" lon="0.59836">
        <ele>84.5</ele>
        <time>2012-09-23T08:47:12Z</time>
      </trkpt>
      <trkpt lat="47.28149" lon="0.59843">
        <ele>84.9</ele>
        <time>2012-09-23T08:47:15Z</time>
      </trkpt>
      <trkpt lat="47.28155" lon="0.59847">
        <ele>85.1</ele>
        <time>2012-09-23T08:47:17Z</time>
      </trkpt>
      <trkpt lat="47.28161" lon="0.59852">
        <ele>85.3</ele>
        <time>2012-09-23T08:47:19Z</time>
      </trkpt>
      <trkpt lat="47.28168" lon="0.59855">
        <ele>85.5</ele>
        <time>2012-09-23T08:47:21Z</time>
      </trkpt>
      <trkpt lat="47.28174" lon="0.5986">
        <ele>85.8</ele>
        <time>2012-09-23T08:47:23Z</time>
      </trkpt>
      <trkpt lat="47.28181" lon="0.59864">
        <ele>86.2</ele>
        <time>2012-09-23T08:47:25Z</time>
      </trkpt>
      <trkpt lat="47.28188" lon="0.59867">
        <ele>86.6</ele>
        <time>2012-09-23T08:47:27Z</time>
      </trkpt>
      <trkpt lat="47.28195" lon="0.59871">
        <ele>86.9</ele>
        <time>2012-09-23T08:47:29Z</time>
      </trkpt>
      <trkpt lat="47.28201" lon="0.59875">
        <ele>87.2</ele>
        <time>2012-09-23T08:47:31Z</time>
      </trkpt>
      <trkpt lat="47.28208" lon="0.59879">
        <ele>87.6</ele>
        <time>2012-09-23T08:47:33Z</time>
      </trkpt>
      <trkpt lat="47.28214" lon="0.59882">
        <ele>87.9</ele>
        <time>2012-09-23T08:47:35Z</time>
      </trkpt>
      <trkpt lat="47.28221" lon="0.59886">
        <ele>88.2</ele>
        <time>2012-09-23T08:47:37Z</time>
      </trkpt>
      <trkpt lat="47.28227" lon="0.5989">
        <ele>88.5</ele>
        <time>2012-09-23T08:47:39Z</time>
      </trkpt>
      <trkpt lat="47.28234" lon="0.59894">
        <ele>88.8</ele>
        <time>2012-09-23T08:47:41Z</time>
      </trkpt>
      <trkpt lat="47.2824" lon="0.59898">
        <ele>89</ele>
        <time>2012-09-23T08:47:43Z</time>
      </trkpt>
      <trkpt lat="47.28246" lon="0.59902">
        <ele>89.3</ele>
        <time>2012-09-23T08:47:45Z</time>
      </trkpt>
      <trkpt lat="47.28252" lon="0.59906">
        <ele>89.5</ele>
        <time>2012-09-23T08:47:47Z</time>
      </trkpt>
      <trkpt lat="47.28259" lon="0.5991">
        <ele>89.9</ele>
        <time>2012-09-23T08:47:49Z</time>
      </trkpt>
      <trkpt lat="47.28265" lon="0.59914">
        <ele>90.1</ele>
        <time>2012-09-23T08:47:51Z</time>
      </trkpt>
      <trkpt lat="47.28271" lon="0.59918">
        <ele>90.4</ele>
        <time>2012-09-23T08:47:53Z</time>
      </trkpt>
      <trkpt lat="47.28277" lon="0.59922">
        <ele>90.7</ele>
        <time>2012-09-23T08:47:55Z</time>
      </trkpt>
      <trkpt lat="47.28284" lon="0.59927">
        <ele>91</ele>
        <time>2012-09-23T08:47:57Z</time>
      </trkpt>
      <trkpt lat="47.2829" lon="0.5993">
        <ele>91.2</ele>
        <time>2012-09-23T08:47:59Z</time>
      </trkpt>
      <trkpt lat="47.28297" lon="0.59934">
        <ele>91.5</ele>
        <time>2012-09-23T08:48:01Z</time>
      </trkpt>
      <trkpt lat="47.28304" lon="0.59938">
        <ele>91.7</ele>
        <time>2012-09-23T08:48:03Z</time>
      </trkpt>
      <trkpt lat="47.28312" lon="0.59941">
        <ele>92</ele>
        <time>2012-09-23T08:48:05Z</time>
      </trkpt>
      <trkpt lat="47.28319" lon="0.59944">
        <ele>92.2</ele>
        <time>2012-09-23T08:48:07Z</time>
      </trkpt>
      <trkpt lat="47.28326" lon="0.59948">
        <ele>92.3</ele>
        <time>2012-09-23T08:48:09Z</time>
      </trkpt>
      <trkpt lat="47.28331" lon="0.59952">
        <ele>92.3</ele>
        <time>2012-09-23T08:48:11Z</time>
      </trkpt>
      <trkpt lat="47.28338" lon="0.59956">
        <ele>92.2</ele>
        <time>2012-09-23T08:48:13Z</time>
      </trkpt>
      <trkpt lat="47.28341" lon="0.59958">
        <ele>92.1</ele>
        <time>2012-09-23T08:48:14Z</time>
      </trkpt>
      <trkpt lat="47.2835" lon="0.59964">
        <ele>91.8</ele>
        <time>2012-09-23T08:48:17Z</time>
      </trkpt>
      <trkpt lat="47.28357" lon="0.59967">
        <ele>91.8</ele>
        <time>2012-09-23T08:48:19Z</time>
      </trkpt>
      <trkpt lat="47.28364" lon="0.5997">
        <ele>91.7</ele>
        <time>2012-09-23T08:48:21Z</time>
      </trkpt>
      <trkpt lat="47.2837" lon="0.59973">
        <ele>91.7</ele>
        <time>2012-09-23T08:48:23Z</time>
      </trkpt>
      <trkpt lat="47.28377" lon="0.59976">
        <ele>91.7</ele>
        <time>2012-09-23T08:48:25Z</time>
      </trkpt>
      <trkpt lat="47.28383" lon="0.5998">
        <ele>91.6</ele>
        <time>2012-09-23T08:48:27Z</time>
      </trkpt>
      <trkpt lat="47.28389" lon="0.59982">
        <ele>91.7</ele>
        <time>2012-09-23T08:48:29Z</time>
      </trkpt>
      <trkpt lat="47.28395" lon="0.59985">
        <ele>91.7</ele>
        <time>2012-09-23T08:48:31Z</time>
      </trkpt>
      <trkpt lat="47.28401" lon="0.59987">
        <ele>91.8</ele>
        <time>2012-09-23T08:48:33Z</time>
      </trkpt>
      <trkpt lat="47.28408" lon="0.59991">
        <ele>91.9</ele>
        <time>2012-09-23T08:48:35Z</time>
      </trkpt>
      <trkpt lat="47.28414" lon="0.59994">
        <ele>92</ele>
        <time>2012-09-23T08:48:37Z</time>
      </trkpt>
      <trkpt lat="47.28421" lon="0.59995">
        <ele>92.3</ele>
        <time>2012-09-23T08:48:39Z</time>
      </trkpt>
      <trkpt lat="47.28428" lon="0.59999">
        <ele>92.5</ele>
        <time>2012-09-23T08:48:41Z</time>
      </trkpt>
      <trkpt lat="47.28436" lon="0.60003">
        <ele>92.8</ele>
        <time>2012-09-23T08:48:44Z</time>
      </trkpt>
      <trkpt lat="47.28442" lon="0.60006">
        <ele>93.1</ele>
        <time>2012-09-23T08:48:46Z</time>
      </trkpt>
      <trkpt lat="47.28449" lon="0.60009">
        <ele>93.3</ele>
        <time>2012-09-23T08:48:48Z</time>
      </trkpt>
      <trkpt lat="47.28455" lon="0.60011">
        <ele>93.5</ele>
        <time>2012-09-23T08:48:50Z</time>
      </trkpt>
      <trkpt lat="47.28461" lon="0.60013">
        <ele>93.8</ele>
        <time>2012-09-23T08:48:52Z</time>
      </trkpt>
      <trkpt lat="47.28468" lon="0.60014">
        <ele>94.1</ele>
        <time>2012-09-23T08:48:54Z</time>
      </trkpt>
      <trkpt lat="47.28475" lon="0.60016">
        <ele>94.4</ele>
        <time>2012-09-23T08:48:56Z</time>
      </trkpt>
      <trkpt lat="47.28482" lon="0.60018">
        <ele>94.7</ele>
        <time>2012-09-23T08:48:58Z</time>
      </trkpt>
      <trkpt lat="47.28489" lon="0.60018">
        <ele>95</ele>
        <time>2012-09-23T08:49:00Z</time>
      </trkpt>
      <trkpt lat="47.28496" lon="0.60018">
        <ele>95.3</ele>
        <time>2012-09-23T08:49:02Z</time>
      </trkpt>
      <trkpt lat="47.28504" lon="0.60016">
        <ele>95.3</ele>
        <time>2012-09-23T08:49:04Z</time>
      </trkpt>
      <trkpt lat="47.28513" lon="0.60013">
        <ele>94.9</ele>
        <time>2012-09-23T08:49:06Z</time>
      </trkpt>
      <trkpt lat="47.28519" lon="0.60012">
        <ele>94.5</ele>
        <time>2012-09-23T08:49:08Z</time>
      </trkpt>
      <trkpt lat="47.28526" lon="0.60009">
        <ele>94.1</ele>
        <time>2012-09-23T08:49:10Z</time>
      </trkpt>
      <trkpt lat="47.28544" lon="0.60002">
        <ele>93.3</ele>
        <time>2012-09-23T08:49:15Z</time>
      </trkpt>
      <trkpt lat="47.28556" lon="0.60007">
        <ele>92.3</ele>
        <time>2012-09-23T08:49:21Z</time>
      </trkpt>
      <trkpt lat="47.28565" lon="0.60008">
        <ele>91.8</ele>
        <time>2012-09-23T08:49:25Z</time>
      </trkpt>
      <trkpt lat="47.28573" lon="0.60012">
        <ele>91.2</ele>
        <time>2012-09-23T08:49:30Z</time>
      </trkpt>
      <trkpt lat="47.2858" lon="0.60015">
        <ele>90.6</ele>
        <time>2012-09-23T08:49:34Z</time>
      </trkpt>
      <trkpt lat="47.28587" lon="0.6002">
        <ele>89.9</ele>
        <time>2012-09-23T08:49:39Z</time>
      </trkpt>
      <trkpt lat="47.28595" lon="0.60024">
        <ele>89.1</ele>
        <time>2012-09-23T08:51:03Z</time>
      </trkpt>
      <trkpt lat="47.28597" lon="0.60026">
        <ele>88.9</ele>
        <time>2012-09-23T08:51:04Z</time>
      </trkpt>
      <trkpt lat="47.28607" lon="0.60032">
        <ele>87.8</ele>
        <time>2012-09-23T08:51:07Z</time>
      </trkpt>
      <trkpt lat="47.28615" lon="0.60035">
        <ele>87</ele>
        <time>2012-09-23T08:51:09Z</time>
      </trkpt>
      <trkpt lat="47.28621" lon="0.60037">
        <ele>86.4</ele>
        <time>2012-09-23T08:51:11Z</time>
      </trkpt>
      <trkpt lat="47.28629" lon="0.6004">
        <ele>85.7</ele>
        <time>2012-09-23T08:51:13Z</time>
      </trkpt>
      <trkpt lat="47.28636" lon="0.60046">
        <ele>84.9</ele>
        <time>2012-09-23T08:51:16Z</time>
      </trkpt>
      <trkpt lat="47.28638" lon="0.60054">
        <ele>84.6</ele>
        <time>2012-09-23T08:51:18Z</time>
      </trkpt>
      <trkpt lat="47.28638" lon="0.60054">
        <ele>84.6</ele>
        <time>2012-09-23T08:51:18Z</time>
      </trkpt>
      <trkpt lat="47.28637" lon="0.60064">
        <ele>84.5</ele>
        <time>2012-09-23T08:51:20Z</time>
      </trkpt>
      <trkpt lat="47.28635" lon="0.60077">
        <ele>84.3</ele>
        <time>2012-09-23T08:51:23Z</time>
      </trkpt>
      <trkpt lat="47.28634" lon="0.60086">
        <ele>84.3</ele>
        <time>2012-09-23T08:51:25Z</time>
      </trkpt>
      <trkpt lat="47.28634" lon="0.60099">
        <ele>84.4</ele>
        <time>2012-09-23T08:51:28Z</time>
      </trkpt>
      <trkpt lat="47.28633" lon="0.60109">
        <ele>84.5</ele>
        <time>2012-09-23T08:51:30Z</time>
      </trkpt>
      <trkpt lat="47.28633" lon="0.60121">
        <ele>84.5</ele>
        <time>2012-09-23T08:51:33Z</time>
      </trkpt>
      <trkpt lat="47.28633" lon="0.60133">
        <ele>84.6</ele>
        <time>2012-09-23T08:51:36Z</time>
      </trkpt>
      <trkpt lat="47.28632" lon="0.60143">
        <ele>84.7</ele>
        <time>2012-09-23T08:51:38Z</time>
      </trkpt>
      <trkpt lat="47.28631" lon="0.60153">
        <ele>84.8</ele>
        <time>2012-09-23T08:51:40Z</time>
      </trkpt>
      <trkpt lat="47.2863" lon="0.60163">
        <ele>84.8</ele>
        <time>2012-09-23T08:51:42Z</time>
      </trkpt>
      <trkpt lat="47.28629" lon="0.60174">
        <ele>84.9</ele>
        <time>2012-09-23T08:51:44Z</time>
      </trkpt>
      <trkpt lat="47.28628" lon="0.60184">
        <ele>85.1</ele>
        <time>2012-09-23T08:51:46Z</time>
      </trkpt>
      <trkpt lat="47.28627" lon="0.60195">
        <ele>85.2</ele>
        <time>2012-09-23T08:51:48Z</time>
      </trkpt>
      <trkpt lat="47.28627" lon="0.60205">
        <ele>85.4</ele>
        <time>2012-09-23T08:51:50Z</time>
      </trkpt>
      <trkpt lat="47.28626" lon="0.60214">
        <ele>85.5</ele>
        <time>2012-09-23T08:51:52Z</time>
      </trkpt>
      <trkpt lat="47.28626" lon="0.60224">
        <ele>85.6</ele>
        <time>2012-09-23T08:51:54Z</time>
      </trkpt>
      <trkpt lat="47.28626" lon="0.60236">
        <ele>85.8</ele>
        <time>2012-09-23T08:51:56Z</time>
      </trkpt>
      <trkpt lat="47.28625" lon="0.60248">
        <ele>85.9</ele>
        <time>2012-09-23T08:51:58Z</time>
      </trkpt>
      <trkpt lat="47.28625" lon="0.60258">
        <ele>86</ele>
        <time>2012-09-23T08:52:00Z</time>
      </trkpt>
      <trkpt lat="47.28625" lon="0.6027">
        <ele>86</ele>
        <time>2012-09-23T08:52:02Z</time>
      </trkpt>
      <trkpt lat="47.28625" lon="0.60276">
        <ele>86</ele>
        <time>2012-09-23T08:52:03Z</time>
      </trkpt>
      <trkpt lat="47.28625" lon="0.60283">
        <ele>86</ele>
        <time>2012-09-23T08:52:04Z</time>
      </trkpt>
      <trkpt lat="47.28625" lon="0.6029">
        <ele>86</ele>
        <time>2012-09-23T08:52:05Z</time>
      </trkpt>
      <trkpt lat="47.28625" lon="0.60307">
        <ele>86</ele>
        <time>2012-09-23T08:52:08Z</time>
      </trkpt>
      <trkpt lat="47.28624" lon="0.60314">
        <ele>86</ele>
        <time>2012-09-23T08:52:09Z</time>
      </trkpt>
      <trkpt lat="47.28624" lon="0.60321">
        <ele>86</ele>
        <time>2012-09-23T08:52:10Z</time>
      </trkpt>
      <trkpt lat="47.28622" lon="0.60334">
        <ele>86</ele>
        <time>2012-09-23T08:52:12Z</time>
      </trkpt>
      <trkpt lat="47.2862" lon="0.60341">
        <ele>86.1</ele>
        <time>2012-09-23T08:52:13Z</time>
      </trkpt>
      <trkpt lat="47.28618" lon="0.60349">
        <ele>86.2</ele>
        <time>2012-09-23T08:52:14Z</time>
      </trkpt>
      <trkpt lat="47.28616" lon="0.60355">
        <ele>86.3</ele>
        <time>2012-09-23T08:52:15Z</time>
      </trkpt>
      <trkpt lat="47.28613" lon="0.60362">
        <ele>86.4</ele>
        <time>2012-09-23T08:52:16Z</time>
      </trkpt>
      <trkpt lat="47.2861" lon="0.6037">
        <ele>86.5</ele>
        <time>2012-09-23T08:52:17Z</time>
      </trkpt>
      <trkpt lat="47.28607" lon="0.60378">
        <ele>86.7</ele>
        <time>2012-09-23T08:52:18Z</time>
      </trkpt>
      <trkpt lat="47.28603" lon="0.60386">
        <ele>86.9</ele>
        <time>2012-09-23T08:52:19Z</time>
      </trkpt>
      <trkpt lat="47.28599" lon="0.60394">
        <ele>87.1</ele>
        <time>2012-09-23T08:52:20Z</time>
      </trkpt>
      <trkpt lat="47.28596" lon="0.60403">
        <ele>87.4</ele>
        <time>2012-09-23T08:52:21Z</time>
      </trkpt>
      <trkpt lat="47.28592" lon="0.60412">
        <ele>87.6</ele>
        <time>2012-09-23T08:52:22Z</time>
      </trkpt>
      <trkpt lat="47.28589" lon="0.60419">
        <ele>87.7</ele>
        <time>2012-09-23T08:52:23Z</time>
      </trkpt>
      <trkpt lat="47.28586" lon="0.60428">
        <ele>87.3</ele>
        <time>2012-09-23T08:52:24Z</time>
      </trkpt>
      <trkpt lat="47.28583" lon="0.60434">
        <ele>86.9</ele>
        <time>2012-09-23T08:52:25Z</time>
      </trkpt>
      <trkpt lat="47.2858" lon="0.60442">
        <ele>86.4</ele>
        <time>2012-09-23T08:52:26Z</time>
      </trkpt>
      <trkpt lat="47.28577" lon="0.60448">
        <ele>85.9</ele>
        <time>2012-09-23T08:52:27Z</time>
      </trkpt>
      <trkpt lat="47.28575" lon="0.60455">
        <ele>85.5</ele>
        <time>2012-09-23T08:52:28Z</time>
      </trkpt>
      <trkpt lat="47.28572" lon="0.6046">
        <ele>85.2</ele>
        <time>2012-09-23T08:52:29Z</time>
      </trkpt>
      <trkpt lat="47.28569" lon="0.60472">
        <ele>84.5</ele>
        <time>2012-09-23T08:52:31Z</time>
      </trkpt>
      <trkpt lat="47.28566" lon="0.60483">
        <ele>83.9</ele>
        <time>2012-09-23T08:52:33Z</time>
      </trkpt>
      <trkpt lat="47.28562" lon="0.60493">
        <ele>83.3</ele>
        <time>2012-09-23T08:52:35Z</time>
      </trkpt>
      <trkpt lat="47.2856" lon="0.60503">
        <ele>82.9</ele>
        <time>2012-09-23T08:52:37Z</time>
      </trkpt>
      <trkpt lat="47.28557" lon="0.60513">
        <ele>82.7</ele>
        <time>2012-09-23T08:52:39Z</time>
      </trkpt>
      <trkpt lat="47.28555" lon="0.60523">
        <ele>82.5</ele>
        <time>2012-09-23T08:52:42Z</time>
      </trkpt>
      <trkpt lat="47.28556" lon="0.60533">
        <ele>82.3</ele>
        <time>2012-09-23T08:52:44Z</time>
      </trkpt>
      <trkpt lat="47.2856" lon="0.60543">
        <ele>82.1</ele>
        <time>2012-09-23T08:52:46Z</time>
      </trkpt>
      <trkpt lat="47.28565" lon="0.60552">
        <ele>81.8</ele>
        <time>2012-09-23T08:52:48Z</time>
      </trkpt>
      <trkpt lat="47.28571" lon="0.60562">
        <ele>81.6</ele>
        <time>2012-09-23T08:52:50Z</time>
      </trkpt>
      <trkpt lat="47.28575" lon="0.6057">
        <ele>81.4</ele>
        <time>2012-09-23T08:52:52Z</time>
      </trkpt>
      <trkpt lat="47.2858" lon="0.6058">
        <ele>81.1</ele>
        <time>2012-09-23T08:52:54Z</time>
      </trkpt>
      <trkpt lat="47.28585" lon="0.60589">
        <ele>81.1</ele>
        <time>2012-09-23T08:52:56Z</time>
      </trkpt>
      <trkpt lat="47.28592" lon="0.60599">
        <ele>81.3</ele>
        <time>2012-09-23T08:52:58Z</time>
      </trkpt>
      <trkpt lat="47.28595" lon="0.60603">
        <ele>81.4</ele>
        <time>2012-09-23T08:52:59Z</time>
      </trkpt>
      <trkpt lat="47.28602" lon="0.60612">
        <ele>81.7</ele>
        <time>2012-09-23T08:53:01Z</time>
      </trkpt>
      <trkpt lat="47.28607" lon="0.6062">
        <ele>81.8</ele>
        <time>2012-09-23T08:53:03Z</time>
      </trkpt>
      <trkpt lat="47.28613" lon="0.60628">
        <ele>82</ele>
        <time>2012-09-23T08:53:05Z</time>
      </trkpt>
      <trkpt lat="47.28617" lon="0.60633">
        <ele>82.1</ele>
        <time>2012-09-23T08:53:06Z</time>
      </trkpt>
      <trkpt lat="47.28622" lon="0.60642">
        <ele>82.3</ele>
        <time>2012-09-23T08:53:08Z</time>
      </trkpt>
      <trkpt lat="47.28627" lon="0.60651">
        <ele>82.4</ele>
        <time>2012-09-23T08:53:10Z</time>
      </trkpt>
      <trkpt lat="47.28632" lon="0.6066">
        <ele>82.5</ele>
        <time>2012-09-23T08:53:12Z</time>
      </trkpt>
      <trkpt lat="47.28891" lon="0.60891">
        <ele>68.8</ele>
        <time>2012-09-23T08:54:02Z</time>
      </trkpt>
      <trkpt lat="47.2889" lon="0.60899">
        <ele>69</ele>
        <time>2012-09-23T08:54:03Z</time>
      </trkpt>
      <trkpt lat="47.28887" lon="0.60907">
        <ele>69.1</ele>
        <time>2012-09-23T08:54:04Z</time>
      </trkpt>
      <trkpt lat="47.28886" lon="0.60915">
        <ele>69.2</ele>
        <time>2012-09-23T08:54:05Z</time>
      </trkpt>
      <trkpt lat="47.28884" lon="0.60923">
        <ele>69.8</ele>
        <time>2012-09-23T08:54:06Z</time>
      </trkpt>
      <trkpt lat="47.28884" lon="0.6093">
        <ele>70.5</ele>
        <time>2012-09-23T08:54:07Z</time>
      </trkpt>
      <trkpt lat="47.28884" lon="0.60937">
        <ele>71.1</ele>
        <time>2012-09-23T08:54:08Z</time>
      </trkpt>
      <trkpt lat="47.28884" lon="0.60944">
        <ele>71.9</ele>
        <time>2012-09-23T08:54:09Z</time>
      </trkpt>
      <trkpt lat="47.28884" lon="0.60957">
        <ele>73.2</ele>
        <time>2012-09-23T08:54:11Z</time>
      </trkpt>
      <trkpt lat="47.2888" lon="0.60967">
        <ele>73.8</ele>
        <time>2012-09-23T08:54:13Z</time>
      </trkpt>
      <trkpt lat="47.28874" lon="0.60976">
        <ele>74.4</ele>
        <time>2012-09-23T08:54:15Z</time>
      </trkpt>
      <trkpt lat="47.28871" lon="0.6098">
        <ele>74.6</ele>
        <time>2012-09-23T08:54:16Z</time>
      </trkpt>
      <trkpt lat="47.28867" lon="0.60984">
        <ele>74.9</ele>
        <time>2012-09-23T08:54:17Z</time>
      </trkpt>
      <trkpt lat="47.28863" lon="0.60988">
        <ele>75.1</ele>
        <time>2012-09-23T08:54:18Z</time>
      </trkpt>
      <trkpt lat="47.28858" lon="0.60992">
        <ele>75.3</ele>
        <time>2012-09-23T08:54:19Z</time>
      </trkpt>
      <trkpt lat="47.28855" lon="0.60995">
        <ele>75.4</ele>
        <time>2012-09-23T08:54:20Z</time>
      </trkpt>
      <trkpt lat="47.2885" lon="0.60999">
        <ele>75.6</ele>
        <time>2012-09-23T08:54:21Z</time>
      </trkpt>
      <trkpt lat="47.28845" lon="0.61003">
        <ele>75.7</ele>
        <time>2012-09-23T08:54:22Z</time>
      </trkpt>
      <trkpt lat="47.2884" lon="0.61007">
        <ele>75.8</ele>
        <time>2012-09-23T08:54:23Z</time>
      </trkpt>
      <trkpt lat="47.28835" lon="0.61011">
        <ele>75.9</ele>
        <time>2012-09-23T08:54:24Z</time>
      </trkpt>
      <trkpt lat="47.28831" lon="0.61014">
        <ele>75.8</ele>
        <time>2012-09-23T08:54:25Z</time>
      </trkpt>
      <trkpt lat="47.28827" lon="0.61019">
        <ele>75.5</ele>
        <time>2012-09-23T08:54:26Z</time>
      </trkpt>
      <trkpt lat="47.28822" lon="0.61023">
        <ele>75.2</ele>
        <time>2012-09-23T08:54:27Z</time>
      </trkpt>
      <trkpt lat="47.28818" lon="0.61028">
        <ele>75</ele>
        <time>2012-09-23T08:54:28Z</time>
      </trkpt>
      <trkpt lat="47.28813" lon="0.61033">
        <ele>74.8</ele>
        <time>2012-09-23T08:54:29Z</time>
      </trkpt>
      <trkpt lat="47.28809" lon="0.61038">
        <ele>74.6</ele>
        <time>2012-09-23T08:54:30Z</time>
      </trkpt>
      <trkpt lat="47.28805" lon="0.61044">
        <ele>74.5</ele>
        <time>2012-09-23T08:54:31Z</time>
      </trkpt>
      <trkpt lat="47.28801" lon="0.61049">
        <ele>74.3</ele>
        <time>2012-09-23T08:54:32Z</time>
      </trkpt>
      <trkpt lat="47.28797" lon="0.61055">
        <ele>74.2</ele>
        <time>2012-09-23T08:54:33Z</time>
      </trkpt>
      <trkpt lat="47.28793" lon="0.61061">
        <ele>74.2</ele>
        <time>2012-09-23T08:54:34Z</time>
      </trkpt>
      <trkpt lat="47.28789" lon="0.61068">
        <ele>74.3</ele>
        <time>2012-09-23T08:54:35Z</time>
      </trkpt>
      <trkpt lat="47.28786" lon="0.61074">
        <ele>74.3</ele>
        <time>2012-09-23T08:54:36Z</time>
      </trkpt>
      <trkpt lat="47.28782" lon="0.61081">
        <ele>74.4</ele>
        <time>2012-09-23T08:54:37Z</time>
      </trkpt>
      <trkpt lat="47.28779" lon="0.6109">
        <ele>74.3</ele>
        <time>2012-09-23T08:54:38Z</time>
      </trkpt>
      <trkpt lat="47.28777" lon="0.61096">
        <ele>74.5</ele>
        <time>2012-09-23T08:54:39Z</time>
      </trkpt>
      <trkpt lat="47.28777" lon="0.61108">
        <ele>75.1</ele>
        <time>2012-09-23T08:54:41Z</time>
      </trkpt>
      <trkpt lat="47.28772" lon="0.61118">
        <ele>75.1</ele>
        <time>2012-09-23T08:54:42Z</time>
      </trkpt>
      <trkpt lat="47.28769" lon="0.61129">
        <ele>75.4</ele>
        <time>2012-09-23T08:54:43Z</time>
      </trkpt>
      <trkpt lat="47.28766" lon="0.61139">
        <ele>75.6</ele>
        <time>2012-09-23T08:54:44Z</time>
      </trkpt>
      <trkpt lat="47.28762" lon="0.61149">
        <ele>75.8</ele>
        <time>2012-09-23T08:54:45Z</time>
      </trkpt>
      <trkpt lat="47.28758" lon="0.61159">
        <ele>76.1</ele>
        <time>2012-09-23T08:54:46Z</time>
      </trkpt>
      <trkpt lat="47.28754" lon="0.61167">
        <ele>76.3</ele>
        <time>2012-09-23T08:54:47Z</time>
      </trkpt>
      <trkpt lat="47.2875" lon="0.61173">
        <ele>76.1</ele>
        <time>2012-09-23T08:54:48Z</time>
      </trkpt>
      <trkpt lat="47.28747" lon="0.6118">
        <ele>75.3</ele>
        <time>2012-09-23T08:54:49Z</time>
      </trkpt>
      <trkpt lat="47.28743" lon="0.61186">
        <ele>74.5</ele>
        <time>2012-09-23T08:54:50Z</time>
      </trkpt>
      <trkpt lat="47.28739" lon="0.61192">
        <ele>73.8</ele>
        <time>2012-09-23T08:54:51Z</time>
      </trkpt>
      <trkpt lat="47.28735" lon="0.61199">
        <ele>73.1</ele>
        <time>2012-09-23T08:54:52Z</time>
      </trkpt>
      <trkpt lat="47.28732" lon="0.61205">
        <ele>72.4</ele>
        <time>2012-09-23T08:54:53Z</time>
      </trkpt>
      <trkpt lat="47.28729" lon="0.61211">
        <ele>71.9</ele>
        <time>2012-09-23T08:54:54Z</time>
      </trkpt>
      <trkpt lat="47.28724" lon="0.61222">
        <ele>71.2</ele>
        <time>2012-09-23T08:54:56Z</time>
      </trkpt>
      <trkpt lat="47.28722" lon="0.61229">
        <ele>70.9</ele>
        <time>2012-09-23T08:54:57Z</time>
      </trkpt>
      <trkpt lat="47.2872" lon="0.61235">
        <ele>70.7</ele>
        <time>2012-09-23T08:54:58Z</time>
      </trkpt>
      <trkpt lat="47.28718" lon="0.61242">
        <ele>70.4</ele>
        <time>2012-09-23T08:54:59Z</time>
      </trkpt>
      <trkpt lat="47.28715" lon="0.61249">
        <ele>70.3</ele>
        <time>2012-09-23T08:55:00Z</time>
      </trkpt>
      <trkpt lat="47.28714" lon="0.61257">
        <ele>70.1</ele>
        <time>2012-09-23T08:55:01Z</time>
      </trkpt>
      <trkpt lat="47.28712" lon="0.61264">
        <ele>69.9</ele>
        <time>2012-09-23T08:55:02Z</time>
      </trkpt>
      <trkpt lat="47.28711" lon="0.61272">
        <ele>69.9</ele>
        <time>2012-09-23T08:55:03Z</time>
      </trkpt>
      <trkpt lat="47.28709" lon="0.6128">
        <ele>69.8</ele>
        <time>2012-09-23T08:55:04Z</time>
      </trkpt>
      <trkpt lat="47.28708" lon="0.61288">
        <ele>69.9</ele>
        <time>2012-09-23T08:55:05Z</time>
      </trkpt>
      <trkpt lat="47.28707" lon="0.61295">
        <ele>69.8</ele>
        <time>2012-09-23T08:55:06Z</time>
      </trkpt>
      <trkpt lat="47.28706" lon="0.61304">
        <ele>69.8</ele>
        <time>2012-09-23T08:55:07Z</time>
      </trkpt>
      <trkpt lat="47.28704" lon="0.61314">
        <ele>69.7</ele>
        <time>2012-09-23T08:55:08Z</time>
      </trkpt>
      <trkpt lat="47.28702" lon="0.61322">
        <ele>69.7</ele>
        <time>2012-09-23T08:55:09Z</time>
      </trkpt>
      <trkpt lat="47.28701" lon="0.61331">
        <ele>69.6</ele>
        <time>2012-09-23T08:55:10Z</time>
      </trkpt>
      <trkpt lat="47.28698" lon="0.6134">
        <ele>69.2</ele>
        <time>2012-09-23T08:55:11Z</time>
      </trkpt>
      <trkpt lat="47.28695" lon="0.61348">
        <ele>68.8</ele>
        <time>2012-09-23T08:55:12Z</time>
      </trkpt>
      <trkpt lat="47.28693" lon="0.61355">
        <ele>68.4</ele>
        <time>2012-09-23T08:55:13Z</time>
      </trkpt>
      <trkpt lat="47.2869" lon="0.61362">
        <ele>68.1</ele>
        <time>2012-09-23T08:55:14Z</time>
      </trkpt>
      <trkpt lat="47.28688" lon="0.61368">
        <ele>67.8</ele>
        <time>2012-09-23T08:55:15Z</time>
      </trkpt>
      <trkpt lat="47.28686" lon="0.61375">
        <ele>67.5</ele>
        <time>2012-09-23T08:55:16Z</time>
      </trkpt>
      <trkpt lat="47.28684" lon="0.61381">
        <ele>67.2</ele>
        <time>2012-09-23T08:55:17Z</time>
      </trkpt>
      <trkpt lat="47.28682" lon="0.61388">
        <ele>66.9</ele>
        <time>2012-09-23T08:55:18Z</time>
      </trkpt>
      <trkpt lat="47.28679" lon="0.61395">
        <ele>66.5</ele>
        <time>2012-09-23T08:55:19Z</time>
      </trkpt>
      <trkpt lat="47.28676" lon="0.61401">
        <ele>66.1</ele>
        <time>2012-09-23T08:55:20Z</time>
      </trkpt>
      <trkpt lat="47.28672" lon="0.61408">
        <ele>65.7</ele>
        <time>2012-09-23T08:55:21Z</time>
      </trkpt>
      <trkpt lat="47.2867" lon="0.61415">
        <ele>65.3</ele>
        <time>2012-09-23T08:55:22Z</time>
      </trkpt>
      <trkpt lat="47.28667" lon="0.61422">
        <ele>64.8</ele>
        <time>2012-09-23T08:55:23Z</time>
      </trkpt>
      <trkpt lat="47.28664" lon="0.61429">
        <ele>64.1</ele>
        <time>2012-09-23T08:55:24Z</time>
      </trkpt>
      <trkpt lat="47.28661" lon="0.61436">
        <ele>63.4</ele>
        <time>2012-09-23T08:55:25Z</time>
      </trkpt>
      <trkpt lat="47.28658" lon="0.61442">
        <ele>62.9</ele>
        <time>2012-09-23T08:55:26Z</time>
      </trkpt>
      <trkpt lat="47.28656" lon="0.61449">
        <ele>62.2</ele>
        <time>2012-09-23T08:55:27Z</time>
      </trkpt>
      <trkpt lat="47.28652" lon="0.6146">
        <ele>61.2</ele>
        <time>2012-09-23T08:55:29Z</time>
      </trkpt>
      <trkpt lat="47.28649" lon="0.61466">
        <ele>60.7</ele>
        <time>2012-09-23T08:55:30Z</time>
      </trkpt>
      <trkpt lat="47.28647" lon="0.61472">
        <ele>60.3</ele>
        <time>2012-09-23T08:55:31Z</time>
      </trkpt>
      <trkpt lat="47.28644" lon="0.6148">
        <ele>59.6</ele>
        <time>2012-09-23T08:55:32Z</time>
      </trkpt>
      <trkpt lat="47.28641" lon="0.61488">
        <ele>59</ele>
        <time>2012-09-23T08:55:33Z</time>
      </trkpt>
      <trkpt lat="47.28639" lon="0.61494">
        <ele>58.4</ele>
        <time>2012-09-23T08:55:34Z</time>
      </trkpt>
      <trkpt lat="47.28636" lon="0.61501">
        <ele>57.9</ele>
        <time>2012-09-23T08:55:35Z</time>
      </trkpt>
      <trkpt lat="47.28634" lon="0.61508">
        <ele>57.5</ele>
        <time>2012-09-23T08:55:36Z</time>
      </trkpt>
      <trkpt lat="47.28631" lon="0.61515">
        <ele>57.1</ele>
        <time>2012-09-23T08:55:37Z</time>
      </trkpt>
      <trkpt lat="47.28629" lon="0.61521">
        <ele>56.8</ele>
        <time>2012-09-23T08:55:38Z</time>
      </trkpt>
      <trkpt lat="47.28626" lon="0.61529">
        <ele>56.3</ele>
        <time>2012-09-23T08:55:39Z</time>
      </trkpt>
      <trkpt lat="47.28623" lon="0.61536">
        <ele>55.8</ele>
        <time>2012-09-23T08:55:40Z</time>
      </trkpt>
      <trkpt lat="47.2862" lon="0.61543">
        <ele>55.4</ele>
        <time>2012-09-23T08:55:41Z</time>
      </trkpt>
      <trkpt lat="47.28617" lon="0.6155">
        <ele>54.9</ele>
        <time>2012-09-23T08:55:42Z</time>
      </trkpt>
      <trkpt lat="47.28615" lon="0.61558">
        <ele>54.5</ele>
        <time>2012-09-23T08:55:43Z</time>
      </trkpt>
      <trkpt lat="47.28612" lon="0.61565">
        <ele>54</ele>
        <time>2012-09-23T08:55:44Z</time>
      </trkpt>
      <trkpt lat="47.28609" lon="0.61572">
        <ele>53.5</ele>
        <time>2012-09-23T08:55:45Z</time>
      </trkpt>
      <trkpt lat="47.28607" lon="0.61579">
        <ele>53.2</ele>
        <time>2012-09-23T08:55:46Z</time>
      </trkpt>
      <trkpt lat="47.28604" lon="0.61586">
        <ele>52.7</ele>
        <time>2012-09-23T08:55:47Z</time>
      </trkpt>
      <trkpt lat="47.28601" lon="0.61592">
        <ele>52.3</ele>
        <time>2012-09-23T08:55:48Z</time>
      </trkpt>
      <trkpt lat="47.28599" lon="0.616">
        <ele>52</ele>
        <time>2012-09-23T08:55:49Z</time>
      </trkpt>
      <trkpt lat="47.28596" lon="0.61606">
        <ele>51.6</ele>
        <time>2012-09-23T08:55:50Z</time>
      </trkpt>
      <trkpt lat="47.28594" lon="0.61613">
        <ele>51.2</ele>
        <time>2012-09-23T08:55:51Z</time>
      </trkpt>
      <trkpt lat="47.28591" lon="0.6162">
        <ele>50.8</ele>
        <time>2012-09-23T08:55:52Z</time>
      </trkpt>
      <trkpt lat="47.28588" lon="0.61628">
        <ele>50.4</ele>
        <time>2012-09-23T08:55:53Z</time>
      </trkpt>
      <trkpt lat="47.28586" lon="0.61634">
        <ele>50</ele>
        <time>2012-09-23T08:55:54Z</time>
      </trkpt>
      <trkpt lat="47.28584" lon="0.61642">
        <ele>49.7</ele>
        <time>2012-09-23T08:55:55Z</time>
      </trkpt>
      <trkpt lat="47.28581" lon="0.61649">
        <ele>49.7</ele>
        <time>2012-09-23T08:55:56Z</time>
      </trkpt>
      <trkpt lat="47.28579" lon="0.61657">
        <ele>49.7</ele>
        <time>2012-09-23T08:55:57Z</time>
      </trkpt>
      <trkpt lat="47.28577" lon="0.61664">
        <ele>49.8</ele>
        <time>2012-09-23T08:55:58Z</time>
      </trkpt>
      <trkpt lat="47.28575" lon="0.61672">
        <ele>49.8</ele>
        <time>2012-09-23T08:55:59Z</time>
      </trkpt>
      <trkpt lat="47.28574" lon="0.6168">
        <ele>49.8</ele>
        <time>2012-09-23T08:56:00Z</time>
      </trkpt>
      <trkpt lat="47.28572" lon="0.61688">
        <ele>49.9</ele>
        <time>2012-09-23T08:56:01Z</time>
      </trkpt>
      <trkpt lat="47.28571" lon="0.61695">
        <ele>49.9</ele>
        <time>2012-09-23T08:56:02Z</time>
      </trkpt>
      <trkpt lat="47.28569" lon="0.61702">
        <ele>49.9</ele>
        <time>2012-09-23T08:56:03Z</time>
      </trkpt>
      <trkpt lat="47.28568" lon="0.61715">
        <ele>49.9</ele>
        <time>2012-09-23T08:56:05Z</time>
      </trkpt>
      <trkpt lat="47.28566" lon="0.61728">
        <ele>50</ele>
        <time>2012-09-23T08:56:07Z</time>
      </trkpt>
      <trkpt lat="47.28565" lon="0.61735">
        <ele>50</ele>
        <time>2012-09-23T08:56:08Z</time>
      </trkpt>
      <trkpt lat="47.28564" lon="0.61743">
        <ele>50</ele>
        <time>2012-09-23T08:56:09Z</time>
      </trkpt>
      <trkpt lat="47.28563" lon="0.61752">
        <ele>50</ele>
        <time>2012-09-23T08:56:10Z</time>
      </trkpt>
      <trkpt lat="47.28562" lon="0.6176">
        <ele>50.1</ele>
        <time>2012-09-23T08:56:11Z</time>
      </trkpt>
      <trkpt lat="47.28561" lon="0.61768">
        <ele>50.2</ele>
        <time>2012-09-23T08:56:12Z</time>
      </trkpt>
      <trkpt lat="47.2856" lon="0.61777">
        <ele>50.3</ele>
        <time>2012-09-23T08:56:13Z</time>
      </trkpt>
      <trkpt lat="47.28558" lon="0.61785">
        <ele>50.5</ele>
        <time>2012-09-23T08:56:14Z</time>
      </trkpt>
      <trkpt lat="47.28557" lon="0.61793">
        <ele>50.6</ele>
        <time>2012-09-23T08:56:15Z</time>
      </trkpt>
      <trkpt lat="47.28556" lon="0.618">
        <ele>50.6</ele>
        <time>2012-09-23T08:56:16Z</time>
      </trkpt>
      <trkpt lat="47.28555" lon="0.61807">
        <ele>50.8</ele>
        <time>2012-09-23T08:56:17Z</time>
      </trkpt>
      <trkpt lat="47.28554" lon="0.61815">
        <ele>50.8</ele>
        <time>2012-09-23T08:56:18Z</time>
      </trkpt>
      <trkpt lat="47.28553" lon="0.61822">
        <ele>50.9</ele>
        <time>2012-09-23T08:56:19Z</time>
      </trkpt>
      <trkpt lat="47.28551" lon="0.61829">
        <ele>50.9</ele>
        <time>2012-09-23T08:56:20Z</time>
      </trkpt>
      <trkpt lat="47.2855" lon="0.61836">
        <ele>51</ele>
        <time>2012-09-23T08:56:21Z</time>
      </trkpt>
      <trkpt lat="47.28549" lon="0.61843">
        <ele>51.1</ele>
        <time>2012-09-23T08:56:22Z</time>
      </trkpt>
      <trkpt lat="47.28548" lon="0.6185">
        <ele>51.3</ele>
        <time>2012-09-23T08:56:23Z</time>
      </trkpt>
      <trkpt lat="47.28547" lon="0.61858">
        <ele>51.4</ele>
        <time>2012-09-23T08:56:24Z</time>
      </trkpt>
      <trkpt lat="47.28546" lon="0.61866">
        <ele>51.5</ele>
        <time>2012-09-23T08:56:25Z</time>
      </trkpt>
      <trkpt lat="47.28545" lon="0.61873">
        <ele>51.6</ele>
        <time>2012-09-23T08:56:26Z</time>
      </trkpt>
      <trkpt lat="47.28543" lon="0.61881">
        <ele>51.7</ele>
        <time>2012-09-23T08:56:27Z</time>
      </trkpt>
      <trkpt lat="47.28542" lon="0.61888">
        <ele>51.8</ele>
        <time>2012-09-23T08:56:28Z</time>
      </trkpt>
      <trkpt lat="47.2854" lon="0.61896">
        <ele>51.8</ele>
        <time>2012-09-23T08:56:29Z</time>
      </trkpt>
      <trkpt lat="47.28538" lon="0.61902">
        <ele>51.8</ele>
        <time>2012-09-23T08:56:30Z</time>
      </trkpt>
      <trkpt lat="47.28536" lon="0.61909">
        <ele>51.8</ele>
        <time>2012-09-23T08:56:31Z</time>
      </trkpt>
      <trkpt lat="47.28533" lon="0.61916">
        <ele>51.7</ele>
        <time>2012-09-23T08:56:32Z</time>
      </trkpt>
      <trkpt lat="47.2853" lon="0.61923">
        <ele>51.6</ele>
        <time>2012-09-23T08:56:33Z</time>
      </trkpt>
      <trkpt lat="47.28527" lon="0.61929">
        <ele>51.5</ele>
        <time>2012-09-23T08:56:34Z</time>
      </trkpt>
      <trkpt lat="47.28524" lon="0.61936">
        <ele>51.4</ele>
        <time>2012-09-23T08:56:35Z</time>
      </trkpt>
      <trkpt lat="47.28521" lon="0.61941">
        <ele>51.3</ele>
        <time>2012-09-23T08:56:36Z</time>
      </trkpt>
      <trkpt lat="47.28518" lon="0.61947">
        <ele>51</ele>
        <time>2012-09-23T08:56:37Z</time>
      </trkpt>
      <trkpt lat="47.28515" lon="0.61953">
        <ele>50.8</ele>
        <time>2012-09-23T08:56:38Z</time>
      </trkpt>
      <trkpt lat="47.28511" lon="0.6196">
        <ele>50.6</ele>
        <time>2012-09-23T08:56:39Z</time>
      </trkpt>
      <trkpt lat="47.28508" lon="0.61965">
        <ele>50.4</ele>
        <time>2012-09-23T08:56:40Z</time>
      </trkpt>
      <trkpt lat="47.28505" lon="0.61972">
        <ele>50.1</ele>
        <time>2012-09-23T08:56:41Z</time>
      </trkpt>
      <trkpt lat="47.28502" lon="0.61978">
        <ele>49.9</ele>
        <time>2012-09-23T08:56:42Z</time>
      </trkpt>
      <trkpt lat="47.28499" lon="0.61984">
        <ele>49.7</ele>
        <time>2012-09-23T08:56:43Z</time>
      </trkpt>
      <trkpt lat="47.28496" lon="0.6199">
        <ele>49.8</ele>
        <time>2012-09-23T08:56:44Z</time>
      </trkpt>
      <trkpt lat="47.28493" lon="0.61997">
        <ele>49.8</ele>
        <time>2012-09-23T08:56:45Z</time>
      </trkpt>
      <trkpt lat="47.28488" lon="0.62006">
        <ele>49.9</ele>
        <time>2012-09-23T08:56:47Z</time>
      </trkpt>
      <trkpt lat="47.28483" lon="0.62014">
        <ele>49.9</ele>
        <time>2012-09-23T08:56:49Z</time>
      </trkpt>
      <trkpt lat="47.28479" lon="0.6202">
        <ele>49.9</ele>
        <time>2012-09-23T08:56:50Z</time>
      </trkpt>
      <trkpt lat="47.28474" lon="0.6203">
        <ele>50</ele>
        <time>2012-09-23T08:56:52Z</time>
      </trkpt>
      <trkpt lat="47.28469" lon="0.62039">
        <ele>50.1</ele>
        <time>2012-09-23T08:56:54Z</time>
      </trkpt>
      <trkpt lat="47.28466" lon="0.62045">
        <ele>50.1</ele>
        <time>2012-09-23T08:56:55Z</time>
      </trkpt>
      <trkpt lat="47.28464" lon="0.6205">
        <ele>50.1</ele>
        <time>2012-09-23T08:56:56Z</time>
      </trkpt>
      <trkpt lat="47.28461" lon="0.62056">
        <ele>50.1</ele>
        <time>2012-09-23T08:56:57Z</time>
      </trkpt>
      <trkpt lat="47.28456" lon="0.62066">
        <ele>50.2</ele>
        <time>2012-09-23T08:56:59Z</time>
      </trkpt>
      <trkpt lat="47.28451" lon="0.62075">
        <ele>50.3</ele>
        <time>2012-09-23T08:57:01Z</time>
      </trkpt>
      <trkpt lat="47.28435" lon="0.61937">
        <ele>49</ele>
        <time>2012-09-23T08:58:44Z</time>
      </trkpt>
      <trkpt lat="47.28431" lon="0.61929">
        <ele>49</ele>
        <time>2012-09-23T08:58:46Z</time>
      </trkpt>
      <trkpt lat="47.28424" lon="0.61924">
        <ele>49</ele>
        <time>2012-09-23T08:58:48Z</time>
      </trkpt>
      <trkpt lat="47.28418" lon="0.61919">
        <ele>49</ele>
        <time>2012-09-23T08:58:50Z</time>
      </trkpt>
      <trkpt lat="47.28411" lon="0.61916">
        <ele>48.9</ele>
        <time>2012-09-23T08:58:52Z</time>
      </trkpt>
      <trkpt lat="47.28405" lon="0.61911">
        <ele>48.9</ele>
        <time>2012-09-23T08:58:54Z</time>
      </trkpt>
      <trkpt lat="47.28398" lon="0.6191">
        <ele>48.9</ele>
        <time>2012-09-23T08:58:56Z</time>
      </trkpt>
      <trkpt lat="47.28391" lon="0.61909">
        <ele>48.9</ele>
        <time>2012-09-23T08:58:58Z</time>
      </trkpt>
      <trkpt lat="47.28384" lon="0.61908">
        <ele>48.8</ele>
        <time>2012-09-23T08:59:00Z</time>
      </trkpt>
      <trkpt lat="47.28376" lon="0.61902">
        <ele>48.8</ele>
        <time>2012-09-23T08:59:03Z</time>
      </trkpt>
      <trkpt lat="47.28371" lon="0.61894">
        <ele>48.7</ele>
        <time>2012-09-23T08:59:06Z</time>
      </trkpt>
      <trkpt lat="47.28365" lon="0.61886">
        <ele>48.6</ele>
        <time>2012-09-23T08:59:09Z</time>
      </trkpt>
      <trkpt lat="47.2836" lon="0.6188">
        <ele>48.5</ele>
        <time>2012-09-23T08:59:11Z</time>
      </trkpt>
      <trkpt lat="47.28353" lon="0.61872">
        <ele>48.4</ele>
        <time>2012-09-23T08:59:14Z</time>
      </trkpt>
      <trkpt lat="47.28347" lon="0.61868">
        <ele>48.4</ele>
        <time>2012-09-23T08:59:16Z</time>
      </trkpt>
      <trkpt lat="47.28342" lon="0.61863">
        <ele>48.3</ele>
        <time>2012-09-23T08:59:18Z</time>
      </trkpt>
      <trkpt lat="47.2834" lon="0.61861">
        <ele>48.3</ele>
        <time>2012-09-23T08:59:19Z</time>
      </trkpt>
      <trkpt lat="47.28332" lon="0.61854">
        <ele>48.2</ele>
        <time>2012-09-23T08:59:22Z</time>
      </trkpt>
      <trkpt lat="47.28325" lon="0.61848">
        <ele>48.4</ele>
        <time>2012-09-23T08:59:25Z</time>
      </trkpt>
      <trkpt lat="47.28318" lon="0.61843">
        <ele>48.5</ele>
        <time>2012-09-23T08:59:27Z</time>
      </trkpt>
      <trkpt lat="47.28311" lon="0.61837">
        <ele>48.8</ele>
        <time>2012-09-23T08:59:30Z</time>
      </trkpt>
      <trkpt lat="47.28304" lon="0.61835">
        <ele>49</ele>
        <time>2012-09-23T08:59:33Z</time>
      </trkpt>
      <trkpt lat="47.28297" lon="0.61835">
        <ele>49.3</ele>
        <time>2012-09-23T08:59:36Z</time>
      </trkpt>
      <trkpt lat="47.28289" lon="0.61839">
        <ele>49.5</ele>
        <time>2012-09-23T08:59:39Z</time>
      </trkpt>
      <trkpt lat="47.28282" lon="0.61845">
        <ele>49.6</ele>
        <time>2012-09-23T08:59:42Z</time>
      </trkpt>
      <trkpt lat="47.28275" lon="0.61849">
        <ele>49.7</ele>
        <time>2012-09-23T08:59:45Z</time>
      </trkpt>
      <trkpt lat="47.2827" lon="0.61853">
        <ele>49.8</ele>
        <time>2012-09-23T08:59:47Z</time>
      </trkpt>
      <trkpt lat="47.28263" lon="0.61859">
        <ele>49.7</ele>
        <time>2012-09-23T08:59:50Z</time>
      </trkpt>
      <trkpt lat="47.28257" lon="0.61864">
        <ele>49.7</ele>
        <time>2012-09-23T08:59:52Z</time>
      </trkpt>
      <trkpt lat="47.28252" lon="0.61868">
        <ele>49.7</ele>
        <time>2012-09-23T08:59:54Z</time>
      </trkpt>
      <trkpt lat="47.28246" lon="0.61872">
        <ele>49.5</ele>
        <time>2012-09-23T08:59:56Z</time>
      </trkpt>
      <trkpt lat="47.28239" lon="0.6188">
        <ele>49.3</ele>
        <time>2012-09-23T08:59:59Z</time>
      </trkpt>
      <trkpt lat="47.28231" lon="0.61886">
        <ele>49</ele>
        <time>2012-09-23T09:00:02Z</time>
      </trkpt>
      <trkpt lat="47.28226" lon="0.61891">
        <ele>48.8</ele>
        <time>2012-09-23T09:00:04Z</time>
      </trkpt>
      <trkpt lat="47.28221" lon="0.61897">
        <ele>48.5</ele>
        <time>2012-09-23T09:00:06Z</time>
      </trkpt>
      <trkpt lat="47.28216" lon="0.61903">
        <ele>48.2</ele>
        <time>2012-09-23T09:00:08Z</time>
      </trkpt>
      <trkpt lat="47.2821" lon="0.6191">
        <ele>47.8</ele>
        <time>2012-09-23T09:00:10Z</time>
      </trkpt>
      <trkpt lat="47.28204" lon="0.61916">
        <ele>47.5</ele>
        <time>2012-09-23T09:00:12Z</time>
      </trkpt>
      <trkpt lat="47.28198" lon="0.61924">
        <ele>47.2</ele>
        <time>2012-09-23T09:00:14Z</time>
      </trkpt>
      <trkpt lat="47.28193" lon="0.61931">
        <ele>47</ele>
        <time>2012-09-23T09:00:16Z</time>
      </trkpt>
      <trkpt lat="47.28188" lon="0.61937">
        <ele>46.8</ele>
        <time>2012-09-23T09:00:18Z</time>
      </trkpt>
      <trkpt lat="47.28181" lon="0.61946">
        <ele>46.5</ele>
        <time>2012-09-23T09:00:21Z</time>
      </trkpt>
      <trkpt lat="47.28178" lon="0.6195">
        <ele>46.4</ele>
        <time>2012-09-23T09:00:22Z</time>
      </trkpt>
      <trkpt lat="47.2817" lon="0.6196">
        <ele>46</ele>
        <time>2012-09-23T09:00:25Z</time>
      </trkpt>
      <trkpt lat="47.28165" lon="0.61967">
        <ele>45.8</ele>
        <time>2012-09-23T09:00:27Z</time>
      </trkpt>
      <trkpt lat="47.2816" lon="0.61975">
        <ele>45.9</ele>
        <time>2012-09-23T09:00:29Z</time>
      </trkpt>
      <trkpt lat="47.28155" lon="0.61982">
        <ele>46</ele>
        <time>2012-09-23T09:00:31Z</time>
      </trkpt>
      <trkpt lat="47.2815" lon="0.61987">
        <ele>46.1</ele>
        <time>2012-09-23T09:00:33Z</time>
      </trkpt>
      <trkpt lat="47.28143" lon="0.61995">
        <ele>46.2</ele>
        <time>2012-09-23T09:00:36Z</time>
      </trkpt>
      <trkpt lat="47.28137" lon="0.62003">
        <ele>46.4</ele>
        <time>2012-09-23T09:00:39Z</time>
      </trkpt>
      <trkpt lat="47.28131" lon="0.62009">
        <ele>46.7</ele>
        <time>2012-09-23T09:00:41Z</time>
      </trkpt>
      <trkpt lat="47.28126" lon="0.62015">
        <ele>46.9</ele>
        <time>2012-09-23T09:00:43Z</time>
      </trkpt>
      <trkpt lat="47.28119" lon="0.62023">
        <ele>47.2</ele>
        <time>2012-09-23T09:00:46Z</time>
      </trkpt>
      <trkpt lat="47.28113" lon="0.62031">
        <ele>47.4</ele>
        <time>2012-09-23T09:00:49Z</time>
      </trkpt>
      <trkpt lat="47.28106" lon="0.62038">
        <ele>47.7</ele>
        <time>2012-09-23T09:00:52Z</time>
      </trkpt>
      <trkpt lat="47.28099" lon="0.62046">
        <ele>47.9</ele>
        <time>2012-09-23T09:00:55Z</time>
      </trkpt>
      <trkpt lat="47.28093" lon="0.62053">
        <ele>48</ele>
        <time>2012-09-23T09:00:58Z</time>
      </trkpt>
      <trkpt lat="47.28087" lon="0.6206">
        <ele>48.1</ele>
        <time>2012-09-23T09:01:01Z</time>
      </trkpt>
      <trkpt lat="47.28081" lon="0.62066">
        <ele>48.3</ele>
        <time>2012-09-23T09:01:04Z</time>
      </trkpt>
      <trkpt lat="47.28074" lon="0.62073">
        <ele>48.6</ele>
        <time>2012-09-23T09:01:07Z</time>
      </trkpt>
      <trkpt lat="47.28067" lon="0.62079">
        <ele>48.8</ele>
        <time>2012-09-23T09:01:10Z</time>
      </trkpt>
      <trkpt lat="47.28062" lon="0.62085">
        <ele>49</ele>
        <time>2012-09-23T09:01:12Z</time>
      </trkpt>
      <trkpt lat="47.28057" lon="0.6209">
        <ele>49.2</ele>
        <time>2012-09-23T09:01:14Z</time>
      </trkpt>
      <trkpt lat="47.28052" lon="0.62097">
        <ele>49.4</ele>
        <time>2012-09-23T09:01:16Z</time>
      </trkpt>
      <trkpt lat="47.28047" lon="0.62102">
        <ele>49.6</ele>
        <time>2012-09-23T09:01:18Z</time>
      </trkpt>
      <trkpt lat="47.28043" lon="0.62109">
        <ele>49.8</ele>
        <time>2012-09-23T09:01:20Z</time>
      </trkpt>
      <trkpt lat="47.28036" lon="0.62118">
        <ele>50</ele>
        <time>2012-09-23T09:01:23Z</time>
      </trkpt>
      <trkpt lat="47.28034" lon="0.6212">
        <ele>50.1</ele>
        <time>2012-09-23T09:01:24Z</time>
      </trkpt>
      <trkpt lat="47.28023" lon="0.62131">
        <ele>50.4</ele>
        <time>2012-09-23T09:01:29Z</time>
      </trkpt>
      <trkpt lat="47.28016" lon="0.62136">
        <ele>50.7</ele>
        <time>2012-09-23T09:01:32Z</time>
      </trkpt>
      <trkpt lat="47.28008" lon="0.62144">
        <ele>50.9</ele>
        <time>2012-09-23T09:01:35Z</time>
      </trkpt>
      <trkpt lat="47.28003" lon="0.6215">
        <ele>51</ele>
        <time>2012-09-23T09:01:37Z</time>
      </trkpt>
      <trkpt lat="47.27997" lon="0.62155">
        <ele>51.1</ele>
        <time>2012-09-23T09:01:39Z</time>
      </trkpt>
      <trkpt lat="47.27992" lon="0.62159">
        <ele>51</ele>
        <time>2012-09-23T09:01:41Z</time>
      </trkpt>
      <trkpt lat="47.27986" lon="0.62165">
        <ele>50.8</ele>
        <time>2012-09-23T09:01:43Z</time>
      </trkpt>
      <trkpt lat="47.27982" lon="0.62173">
        <ele>50.6</ele>
        <time>2012-09-23T09:01:45Z</time>
      </trkpt>
      <trkpt lat="47.27978" lon="0.62182">
        <ele>50.3</ele>
        <time>2012-09-23T09:01:48Z</time>
      </trkpt>
      <trkpt lat="47.27972" lon="0.62192">
        <ele>50</ele>
        <time>2012-09-23T09:01:52Z</time>
      </trkpt>
      <trkpt lat="47.27967" lon="0.62198">
        <ele>49.8</ele>
        <time>2012-09-23T09:01:54Z</time>
      </trkpt>
      <trkpt lat="47.27961" lon="0.62206">
        <ele>49.5</ele>
        <time>2012-09-23T09:01:57Z</time>
      </trkpt>
      <trkpt lat="47.27956" lon="0.62213">
        <ele>49.3</ele>
        <time>2012-09-23T09:01:59Z</time>
      </trkpt>
      <trkpt lat="47.27951" lon="0.6222">
        <ele>49.1</ele>
        <time>2012-09-23T09:02:01Z</time>
      </trkpt>
      <trkpt lat="47.27946" lon="0.62226">
        <ele>48.9</ele>
        <time>2012-09-23T09:02:03Z</time>
      </trkpt>
      <trkpt lat="47.27941" lon="0.62232">
        <ele>48.7</ele>
        <time>2012-09-23T09:02:05Z</time>
      </trkpt>
      <trkpt lat="47.27937" lon="0.62244">
        <ele>48.3</ele>
        <time>2012-09-23T09:02:08Z</time>
      </trkpt>
      <trkpt lat="47.27933" lon="0.62255">
        <ele>48.1</ele>
        <time>2012-09-23T09:02:11Z</time>
      </trkpt>
      <trkpt lat="47.27902" lon="0.62416">
        <ele>45.3</ele>
        <time>2012-09-23T09:02:49Z</time>
      </trkpt>
      <trkpt lat="47.27906" lon="0.62423">
        <ele>45.3</ele>
        <time>2012-09-23T09:02:51Z</time>
      </trkpt>
      <trkpt lat="47.27912" lon="0.62432">
        <ele>45.2</ele>
        <time>2012-09-23T09:02:53Z</time>
      </trkpt>
      <trkpt lat="47.27917" lon="0.6244">
        <ele>45.2</ele>
        <time>2012-09-23T09:02:55Z</time>
      </trkpt>
      <trkpt lat="47.27922" lon="0.62448">
        <ele>45.4</ele>
        <time>2012-09-23T09:02:57Z</time>
      </trkpt>
      <trkpt lat="47.27927" lon="0.62456">
        <ele>45.6</ele>
        <time>2012-09-23T09:02:59Z</time>
      </trkpt>
      <trkpt lat="47.27932" lon="0.62464">
        <ele>45.8</ele>
        <time>2012-09-23T09:03:01Z</time>
      </trkpt>
      <trkpt lat="47.27937" lon="0.62472">
        <ele>45.9</ele>
        <time>2012-09-23T09:03:03Z</time>
      </trkpt>
      <trkpt lat="47.27942" lon="0.6248">
        <ele>46.1</ele>
        <time>2012-09-23T09:03:05Z</time>
      </trkpt>
      <trkpt lat="47.27947" lon="0.62488">
        <ele>46.2</ele>
        <time>2012-09-23T09:03:07Z</time>
      </trkpt>
      <trkpt lat="47.27952" lon="0.62496">
        <ele>46.3</ele>
        <time>2012-09-23T09:03:09Z</time>
      </trkpt>
      <trkpt lat="47.27957" lon="0.62504">
        <ele>46.5</ele>
        <time>2012-09-23T09:03:11Z</time>
      </trkpt>
      <trkpt lat="47.27963" lon="0.62511">
        <ele>46.6</ele>
        <time>2012-09-23T09:03:13Z</time>
      </trkpt>
      <trkpt lat="47.27967" lon="0.62517">
        <ele>46.8</ele>
        <time>2012-09-23T09:03:15Z</time>
      </trkpt>
      <trkpt lat="47.27973" lon="0.62526">
        <ele>46.9</ele>
        <time>2012-09-23T09:03:18Z</time>
      </trkpt>
      <trkpt lat="47.27981" lon="0.62531">
        <ele>47.1</ele>
        <time>2012-09-23T09:03:21Z</time>
      </trkpt>
      <trkpt lat="47.27987" lon="0.62535">
        <ele>47.2</ele>
        <time>2012-09-23T09:03:23Z</time>
      </trkpt>
      <trkpt lat="47.27993" lon="0.62539">
        <ele>47.3</ele>
        <time>2012-09-23T09:03:25Z</time>
      </trkpt>
      <trkpt lat="47.27999" lon="0.62543">
        <ele>47.4</ele>
        <time>2012-09-23T09:03:27Z</time>
      </trkpt>
      <trkpt lat="47.28002" lon="0.62545">
        <ele>47.5</ele>
        <time>2012-09-23T09:03:28Z</time>
      </trkpt>
      <trkpt lat="47.2801" lon="0.62551">
        <ele>47.7</ele>
        <time>2012-09-23T09:03:31Z</time>
      </trkpt>
      <trkpt lat="47.28016" lon="0.62555">
        <ele>47.9</ele>
        <time>2012-09-23T09:03:33Z</time>
      </trkpt>
      <trkpt lat="47.28022" lon="0.62559">
        <ele>48</ele>
        <time>2012-09-23T09:03:35Z</time>
      </trkpt>
      <trkpt lat="47.28028" lon="0.62563">
        <ele>48.1</ele>
        <time>2012-09-23T09:03:37Z</time>
      </trkpt>
      <trkpt lat="47.28034" lon="0.62568">
        <ele>48.2</ele>
        <time>2012-09-23T09:03:39Z</time>
      </trkpt>
      <trkpt lat="47.28039" lon="0.62573">
        <ele>48.3</ele>
        <time>2012-09-23T09:03:41Z</time>
      </trkpt>
      <trkpt lat="47.28045" lon="0.62577">
        <ele>48.4</ele>
        <time>2012-09-23T09:03:43Z</time>
      </trkpt>
      <trkpt lat="47.28051" lon="0.6258">
        <ele>48.5</ele>
        <time>2012-09-23T09:03:45Z</time>
      </trkpt>
      <trkpt lat="47.28057" lon="0.62583">
        <ele>48.6</ele>
        <time>2012-09-23T09:03:47Z</time>
      </trkpt>
      <trkpt lat="47.28063" lon="0.62585">
        <ele>48.7</ele>
        <time>2012-09-23T09:03:49Z</time>
      </trkpt>
      <trkpt lat="47.28069" lon="0.62586">
        <ele>48.8</ele>
        <time>2012-09-23T09:03:51Z</time>
      </trkpt>
      <trkpt lat="47.28076" lon="0.62586">
        <ele>48.9</ele>
        <time>2012-09-23T09:03:53Z</time>
      </trkpt>
      <trkpt lat="47.28082" lon="0.62585">
        <ele>49</ele>
        <time>2012-09-23T09:03:55Z</time>
      </trkpt>
      <trkpt lat="47.28118" lon="0.62724">
        <ele>51.6</ele>
        <time>2012-09-23T09:05:49Z</time>
      </trkpt>
      <trkpt lat="47.28116" lon="0.62722">
        <ele>51.5</ele>
        <time>2012-09-23T09:05:50Z</time>
      </trkpt>
      <trkpt lat="47.28106" lon="0.6271">
        <ele>51.1</ele>
        <time>2012-09-23T09:05:55Z</time>
      </trkpt>
      <trkpt lat="47.281" lon="0.62701">
        <ele>50.9</ele>
        <time>2012-09-23T09:05:58Z</time>
      </trkpt>
      <trkpt lat="47.28094" lon="0.62691">
        <ele>50.6</ele>
        <time>2012-09-23T09:06:01Z</time>
      </trkpt>
      <trkpt lat="47.28089" lon="0.62685">
        <ele>50.4</ele>
        <time>2012-09-23T09:06:03Z</time>
      </trkpt>
      <trkpt lat="47.28084" lon="0.62679">
        <ele>50.1</ele>
        <time>2012-09-23T09:06:05Z</time>
      </trkpt>
      <trkpt lat="47.28079" lon="0.62673">
        <ele>50</ele>
        <time>2012-09-23T09:06:07Z</time>
      </trkpt>
      <trkpt lat="47.28073" lon="0.62668">
        <ele>49.8</ele>
        <time>2012-09-23T09:06:09Z</time>
      </trkpt>
      <trkpt lat="47.28067" lon="0.62663">
        <ele>49.7</ele>
        <time>2012-09-23T09:06:11Z</time>
      </trkpt>
      <trkpt lat="47.28061" lon="0.62657">
        <ele>49.6</ele>
        <time>2012-09-23T09:06:13Z</time>
      </trkpt>
      <trkpt lat="47.28054" lon="0.62651">
        <ele>49.4</ele>
        <time>2012-09-23T09:06:15Z</time>
      </trkpt>
      <trkpt lat="47.28047" lon="0.62645">
        <ele>49.3</ele>
        <time>2012-09-23T09:06:17Z</time>
      </trkpt>
      <trkpt lat="47.2804" lon="0.6264">
        <ele>49.1</ele>
        <time>2012-09-23T09:06:19Z</time>
      </trkpt>
      <trkpt lat="47.28033" lon="0.62634">
        <ele>49</ele>
        <time>2012-09-23T09:06:21Z</time>
      </trkpt>
      <trkpt lat="47.28025" lon="0.62627">
        <ele>48.8</ele>
        <time>2012-09-23T09:06:23Z</time>
      </trkpt>
      <trkpt lat="47.28018" lon="0.6262">
        <ele>48.6</ele>
        <time>2012-09-23T09:06:25Z</time>
      </trkpt>
      <trkpt lat="47.28011" lon="0.62613">
        <ele>48.4</ele>
        <time>2012-09-23T09:06:27Z</time>
      </trkpt>
      <trkpt lat="47.28003" lon="0.62607">
        <ele>48.3</ele>
        <time>2012-09-23T09:06:29Z</time>
      </trkpt>
      <trkpt lat="47.27996" lon="0.62601">
        <ele>48.1</ele>
        <time>2012-09-23T09:06:31Z</time>
      </trkpt>
      <trkpt lat="47.27989" lon="0.62594">
        <ele>48</ele>
        <time>2012-09-23T09:06:33Z</time>
      </trkpt>
      <trkpt lat="47.27983" lon="0.62587">
        <ele>47.8</ele>
        <time>2012-09-23T09:06:35Z</time>
      </trkpt>
      <trkpt lat="47.27978" lon="0.62584">
        <ele>47.7</ele>
        <time>2012-09-23T09:06:36Z</time>
      </trkpt>
      <trkpt lat="47.27975" lon="0.6258">
        <ele>47.6</ele>
        <time>2012-09-23T09:06:37Z</time>
      </trkpt>
      <trkpt lat="47.27967" lon="0.62573">
        <ele>47.4</ele>
        <time>2012-09-23T09:06:39Z</time>
      </trkpt>
      <trkpt lat="47.2796" lon="0.62566">
        <ele>47.3</ele>
        <time>2012-09-23T09:06:41Z</time>
      </trkpt>
      <trkpt lat="47.27952" lon="0.62561">
        <ele>47.1</ele>
        <time>2012-09-23T09:06:43Z</time>
      </trkpt>
      <trkpt lat="47.27945" lon="0.62554">
        <ele>46.9</ele>
        <time>2012-09-23T09:06:45Z</time>
      </trkpt>
      <trkpt lat="47.27938" lon="0.62548">
        <ele>46.8</ele>
        <time>2012-09-23T09:06:47Z</time>
      </trkpt>
      <trkpt lat="47.2793" lon="0.62541">
        <ele>46.6</ele>
        <time>2012-09-23T09:06:49Z</time>
      </trkpt>
      <trkpt lat="47.27922" lon="0.62534">
        <ele>46.4</ele>
        <time>2012-09-23T09:06:51Z</time>
      </trkpt>
      <trkpt lat="47.27918" lon="0.62531">
        <ele>46.3</ele>
        <time>2012-09-23T09:06:52Z</time>
      </trkpt>
      <trkpt lat="47.27914" lon="0.62528">
        <ele>46.3</ele>
        <time>2012-09-23T09:06:53Z</time>
      </trkpt>
      <trkpt lat="47.2791" lon="0.62525">
        <ele>46.4</ele>
        <time>2012-09-23T09:06:54Z</time>
      </trkpt>
      <trkpt lat="47.27902" lon="0.62519">
        <ele>46.5</ele>
        <time>2012-09-23T09:06:56Z</time>
      </trkpt>
      <trkpt lat="47.27894" lon="0.62513">
        <ele>46.7</ele>
        <time>2012-09-23T09:06:58Z</time>
      </trkpt>
      <trkpt lat="47.27889" lon="0.6251">
        <ele>46.7</ele>
        <time>2012-09-23T09:06:59Z</time>
      </trkpt>
      <trkpt lat="47.27884" lon="0.62506">
        <ele>46.8</ele>
        <time>2012-09-23T09:07:00Z</time>
      </trkpt>
      <trkpt lat="47.2788" lon="0.62502">
        <ele>46.8</ele>
        <time>2012-09-23T09:07:01Z</time>
      </trkpt>
      <trkpt lat="47.27876" lon="0.62499">
        <ele>46.9</ele>
        <time>2012-09-23T09:07:02Z</time>
      </trkpt>
      <trkpt lat="47.27867" lon="0.62495">
        <ele>47.1</ele>
        <time>2012-09-23T09:07:04Z</time>
      </trkpt>
      <trkpt lat="47.27859" lon="0.62493">
        <ele>47.2</ele>
        <time>2012-09-23T09:07:06Z</time>
      </trkpt>
      <trkpt lat="47.27855" lon="0.62492">
        <ele>47.3</ele>
        <time>2012-09-23T09:07:07Z</time>
      </trkpt>
      <trkpt lat="47.2785" lon="0.62491">
        <ele>47.4</ele>
        <time>2012-09-23T09:07:08Z</time>
      </trkpt>
      <trkpt lat="47.27842" lon="0.62489">
        <ele>47.6</ele>
        <time>2012-09-23T09:07:10Z</time>
      </trkpt>
      <trkpt lat="47.27838" lon="0.62489">
        <ele>47.7</ele>
        <time>2012-09-23T09:07:11Z</time>
      </trkpt>
      <trkpt lat="47.27829" lon="0.62487">
        <ele>47.9</ele>
        <time>2012-09-23T09:07:13Z</time>
      </trkpt>
      <trkpt lat="47.27822" lon="0.62486">
        <ele>48.1</ele>
        <time>2012-09-23T09:07:15Z</time>
      </trkpt>
      <trkpt lat="47.27816" lon="0.62485">
        <ele>48.3</ele>
        <time>2012-09-23T09:07:17Z</time>
      </trkpt>
      <trkpt lat="47.27807" lon="0.62484">
        <ele>48.6</ele>
        <time>2012-09-23T09:07:20Z</time>
      </trkpt>
      <trkpt lat="47.27799" lon="0.62482">
        <ele>48.8</ele>
        <time>2012-09-23T09:07:24Z</time>
      </trkpt>
      <trkpt lat="47.27792" lon="0.62485">
        <ele>49</ele>
        <time>2012-09-23T09:07:46Z</time>
      </trkpt>
      <trkpt lat="47.27792" lon="0.62485">
        <ele>49</ele>
        <time>2012-09-23T09:07:46Z</time>
      </trkpt>
      <trkpt lat="47.27787" lon="0.62494">
        <ele>49.1</ele>
        <time>2012-09-23T09:07:49Z</time>
      </trkpt>
      <trkpt lat="47.27784" lon="0.62505">
        <ele>49.2</ele>
        <time>2012-09-23T09:07:51Z</time>
      </trkpt>
      <trkpt lat="47.27782" lon="0.62516">
        <ele>49.3</ele>
        <time>2012-09-23T09:07:53Z</time>
      </trkpt>
      <trkpt lat="47.27781" lon="0.62522">
        <ele>49.3</ele>
        <time>2012-09-23T09:07:54Z</time>
      </trkpt>
      <trkpt lat="47.27778" lon="0.6254">
        <ele>49.4</ele>
        <time>2012-09-23T09:07:57Z</time>
      </trkpt>
      <trkpt lat="47.27776" lon="0.62552">
        <ele>49.5</ele>
        <time>2012-09-23T09:07:59Z</time>
      </trkpt>
      <trkpt lat="47.27772" lon="0.62564">
        <ele>49.6</ele>
        <time>2012-09-23T09:08:01Z</time>
      </trkpt>
      <trkpt lat="47.2777" lon="0.6257">
        <ele>49.7</ele>
        <time>2012-09-23T09:08:02Z</time>
      </trkpt>
      <trkpt lat="47.27769" lon="0.62576">
        <ele>49.7</ele>
        <time>2012-09-23T09:08:03Z</time>
      </trkpt>
      <trkpt lat="47.27767" lon="0.62582">
        <ele>49.7</ele>
        <time>2012-09-23T09:08:04Z</time>
      </trkpt>
      <trkpt lat="47.27766" lon="0.62589">
        <ele>49.7</ele>
        <time>2012-09-23T09:08:05Z</time>
      </trkpt>
      <trkpt lat="47.27764" lon="0.62595">
        <ele>49.7</ele>
        <time>2012-09-23T09:08:06Z</time>
      </trkpt>
      <trkpt lat="47.27762" lon="0.62601">
        <ele>49.6</ele>
        <time>2012-09-23T09:08:07Z</time>
      </trkpt>
      <trkpt lat="47.2776" lon="0.62608">
        <ele>49.6</ele>
        <time>2012-09-23T09:08:08Z</time>
      </trkpt>
      <trkpt lat="47.27758" lon="0.62614">
        <ele>49.5</ele>
        <time>2012-09-23T09:08:09Z</time>
      </trkpt>
      <trkpt lat="47.27756" lon="0.6262">
        <ele>49.5</ele>
        <time>2012-09-23T09:08:10Z</time>
      </trkpt>
      <trkpt lat="47.27753" lon="0.62626">
        <ele>49.4</ele>
        <time>2012-09-23T09:08:11Z</time>
      </trkpt>
      <trkpt lat="47.2775" lon="0.62632">
        <ele>49.4</ele>
        <time>2012-09-23T09:08:12Z</time>
      </trkpt>
      <trkpt lat="47.27748" lon="0.62637">
        <ele>49.3</ele>
        <time>2012-09-23T09:08:13Z</time>
      </trkpt>
      <trkpt lat="47.27745" lon="0.62643">
        <ele>49.3</ele>
        <time>2012-09-23T09:08:14Z</time>
      </trkpt>
      <trkpt lat="47.27742" lon="0.62649">
        <ele>49.2</ele>
        <time>2012-09-23T09:08:15Z</time>
      </trkpt>
      <trkpt lat="47.27738" lon="0.62654">
        <ele>49.2</ele>
        <time>2012-09-23T09:08:16Z</time>
      </trkpt>
      <trkpt lat="47.27735" lon="0.62659">
        <ele>49.1</ele>
        <time>2012-09-23T09:08:17Z</time>
      </trkpt>
      <trkpt lat="47.27732" lon="0.62664">
        <ele>49</ele>
        <time>2012-09-23T09:08:18Z</time>
      </trkpt>
      <trkpt lat="47.27729" lon="0.62669">
        <ele>49</ele>
        <time>2012-09-23T09:08:19Z</time>
      </trkpt>
      <trkpt lat="47.27726" lon="0.62675">
        <ele>49</ele>
        <time>2012-09-23T09:08:20Z</time>
      </trkpt>
      <trkpt lat="47.27723" lon="0.6268">
        <ele>49</ele>
        <time>2012-09-23T09:08:21Z</time>
      </trkpt>
      <trkpt lat="47.27721" lon="0.62686">
        <ele>49</ele>
        <time>2012-09-23T09:08:22Z</time>
      </trkpt>
      <trkpt lat="47.27719" lon="0.62693">
        <ele>49</ele>
        <time>2012-09-23T09:08:23Z</time>
      </trkpt>
      <trkpt lat="47.27716" lon="0.62699">
        <ele>49</ele>
        <time>2012-09-23T09:08:24Z</time>
      </trkpt>
      <trkpt lat="47.27715" lon="0.62706">
        <ele>49</ele>
        <time>2012-09-23T09:08:25Z</time>
      </trkpt>
      <trkpt lat="47.27713" lon="0.62713">
        <ele>49</ele>
        <time>2012-09-23T09:08:26Z</time>
      </trkpt>
      <trkpt lat="47.27713" lon="0.6272">
        <ele>49</ele>
        <time>2012-09-23T09:08:27Z</time>
      </trkpt>
      <trkpt lat="47.27712" lon="0.62727">
        <ele>49</ele>
        <time>2012-09-23T09:08:28Z</time>
      </trkpt>
      <trkpt lat="47.27711" lon="0.62739">
        <ele>49</ele>
        <time>2012-09-23T09:08:30Z</time>
      </trkpt>
      <trkpt lat="47.27709" lon="0.62752">
        <ele>49</ele>
        <time>2012-09-23T09:08:32Z</time>
      </trkpt>
      <trkpt lat="47.27709" lon="0.62758">
        <ele>49.1</ele>
        <time>2012-09-23T09:08:33Z</time>
      </trkpt>
      <trkpt lat="47.27708" lon="0.62765">
        <ele>49.2</ele>
        <time>2012-09-23T09:08:34Z</time>
      </trkpt>
      <trkpt lat="47.27708" lon="0.62772">
        <ele>49.3</ele>
        <time>2012-09-23T09:08:35Z</time>
      </trkpt>
      <trkpt lat="47.27707" lon="0.62779">
        <ele>49.4</ele>
        <time>2012-09-23T09:08:36Z</time>
      </trkpt>
      <trkpt lat="47.27707" lon="0.62786">
        <ele>49.6</ele>
        <time>2012-09-23T09:08:37Z</time>
      </trkpt>
      <trkpt lat="47.27706" lon="0.62793">
        <ele>49.7</ele>
        <time>2012-09-23T09:08:38Z</time>
      </trkpt>
      <trkpt lat="47.27705" lon="0.628">
        <ele>49.8</ele>
        <time>2012-09-23T09:08:39Z</time>
      </trkpt>
      <trkpt lat="47.27704" lon="0.62808">
        <ele>49.9</ele>
        <time>2012-09-23T09:08:40Z</time>
      </trkpt>
      <trkpt lat="47.27703" lon="0.62816">
        <ele>50</ele>
        <time>2012-09-23T09:08:41Z</time>
      </trkpt>
      <trkpt lat="47.27702" lon="0.62824">
        <ele>50.2</ele>
        <time>2012-09-23T09:08:42Z</time>
      </trkpt>
      <trkpt lat="47.277" lon="0.62831">
        <ele>50.3</ele>
        <time>2012-09-23T09:08:43Z</time>
      </trkpt>
      <trkpt lat="47.27699" lon="0.62838">
        <ele>50.3</ele>
        <time>2012-09-23T09:08:44Z</time>
      </trkpt>
      <trkpt lat="47.27697" lon="0.62845">
        <ele>50.2</ele>
        <time>2012-09-23T09:08:45Z</time>
      </trkpt>
      <trkpt lat="47.27696" lon="0.62853">
        <ele>50.2</ele>
        <time>2012-09-23T09:08:46Z</time>
      </trkpt>
      <trkpt lat="47.27694" lon="0.6286">
        <ele>50.1</ele>
        <time>2012-09-23T09:08:47Z</time>
      </trkpt>
      <trkpt lat="47.27692" lon="0.62868">
        <ele>50</ele>
        <time>2012-09-23T09:08:48Z</time>
      </trkpt>
      <trkpt lat="47.27691" lon="0.62875">
        <ele>49.9</ele>
        <time>2012-09-23T09:08:49Z</time>
      </trkpt>
      <trkpt lat="47.27689" lon="0.62882">
        <ele>49.8</ele>
        <time>2012-09-23T09:08:50Z</time>
      </trkpt>
      <trkpt lat="47.27688" lon="0.62889">
        <ele>49.7</ele>
        <time>2012-09-23T09:08:51Z</time>
      </trkpt>
      <trkpt lat="47.27687" lon="0.62897">
        <ele>49.6</ele>
        <time>2012-09-23T09:08:52Z</time>
      </trkpt>
      <trkpt lat="47.27685" lon="0.62903">
        <ele>49.5</ele>
        <time>2012-09-23T09:08:53Z</time>
      </trkpt>
      <trkpt lat="47.27683" lon="0.62911">
        <ele>49.4</ele>
        <time>2012-09-23T09:08:54Z</time>
      </trkpt>
      <trkpt lat="47.27682" lon="0.62918">
        <ele>49.3</ele>
        <time>2012-09-23T09:08:55Z</time>
      </trkpt>
      <trkpt lat="47.2768" lon="0.62925">
        <ele>49.3</ele>
        <time>2012-09-23T09:08:56Z</time>
      </trkpt>
      <trkpt lat="47.27678" lon="0.62932">
        <ele>49.2</ele>
        <time>2012-09-23T09:08:57Z</time>
      </trkpt>
      <trkpt lat="47.27676" lon="0.62939">
        <ele>49.2</ele>
        <time>2012-09-23T09:08:58Z</time>
      </trkpt>
      <trkpt lat="47.27675" lon="0.62946">
        <ele>49.1</ele>
        <time>2012-09-23T09:08:59Z</time>
      </trkpt>
      <trkpt lat="47.27673" lon="0.62953">
        <ele>49.1</ele>
        <time>2012-09-23T09:09:00Z</time>
      </trkpt>
      <trkpt lat="47.27671" lon="0.6296">
        <ele>49</ele>
        <time>2012-09-23T09:09:01Z</time>
      </trkpt>
      <trkpt lat="47.27669" lon="0.62967">
        <ele>49</ele>
        <time>2012-09-23T09:09:02Z</time>
      </trkpt>
      <trkpt lat="47.27666" lon="0.62974">
        <ele>49</ele>
        <time>2012-09-23T09:09:03Z</time>
      </trkpt>
      <trkpt lat="47.27664" lon="0.62981">
        <ele>49</ele>
        <time>2012-09-23T09:09:04Z</time>
      </trkpt>
      <trkpt lat="47.27662" lon="0.62987">
        <ele>49.1</ele>
        <time>2012-09-23T09:09:05Z</time>
      </trkpt>
      <trkpt lat="47.2766" lon="0.62994">
        <ele>49.1</ele>
        <time>2012-09-23T09:09:06Z</time>
      </trkpt>
      <trkpt lat="47.27658" lon="0.63001">
        <ele>49.2</ele>
        <time>2012-09-23T09:09:07Z</time>
      </trkpt>
      <trkpt lat="47.27656" lon="0.63008">
        <ele>49</ele>
        <time>2012-09-23T09:09:08Z</time>
      </trkpt>
      <trkpt lat="47.27654" lon="0.63015">
        <ele>48.9</ele>
        <time>2012-09-23T09:09:09Z</time>
      </trkpt>
      <trkpt lat="47.27652" lon="0.63022">
        <ele>48.8</ele>
        <time>2012-09-23T09:09:10Z</time>
      </trkpt>
      <trkpt lat="47.2765" lon="0.63028">
        <ele>48.6</ele>
        <time>2012-09-23T09:09:11Z</time>
      </trkpt>
      <trkpt lat="47.27648" lon="0.63035">
        <ele>48.5</ele>
        <time>2012-09-23T09:09:12Z</time>
      </trkpt>
      <trkpt lat="47.27646" lon="0.63042">
        <ele>48.3</ele>
        <time>2012-09-23T09:09:13Z</time>
      </trkpt>
      <trkpt lat="47.27644" lon="0.63049">
        <ele>48.2</ele>
        <time>2012-09-23T09:09:14Z</time>
      </trkpt>
      <trkpt lat="47.27642" lon="0.63056">
        <ele>48</ele>
        <time>2012-09-23T09:09:15Z</time>
      </trkpt>
      <trkpt lat="47.2764" lon="0.63062">
        <ele>47.8</ele>
        <time>2012-09-23T09:09:16Z</time>
      </trkpt>
      <trkpt lat="47.27639" lon="0.63069">
        <ele>47.7</ele>
        <time>2012-09-23T09:09:17Z</time>
      </trkpt>
      <trkpt lat="47.27637" lon="0.63076">
        <ele>47.5</ele>
        <time>2012-09-23T09:09:18Z</time>
      </trkpt>
      <trkpt lat="47.27636" lon="0.63083">
        <ele>47.3</ele>
        <time>2012-09-23T09:09:19Z</time>
      </trkpt>
      <trkpt lat="47.27635" lon="0.6309">
        <ele>47.3</ele>
        <time>2012-09-23T09:09:20Z</time>
      </trkpt>
      <trkpt lat="47.27634" lon="0.63097">
        <ele>47.3</ele>
        <time>2012-09-23T09:09:21Z</time>
      </trkpt>
      <trkpt lat="47.27633" lon="0.63104">
        <ele>47.3</ele>
        <time>2012-09-23T09:09:22Z</time>
      </trkpt>
      <trkpt lat="47.27633" lon="0.63112">
        <ele>47.4</ele>
        <time>2012-09-23T09:09:23Z</time>
      </trkpt>
      <trkpt lat="47.27633" lon="0.63119">
        <ele>47.4</ele>
        <time>2012-09-23T09:09:24Z</time>
      </trkpt>
      <trkpt lat="47.27632" lon="0.63127">
        <ele>47.4</ele>
        <time>2012-09-23T09:09:25Z</time>
      </trkpt>
      <trkpt lat="47.27632" lon="0.63135">
        <ele>47.4</ele>
        <time>2012-09-23T09:09:26Z</time>
      </trkpt>
      <trkpt lat="47.27632" lon="0.63143">
        <ele>47.4</ele>
        <time>2012-09-23T09:09:27Z</time>
      </trkpt>
      <trkpt lat="47.27632" lon="0.6315">
        <ele>47.4</ele>
        <time>2012-09-23T09:09:28Z</time>
      </trkpt>
      <trkpt lat="47.27632" lon="0.63158">
        <ele>47.4</ele>
        <time>2012-09-23T09:09:29Z</time>
      </trkpt>
      <trkpt lat="47.27632" lon="0.63166">
        <ele>47.4</ele>
        <time>2012-09-23T09:09:30Z</time>
      </trkpt>
      <trkpt lat="47.27632" lon="0.63173">
        <ele>47.4</ele>
        <time>2012-09-23T09:09:31Z</time>
      </trkpt>
      <trkpt lat="47.27632" lon="0.63181">
        <ele>47.5</ele>
        <time>2012-09-23T09:09:32Z</time>
      </trkpt>
      <trkpt lat="47.27633" lon="0.63188">
        <ele>47.6</ele>
        <time>2012-09-23T09:09:33Z</time>
      </trkpt>
      <trkpt lat="47.27633" lon="0.63195">
        <ele>47.7</ele>
        <time>2012-09-23T09:09:34Z</time>
      </trkpt>
      <trkpt lat="47.27633" lon="0.63202">
        <ele>47.8</ele>
        <time>2012-09-23T09:09:35Z</time>
      </trkpt>
      <trkpt lat="47.27633" lon="0.63209">
        <ele>47.9</ele>
        <time>2012-09-23T09:09:36Z</time>
      </trkpt>
      <trkpt lat="47.27633" lon="0.63216">
        <ele>48</ele>
        <time>2012-09-23T09:09:37Z</time>
      </trkpt>
      <trkpt lat="47.27633" lon="0.63223">
        <ele>48</ele>
        <time>2012-09-23T09:09:38Z</time>
      </trkpt>
      <trkpt lat="47.27634" lon="0.6323">
        <ele>48.1</ele>
        <time>2012-09-23T09:09:39Z</time>
      </trkpt>
      <trkpt lat="47.27634" lon="0.63237">
        <ele>48.2</ele>
        <time>2012-09-23T09:09:40Z</time>
      </trkpt>
      <trkpt lat="47.27633" lon="0.63248">
        <ele>48.3</ele>
        <time>2012-09-23T09:09:42Z</time>
      </trkpt>
      <trkpt lat="47.27627" lon="0.63251">
        <ele>48.4</ele>
        <time>2012-09-23T09:09:44Z</time>
      </trkpt>
      <trkpt lat="47.27495" lon="0.63179">
        <ele>57.9</ele>
        <time>2012-09-23T09:11:43Z</time>
      </trkpt>
      <trkpt lat="47.27487" lon="0.63177">
        <ele>59.4</ele>
        <time>2012-09-23T09:11:50Z</time>
      </trkpt>
      <trkpt lat="47.27479" lon="0.63178">
        <ele>61.2</ele>
        <time>2012-09-23T09:11:56Z</time>
      </trkpt>
      <trkpt lat="47.27471" lon="0.63174">
        <ele>62.7</ele>
        <time>2012-09-23T09:12:01Z</time>
      </trkpt>
      <trkpt lat="47.2747" lon="0.63174">
        <ele>63</ele>
        <time>2012-09-23T09:12:02Z</time>
      </trkpt>
      <trkpt lat="47.27455" lon="0.63172">
        <ele>66</ele>
        <time>2012-09-23T09:12:13Z</time>
      </trkpt>
      <trkpt lat="47.27447" lon="0.63171">
        <ele>67.7</ele>
        <time>2012-09-23T09:12:57Z</time>
      </trkpt>
      <trkpt lat="47.27438" lon="0.63173">
        <ele>69.5</ele>
        <time>2012-09-23T09:13:01Z</time>
      </trkpt>
      <trkpt lat="47.27432" lon="0.63171">
        <ele>70.7</ele>
        <time>2012-09-23T09:13:05Z</time>
      </trkpt>
      <trkpt lat="47.27428" lon="0.63169">
        <ele>71.7</ele>
        <time>2012-09-23T09:13:06Z</time>
      </trkpt>
      <trkpt lat="47.27417" lon="0.63168">
        <ele>73.9</ele>
        <time>2012-09-23T09:13:09Z</time>
      </trkpt>
      <trkpt lat="47.27409" lon="0.63167">
        <ele>74.2</ele>
        <time>2012-09-23T09:13:11Z</time>
      </trkpt>
      <trkpt lat="47.27401" lon="0.63166">
        <ele>74.5</ele>
        <time>2012-09-23T09:13:13Z</time>
      </trkpt>
      <trkpt lat="47.27393" lon="0.63164">
        <ele>74.8</ele>
        <time>2012-09-23T09:13:15Z</time>
      </trkpt>
      <trkpt lat="47.27385" lon="0.63162">
        <ele>75.1</ele>
        <time>2012-09-23T09:13:17Z</time>
      </trkpt>
      <trkpt lat="47.27378" lon="0.63163">
        <ele>75.4</ele>
        <time>2012-09-23T09:13:19Z</time>
      </trkpt>
      <trkpt lat="47.27373" lon="0.63167">
        <ele>75.5</ele>
        <time>2012-09-23T09:13:21Z</time>
      </trkpt>
      <trkpt lat="47.27315" lon="0.63317">
        <ele>73.2</ele>
        <time>2012-09-23T09:13:50Z</time>
      </trkpt>
      <trkpt lat="47.27307" lon="0.63313">
        <ele>73.6</ele>
        <time>2012-09-23T09:13:52Z</time>
      </trkpt>
      <trkpt lat="47.27303" lon="0.6331">
        <ele>73.8</ele>
        <time>2012-09-23T09:13:53Z</time>
      </trkpt>
      <trkpt lat="47.27295" lon="0.63305">
        <ele>74.2</ele>
        <time>2012-09-23T09:13:55Z</time>
      </trkpt>
      <trkpt lat="47.27287" lon="0.63301">
        <ele>74.6</ele>
        <time>2012-09-23T09:13:57Z</time>
      </trkpt>
      <trkpt lat="47.27282" lon="0.63298">
        <ele>74.8</ele>
        <time>2012-09-23T09:13:58Z</time>
      </trkpt>
      <trkpt lat="47.27274" lon="0.63294">
        <ele>75.2</ele>
        <time>2012-09-23T09:14:00Z</time>
      </trkpt>
      <trkpt lat="47.27265" lon="0.63292">
        <ele>75.5</ele>
        <time>2012-09-23T09:14:02Z</time>
      </trkpt>
      <trkpt lat="47.2726" lon="0.63291">
        <ele>75.7</ele>
        <time>2012-09-23T09:14:03Z</time>
      </trkpt>
      <trkpt lat="47.27252" lon="0.63288">
        <ele>76</ele>
        <time>2012-09-23T09:14:05Z</time>
      </trkpt>
      <trkpt lat="47.27247" lon="0.63287">
        <ele>76.1</ele>
        <time>2012-09-23T09:14:06Z</time>
      </trkpt>
      <trkpt lat="47.27243" lon="0.63285">
        <ele>76.2</ele>
        <time>2012-09-23T09:14:07Z</time>
      </trkpt>
      <trkpt lat="47.27235" lon="0.6328">
        <ele>76.5</ele>
        <time>2012-09-23T09:14:09Z</time>
      </trkpt>
      <trkpt lat="47.27226" lon="0.63276">
        <ele>76.6</ele>
        <time>2012-09-23T09:14:11Z</time>
      </trkpt>
      <trkpt lat="47.27222" lon="0.63273">
        <ele>76.7</ele>
        <time>2012-09-23T09:14:12Z</time>
      </trkpt>
      <trkpt lat="47.27218" lon="0.63271">
        <ele>76.7</ele>
        <time>2012-09-23T09:14:13Z</time>
      </trkpt>
      <trkpt lat="47.27213" lon="0.63269">
        <ele>76.8</ele>
        <time>2012-09-23T09:14:14Z</time>
      </trkpt>
      <trkpt lat="47.27208" lon="0.63268">
        <ele>76.9</ele>
        <time>2012-09-23T09:14:15Z</time>
      </trkpt>
      <trkpt lat="47.27202" lon="0.63267">
        <ele>76.9</ele>
        <time>2012-09-23T09:14:16Z</time>
      </trkpt>
      <trkpt lat="47.27197" lon="0.63265">
        <ele>76.9</ele>
        <time>2012-09-23T09:14:17Z</time>
      </trkpt>
      <trkpt lat="47.27193" lon="0.63263">
        <ele>77</ele>
        <time>2012-09-23T09:14:18Z</time>
      </trkpt>
      <trkpt lat="47.27189" lon="0.63261">
        <ele>77</ele>
        <time>2012-09-23T09:14:19Z</time>
      </trkpt>
      <trkpt lat="47.27184" lon="0.63258">
        <ele>77</ele>
        <time>2012-09-23T09:14:20Z</time>
      </trkpt>
      <trkpt lat="47.2718" lon="0.63256">
        <ele>77</ele>
        <time>2012-09-23T09:14:21Z</time>
      </trkpt>
      <trkpt lat="47.27176" lon="0.63254">
        <ele>77</ele>
        <time>2012-09-23T09:14:22Z</time>
      </trkpt>
      <trkpt lat="47.27171" lon="0.63251">
        <ele>77</ele>
        <time>2012-09-23T09:14:23Z</time>
      </trkpt>
      <trkpt lat="47.27167" lon="0.63249">
        <ele>76.9</ele>
        <time>2012-09-23T09:14:24Z</time>
      </trkpt>
      <trkpt lat="47.27159" lon="0.63245">
        <ele>76.7</ele>
        <time>2012-09-23T09:14:26Z</time>
      </trkpt>
      <trkpt lat="47.27154" lon="0.63242">
        <ele>76.6</ele>
        <time>2012-09-23T09:14:27Z</time>
      </trkpt>
      <trkpt lat="47.2715" lon="0.6324">
        <ele>76.5</ele>
        <time>2012-09-23T09:14:28Z</time>
      </trkpt>
      <trkpt lat="47.27145" lon="0.63238">
        <ele>76.3</ele>
        <time>2012-09-23T09:14:29Z</time>
      </trkpt>
      <trkpt lat="47.2714" lon="0.63237">
        <ele>76.2</ele>
        <time>2012-09-23T09:14:30Z</time>
      </trkpt>
      <trkpt lat="47.27135" lon="0.63235">
        <ele>76.1</ele>
        <time>2012-09-23T09:14:31Z</time>
      </trkpt>
      <trkpt lat="47.27129" lon="0.63234">
        <ele>75.9</ele>
        <time>2012-09-23T09:14:32Z</time>
      </trkpt>
      <trkpt lat="47.27122" lon="0.63233">
        <ele>75.8</ele>
        <time>2012-09-23T09:14:33Z</time>
      </trkpt>
      <trkpt lat="47.27114" lon="0.63232">
        <ele>75.6</ele>
        <time>2012-09-23T09:14:34Z</time>
      </trkpt>
      <trkpt lat="47.27109" lon="0.6323">
        <ele>75.5</ele>
        <time>2012-09-23T09:14:35Z</time>
      </trkpt>
      <trkpt lat="47.27102" lon="0.63227">
        <ele>75.3</ele>
        <time>2012-09-23T09:14:36Z</time>
      </trkpt>
      <trkpt lat="47.27096" lon="0.63224">
        <ele>75.2</ele>
        <time>2012-09-23T09:14:37Z</time>
      </trkpt>
      <trkpt lat="47.2709" lon="0.63221">
        <ele>75.1</ele>
        <time>2012-09-23T09:14:38Z</time>
      </trkpt>
      <trkpt lat="47.27083" lon="0.63217">
        <ele>75</ele>
        <time>2012-09-23T09:14:39Z</time>
      </trkpt>
      <trkpt lat="47.27076" lon="0.63213">
        <ele>74.9</ele>
        <time>2012-09-23T09:14:40Z</time>
      </trkpt>
      <trkpt lat="47.27069" lon="0.63209">
        <ele>74.9</ele>
        <time>2012-09-23T09:14:41Z</time>
      </trkpt>
      <trkpt lat="47.27061" lon="0.63204">
        <ele>74.9</ele>
        <time>2012-09-23T09:14:42Z</time>
      </trkpt>
      <trkpt lat="47.27054" lon="0.63199">
        <ele>74.9</ele>
        <time>2012-09-23T09:14:43Z</time>
      </trkpt>
      <trkpt lat="47.27047" lon="0.63194">
        <ele>75</ele>
        <time>2012-09-23T09:14:44Z</time>
      </trkpt>
      <trkpt lat="47.27039" lon="0.6319">
        <ele>75.1</ele>
        <time>2012-09-23T09:14:45Z</time>
      </trkpt>
      <trkpt lat="47.27032" lon="0.63185">
        <ele>75.2</ele>
        <time>2012-09-23T09:14:46Z</time>
      </trkpt>
      <trkpt lat="47.27026" lon="0.63181">
        <ele>75.3</ele>
        <time>2012-09-23T09:14:47Z</time>
      </trkpt>
      <trkpt lat="47.2702" lon="0.63177">
        <ele>75.4</ele>
        <time>2012-09-23T09:14:48Z</time>
      </trkpt>
      <trkpt lat="47.27014" lon="0.63173">
        <ele>75.6</ele>
        <time>2012-09-23T09:14:49Z</time>
      </trkpt>
      <trkpt lat="47.27009" lon="0.6317">
        <ele>75.8</ele>
        <time>2012-09-23T09:14:50Z</time>
      </trkpt>
      <trkpt lat="47.27004" lon="0.63168">
        <ele>75.9</ele>
        <time>2012-09-23T09:14:51Z</time>
      </trkpt>
      <trkpt lat="47.27" lon="0.63165">
        <ele>75.9</ele>
        <time>2012-09-23T09:14:52Z</time>
      </trkpt>
      <trkpt lat="47.26992" lon="0.6316">
        <ele>75.7</ele>
        <time>2012-09-23T09:14:54Z</time>
      </trkpt>
      <trkpt lat="47.26985" lon="0.63156">
        <ele>75.5</ele>
        <time>2012-09-23T09:14:56Z</time>
      </trkpt>
      <trkpt lat="47.26979" lon="0.63153">
        <ele>75.4</ele>
        <time>2012-09-23T09:14:58Z</time>
      </trkpt>
      <trkpt lat="47.26971" lon="0.63148">
        <ele>75.2</ele>
        <time>2012-09-23T09:15:03Z</time>
      </trkpt>
      <trkpt lat="47.26966" lon="0.63148">
        <ele>75.1</ele>
        <time>2012-09-23T09:15:06Z</time>
      </trkpt>
      <trkpt lat="47.26966" lon="0.63148">
        <ele>75.1</ele>
        <time>2012-09-23T09:15:06Z</time>
      </trkpt>
      <trkpt lat="47.26963" lon="0.63156">
        <ele>75.1</ele>
        <time>2012-09-23T09:15:08Z</time>
      </trkpt>
      <trkpt lat="47.26962" lon="0.63162">
        <ele>75</ele>
        <time>2012-09-23T09:15:09Z</time>
      </trkpt>
      <trkpt lat="47.26956" lon="0.63175">
        <ele>74.7</ele>
        <time>2012-09-23T09:15:13Z</time>
      </trkpt>
      <trkpt lat="47.26953" lon="0.63184">
        <ele>74.3</ele>
        <time>2012-09-23T09:15:15Z</time>
      </trkpt>
      <trkpt lat="47.26951" lon="0.63194">
        <ele>74</ele>
        <time>2012-09-23T09:15:17Z</time>
      </trkpt>
      <trkpt lat="47.26949" lon="0.63203">
        <ele>73.7</ele>
        <time>2012-09-23T09:15:19Z</time>
      </trkpt>
      <trkpt lat="47.26946" lon="0.63212">
        <ele>73.4</ele>
        <time>2012-09-23T09:15:21Z</time>
      </trkpt>
      <trkpt lat="47.26943" lon="0.63221">
        <ele>73.1</ele>
        <time>2012-09-23T09:15:23Z</time>
      </trkpt>
      <trkpt lat="47.26941" lon="0.63231">
        <ele>72.8</ele>
        <time>2012-09-23T09:15:25Z</time>
      </trkpt>
      <trkpt lat="47.26938" lon="0.63241">
        <ele>72.5</ele>
        <time>2012-09-23T09:15:27Z</time>
      </trkpt>
      <trkpt lat="47.26935" lon="0.63251">
        <ele>72.2</ele>
        <time>2012-09-23T09:15:29Z</time>
      </trkpt>
      <trkpt lat="47.26932" lon="0.63262">
        <ele>72</ele>
        <time>2012-09-23T09:15:31Z</time>
      </trkpt>
      <trkpt lat="47.26929" lon="0.63271">
        <ele>71.8</ele>
        <time>2012-09-23T09:15:33Z</time>
      </trkpt>
      <trkpt lat="47.26925" lon="0.63282">
        <ele>71.7</ele>
        <time>2012-09-23T09:15:35Z</time>
      </trkpt>
      <trkpt lat="47.26922" lon="0.63293">
        <ele>71.5</ele>
        <time>2012-09-23T09:15:37Z</time>
      </trkpt>
      <trkpt lat="47.26918" lon="0.63305">
        <ele>71.3</ele>
        <time>2012-09-23T09:15:39Z</time>
      </trkpt>
      <trkpt lat="47.26915" lon="0.63317">
        <ele>71.2</ele>
        <time>2012-09-23T09:15:41Z</time>
      </trkpt>
      <trkpt lat="47.26912" lon="0.63328">
        <ele>71.2</ele>
        <time>2012-09-23T09:15:43Z</time>
      </trkpt>
      <trkpt lat="47.26908" lon="0.63339">
        <ele>71.3</ele>
        <time>2012-09-23T09:15:45Z</time>
      </trkpt>
      <trkpt lat="47.26904" lon="0.6335">
        <ele>71.4</ele>
        <time>2012-09-23T09:15:47Z</time>
      </trkpt>
      <trkpt lat="47.26901" lon="0.63361">
        <ele>71.4</ele>
        <time>2012-09-23T09:15:49Z</time>
      </trkpt>
      <trkpt lat="47.26898" lon="0.63372">
        <ele>71.5</ele>
        <time>2012-09-23T09:15:51Z</time>
      </trkpt>
      <trkpt lat="47.26894" lon="0.63383">
        <ele>71.6</ele>
        <time>2012-09-23T09:15:53Z</time>
      </trkpt>
      <trkpt lat="47.2689" lon="0.63394">
        <ele>71.7</ele>
        <time>2012-09-23T09:15:55Z</time>
      </trkpt>
      <trkpt lat="47.26886" lon="0.63406">
        <ele>71.7</ele>
        <time>2012-09-23T09:15:57Z</time>
      </trkpt>
      <trkpt lat="47.26882" lon="0.63417">
        <ele>71.8</ele>
        <time>2012-09-23T09:15:59Z</time>
      </trkpt>
      <trkpt lat="47.26876" lon="0.63425">
        <ele>71.9</ele>
        <time>2012-09-23T09:16:01Z</time>
      </trkpt>
      <trkpt lat="47.26869" lon="0.63428">
        <ele>72.1</ele>
        <time>2012-09-23T09:16:03Z</time>
      </trkpt>
      <trkpt lat="47.26861" lon="0.63431">
        <ele>72.2</ele>
        <time>2012-09-23T09:16:06Z</time>
      </trkpt>
      <trkpt lat="47.26855" lon="0.63433">
        <ele>72.3</ele>
        <time>2012-09-23T09:16:08Z</time>
      </trkpt>
      <trkpt lat="47.26848" lon="0.63436">
        <ele>72.4</ele>
        <time>2012-09-23T09:16:10Z</time>
      </trkpt>
      <trkpt lat="47.26845" lon="0.63437">
        <ele>72.5</ele>
        <time>2012-09-23T09:16:11Z</time>
      </trkpt>
      <trkpt lat="47.26836" lon="0.63442">
        <ele>72.6</ele>
        <time>2012-09-23T09:16:14Z</time>
      </trkpt>
      <trkpt lat="47.26828" lon="0.63447">
        <ele>72.7</ele>
        <time>2012-09-23T09:16:16Z</time>
      </trkpt>
      <trkpt lat="47.26822" lon="0.6345">
        <ele>72.8</ele>
        <time>2012-09-23T09:16:18Z</time>
      </trkpt>
      <trkpt lat="47.26815" lon="0.63454">
        <ele>72.9</ele>
        <time>2012-09-23T09:16:20Z</time>
      </trkpt>
      <trkpt lat="47.26807" lon="0.63457">
        <ele>72.9</ele>
        <time>2012-09-23T09:16:22Z</time>
      </trkpt>
      <trkpt lat="47.268" lon="0.63461">
        <ele>73</ele>
        <time>2012-09-23T09:16:24Z</time>
      </trkpt>
      <trkpt lat="47.26793" lon="0.63465">
        <ele>73.1</ele>
        <time>2012-09-23T09:16:26Z</time>
      </trkpt>
      <trkpt lat="47.26784" lon="0.63468">
        <ele>73.2</ele>
        <time>2012-09-23T09:16:29Z</time>
      </trkpt>
      <trkpt lat="47.26776" lon="0.63471">
        <ele>73.2</ele>
        <time>2012-09-23T09:16:32Z</time>
      </trkpt>
      <trkpt lat="47.2677" lon="0.63474">
        <ele>73.3</ele>
        <time>2012-09-23T09:16:34Z</time>
      </trkpt>
      <trkpt lat="47.26761" lon="0.63478">
        <ele>73.3</ele>
        <time>2012-09-23T09:16:37Z</time>
      </trkpt>
      <trkpt lat="47.26753" lon="0.63481">
        <ele>73.4</ele>
        <time>2012-09-23T09:16:40Z</time>
      </trkpt>
      <trkpt lat="47.26745" lon="0.63484">
        <ele>73.5</ele>
        <time>2012-09-23T09:16:43Z</time>
      </trkpt>
      <trkpt lat="47.26739" lon="0.63487">
        <ele>73.5</ele>
        <time>2012-09-23T09:16:45Z</time>
      </trkpt>
      <trkpt lat="47.26733" lon="0.6349">
        <ele>73.6</ele>
        <time>2012-09-23T09:16:47Z</time>
      </trkpt>
      <trkpt lat="47.26727" lon="0.63494">
        <ele>73.6</ele>
        <time>2012-09-23T09:16:49Z</time>
      </trkpt>
      <trkpt lat="47.2672" lon="0.63498">
        <ele>73.7</ele>
        <time>2012-09-23T09:16:51Z</time>
      </trkpt>
      <trkpt lat="47.26714" lon="0.63503">
        <ele>73.8</ele>
        <time>2012-09-23T09:16:53Z</time>
      </trkpt>
      <trkpt lat="47.26707" lon="0.63507">
        <ele>73.9</ele>
        <time>2012-09-23T09:16:55Z</time>
      </trkpt>
      <trkpt lat="47.26702" lon="0.63511">
        <ele>74</ele>
        <time>2012-09-23T09:16:57Z</time>
      </trkpt>
      <trkpt lat="47.26696" lon="0.63515">
        <ele>74.1</ele>
        <time>2012-09-23T09:16:59Z</time>
      </trkpt>
      <trkpt lat="47.2669" lon="0.63519">
        <ele>74.2</ele>
        <time>2012-09-23T09:17:01Z</time>
      </trkpt>
      <trkpt lat="47.26683" lon="0.63525">
        <ele>74.3</ele>
        <time>2012-09-23T09:17:04Z</time>
      </trkpt>
      <trkpt lat="47.26677" lon="0.63529">
        <ele>74.4</ele>
        <time>2012-09-23T09:17:06Z</time>
      </trkpt>
      <trkpt lat="47.26671" lon="0.63534">
        <ele>74.5</ele>
        <time>2012-09-23T09:17:08Z</time>
      </trkpt>
      <trkpt lat="47.26664" lon="0.63539">
        <ele>74.5</ele>
        <time>2012-09-23T09:17:10Z</time>
      </trkpt>
      <trkpt lat="47.26658" lon="0.63544">
        <ele>74.5</ele>
        <time>2012-09-23T09:17:12Z</time>
      </trkpt>
      <trkpt lat="47.26654" lon="0.63546">
        <ele>74.5</ele>
        <time>2012-09-23T09:17:13Z</time>
      </trkpt>
      <trkpt lat="47.26644" lon="0.63552">
        <ele>74.5</ele>
        <time>2012-09-23T09:17:16Z</time>
      </trkpt>
      <trkpt lat="47.26636" lon="0.63556">
        <ele>74.5</ele>
        <time>2012-09-23T09:17:18Z</time>
      </trkpt>
      <trkpt lat="47.2663" lon="0.63558">
        <ele>74.6</ele>
        <time>2012-09-23T09:17:20Z</time>
      </trkpt>
      <trkpt lat="47.26623" lon="0.6356">
        <ele>74.6</ele>
        <time>2012-09-23T09:17:22Z</time>
      </trkpt>
      <trkpt lat="47.26616" lon="0.63562">
        <ele>74.7</ele>
        <time>2012-09-23T09:17:24Z</time>
      </trkpt>
      <trkpt lat="47.26609" lon="0.63566">
        <ele>74.7</ele>
        <time>2012-09-23T09:17:26Z</time>
      </trkpt>
      <trkpt lat="47.26602" lon="0.63569">
        <ele>74.8</ele>
        <time>2012-09-23T09:17:28Z</time>
      </trkpt>
      <trkpt lat="47.26596" lon="0.63571">
        <ele>74.8</ele>
        <time>2012-09-23T09:17:30Z</time>
      </trkpt>
      <trkpt lat="47.2659" lon="0.63573">
        <ele>74.9</ele>
        <time>2012-09-23T09:17:32Z</time>
      </trkpt>
      <trkpt lat="47.26584" lon="0.63576">
        <ele>74.9</ele>
        <time>2012-09-23T09:17:34Z</time>
      </trkpt>
      <trkpt lat="47.26575" lon="0.63578">
        <ele>75</ele>
        <time>2012-09-23T09:17:37Z</time>
      </trkpt>
      <trkpt lat="47.26569" lon="0.63581">
        <ele>75</ele>
        <time>2012-09-23T09:17:39Z</time>
      </trkpt>
      <trkpt lat="47.26562" lon="0.63584">
        <ele>74.9</ele>
        <time>2012-09-23T09:17:41Z</time>
      </trkpt>
      <trkpt lat="47.26555" lon="0.63589">
        <ele>74.9</ele>
        <time>2012-09-23T09:17:43Z</time>
      </trkpt>
      <trkpt lat="47.2655" lon="0.63593">
        <ele>74.8</ele>
        <time>2012-09-23T09:17:45Z</time>
      </trkpt>
      <trkpt lat="47.26543" lon="0.63597">
        <ele>74.8</ele>
        <time>2012-09-23T09:17:47Z</time>
      </trkpt>
      <trkpt lat="47.26537" lon="0.63603">
        <ele>74.7</ele>
        <time>2012-09-23T09:17:49Z</time>
      </trkpt>
      <trkpt lat="47.26529" lon="0.63609">
        <ele>74.7</ele>
        <time>2012-09-23T09:17:52Z</time>
      </trkpt>
      <trkpt lat="47.26523" lon="0.63613">
        <ele>74.6</ele>
        <time>2012-09-23T09:17:54Z</time>
      </trkpt>
      <trkpt lat="47.26517" lon="0.63617">
        <ele>74.6</ele>
        <time>2012-09-23T09:17:56Z</time>
      </trkpt>
      <trkpt lat="47.2651" lon="0.63621">
        <ele>74.5</ele>
        <time>2012-09-23T09:17:58Z</time>
      </trkpt>
      <trkpt lat="47.26504" lon="0.63626">
        <ele>74.5</ele>
        <time>2012-09-23T09:18:00Z</time>
      </trkpt>
      <trkpt lat="47.26497" lon="0.63629">
        <ele>74.5</ele>
        <time>2012-09-23T09:18:02Z</time>
      </trkpt>
      <trkpt lat="47.2649" lon="0.63633">
        <ele>74.5</ele>
        <time>2012-09-23T09:18:04Z</time>
      </trkpt>
      <trkpt lat="47.26485" lon="0.63637">
        <ele>74.6</ele>
        <time>2012-09-23T09:18:06Z</time>
      </trkpt>
      <trkpt lat="47.26478" lon="0.63643">
        <ele>74.7</ele>
        <time>2012-09-23T09:18:09Z</time>
      </trkpt>
      <trkpt lat="47.26473" lon="0.63648">
        <ele>74.8</ele>
        <time>2012-09-23T09:18:11Z</time>
      </trkpt>
      <trkpt lat="47.26467" lon="0.63653">
        <ele>74.9</ele>
        <time>2012-09-23T09:18:13Z</time>
      </trkpt>
      <trkpt lat="47.26464" lon="0.63655">
        <ele>74.9</ele>
        <time>2012-09-23T09:18:14Z</time>
      </trkpt>
      <trkpt lat="47.26453" lon="0.63663">
        <ele>75.1</ele>
        <time>2012-09-23T09:18:18Z</time>
      </trkpt>
      <trkpt lat="47.26447" lon="0.63667">
        <ele>75.2</ele>
        <time>2012-09-23T09:18:20Z</time>
      </trkpt>
      <trkpt lat="47.26441" lon="0.63672">
        <ele>75.3</ele>
        <time>2012-09-23T09:18:22Z</time>
      </trkpt>
      <trkpt lat="47.26434" lon="0.63676">
        <ele>75.4</ele>
        <time>2012-09-23T09:18:24Z</time>
      </trkpt>
      <trkpt lat="47.26427" lon="0.6368">
        <ele>75.5</ele>
        <time>2012-09-23T09:18:26Z</time>
      </trkpt>
      <trkpt lat="47.2642" lon="0.63685">
        <ele>75.6</ele>
        <time>2012-09-23T09:18:28Z</time>
      </trkpt>
      <trkpt lat="47.26413" lon="0.63691">
        <ele>75.7</ele>
        <time>2012-09-23T09:18:31Z</time>
      </trkpt>
      <trkpt lat="47.26407" lon="0.63694">
        <ele>75.7</ele>
        <time>2012-09-23T09:18:33Z</time>
      </trkpt>
      <trkpt lat="47.26401" lon="0.63699">
        <ele>75.6</ele>
        <time>2012-09-23T09:18:35Z</time>
      </trkpt>
      <trkpt lat="47.26393" lon="0.63703">
        <ele>75.6</ele>
        <time>2012-09-23T09:18:37Z</time>
      </trkpt>
      <trkpt lat="47.26386" lon="0.63707">
        <ele>75.6</ele>
        <time>2012-09-23T09:18:39Z</time>
      </trkpt>
      <trkpt lat="47.2638" lon="0.63712">
        <ele>75.7</ele>
        <time>2012-09-23T09:18:41Z</time>
      </trkpt>
      <trkpt lat="47.26374" lon="0.63716">
        <ele>75.7</ele>
        <time>2012-09-23T09:18:43Z</time>
      </trkpt>
      <trkpt lat="47.26368" lon="0.63721">
        <ele>75.7</ele>
        <time>2012-09-23T09:18:45Z</time>
      </trkpt>
      <trkpt lat="47.26361" lon="0.63728">
        <ele>75.7</ele>
        <time>2012-09-23T09:18:48Z</time>
      </trkpt>
      <trkpt lat="47.26355" lon="0.63732">
        <ele>75.8</ele>
        <time>2012-09-23T09:18:51Z</time>
      </trkpt>
      <trkpt lat="47.26349" lon="0.63738">
        <ele>75.8</ele>
        <time>2012-09-23T09:21:22Z</time>
      </trkpt>
      <trkpt lat="47.26348" lon="0.6374">
        <ele>75.8</ele>
        <time>2012-09-23T09:21:23Z</time>
      </trkpt>
      <trkpt lat="47.26339" lon="0.63754">
        <ele>75.8</ele>
        <time>2012-09-23T09:21:28Z</time>
      </trkpt>
      <trkpt lat="47.26334" lon="0.63761">
        <ele>75.8</ele>
        <time>2012-09-23T09:21:30Z</time>
      </trkpt>
      <trkpt lat="47.2633" lon="0.63767">
        <ele>75.8</ele>
        <time>2012-09-23T09:21:32Z</time>
      </trkpt>
      <trkpt lat="47.26325" lon="0.63777">
        <ele>75.7</ele>
        <time>2012-09-23T09:21:35Z</time>
      </trkpt>
      <trkpt lat="47.26319" lon="0.63787">
        <ele>75.6</ele>
        <time>2012-09-23T09:21:38Z</time>
      </trkpt>
      <trkpt lat="47.26313" lon="0.63795">
        <ele>75.5</ele>
        <time>2012-09-23T09:21:41Z</time>
      </trkpt>
      <trkpt lat="47.26308" lon="0.63802">
        <ele>75.5</ele>
        <time>2012-09-23T09:21:43Z</time>
      </trkpt>
      <trkpt lat="47.26303" lon="0.6381">
        <ele>75.5</ele>
        <time>2012-09-23T09:21:46Z</time>
      </trkpt>
      <trkpt lat="47.26297" lon="0.63818">
        <ele>75.5</ele>
        <time>2012-09-23T09:21:49Z</time>
      </trkpt>
      <trkpt lat="47.2629" lon="0.63826">
        <ele>75.5</ele>
        <time>2012-09-23T09:21:52Z</time>
      </trkpt>
      <trkpt lat="47.26284" lon="0.63834">
        <ele>75.5</ele>
        <time>2012-09-23T09:21:55Z</time>
      </trkpt>
      <trkpt lat="47.26279" lon="0.6384">
        <ele>75.5</ele>
        <time>2012-09-23T09:21:57Z</time>
      </trkpt>
      <trkpt lat="47.26273" lon="0.63846">
        <ele>75.5</ele>
        <time>2012-09-23T09:21:59Z</time>
      </trkpt>
      <trkpt lat="47.26267" lon="0.63852">
        <ele>75.5</ele>
        <time>2012-09-23T09:22:01Z</time>
      </trkpt>
      <trkpt lat="47.26262" lon="0.63857">
        <ele>75.5</ele>
        <time>2012-09-23T09:22:03Z</time>
      </trkpt>
      <trkpt lat="47.26255" lon="0.63864">
        <ele>75.5</ele>
        <time>2012-09-23T09:22:05Z</time>
      </trkpt>
      <trkpt lat="47.26249" lon="0.6387">
        <ele>75.5</ele>
        <time>2012-09-23T09:22:07Z</time>
      </trkpt>
      <trkpt lat="47.26243" lon="0.63877">
        <ele>75.6</ele>
        <time>2012-09-23T09:22:09Z</time>
      </trkpt>
      <trkpt lat="47.26238" lon="0.63883">
        <ele>75.6</ele>
        <time>2012-09-23T09:22:11Z</time>
      </trkpt>
      <trkpt lat="47.26233" lon="0.63889">
        <ele>75.7</ele>
        <time>2012-09-23T09:22:13Z</time>
      </trkpt>
      <trkpt lat="47.26228" lon="0.63895">
        <ele>75.7</ele>
        <time>2012-09-23T09:22:15Z</time>
      </trkpt>
      <trkpt lat="47.26223" lon="0.63902">
        <ele>75.8</ele>
        <time>2012-09-23T09:22:17Z</time>
      </trkpt>
      <trkpt lat="47.26218" lon="0.63908">
        <ele>75.8</ele>
        <time>2012-09-23T09:22:19Z</time>
      </trkpt>
      <trkpt lat="47.26213" lon="0.63914">
        <ele>75.9</ele>
        <time>2012-09-23T09:22:21Z</time>
      </trkpt>
      <trkpt lat="47.26206" lon="0.63922">
        <ele>76</ele>
        <time>2012-09-23T09:22:24Z</time>
      </trkpt>
      <trkpt lat="47.26204" lon="0.63925">
        <ele>76</ele>
        <time>2012-09-23T09:22:25Z</time>
      </trkpt>
      <trkpt lat="47.26196" lon="0.63934">
        <ele>76.1</ele>
        <time>2012-09-23T09:22:28Z</time>
      </trkpt>
      <trkpt lat="47.2619" lon="0.63942">
        <ele>76.2</ele>
        <time>2012-09-23T09:22:31Z</time>
      </trkpt>
      <trkpt lat="47.26186" lon="0.63949">
        <ele>76.2</ele>
        <time>2012-09-23T09:22:33Z</time>
      </trkpt>
      <trkpt lat="47.26181" lon="0.63955">
        <ele>76.2</ele>
        <time>2012-09-23T09:22:35Z</time>
      </trkpt>
      <trkpt lat="47.26177" lon="0.63962">
        <ele>76.2</ele>
        <time>2012-09-23T09:22:37Z</time>
      </trkpt>
      <trkpt lat="47.26171" lon="0.63971">
        <ele>76.2</ele>
        <time>2012-09-23T09:22:40Z</time>
      </trkpt>
      <trkpt lat="47.26165" lon="0.6398">
        <ele>76.2</ele>
        <time>2012-09-23T09:22:43Z</time>
      </trkpt>
      <trkpt lat="47.26159" lon="0.63988">
        <ele>76.4</ele>
        <time>2012-09-23T09:22:46Z</time>
      </trkpt>
      <trkpt lat="47.26152" lon="0.63996">
        <ele>76.5</ele>
        <time>2012-09-23T09:22:49Z</time>
      </trkpt>
      <trkpt lat="47.26146" lon="0.64003">
        <ele>76.7</ele>
        <time>2012-09-23T09:22:52Z</time>
      </trkpt>
      <trkpt lat="47.26141" lon="0.64011">
        <ele>76.8</ele>
        <time>2012-09-23T09:22:55Z</time>
      </trkpt>
      <trkpt lat="47.26134" lon="0.64021">
        <ele>76.9</ele>
        <time>2012-09-23T09:22:58Z</time>
      </trkpt>
      <trkpt lat="47.26129" lon="0.6403">
        <ele>77</ele>
        <time>2012-09-23T09:23:01Z</time>
      </trkpt>
      <trkpt lat="47.26123" lon="0.64039">
        <ele>77</ele>
        <time>2012-09-23T09:23:04Z</time>
      </trkpt>
      <trkpt lat="47.26117" lon="0.64048">
        <ele>77.1</ele>
        <time>2012-09-23T09:23:07Z</time>
      </trkpt>
      <trkpt lat="47.26112" lon="0.64057">
        <ele>77</ele>
        <time>2012-09-23T09:23:10Z</time>
      </trkpt>
      <trkpt lat="47.26107" lon="0.64066">
        <ele>77</ele>
        <time>2012-09-23T09:23:13Z</time>
      </trkpt>
      <trkpt lat="47.26103" lon="0.64074">
        <ele>76.9</ele>
        <time>2012-09-23T09:23:16Z</time>
      </trkpt>
      <trkpt lat="47.26098" lon="0.64083">
        <ele>76.8</ele>
        <time>2012-09-23T09:23:19Z</time>
      </trkpt>
      <trkpt lat="47.26092" lon="0.64092">
        <ele>77</ele>
        <time>2012-09-23T09:23:22Z</time>
      </trkpt>
      <trkpt lat="47.26087" lon="0.64102">
        <ele>77.2</ele>
        <time>2012-09-23T09:23:25Z</time>
      </trkpt>
      <trkpt lat="47.26086" lon="0.64104">
        <ele>77.2</ele>
        <time>2012-09-23T09:23:26Z</time>
      </trkpt>
      <trkpt lat="47.26078" lon="0.64121">
        <ele>77.6</ele>
        <time>2012-09-23T09:23:32Z</time>
      </trkpt>
      <trkpt lat="47.26073" lon="0.64129">
        <ele>77.8</ele>
        <time>2012-09-23T09:23:35Z</time>
      </trkpt>
      <trkpt lat="47.26069" lon="0.64139">
        <ele>78</ele>
        <time>2012-09-23T09:23:38Z</time>
      </trkpt>
      <trkpt lat="47.26064" lon="0.64147">
        <ele>78.2</ele>
        <time>2012-09-23T09:23:41Z</time>
      </trkpt>
      <trkpt lat="47.26059" lon="0.64156">
        <ele>78.4</ele>
        <time>2012-09-23T09:23:44Z</time>
      </trkpt>
      <trkpt lat="47.26055" lon="0.64165">
        <ele>78.6</ele>
        <time>2012-09-23T09:23:47Z</time>
      </trkpt>
      <trkpt lat="47.2605" lon="0.64175">
        <ele>78.8</ele>
        <time>2012-09-23T09:23:50Z</time>
      </trkpt>
      <trkpt lat="47.26046" lon="0.64184">
        <ele>79</ele>
        <time>2012-09-23T09:23:53Z</time>
      </trkpt>
      <trkpt lat="47.26041" lon="0.64193">
        <ele>79.1</ele>
        <time>2012-09-23T09:23:56Z</time>
      </trkpt>
      <trkpt lat="47.26036" lon="0.64201">
        <ele>79.3</ele>
        <time>2012-09-23T09:23:59Z</time>
      </trkpt>
      <trkpt lat="47.26032" lon="0.64208">
        <ele>79.4</ele>
        <time>2012-09-23T09:24:01Z</time>
      </trkpt>
      <trkpt lat="47.26028" lon="0.64215">
        <ele>79.5</ele>
        <time>2012-09-23T09:24:03Z</time>
      </trkpt>
      <trkpt lat="47.26023" lon="0.64222">
        <ele>79.6</ele>
        <time>2012-09-23T09:24:05Z</time>
      </trkpt>
      <trkpt lat="47.26018" lon="0.64232">
        <ele>79.7</ele>
        <time>2012-09-23T09:24:08Z</time>
      </trkpt>
      <trkpt lat="47.26013" lon="0.64241">
        <ele>79.8</ele>
        <time>2012-09-23T09:24:11Z</time>
      </trkpt>
      <trkpt lat="47.26008" lon="0.6425">
        <ele>79.8</ele>
        <time>2012-09-23T09:24:14Z</time>
      </trkpt>
      <trkpt lat="47.26004" lon="0.6426">
        <ele>80.1</ele>
        <time>2012-09-23T09:24:17Z</time>
      </trkpt>
      <trkpt lat="47.26001" lon="0.64269">
        <ele>80.4</ele>
        <time>2012-09-23T09:24:20Z</time>
      </trkpt>
      <trkpt lat="47.25999" lon="0.64282">
        <ele>80.7</ele>
        <time>2012-09-23T09:24:24Z</time>
      </trkpt>
      <trkpt lat="47.25997" lon="0.64295">
        <ele>81</ele>
        <time>2012-09-23T09:24:28Z</time>
      </trkpt>
      <trkpt lat="47.25997" lon="0.64298">
        <ele>81.1</ele>
        <time>2012-09-23T09:24:29Z</time>
      </trkpt>
      <trkpt lat="47.25993" lon="0.64318">
        <ele>81.6</ele>
        <time>2012-09-23T09:24:35Z</time>
      </trkpt>
      <trkpt lat="47.25991" lon="0.64329">
        <ele>81.8</ele>
        <time>2012-09-23T09:24:38Z</time>
      </trkpt>
      <trkpt lat="47.25989" lon="0.64339">
        <ele>81.9</ele>
        <time>2012-09-23T09:24:41Z</time>
      </trkpt>
      <trkpt lat="47.25986" lon="0.64351">
        <ele>81.9</ele>
        <time>2012-09-23T09:24:45Z</time>
      </trkpt>
      <trkpt lat="47.25983" lon="0.6436">
        <ele>81.8</ele>
        <time>2012-09-23T09:24:48Z</time>
      </trkpt>
      <trkpt lat="47.2598" lon="0.64372">
        <ele>81.7</ele>
        <time>2012-09-23T09:24:51Z</time>
      </trkpt>
      <trkpt lat="47.25976" lon="0.64382">
        <ele>81.6</ele>
        <time>2012-09-23T09:24:54Z</time>
      </trkpt>
      <trkpt lat="47.25973" lon="0.64392">
        <ele>81.5</ele>
        <time>2012-09-23T09:24:57Z</time>
      </trkpt>
      <trkpt lat="47.25969" lon="0.64402">
        <ele>81.3</ele>
        <time>2012-09-23T09:25:00Z</time>
      </trkpt>
      <trkpt lat="47.25965" lon="0.64413">
        <ele>81.2</ele>
        <time>2012-09-23T09:25:03Z</time>
      </trkpt>
      <trkpt lat="47.25962" lon="0.64422">
        <ele>81</ele>
        <time>2012-09-23T09:25:06Z</time>
      </trkpt>
      <trkpt lat="47.25957" lon="0.64432">
        <ele>80.8</ele>
        <time>2012-09-23T09:25:09Z</time>
      </trkpt>
      <trkpt lat="47.25953" lon="0.64442">
        <ele>80.6</ele>
        <time>2012-09-23T09:25:12Z</time>
      </trkpt>
      <trkpt lat="47.2595" lon="0.64451">
        <ele>80.4</ele>
        <time>2012-09-23T09:25:14Z</time>
      </trkpt>
      <trkpt lat="47.25946" lon="0.64458">
        <ele>80.2</ele>
        <time>2012-09-23T09:25:16Z</time>
      </trkpt>
      <trkpt lat="47.25942" lon="0.64466">
        <ele>79.9</ele>
        <time>2012-09-23T09:25:18Z</time>
      </trkpt>
      <trkpt lat="47.25939" lon="0.64474">
        <ele>79.6</ele>
        <time>2012-09-23T09:25:20Z</time>
      </trkpt>
      <trkpt lat="47.25935" lon="0.64481">
        <ele>79.3</ele>
        <time>2012-09-23T09:25:22Z</time>
      </trkpt>
      <trkpt lat="47.25929" lon="0.64492">
        <ele>78.9</ele>
        <time>2012-09-23T09:25:25Z</time>
      </trkpt>
      <trkpt lat="47.25924" lon="0.64502">
        <ele>78.4</ele>
        <time>2012-09-23T09:25:28Z</time>
      </trkpt>
      <trkpt lat="47.2592" lon="0.64511">
        <ele>78.3</ele>
        <time>2012-09-23T09:25:30Z</time>
      </trkpt>
      <trkpt lat="47.25918" lon="0.64515">
        <ele>78.2</ele>
        <time>2012-09-23T09:25:31Z</time>
      </trkpt>
      <trkpt lat="47.25914" lon="0.64527">
        <ele>78.4</ele>
        <time>2012-09-23T09:25:34Z</time>
      </trkpt>
      <trkpt lat="47.25912" lon="0.64535">
        <ele>78.5</ele>
        <time>2012-09-23T09:25:36Z</time>
      </trkpt>
      <trkpt lat="47.25909" lon="0.64544">
        <ele>78.7</ele>
        <time>2012-09-23T09:25:38Z</time>
      </trkpt>
      <trkpt lat="47.25907" lon="0.64554">
        <ele>78.9</ele>
        <time>2012-09-23T09:25:40Z</time>
      </trkpt>
      <trkpt lat="47.25904" lon="0.64563">
        <ele>79</ele>
        <time>2012-09-23T09:25:42Z</time>
      </trkpt>
      <trkpt lat="47.25902" lon="0.64572">
        <ele>79.2</ele>
        <time>2012-09-23T09:25:44Z</time>
      </trkpt>
      <trkpt lat="47.259" lon="0.64581">
        <ele>79.3</ele>
        <time>2012-09-23T09:25:46Z</time>
      </trkpt>
      <trkpt lat="47.25898" lon="0.6459">
        <ele>79.4</ele>
        <time>2012-09-23T09:25:48Z</time>
      </trkpt>
      <trkpt lat="47.25895" lon="0.64599">
        <ele>79.3</ele>
        <time>2012-09-23T09:25:50Z</time>
      </trkpt>
      <trkpt lat="47.25893" lon="0.64608">
        <ele>79.3</ele>
        <time>2012-09-23T09:25:52Z</time>
      </trkpt>
      <trkpt lat="47.2589" lon="0.64619">
        <ele>79.3</ele>
        <time>2012-09-23T09:25:55Z</time>
      </trkpt>
      <trkpt lat="47.25887" lon="0.6463">
        <ele>79.3</ele>
        <time>2012-09-23T09:25:58Z</time>
      </trkpt>
      <trkpt lat="47.25884" lon="0.64639">
        <ele>79.3</ele>
        <time>2012-09-23T09:26:00Z</time>
      </trkpt>
      <trkpt lat="47.25882" lon="0.64648">
        <ele>79.3</ele>
        <time>2012-09-23T09:26:02Z</time>
      </trkpt>
      <trkpt lat="47.25879" lon="0.64657">
        <ele>79.4</ele>
        <time>2012-09-23T09:26:04Z</time>
      </trkpt>
      <trkpt lat="47.25877" lon="0.64665">
        <ele>79.4</ele>
        <time>2012-09-23T09:26:06Z</time>
      </trkpt>
      <trkpt lat="47.25874" lon="0.64674">
        <ele>79.6</ele>
        <time>2012-09-23T09:26:08Z</time>
      </trkpt>
      <trkpt lat="47.25873" lon="0.64683">
        <ele>79.8</ele>
        <time>2012-09-23T09:26:10Z</time>
      </trkpt>
      <trkpt lat="47.25871" lon="0.64692">
        <ele>80</ele>
        <time>2012-09-23T09:26:12Z</time>
      </trkpt>
      <trkpt lat="47.2587" lon="0.64701">
        <ele>80.2</ele>
        <time>2012-09-23T09:26:14Z</time>
      </trkpt>
      <trkpt lat="47.2587" lon="0.6471">
        <ele>80.4</ele>
        <time>2012-09-23T09:26:16Z</time>
      </trkpt>
      <trkpt lat="47.2587" lon="0.64721">
        <ele>80.6</ele>
        <time>2012-09-23T09:26:19Z</time>
      </trkpt>
      <trkpt lat="47.25869" lon="0.64733">
        <ele>80.8</ele>
        <time>2012-09-23T09:26:22Z</time>
      </trkpt>
      <trkpt lat="47.25869" lon="0.64744">
        <ele>81</ele>
        <time>2012-09-23T09:26:25Z</time>
      </trkpt>
      <trkpt lat="47.26083" lon="0.64775">
        <ele>87.9</ele>
        <time>2012-09-23T09:27:23Z</time>
      </trkpt>
      <trkpt lat="47.26088" lon="0.64781">
        <ele>88</ele>
        <time>2012-09-23T09:27:25Z</time>
      </trkpt>
      <trkpt lat="47.26094" lon="0.6479">
        <ele>88.1</ele>
        <time>2012-09-23T09:27:27Z</time>
      </trkpt>
      <trkpt lat="47.26097" lon="0.64796">
        <ele>88.2</ele>
        <time>2012-09-23T09:27:28Z</time>
      </trkpt>
      <trkpt lat="47.261" lon="0.64803">
        <ele>88.3</ele>
        <time>2012-09-23T09:27:29Z</time>
      </trkpt>
      <trkpt lat="47.26104" lon="0.64814">
        <ele>88.5</ele>
        <time>2012-09-23T09:27:31Z</time>
      </trkpt>
      <trkpt lat="47.26108" lon="0.64825">
        <ele>88.8</ele>
        <time>2012-09-23T09:27:33Z</time>
      </trkpt>
      <trkpt lat="47.26111" lon="0.64831">
        <ele>88.9</ele>
        <time>2012-09-23T09:27:34Z</time>
      </trkpt>
      <trkpt lat="47.26115" lon="0.64836">
        <ele>89</ele>
        <time>2012-09-23T09:27:35Z</time>
      </trkpt>
      <trkpt lat="47.26117" lon="0.64842">
        <ele>88.9</ele>
        <time>2012-09-23T09:27:36Z</time>
      </trkpt>
      <trkpt lat="47.2612" lon="0.64848">
        <ele>88.7</ele>
        <time>2012-09-23T09:27:37Z</time>
      </trkpt>
      <trkpt lat="47.26122" lon="0.64854">
        <ele>88.6</ele>
        <time>2012-09-23T09:27:38Z</time>
      </trkpt>
      <trkpt lat="47.26125" lon="0.64859">
        <ele>88.6</ele>
        <time>2012-09-23T09:27:39Z</time>
      </trkpt>
      <trkpt lat="47.26128" lon="0.64865">
        <ele>88.5</ele>
        <time>2012-09-23T09:27:40Z</time>
      </trkpt>
      <trkpt lat="47.26132" lon="0.64875">
        <ele>88.3</ele>
        <time>2012-09-23T09:27:42Z</time>
      </trkpt>
      <trkpt lat="47.26135" lon="0.64881">
        <ele>88.3</ele>
        <time>2012-09-23T09:27:43Z</time>
      </trkpt>
      <trkpt lat="47.26138" lon="0.64887">
        <ele>88.2</ele>
        <time>2012-09-23T09:27:44Z</time>
      </trkpt>
      <trkpt lat="47.26141" lon="0.64893">
        <ele>88.2</ele>
        <time>2012-09-23T09:27:45Z</time>
      </trkpt>
      <trkpt lat="47.26143" lon="0.64899">
        <ele>88.1</ele>
        <time>2012-09-23T09:27:46Z</time>
      </trkpt>
      <trkpt lat="47.26146" lon="0.64904">
        <ele>88.1</ele>
        <time>2012-09-23T09:27:47Z</time>
      </trkpt>
      <trkpt lat="47.2615" lon="0.64909">
        <ele>88.2</ele>
        <time>2012-09-23T09:27:48Z</time>
      </trkpt>
      <trkpt lat="47.26157" lon="0.64916">
        <ele>88.4</ele>
        <time>2012-09-23T09:27:50Z</time>
      </trkpt>
      <trkpt lat="47.26164" lon="0.64921">
        <ele>88.5</ele>
        <time>2012-09-23T09:27:52Z</time>
      </trkpt>
      <trkpt lat="47.26171" lon="0.64924">
        <ele>88.3</ele>
        <time>2012-09-23T09:27:54Z</time>
      </trkpt>
      <trkpt lat="47.26178" lon="0.64926">
        <ele>88.3</ele>
        <time>2012-09-23T09:27:56Z</time>
      </trkpt>
      <trkpt lat="47.26185" lon="0.64928">
        <ele>88.3</ele>
        <time>2012-09-23T09:27:58Z</time>
      </trkpt>
      <trkpt lat="47.26192" lon="0.64929">
        <ele>88.3</ele>
        <time>2012-09-23T09:28:00Z</time>
      </trkpt>
      <trkpt lat="47.26199" lon="0.6493">
        <ele>88.3</ele>
        <time>2012-09-23T09:28:02Z</time>
      </trkpt>
      <trkpt lat="47.26206" lon="0.64931">
        <ele>88.3</ele>
        <time>2012-09-23T09:28:04Z</time>
      </trkpt>
      <trkpt lat="47.26213" lon="0.64933">
        <ele>88.3</ele>
        <time>2012-09-23T09:28:06Z</time>
      </trkpt>
      <trkpt lat="47.2622" lon="0.64936">
        <ele>88.2</ele>
        <time>2012-09-23T09:28:08Z</time>
      </trkpt>
      <trkpt lat="47.26226" lon="0.64938">
        <ele>88.1</ele>
        <time>2012-09-23T09:28:10Z</time>
      </trkpt>
      <trkpt lat="47.26233" lon="0.6494">
        <ele>88.1</ele>
        <time>2012-09-23T09:28:12Z</time>
      </trkpt>
      <trkpt lat="47.26239" lon="0.64941">
        <ele>88</ele>
        <time>2012-09-23T09:28:14Z</time>
      </trkpt>
      <trkpt lat="47.26247" lon="0.64943">
        <ele>88</ele>
        <time>2012-09-23T09:28:16Z</time>
      </trkpt>
      <trkpt lat="47.26254" lon="0.64946">
        <ele>87.9</ele>
        <time>2012-09-23T09:28:18Z</time>
      </trkpt>
      <trkpt lat="47.26261" lon="0.64948">
        <ele>87.9</ele>
        <time>2012-09-23T09:28:20Z</time>
      </trkpt>
      <trkpt lat="47.26269" lon="0.6495">
        <ele>87.9</ele>
        <time>2012-09-23T09:28:22Z</time>
      </trkpt>
      <trkpt lat="47.26277" lon="0.64952">
        <ele>87.8</ele>
        <time>2012-09-23T09:28:24Z</time>
      </trkpt>
      <trkpt lat="47.26284" lon="0.64954">
        <ele>87.9</ele>
        <time>2012-09-23T09:28:26Z</time>
      </trkpt>
      <trkpt lat="47.26292" lon="0.64956">
        <ele>87.8</ele>
        <time>2012-09-23T09:28:28Z</time>
      </trkpt>
      <trkpt lat="47.26299" lon="0.64958">
        <ele>87.9</ele>
        <time>2012-09-23T09:28:30Z</time>
      </trkpt>
      <trkpt lat="47.26307" lon="0.6496">
        <ele>87.9</ele>
        <time>2012-09-23T09:28:32Z</time>
      </trkpt>
      <trkpt lat="47.26315" lon="0.64962">
        <ele>88</ele>
        <time>2012-09-23T09:28:34Z</time>
      </trkpt>
      <trkpt lat="47.26319" lon="0.64963">
        <ele>88</ele>
        <time>2012-09-23T09:28:35Z</time>
      </trkpt>
      <trkpt lat="47.2633" lon="0.64966">
        <ele>88.2</ele>
        <time>2012-09-23T09:28:38Z</time>
      </trkpt>
      <trkpt lat="47.26338" lon="0.64968">
        <ele>88.1</ele>
        <time>2012-09-23T09:28:40Z</time>
      </trkpt>
      <trkpt lat="47.26347" lon="0.6497">
        <ele>88.1</ele>
        <time>2012-09-23T09:28:42Z</time>
      </trkpt>
      <trkpt lat="47.26355" lon="0.64972">
        <ele>88.1</ele>
        <time>2012-09-23T09:28:44Z</time>
      </trkpt>
      <trkpt lat="47.26364" lon="0.64975">
        <ele>88</ele>
        <time>2012-09-23T09:28:46Z</time>
      </trkpt>
      <trkpt lat="47.26372" lon="0.64977">
        <ele>88</ele>
        <time>2012-09-23T09:28:48Z</time>
      </trkpt>
      <trkpt lat="47.26381" lon="0.64979">
        <ele>88</ele>
        <time>2012-09-23T09:28:50Z</time>
      </trkpt>
      <trkpt lat="47.26389" lon="0.64981">
        <ele>88</ele>
        <time>2012-09-23T09:28:52Z</time>
      </trkpt>
      <trkpt lat="47.26398" lon="0.64983">
        <ele>88</ele>
        <time>2012-09-23T09:28:54Z</time>
      </trkpt>
      <trkpt lat="47.26406" lon="0.64985">
        <ele>88.1</ele>
        <time>2012-09-23T09:28:56Z</time>
      </trkpt>
      <trkpt lat="47.26414" lon="0.64987">
        <ele>88.1</ele>
        <time>2012-09-23T09:28:58Z</time>
      </trkpt>
      <trkpt lat="47.26422" lon="0.64988">
        <ele>88.1</ele>
        <time>2012-09-23T09:29:00Z</time>
      </trkpt>
      <trkpt lat="47.2643" lon="0.6499">
        <ele>88.2</ele>
        <time>2012-09-23T09:29:02Z</time>
      </trkpt>
      <trkpt lat="47.26438" lon="0.64992">
        <ele>88.2</ele>
        <time>2012-09-23T09:29:04Z</time>
      </trkpt>
      <trkpt lat="47.26446" lon="0.64993">
        <ele>88.3</ele>
        <time>2012-09-23T09:29:06Z</time>
      </trkpt>
      <trkpt lat="47.26455" lon="0.64994">
        <ele>88.4</ele>
        <time>2012-09-23T09:29:08Z</time>
      </trkpt>
      <trkpt lat="47.26459" lon="0.64995">
        <ele>88.4</ele>
        <time>2012-09-23T09:29:09Z</time>
      </trkpt>
      <trkpt lat="47.26468" lon="0.64995">
        <ele>88.5</ele>
        <time>2012-09-23T09:29:11Z</time>
      </trkpt>
      <trkpt lat="47.26475" lon="0.64993">
        <ele>88.5</ele>
        <time>2012-09-23T09:29:13Z</time>
      </trkpt>
      <trkpt lat="47.26482" lon="0.64989">
        <ele>88.5</ele>
        <time>2012-09-23T09:29:16Z</time>
      </trkpt>
      <trkpt lat="47.26487" lon="0.64998">
        <ele>88.7</ele>
        <time>2012-09-23T09:29:21Z</time>
      </trkpt>
      <trkpt lat="47.26426" lon="0.65299">
        <ele>84.6</ele>
        <time>2012-09-23T09:30:09Z</time>
      </trkpt>
      <trkpt lat="47.26433" lon="0.65305">
        <ele>84.7</ele>
        <time>2012-09-23T09:30:11Z</time>
      </trkpt>
      <trkpt lat="47.26439" lon="0.65308">
        <ele>84.9</ele>
        <time>2012-09-23T09:30:13Z</time>
      </trkpt>
      <trkpt lat="47.26445" lon="0.65311">
        <ele>85.1</ele>
        <time>2012-09-23T09:30:15Z</time>
      </trkpt>
      <trkpt lat="47.26452" lon="0.65314">
        <ele>85.3</ele>
        <time>2012-09-23T09:30:18Z</time>
      </trkpt>
      <trkpt lat="47.2646" lon="0.65318">
        <ele>85.5</ele>
        <time>2012-09-23T09:30:21Z</time>
      </trkpt>
      <trkpt lat="47.26466" lon="0.65321">
        <ele>85.7</ele>
        <time>2012-09-23T09:30:23Z</time>
      </trkpt>
      <trkpt lat="47.26474" lon="0.65324">
        <ele>86</ele>
        <time>2012-09-23T09:30:26Z</time>
      </trkpt>
      <trkpt lat="47.26482" lon="0.65328">
        <ele>86.3</ele>
        <time>2012-09-23T09:30:29Z</time>
      </trkpt>
      <trkpt lat="47.2649" lon="0.65333">
        <ele>86.6</ele>
        <time>2012-09-23T09:30:32Z</time>
      </trkpt>
      <trkpt lat="47.26499" lon="0.65336">
        <ele>87</ele>
        <time>2012-09-23T09:30:36Z</time>
      </trkpt>
      <trkpt lat="47.26507" lon="0.6534">
        <ele>87.7</ele>
        <time>2012-09-23T09:30:39Z</time>
      </trkpt>
      <trkpt lat="47.26508" lon="0.6534">
        <ele>87.7</ele>
        <time>2012-09-23T09:30:40Z</time>
      </trkpt>
      <trkpt lat="47.2652" lon="0.65346">
        <ele>88.7</ele>
        <time>2012-09-23T09:30:44Z</time>
      </trkpt>
      <trkpt lat="47.26529" lon="0.65349">
        <ele>89.4</ele>
        <time>2012-09-23T09:30:47Z</time>
      </trkpt>
      <trkpt lat="47.26535" lon="0.65351">
        <ele>89.8</ele>
        <time>2012-09-23T09:30:50Z</time>
      </trkpt>
      <trkpt lat="47.26542" lon="0.65354">
        <ele>90.3</ele>
        <time>2012-09-23T09:30:52Z</time>
      </trkpt>
      <trkpt lat="47.26548" lon="0.65357">
        <ele>90.8</ele>
        <time>2012-09-23T09:30:54Z</time>
      </trkpt>
      <trkpt lat="47.26556" lon="0.65362">
        <ele>91.4</ele>
        <time>2012-09-23T09:30:57Z</time>
      </trkpt>
      <trkpt lat="47.26564" lon="0.65365">
        <ele>92</ele>
        <time>2012-09-23T09:31:00Z</time>
      </trkpt>
      <trkpt lat="47.26571" lon="0.65367">
        <ele>92.5</ele>
        <time>2012-09-23T09:31:02Z</time>
      </trkpt>
      <trkpt lat="47.26578" lon="0.6537">
        <ele>93</ele>
        <time>2012-09-23T09:31:04Z</time>
      </trkpt>
      <trkpt lat="47.26584" lon="0.65373">
        <ele>93.4</ele>
        <time>2012-09-23T09:31:06Z</time>
      </trkpt>
      <trkpt lat="47.2659" lon="0.65376">
        <ele>93.8</ele>
        <time>2012-09-23T09:31:08Z</time>
      </trkpt>
      <trkpt lat="47.26598" lon="0.65379">
        <ele>94.3</ele>
        <time>2012-09-23T09:31:11Z</time>
      </trkpt>
      <trkpt lat="47.26604" lon="0.65382">
        <ele>94.7</ele>
        <time>2012-09-23T09:31:13Z</time>
      </trkpt>
      <trkpt lat="47.26611" lon="0.65384">
        <ele>95.2</ele>
        <time>2012-09-23T09:31:15Z</time>
      </trkpt>
      <trkpt lat="47.26618" lon="0.65387">
        <ele>95.6</ele>
        <time>2012-09-23T09:31:17Z</time>
      </trkpt>
      <trkpt lat="47.26625" lon="0.6539">
        <ele>95.9</ele>
        <time>2012-09-23T09:31:19Z</time>
      </trkpt>
      <trkpt lat="47.26632" lon="0.65393">
        <ele>96.3</ele>
        <time>2012-09-23T09:31:21Z</time>
      </trkpt>
      <trkpt lat="47.26638" lon="0.65395">
        <ele>96.6</ele>
        <time>2012-09-23T09:31:23Z</time>
      </trkpt>
      <trkpt lat="47.26644" lon="0.65397">
        <ele>96.9</ele>
        <time>2012-09-23T09:31:25Z</time>
      </trkpt>
      <trkpt lat="47.2665" lon="0.654">
        <ele>97.2</ele>
        <time>2012-09-23T09:31:27Z</time>
      </trkpt>
      <trkpt lat="47.26656" lon="0.65402">
        <ele>97.5</ele>
        <time>2012-09-23T09:31:29Z</time>
      </trkpt>
      <trkpt lat="47.26662" lon="0.65404">
        <ele>97.8</ele>
        <time>2012-09-23T09:31:31Z</time>
      </trkpt>
      <trkpt lat="47.26669" lon="0.65405">
        <ele>97.8</ele>
        <time>2012-09-23T09:31:33Z</time>
      </trkpt>
      <trkpt lat="47.26677" lon="0.65408">
        <ele>97.3</ele>
        <time>2012-09-23T09:31:35Z</time>
      </trkpt>
      <trkpt lat="47.26684" lon="0.65411">
        <ele>96.9</ele>
        <time>2012-09-23T09:31:37Z</time>
      </trkpt>
      <trkpt lat="47.26691" lon="0.65414">
        <ele>96.5</ele>
        <time>2012-09-23T09:31:39Z</time>
      </trkpt>
      <trkpt lat="47.26697" lon="0.65417">
        <ele>96.1</ele>
        <time>2012-09-23T09:31:41Z</time>
      </trkpt>
      <trkpt lat="47.26701" lon="0.65419">
        <ele>95.9</ele>
        <time>2012-09-23T09:31:42Z</time>
      </trkpt>
      <trkpt lat="47.2671" lon="0.65424">
        <ele>95.3</ele>
        <time>2012-09-23T09:31:45Z</time>
      </trkpt>
      <trkpt lat="47.26716" lon="0.65428">
        <ele>94.9</ele>
        <time>2012-09-23T09:31:47Z</time>
      </trkpt>
      <trkpt lat="47.26722" lon="0.65432">
        <ele>94.4</ele>
        <time>2012-09-23T09:31:49Z</time>
      </trkpt>
      <trkpt lat="47.26727" lon="0.65435">
        <ele>94</ele>
        <time>2012-09-23T09:31:51Z</time>
      </trkpt>
      <trkpt lat="47.26731" lon="0.65437">
        <ele>93.7</ele>
        <time>2012-09-23T09:31:52Z</time>
      </trkpt>
      <trkpt lat="47.26738" lon="0.65441">
        <ele>93.1</ele>
        <time>2012-09-23T09:31:55Z</time>
      </trkpt>
      <trkpt lat="47.26745" lon="0.65445">
        <ele>92.6</ele>
        <time>2012-09-23T09:31:57Z</time>
      </trkpt>
      <trkpt lat="47.26751" lon="0.65448">
        <ele>92.2</ele>
        <time>2012-09-23T09:31:59Z</time>
      </trkpt>
      <trkpt lat="47.26757" lon="0.65453">
        <ele>91.9</ele>
        <time>2012-09-23T09:32:01Z</time>
      </trkpt>
      <trkpt lat="47.26763" lon="0.65456">
        <ele>91.7</ele>
        <time>2012-09-23T09:32:03Z</time>
      </trkpt>
      <trkpt lat="47.26769" lon="0.6546">
        <ele>91.5</ele>
        <time>2012-09-23T09:32:05Z</time>
      </trkpt>
      <trkpt lat="47.26775" lon="0.65464">
        <ele>91.3</ele>
        <time>2012-09-23T09:32:07Z</time>
      </trkpt>
      <trkpt lat="47.26782" lon="0.65469">
        <ele>91</ele>
        <time>2012-09-23T09:32:09Z</time>
      </trkpt>
      <trkpt lat="47.26787" lon="0.65473">
        <ele>90.9</ele>
        <time>2012-09-23T09:32:11Z</time>
      </trkpt>
      <trkpt lat="47.26795" lon="0.65478">
        <ele>90.7</ele>
        <time>2012-09-23T09:32:14Z</time>
      </trkpt>
      <trkpt lat="47.26802" lon="0.65482">
        <ele>90.5</ele>
        <time>2012-09-23T09:32:16Z</time>
      </trkpt>
      <trkpt lat="47.26808" lon="0.65485">
        <ele>90.4</ele>
        <time>2012-09-23T09:32:18Z</time>
      </trkpt>
      <trkpt lat="47.26815" lon="0.65488">
        <ele>90.2</ele>
        <time>2012-09-23T09:32:20Z</time>
      </trkpt>
      <trkpt lat="47.26823" lon="0.65489">
        <ele>90.1</ele>
        <time>2012-09-23T09:32:22Z</time>
      </trkpt>
      <trkpt lat="47.26829" lon="0.65488">
        <ele>90</ele>
        <time>2012-09-23T09:32:24Z</time>
      </trkpt>
      <trkpt lat="47.26836" lon="0.65486">
        <ele>90</ele>
        <time>2012-09-23T09:32:26Z</time>
      </trkpt>
      <trkpt lat="47.26842" lon="0.65483">
        <ele>90</ele>
        <time>2012-09-23T09:32:28Z</time>
      </trkpt>
      <trkpt lat="47.2685" lon="0.6548">
        <ele>90.1</ele>
        <time>2012-09-23T09:32:30Z</time>
      </trkpt>
      <trkpt lat="47.26857" lon="0.65477">
        <ele>90.2</ele>
        <time>2012-09-23T09:32:32Z</time>
      </trkpt>
      <trkpt lat="47.27089" lon="0.65412">
        <ele>93.9</ele>
        <time>2012-09-23T09:33:39Z</time>
      </trkpt>
      <trkpt lat="47.2709" lon="0.65423">
        <ele>93.6</ele>
        <time>2012-09-23T09:33:59Z</time>
      </trkpt>
      <trkpt lat="47.27091" lon="0.65426">
        <ele>93.4</ele>
        <time>2012-09-23T09:34:00Z</time>
      </trkpt>
      <trkpt lat="47.27094" lon="0.65442">
        <ele>92.6</ele>
        <time>2012-09-23T09:34:05Z</time>
      </trkpt>
      <trkpt lat="47.27095" lon="0.65453">
        <ele>92</ele>
        <time>2012-09-23T09:34:08Z</time>
      </trkpt>
      <trkpt lat="47.27098" lon="0.65465">
        <ele>91.5</ele>
        <time>2012-09-23T09:34:11Z</time>
      </trkpt>
      <trkpt lat="47.27099" lon="0.65474">
        <ele>91.1</ele>
        <time>2012-09-23T09:34:13Z</time>
      </trkpt>
      <trkpt lat="47.27101" lon="0.65486">
        <ele>90.6</ele>
        <time>2012-09-23T09:34:16Z</time>
      </trkpt>
      <trkpt lat="47.27103" lon="0.65494">
        <ele>90.2</ele>
        <time>2012-09-23T09:34:18Z</time>
      </trkpt>
      <trkpt lat="47.27106" lon="0.65504">
        <ele>89.9</ele>
        <time>2012-09-23T09:34:20Z</time>
      </trkpt>
      <trkpt lat="47.27108" lon="0.65512">
        <ele>89.7</ele>
        <time>2012-09-23T09:34:22Z</time>
      </trkpt>
      <trkpt lat="47.2711" lon="0.65523">
        <ele>89.5</ele>
        <time>2012-09-23T09:34:24Z</time>
      </trkpt>
      <trkpt lat="47.27112" lon="0.65533">
        <ele>89.3</ele>
        <time>2012-09-23T09:34:26Z</time>
      </trkpt>
      <trkpt lat="47.27113" lon="0.65541">
        <ele>89.2</ele>
        <time>2012-09-23T09:34:28Z</time>
      </trkpt>
      <trkpt lat="47.27115" lon="0.65552">
        <ele>88.9</ele>
        <time>2012-09-23T09:34:30Z</time>
      </trkpt>
      <trkpt lat="47.27117" lon="0.65564">
        <ele>88.8</ele>
        <time>2012-09-23T09:34:32Z</time>
      </trkpt>
      <trkpt lat="47.27119" lon="0.65573">
        <ele>88.6</ele>
        <time>2012-09-23T09:34:34Z</time>
      </trkpt>
      <trkpt lat="47.27122" lon="0.65585">
        <ele>88.4</ele>
        <time>2012-09-23T09:34:36Z</time>
      </trkpt>
      <trkpt lat="47.27123" lon="0.65595">
        <ele>88.3</ele>
        <time>2012-09-23T09:34:38Z</time>
      </trkpt>
      <trkpt lat="47.27125" lon="0.65605">
        <ele>88.2</ele>
        <time>2012-09-23T09:34:40Z</time>
      </trkpt>
      <trkpt lat="47.27126" lon="0.65615">
        <ele>88.1</ele>
        <time>2012-09-23T09:34:42Z</time>
      </trkpt>
      <trkpt lat="47.27129" lon="0.65626">
        <ele>88</ele>
        <time>2012-09-23T09:34:44Z</time>
      </trkpt>
      <trkpt lat="47.27131" lon="0.65639">
        <ele>87.9</ele>
        <time>2012-09-23T09:34:46Z</time>
      </trkpt>
      <trkpt lat="47.27133" lon="0.65651">
        <ele>87.8</ele>
        <time>2012-09-23T09:34:48Z</time>
      </trkpt>
      <trkpt lat="47.27134" lon="0.65657">
        <ele>87.7</ele>
        <time>2012-09-23T09:34:49Z</time>
      </trkpt>
      <trkpt lat="47.27136" lon="0.65668">
        <ele>87.6</ele>
        <time>2012-09-23T09:34:51Z</time>
      </trkpt>
      <trkpt lat="47.27139" lon="0.65675">
        <ele>87.7</ele>
        <time>2012-09-23T09:34:53Z</time>
      </trkpt>
      <trkpt lat="47.27141" lon="0.65687">
        <ele>88</ele>
        <time>2012-09-23T09:34:55Z</time>
      </trkpt>
      <trkpt lat="47.27143" lon="0.65698">
        <ele>88.2</ele>
        <time>2012-09-23T09:34:57Z</time>
      </trkpt>
      <trkpt lat="47.27145" lon="0.65708">
        <ele>88.3</ele>
        <time>2012-09-23T09:34:59Z</time>
      </trkpt>
      <trkpt lat="47.27147" lon="0.65717">
        <ele>88.4</ele>
        <time>2012-09-23T09:35:01Z</time>
      </trkpt>
      <trkpt lat="47.27148" lon="0.65721">
        <ele>88.5</ele>
        <time>2012-09-23T09:35:02Z</time>
      </trkpt>
      <trkpt lat="47.27152" lon="0.6574">
        <ele>88.8</ele>
        <time>2012-09-23T09:35:07Z</time>
      </trkpt>
      <trkpt lat="47.27155" lon="0.65753">
        <ele>89</ele>
        <time>2012-09-23T09:35:10Z</time>
      </trkpt>
      <trkpt lat="47.27157" lon="0.65762">
        <ele>89.1</ele>
        <time>2012-09-23T09:35:12Z</time>
      </trkpt>
      <trkpt lat="47.27158" lon="0.6577">
        <ele>89.2</ele>
        <time>2012-09-23T09:35:14Z</time>
      </trkpt>
      <trkpt lat="47.27161" lon="0.65783">
        <ele>89.3</ele>
        <time>2012-09-23T09:35:17Z</time>
      </trkpt>
      <trkpt lat="47.27176" lon="0.65777">
        <ele>89.5</ele>
        <time>2012-09-23T09:35:24Z</time>
      </trkpt>
      <trkpt lat="47.27181" lon="0.65768">
        <ele>89.5</ele>
        <time>2012-09-23T09:35:26Z</time>
      </trkpt>
      <trkpt lat="47.27186" lon="0.65761">
        <ele>89.5</ele>
        <time>2012-09-23T09:35:28Z</time>
      </trkpt>
      <trkpt lat="47.2719" lon="0.65754">
        <ele>89.5</ele>
        <time>2012-09-23T09:35:30Z</time>
      </trkpt>
      <trkpt lat="47.27195" lon="0.65746">
        <ele>89.6</ele>
        <time>2012-09-23T09:35:32Z</time>
      </trkpt>
      <trkpt lat="47.272" lon="0.6574">
        <ele>89.7</ele>
        <time>2012-09-23T09:35:34Z</time>
      </trkpt>
      <trkpt lat="47.27205" lon="0.65734">
        <ele>89.8</ele>
        <time>2012-09-23T09:35:36Z</time>
      </trkpt>
      <trkpt lat="47.27212" lon="0.65729">
        <ele>89.9</ele>
        <time>2012-09-23T09:35:38Z</time>
      </trkpt>
      <trkpt lat="47.27218" lon="0.65726">
        <ele>90.1</ele>
        <time>2012-09-23T09:35:40Z</time>
      </trkpt>
      <trkpt lat="47.27225" lon="0.65724">
        <ele>90.2</ele>
        <time>2012-09-23T09:35:42Z</time>
      </trkpt>
      <trkpt lat="47.27231" lon="0.65722">
        <ele>90.4</ele>
        <time>2012-09-23T09:35:44Z</time>
      </trkpt>
      <trkpt lat="47.27237" lon="0.65719">
        <ele>90.6</ele>
        <time>2012-09-23T09:35:46Z</time>
      </trkpt>
      <trkpt lat="47.27242" lon="0.65717">
        <ele>90.7</ele>
        <time>2012-09-23T09:35:48Z</time>
      </trkpt>
      <trkpt lat="47.27251" lon="0.65716">
        <ele>91</ele>
        <time>2012-09-23T09:35:51Z</time>
      </trkpt>
      <trkpt lat="47.27257" lon="0.65715">
        <ele>91</ele>
        <time>2012-09-23T09:35:54Z</time>
      </trkpt>
      <trkpt lat="47.27266" lon="0.65715">
        <ele>91</ele>
        <time>2012-09-23T09:35:58Z</time>
      </trkpt>
      <trkpt lat="47.2727" lon="0.65708">
        <ele>91</ele>
        <time>2012-09-23T09:36:03Z</time>
      </trkpt>
      <trkpt lat="47.2727" lon="0.65704">
        <ele>91</ele>
        <time>2012-09-23T09:36:04Z</time>
      </trkpt>
      <trkpt lat="47.2727" lon="0.65689">
        <ele>91</ele>
        <time>2012-09-23T09:36:07Z</time>
      </trkpt>
      <trkpt lat="47.2727" lon="0.65678">
        <ele>91</ele>
        <time>2012-09-23T09:36:09Z</time>
      </trkpt>
      <trkpt lat="47.27269" lon="0.65665">
        <ele>91</ele>
        <time>2012-09-23T09:36:11Z</time>
      </trkpt>
      <trkpt lat="47.27269" lon="0.65659">
        <ele>91.2</ele>
        <time>2012-09-23T09:36:12Z</time>
      </trkpt>
      <trkpt lat="47.27271" lon="0.65646">
        <ele>91.5</ele>
        <time>2012-09-23T09:36:14Z</time>
      </trkpt>
      <trkpt lat="47.27276" lon="0.65638">
        <ele>91.7</ele>
        <time>2012-09-23T09:36:16Z</time>
      </trkpt>
      <trkpt lat="47.27284" lon="0.65633">
        <ele>91.7</ele>
        <time>2012-09-23T09:36:18Z</time>
      </trkpt>
      <trkpt lat="47.27289" lon="0.65631">
        <ele>91.7</ele>
        <time>2012-09-23T09:36:19Z</time>
      </trkpt>
      <trkpt lat="47.27293" lon="0.65629">
        <ele>91.6</ele>
        <time>2012-09-23T09:36:20Z</time>
      </trkpt>
      <trkpt lat="47.27301" lon="0.65624">
        <ele>91.5</ele>
        <time>2012-09-23T09:36:22Z</time>
      </trkpt>
      <trkpt lat="47.2731" lon="0.6562">
        <ele>91.4</ele>
        <time>2012-09-23T09:36:24Z</time>
      </trkpt>
      <trkpt lat="47.27318" lon="0.65617">
        <ele>91.3</ele>
        <time>2012-09-23T09:36:26Z</time>
      </trkpt>
      <trkpt lat="47.27326" lon="0.65615">
        <ele>91.1</ele>
        <time>2012-09-23T09:36:28Z</time>
      </trkpt>
      <trkpt lat="47.2734" lon="0.65617">
        <ele>90.8</ele>
        <time>2012-09-23T09:36:32Z</time>
      </trkpt>
      <trkpt lat="47.27344" lon="0.6561">
        <ele>90.7</ele>
        <time>2012-09-23T09:36:34Z</time>
      </trkpt>
      <trkpt lat="47.27349" lon="0.65603">
        <ele>90.6</ele>
        <time>2012-09-23T09:36:36Z</time>
      </trkpt>
      <trkpt lat="47.2735" lon="0.65593">
        <ele>90.6</ele>
        <time>2012-09-23T09:36:39Z</time>
      </trkpt>
      <trkpt lat="47.2735" lon="0.65583">
        <ele>90.6</ele>
        <time>2012-09-23T09:36:41Z</time>
      </trkpt>
      <trkpt lat="47.27352" lon="0.65572">
        <ele>91</ele>
        <time>2012-09-23T09:36:43Z</time>
      </trkpt>
      <trkpt lat="47.27354" lon="0.65561">
        <ele>91.4</ele>
        <time>2012-09-23T09:36:45Z</time>
      </trkpt>
      <trkpt lat="47.27354" lon="0.6555">
        <ele>91.9</ele>
        <time>2012-09-23T09:36:47Z</time>
      </trkpt>
      <trkpt lat="47.27357" lon="0.65541">
        <ele>92.2</ele>
        <time>2012-09-23T09:36:49Z</time>
      </trkpt>
      <trkpt lat="47.27363" lon="0.65531">
        <ele>92.3</ele>
        <time>2012-09-23T09:36:52Z</time>
      </trkpt>
      <trkpt lat="47.27367" lon="0.65523">
        <ele>92.5</ele>
        <time>2012-09-23T09:36:54Z</time>
      </trkpt>
      <trkpt lat="47.27369" lon="0.65518">
        <ele>92.6</ele>
        <time>2012-09-23T09:36:55Z</time>
      </trkpt>
      <trkpt lat="47.27372" lon="0.65513">
        <ele>92.7</ele>
        <time>2012-09-23T09:36:56Z</time>
      </trkpt>
      <trkpt lat="47.27379" lon="0.65504">
        <ele>92.6</ele>
        <time>2012-09-23T09:36:58Z</time>
      </trkpt>
      <trkpt lat="47.27385" lon="0.65499">
        <ele>92.5</ele>
        <time>2012-09-23T09:37:00Z</time>
      </trkpt>
      <trkpt lat="47.27393" lon="0.65497">
        <ele>92.3</ele>
        <time>2012-09-23T09:37:02Z</time>
      </trkpt>
      <trkpt lat="47.27399" lon="0.65493">
        <ele>92.1</ele>
        <time>2012-09-23T09:37:04Z</time>
      </trkpt>
      <trkpt lat="47.27403" lon="0.6549">
        <ele>92.1</ele>
        <time>2012-09-23T09:37:05Z</time>
      </trkpt>
      <trkpt lat="47.27411" lon="0.65484">
        <ele>92</ele>
        <time>2012-09-23T09:37:07Z</time>
      </trkpt>
      <trkpt lat="47.27418" lon="0.6548">
        <ele>91.9</ele>
        <time>2012-09-23T09:37:09Z</time>
      </trkpt>
      <trkpt lat="47.27424" lon="0.65475">
        <ele>92</ele>
        <time>2012-09-23T09:37:11Z</time>
      </trkpt>
      <trkpt lat="47.27432" lon="0.65472">
        <ele>92</ele>
        <time>2012-09-23T09:37:14Z</time>
      </trkpt>
      <trkpt lat="47.27438" lon="0.65469">
        <ele>91.9</ele>
        <time>2012-09-23T09:37:16Z</time>
      </trkpt>
      <trkpt lat="47.27443" lon="0.65467">
        <ele>91.9</ele>
        <time>2012-09-23T09:37:17Z</time>
      </trkpt>
      <trkpt lat="47.27447" lon="0.65465">
        <ele>91.9</ele>
        <time>2012-09-23T09:37:18Z</time>
      </trkpt>
      <trkpt lat="47.27451" lon="0.65462">
        <ele>91.8</ele>
        <time>2012-09-23T09:37:19Z</time>
      </trkpt>
      <trkpt lat="47.27459" lon="0.65458">
        <ele>91.7</ele>
        <time>2012-09-23T09:37:21Z</time>
      </trkpt>
      <trkpt lat="47.27464" lon="0.65454">
        <ele>91.7</ele>
        <time>2012-09-23T09:37:22Z</time>
      </trkpt>
      <trkpt lat="47.27468" lon="0.65449">
        <ele>91.7</ele>
        <time>2012-09-23T09:37:23Z</time>
      </trkpt>
      <trkpt lat="47.27472" lon="0.65446">
        <ele>91.6</ele>
        <time>2012-09-23T09:37:24Z</time>
      </trkpt>
      <trkpt lat="47.2748" lon="0.65442">
        <ele>91.4</ele>
        <time>2012-09-23T09:37:26Z</time>
      </trkpt>
      <trkpt lat="47.27484" lon="0.6544">
        <ele>91.3</ele>
        <time>2012-09-23T09:37:27Z</time>
      </trkpt>
      <trkpt lat="47.27493" lon="0.65436">
        <ele>91</ele>
        <time>2012-09-23T09:37:29Z</time>
      </trkpt>
      <trkpt lat="47.275" lon="0.65432">
        <ele>90.8</ele>
        <time>2012-09-23T09:37:31Z</time>
      </trkpt>
      <trkpt lat="47.27508" lon="0.65428">
        <ele>90.7</ele>
        <time>2012-09-23T09:37:33Z</time>
      </trkpt>
      <trkpt lat="47.27515" lon="0.65421">
        <ele>90.7</ele>
        <time>2012-09-23T09:37:35Z</time>
      </trkpt>
      <trkpt lat="47.27519" lon="0.65416">
        <ele>90.7</ele>
        <time>2012-09-23T09:37:36Z</time>
      </trkpt>
      <trkpt lat="47.27524" lon="0.6541">
        <ele>90.4</ele>
        <time>2012-09-23T09:37:37Z</time>
      </trkpt>
      <trkpt lat="47.2753" lon="0.65402">
        <ele>89.9</ele>
        <time>2012-09-23T09:37:39Z</time>
      </trkpt>
      <trkpt lat="47.27536" lon="0.65397">
        <ele>89.6</ele>
        <time>2012-09-23T09:37:41Z</time>
      </trkpt>
      <trkpt lat="47.27542" lon="0.65393">
        <ele>89.3</ele>
        <time>2012-09-23T09:37:43Z</time>
      </trkpt>
      <trkpt lat="47.27548" lon="0.65391">
        <ele>89.1</ele>
        <time>2012-09-23T09:37:45Z</time>
      </trkpt>
      <trkpt lat="47.27555" lon="0.65387">
        <ele>88.9</ele>
        <time>2012-09-23T09:37:47Z</time>
      </trkpt>
      <trkpt lat="47.27562" lon="0.65384">
        <ele>88.6</ele>
        <time>2012-09-23T09:37:49Z</time>
      </trkpt>
      <trkpt lat="47.27569" lon="0.65384">
        <ele>88.5</ele>
        <time>2012-09-23T09:37:51Z</time>
      </trkpt>
      <trkpt lat="47.27577" lon="0.65384">
        <ele>88.5</ele>
        <time>2012-09-23T09:37:53Z</time>
      </trkpt>
      <trkpt lat="47.27585" lon="0.65386">
        <ele>88.4</ele>
        <time>2012-09-23T09:37:55Z</time>
      </trkpt>
      <trkpt lat="47.27616" lon="0.65413">
        <ele>88.3</ele>
        <time>2012-09-23T09:38:05Z</time>
      </trkpt>
      <trkpt lat="47.27615" lon="0.65416">
        <ele>88.4</ele>
        <time>2012-09-23T09:38:06Z</time>
      </trkpt>
      <trkpt lat="47.27607" lon="0.65433">
        <ele>88.8</ele>
        <time>2012-09-23T09:38:10Z</time>
      </trkpt>
      <trkpt lat="47.27604" lon="0.65441">
        <ele>89</ele>
        <time>2012-09-23T09:38:12Z</time>
      </trkpt>
      <trkpt lat="47.276" lon="0.65449">
        <ele>89.2</ele>
        <time>2012-09-23T09:38:14Z</time>
      </trkpt>
      <trkpt lat="47.27595" lon="0.65459">
        <ele>89.4</ele>
        <time>2012-09-23T09:38:16Z</time>
      </trkpt>
      <trkpt lat="47.27591" lon="0.65469">
        <ele>89.6</ele>
        <time>2012-09-23T09:38:18Z</time>
      </trkpt>
      <trkpt lat="47.27588" lon="0.65478">
        <ele>89.8</ele>
        <time>2012-09-23T09:38:20Z</time>
      </trkpt>
      <trkpt lat="47.27583" lon="0.65489">
        <ele>90</ele>
        <time>2012-09-23T09:38:22Z</time>
      </trkpt>
      <trkpt lat="47.27579" lon="0.65498">
        <ele>90</ele>
        <time>2012-09-23T09:38:24Z</time>
      </trkpt>
      <trkpt lat="47.27576" lon="0.65506">
        <ele>89.9</ele>
        <time>2012-09-23T09:38:26Z</time>
      </trkpt>
      <trkpt lat="47.27571" lon="0.65516">
        <ele>89.9</ele>
        <time>2012-09-23T09:38:28Z</time>
      </trkpt>
      <trkpt lat="47.27566" lon="0.65526">
        <ele>89.9</ele>
        <time>2012-09-23T09:38:30Z</time>
      </trkpt>
      <trkpt lat="47.27561" lon="0.65537">
        <ele>89.8</ele>
        <time>2012-09-23T09:38:32Z</time>
      </trkpt>
      <trkpt lat="47.27558" lon="0.65542">
        <ele>89.8</ele>
        <time>2012-09-23T09:38:33Z</time>
      </trkpt>
      <trkpt lat="47.27553" lon="0.65553">
        <ele>89.7</ele>
        <time>2012-09-23T09:38:35Z</time>
      </trkpt>
      <trkpt lat="47.27549" lon="0.65563">
        <ele>89.6</ele>
        <time>2012-09-23T09:38:37Z</time>
      </trkpt>
      <trkpt lat="47.27546" lon="0.65569">
        <ele>89.6</ele>
        <time>2012-09-23T09:38:38Z</time>
      </trkpt>
      <trkpt lat="47.27543" lon="0.65575">
        <ele>89.5</ele>
        <time>2012-09-23T09:38:39Z</time>
      </trkpt>
      <trkpt lat="47.2754" lon="0.65586">
        <ele>89.4</ele>
        <time>2012-09-23T09:38:41Z</time>
      </trkpt>
      <trkpt lat="47.27536" lon="0.65596">
        <ele>89.2</ele>
        <time>2012-09-23T09:38:43Z</time>
      </trkpt>
      <trkpt lat="47.27533" lon="0.65604">
        <ele>89.1</ele>
        <time>2012-09-23T09:38:45Z</time>
      </trkpt>
      <trkpt lat="47.2753" lon="0.65614">
        <ele>89</ele>
        <time>2012-09-23T09:38:47Z</time>
      </trkpt>
      <trkpt lat="47.27526" lon="0.65624">
        <ele>88.8</ele>
        <time>2012-09-23T09:38:49Z</time>
      </trkpt>
      <trkpt lat="47.27523" lon="0.65632">
        <ele>88.6</ele>
        <time>2012-09-23T09:38:51Z</time>
      </trkpt>
      <trkpt lat="47.27518" lon="0.65641">
        <ele>88.5</ele>
        <time>2012-09-23T09:38:53Z</time>
      </trkpt>
      <trkpt lat="47.27513" lon="0.6565">
        <ele>88.3</ele>
        <time>2012-09-23T09:38:55Z</time>
      </trkpt>
      <trkpt lat="47.27509" lon="0.6566">
        <ele>88.1</ele>
        <time>2012-09-23T09:38:57Z</time>
      </trkpt>
      <trkpt lat="47.27506" lon="0.65668">
        <ele>88</ele>
        <time>2012-09-23T09:38:59Z</time>
      </trkpt>
      <trkpt lat="47.27502" lon="0.6568">
        <ele>88</ele>
        <time>2012-09-23T09:39:02Z</time>
      </trkpt>
      <trkpt lat="47.27499" lon="0.65689">
        <ele>88</ele>
        <time>2012-09-23T09:39:05Z</time>
      </trkpt>
      <trkpt lat="47.27496" lon="0.65701">
        <ele>88</ele>
        <time>2012-09-23T09:39:09Z</time>
      </trkpt>
      <trkpt lat="47.27495" lon="0.65704">
        <ele>88</ele>
        <time>2012-09-23T09:39:10Z</time>
      </trkpt>
      <trkpt lat="47.27491" lon="0.65725">
        <ele>88</ele>
        <time>2012-09-23T09:39:17Z</time>
      </trkpt>
      <trkpt lat="47.27489" lon="0.65735">
        <ele>88</ele>
        <time>2012-09-23T09:39:20Z</time>
      </trkpt>
      <trkpt lat="47.27487" lon="0.65746">
        <ele>88</ele>
        <time>2012-09-23T09:39:23Z</time>
      </trkpt>
      <trkpt lat="47.27481" lon="0.65756">
        <ele>87.9</ele>
        <time>2012-09-23T09:39:26Z</time>
      </trkpt>
      <trkpt lat="47.27476" lon="0.65763">
        <ele>87.7</ele>
        <time>2012-09-23T09:39:28Z</time>
      </trkpt>
      <trkpt lat="47.27471" lon="0.6577">
        <ele>87.6</ele>
        <time>2012-09-23T09:39:30Z</time>
      </trkpt>
      <trkpt lat="47.27471" lon="0.65782">
        <ele>87.5</ele>
        <time>2012-09-23T09:39:35Z</time>
      </trkpt>
    </trkseg>
  </trk>
</gpx>